<?xml version="1.0"?>
<gpx
 version="1.1"
 creator="Satmap Active 20"
 xmlns:xsi="http://www.w3.org/2001/XMLSchema-instance"
 xmlns="http://www.topografix.com/GPX/1/1"
 xmlns:satmap="http://www.satmap.com/updates/xmlschemas/GpxExtensions/v2/GpxExtensions_v2.xsd"
 xsi:schemaLocation="http://www.topografix.com/GPX/1/1 http://www.topografix.com/GPX/1/1/gpx.xsd">
<metadata>
<time>2023-10-27T09:24:39Z</time>
<extensions>
<satmap:platform>43</satmap:platform>
<satmap:software version="3.12.831">SM15.exe</satmap:software>
<satmap:username>Jim Grant</satmap:username>
<satmap:network_ids>
<satmap:network_id type="wifi">00-23-A7-EC-D5-78</satmap:network_id>
<satmap:network_id type="bluetooth">80-BB-EB-D7-5B-7C</satmap:network_id>
</satmap:network_ids>
<satmap:snap_type>simple</satmap:snap_type>
</extensions>
</metadata>
<trk>
<name>2023-10-27_0924</name>
<desc>Track 1</desc>
<number>1</number>
<trkseg>
<trkpt lat="53.315088" lon="-1.950993"><ele>223</ele><time>2023-10-27T09:24:39Z</time><name>PT1</name></trkpt>
<trkpt lat="53.315089" lon="-1.950994"><ele>222</ele><time>2023-10-27T09:24:55Z</time><name>PT2</name></trkpt>
<trkpt lat="53.315078" lon="-1.950964"><ele>221</ele><time>2023-10-27T09:24:58Z</time><name>PT3</name></trkpt>
<trkpt lat="53.315069" lon="-1.950967"><ele>222</ele><time>2023-10-27T09:26:15Z</time><name>PT4</name></trkpt>
<trkpt lat="53.315070" lon="-1.950973"><ele>222</ele><time>2023-10-27T09:26:18Z</time><name>PT5</name></trkpt>
<trkpt lat="53.315069" lon="-1.950982"><ele>222</ele><time>2023-10-27T09:26:21Z</time><name>PT6</name></trkpt>
<trkpt lat="53.315058" lon="-1.950898"><ele>222</ele><time>2023-10-27T09:26:28Z</time><name>PT7</name></trkpt>
<trkpt lat="53.315053" lon="-1.950872"><ele>220</ele><time>2023-10-27T09:26:33Z</time><name>PT8</name></trkpt>
<trkpt lat="53.315054" lon="-1.950883"><ele>219</ele><time>2023-10-27T09:26:36Z</time><name>PT9</name></trkpt>
<trkpt lat="53.315050" lon="-1.950882"><ele>219</ele><time>2023-10-27T09:26:39Z</time><name>PT10</name></trkpt>
<trkpt lat="53.315040" lon="-1.950906"><ele>218</ele><time>2023-10-27T09:26:54Z</time><name>PT11</name></trkpt>
<trkpt lat="53.315046" lon="-1.950920"><ele>219</ele><time>2023-10-27T09:28:40Z</time><name>PT12</name></trkpt>
<trkpt lat="53.315051" lon="-1.950922"><ele>221</ele><time>2023-10-27T09:28:44Z</time><name>PT13</name></trkpt>
<trkpt lat="53.315052" lon="-1.950927"><ele>221</ele><time>2023-10-27T09:28:47Z</time><name>PT14</name></trkpt>
<trkpt lat="53.315060" lon="-1.950920"><ele>219</ele><time>2023-10-27T09:30:19Z</time><name>PT15</name></trkpt>
<trkpt lat="53.315076" lon="-1.950912"><ele>219</ele><time>2023-10-27T09:31:32Z</time><name>PT16</name></trkpt>
<trkpt lat="53.315075" lon="-1.950910"><ele>218</ele><time>2023-10-27T09:31:41Z</time><name>PT17</name></trkpt>
<trkpt lat="53.315078" lon="-1.950913"><ele>218</ele><time>2023-10-27T09:32:53Z</time><name>PT18</name></trkpt>
<trkpt lat="53.315078" lon="-1.950909"><ele>217</ele><time>2023-10-27T09:32:56Z</time><name>PT19</name></trkpt>
<trkpt lat="53.315081" lon="-1.950892"><ele>218</ele><time>2023-10-27T09:33:01Z</time><name>PT20</name></trkpt>
<trkpt lat="53.315082" lon="-1.950896"><ele>217</ele><time>2023-10-27T09:33:53Z</time><name>PT21</name></trkpt>
<trkpt lat="53.315085" lon="-1.950895"><ele>217</ele><time>2023-10-27T09:35:24Z</time><name>PT22</name></trkpt>
<trkpt lat="53.315088" lon="-1.950881"><ele>217</ele><time>2023-10-27T09:36:19Z</time><name>PT23</name></trkpt>
<trkpt lat="53.315088" lon="-1.950882"><ele>217</ele><time>2023-10-27T09:36:22Z</time><name>PT24</name></trkpt>
<trkpt lat="53.315095" lon="-1.950876"><ele>217</ele><time>2023-10-27T09:36:55Z</time><name>PT25</name></trkpt>
<trkpt lat="53.315088" lon="-1.950874"><ele>217</ele><time>2023-10-27T09:37:00Z</time><name>PT26</name></trkpt>
<trkpt lat="53.315092" lon="-1.950883"><ele>217</ele><time>2023-10-27T09:37:12Z</time><name>PT27</name></trkpt>
<trkpt lat="53.315093" lon="-1.950909"><ele>217</ele><time>2023-10-27T09:37:16Z</time><name>PT28</name></trkpt>
<trkpt lat="53.315092" lon="-1.950882"><ele>217</ele><time>2023-10-27T09:38:12Z</time><name>PT29</name></trkpt>
<trkpt lat="53.315090" lon="-1.950875"><ele>216</ele><time>2023-10-27T09:38:23Z</time><name>PT30</name></trkpt>
<trkpt lat="53.315075" lon="-1.950925"><ele>215</ele><time>2023-10-27T09:38:29Z</time><name>PT31</name></trkpt>
<trkpt lat="53.315059" lon="-1.950977"><ele>213</ele><time>2023-10-27T09:38:33Z</time><name>PT32</name></trkpt>
<trkpt lat="53.315037" lon="-1.951015"><ele>213</ele><time>2023-10-27T09:38:38Z</time><name>PT33</name></trkpt>
<trkpt lat="53.315014" lon="-1.951042"><ele>212</ele><time>2023-10-27T09:38:41Z</time><name>PT34</name></trkpt>
<trkpt lat="53.314994" lon="-1.951068"><ele>212</ele><time>2023-10-27T09:38:44Z</time><name>PT35</name></trkpt>
<trkpt lat="53.314957" lon="-1.951089"><ele>212</ele><time>2023-10-27T09:38:48Z</time><name>PT36</name></trkpt>
<trkpt lat="53.314941" lon="-1.951116"><ele>212</ele><time>2023-10-27T09:38:52Z</time><name>PT37</name></trkpt>
<trkpt lat="53.314903" lon="-1.951124"><ele>211</ele><time>2023-10-27T09:38:55Z</time><name>PT38</name></trkpt>
<trkpt lat="53.314871" lon="-1.951099"><ele>212</ele><time>2023-10-27T09:38:58Z</time><name>PT39</name></trkpt>
<trkpt lat="53.314836" lon="-1.951096"><ele>214</ele><time>2023-10-27T09:39:01Z</time><name>PT40</name></trkpt>
<trkpt lat="53.314807" lon="-1.951089"><ele>216</ele><time>2023-10-27T09:39:04Z</time><name>PT41</name></trkpt>
<trkpt lat="53.314770" lon="-1.951060"><ele>218</ele><time>2023-10-27T09:39:09Z</time><name>PT42</name></trkpt>
<trkpt lat="53.314740" lon="-1.951017"><ele>219</ele><time>2023-10-27T09:39:12Z</time><name>PT43</name></trkpt>
<trkpt lat="53.314711" lon="-1.950992"><ele>220</ele><time>2023-10-27T09:39:15Z</time><name>PT44</name></trkpt>
<trkpt lat="53.314673" lon="-1.950959"><ele>221</ele><time>2023-10-27T09:39:20Z</time><name>PT45</name></trkpt>
<trkpt lat="53.314650" lon="-1.950940"><ele>221</ele><time>2023-10-27T09:39:23Z</time><name>PT46</name></trkpt>
<trkpt lat="53.314626" lon="-1.950915"><ele>222</ele><time>2023-10-27T09:39:26Z</time><name>PT47</name></trkpt>
<trkpt lat="53.314597" lon="-1.950891"><ele>222</ele><time>2023-10-27T09:39:29Z</time><name>PT48</name></trkpt>
<trkpt lat="53.314588" lon="-1.950876"><ele>221</ele><time>2023-10-27T09:39:33Z</time><name>PT49</name></trkpt>
<trkpt lat="53.314584" lon="-1.950869"><ele>221</ele><time>2023-10-27T09:39:38Z</time><name>PT50</name></trkpt>
<trkpt lat="53.314553" lon="-1.950830"><ele>220</ele><time>2023-10-27T09:39:41Z</time><name>PT51</name></trkpt>
<trkpt lat="53.314515" lon="-1.950781"><ele>219</ele><time>2023-10-27T09:39:44Z</time><name>PT52</name></trkpt>
<trkpt lat="53.314466" lon="-1.950728"><ele>220</ele><time>2023-10-27T09:39:48Z</time><name>PT53</name></trkpt>
<trkpt lat="53.314443" lon="-1.950676"><ele>218</ele><time>2023-10-27T09:39:52Z</time><name>PT54</name></trkpt>
<trkpt lat="53.314409" lon="-1.950618"><ele>218</ele><time>2023-10-27T09:39:56Z</time><name>PT55</name></trkpt>
<trkpt lat="53.314388" lon="-1.950580"><ele>217</ele><time>2023-10-27T09:39:59Z</time><name>PT56</name></trkpt>
<trkpt lat="53.314367" lon="-1.950528"><ele>216</ele><time>2023-10-27T09:40:02Z</time><name>PT57</name></trkpt>
<trkpt lat="53.314352" lon="-1.950494"><ele>216</ele><time>2023-10-27T09:40:05Z</time><name>PT58</name></trkpt>
<trkpt lat="53.314334" lon="-1.950449"><ele>216</ele><time>2023-10-27T09:40:08Z</time><name>PT59</name></trkpt>
<trkpt lat="53.314321" lon="-1.950405"><ele>217</ele><time>2023-10-27T09:40:11Z</time><name>PT60</name></trkpt>
<trkpt lat="53.314309" lon="-1.950357"><ele>217</ele><time>2023-10-27T09:40:14Z</time><name>PT61</name></trkpt>
<trkpt lat="53.314292" lon="-1.950285"><ele>217</ele><time>2023-10-27T09:40:19Z</time><name>PT62</name></trkpt>
<trkpt lat="53.314280" lon="-1.950221"><ele>218</ele><time>2023-10-27T09:40:22Z</time><name>PT63</name></trkpt>
<trkpt lat="53.314258" lon="-1.950138"><ele>219</ele><time>2023-10-27T09:40:25Z</time><name>PT64</name></trkpt>
<trkpt lat="53.314243" lon="-1.950078"><ele>220</ele><time>2023-10-27T09:40:28Z</time><name>PT65</name></trkpt>
<trkpt lat="53.314225" lon="-1.950021"><ele>220</ele><time>2023-10-27T09:40:32Z</time><name>PT66</name></trkpt>
<trkpt lat="53.314211" lon="-1.949994"><ele>219</ele><time>2023-10-27T09:40:36Z</time><name>PT67</name></trkpt>
<trkpt lat="53.314196" lon="-1.949970"><ele>218</ele><time>2023-10-27T09:40:39Z</time><name>PT68</name></trkpt>
<trkpt lat="53.314189" lon="-1.949942"><ele>217</ele><time>2023-10-27T09:40:42Z</time><name>PT69</name></trkpt>
<trkpt lat="53.314178" lon="-1.949908"><ele>216</ele><time>2023-10-27T09:40:45Z</time><name>PT70</name></trkpt>
<trkpt lat="53.314163" lon="-1.949862"><ele>216</ele><time>2023-10-27T09:40:49Z</time><name>PT71</name></trkpt>
<trkpt lat="53.314146" lon="-1.949827"><ele>215</ele><time>2023-10-27T09:40:52Z</time><name>PT72</name></trkpt>
<trkpt lat="53.314125" lon="-1.949787"><ele>213</ele><time>2023-10-27T09:40:57Z</time><name>PT73</name></trkpt>
<trkpt lat="53.314113" lon="-1.949706"><ele>214</ele><time>2023-10-27T09:41:00Z</time><name>PT74</name></trkpt>
<trkpt lat="53.314087" lon="-1.949662"><ele>214</ele><time>2023-10-27T09:41:03Z</time><name>PT75</name></trkpt>
<trkpt lat="53.314063" lon="-1.949614"><ele>215</ele><time>2023-10-27T09:41:08Z</time><name>PT76</name></trkpt>
<trkpt lat="53.314028" lon="-1.949545"><ele>215</ele><time>2023-10-27T09:41:11Z</time><name>PT77</name></trkpt>
<trkpt lat="53.314003" lon="-1.949525"><ele>213</ele><time>2023-10-27T09:41:15Z</time><name>PT78</name></trkpt>
<trkpt lat="53.313962" lon="-1.949475"><ele>214</ele><time>2023-10-27T09:41:20Z</time><name>PT79</name></trkpt>
<trkpt lat="53.313934" lon="-1.949424"><ele>215</ele><time>2023-10-27T09:41:23Z</time><name>PT80</name></trkpt>
<trkpt lat="53.313908" lon="-1.949350"><ele>217</ele><time>2023-10-27T09:41:27Z</time><name>PT81</name></trkpt>
<trkpt lat="53.313877" lon="-1.949303"><ele>218</ele><time>2023-10-27T09:41:30Z</time><name>PT82</name></trkpt>
<trkpt lat="53.313845" lon="-1.949261"><ele>218</ele><time>2023-10-27T09:41:35Z</time><name>PT83</name></trkpt>
<trkpt lat="53.313816" lon="-1.949215"><ele>219</ele><time>2023-10-27T09:41:38Z</time><name>PT84</name></trkpt>
<trkpt lat="53.313795" lon="-1.949170"><ele>220</ele><time>2023-10-27T09:41:41Z</time><name>PT85</name></trkpt>
<trkpt lat="53.313763" lon="-1.949123"><ele>222</ele><time>2023-10-27T09:41:46Z</time><name>PT86</name></trkpt>
<trkpt lat="53.313729" lon="-1.949057"><ele>223</ele><time>2023-10-27T09:41:49Z</time><name>PT87</name></trkpt>
<trkpt lat="53.313698" lon="-1.949000"><ele>224</ele><time>2023-10-27T09:41:52Z</time><name>PT88</name></trkpt>
<trkpt lat="53.313674" lon="-1.948952"><ele>222</ele><time>2023-10-27T09:41:55Z</time><name>PT89</name></trkpt>
<trkpt lat="53.313651" lon="-1.948913"><ele>221</ele><time>2023-10-27T09:41:58Z</time><name>PT90</name></trkpt>
<trkpt lat="53.313627" lon="-1.948877"><ele>221</ele><time>2023-10-27T09:42:02Z</time><name>PT91</name></trkpt>
<trkpt lat="53.313589" lon="-1.948807"><ele>221</ele><time>2023-10-27T09:42:05Z</time><name>PT92</name></trkpt>
<trkpt lat="53.313554" lon="-1.948763"><ele>221</ele><time>2023-10-27T09:42:09Z</time><name>PT93</name></trkpt>
<trkpt lat="53.313530" lon="-1.948737"><ele>219</ele><time>2023-10-27T09:42:12Z</time><name>PT94</name></trkpt>
<trkpt lat="53.313513" lon="-1.948707"><ele>219</ele><time>2023-10-27T09:42:15Z</time><name>PT95</name></trkpt>
<trkpt lat="53.313472" lon="-1.948651"><ele>217</ele><time>2023-10-27T09:42:20Z</time><name>PT96</name></trkpt>
<trkpt lat="53.313447" lon="-1.948613"><ele>216</ele><time>2023-10-27T09:42:23Z</time><name>PT97</name></trkpt>
<trkpt lat="53.313424" lon="-1.948550"><ele>217</ele><time>2023-10-27T09:42:26Z</time><name>PT98</name></trkpt>
<trkpt lat="53.313398" lon="-1.948511"><ele>217</ele><time>2023-10-27T09:42:29Z</time><name>PT99</name></trkpt>
<trkpt lat="53.313356" lon="-1.948469"><ele>217</ele><time>2023-10-27T09:42:33Z</time><name>PT100</name></trkpt>
<trkpt lat="53.313331" lon="-1.948423"><ele>217</ele><time>2023-10-27T09:42:37Z</time><name>PT101</name></trkpt>
<trkpt lat="53.313297" lon="-1.948374"><ele>219</ele><time>2023-10-27T09:42:40Z</time><name>PT102</name></trkpt>
<trkpt lat="53.313281" lon="-1.948343"><ele>218</ele><time>2023-10-27T09:42:43Z</time><name>PT103</name></trkpt>
<trkpt lat="53.313254" lon="-1.948297"><ele>221</ele><time>2023-10-27T09:42:46Z</time><name>PT104</name></trkpt>
<trkpt lat="53.313228" lon="-1.948249"><ele>221</ele><time>2023-10-27T09:42:50Z</time><name>PT105</name></trkpt>
<trkpt lat="53.313201" lon="-1.948207"><ele>221</ele><time>2023-10-27T09:42:53Z</time><name>PT106</name></trkpt>
<trkpt lat="53.313173" lon="-1.948172"><ele>221</ele><time>2023-10-27T09:42:58Z</time><name>PT107</name></trkpt>
<trkpt lat="53.313153" lon="-1.948142"><ele>220</ele><time>2023-10-27T09:43:01Z</time><name>PT108</name></trkpt>
<trkpt lat="53.313119" lon="-1.948090"><ele>222</ele><time>2023-10-27T09:43:04Z</time><name>PT109</name></trkpt>
<trkpt lat="53.313098" lon="-1.948058"><ele>222</ele><time>2023-10-27T09:43:08Z</time><name>PT110</name></trkpt>
<trkpt lat="53.313064" lon="-1.948010"><ele>222</ele><time>2023-10-27T09:43:11Z</time><name>PT111</name></trkpt>
<trkpt lat="53.313039" lon="-1.947984"><ele>221</ele><time>2023-10-27T09:43:14Z</time><name>PT112</name></trkpt>
<trkpt lat="53.313002" lon="-1.947950"><ele>222</ele><time>2023-10-27T09:43:18Z</time><name>PT113</name></trkpt>
<trkpt lat="53.312973" lon="-1.947904"><ele>222</ele><time>2023-10-27T09:43:21Z</time><name>PT114</name></trkpt>
<trkpt lat="53.312937" lon="-1.947858"><ele>224</ele><time>2023-10-27T09:43:25Z</time><name>PT115</name></trkpt>
<trkpt lat="53.312910" lon="-1.947806"><ele>223</ele><time>2023-10-27T09:43:28Z</time><name>PT116</name></trkpt>
<trkpt lat="53.312875" lon="-1.947734"><ele>223</ele><time>2023-10-27T09:43:33Z</time><name>PT117</name></trkpt>
<trkpt lat="53.312847" lon="-1.947700"><ele>221</ele><time>2023-10-27T09:43:36Z</time><name>PT118</name></trkpt>
<trkpt lat="53.312819" lon="-1.947659"><ele>221</ele><time>2023-10-27T09:43:39Z</time><name>PT119</name></trkpt>
<trkpt lat="53.312773" lon="-1.947602"><ele>220</ele><time>2023-10-27T09:43:42Z</time><name>PT120</name></trkpt>
<trkpt lat="53.312718" lon="-1.947523"><ele>220</ele><time>2023-10-27T09:43:46Z</time><name>PT121</name></trkpt>
<trkpt lat="53.312681" lon="-1.947473"><ele>220</ele><time>2023-10-27T09:43:49Z</time><name>PT122</name></trkpt>
<trkpt lat="53.312651" lon="-1.947436"><ele>220</ele><time>2023-10-27T09:43:52Z</time><name>PT123</name></trkpt>
<trkpt lat="53.312608" lon="-1.947373"><ele>221</ele><time>2023-10-27T09:43:57Z</time><name>PT124</name></trkpt>
<trkpt lat="53.312579" lon="-1.947333"><ele>222</ele><time>2023-10-27T09:44:00Z</time><name>PT125</name></trkpt>
<trkpt lat="53.312552" lon="-1.947294"><ele>222</ele><time>2023-10-27T09:44:03Z</time><name>PT126</name></trkpt>
<trkpt lat="53.312535" lon="-1.947264"><ele>220</ele><time>2023-10-27T09:44:06Z</time><name>PT127</name></trkpt>
<trkpt lat="53.312491" lon="-1.947191"><ele>221</ele><time>2023-10-27T09:44:09Z</time><name>PT128</name></trkpt>
<trkpt lat="53.312459" lon="-1.947138"><ele>220</ele><time>2023-10-27T09:44:13Z</time><name>PT129</name></trkpt>
<trkpt lat="53.312436" lon="-1.947102"><ele>220</ele><time>2023-10-27T09:44:16Z</time><name>PT130</name></trkpt>
<trkpt lat="53.312409" lon="-1.947052"><ele>219</ele><time>2023-10-27T09:44:20Z</time><name>PT131</name></trkpt>
<trkpt lat="53.312382" lon="-1.946993"><ele>219</ele><time>2023-10-27T09:44:23Z</time><name>PT132</name></trkpt>
<trkpt lat="53.312354" lon="-1.946946"><ele>219</ele><time>2023-10-27T09:44:26Z</time><name>PT133</name></trkpt>
<trkpt lat="53.312323" lon="-1.946887"><ele>217</ele><time>2023-10-27T09:44:30Z</time><name>PT134</name></trkpt>
<trkpt lat="53.312282" lon="-1.946847"><ele>220</ele><time>2023-10-27T09:44:35Z</time><name>PT135</name></trkpt>
<trkpt lat="53.312262" lon="-1.946810"><ele>221</ele><time>2023-10-27T09:44:38Z</time><name>PT136</name></trkpt>
<trkpt lat="53.312238" lon="-1.946782"><ele>222</ele><time>2023-10-27T09:44:41Z</time><name>PT137</name></trkpt>
<trkpt lat="53.312209" lon="-1.946740"><ele>220</ele><time>2023-10-27T09:44:44Z</time><name>PT138</name></trkpt>
<trkpt lat="53.312165" lon="-1.946696"><ele>219</ele><time>2023-10-27T09:44:49Z</time><name>PT139</name></trkpt>
<trkpt lat="53.312104" lon="-1.946635"><ele>220</ele><time>2023-10-27T09:44:52Z</time><name>PT140</name></trkpt>
<trkpt lat="53.312079" lon="-1.946616"><ele>219</ele><time>2023-10-27T09:44:55Z</time><name>PT141</name></trkpt>
<trkpt lat="53.312048" lon="-1.946594"><ele>218</ele><time>2023-10-27T09:44:59Z</time><name>PT142</name></trkpt>
<trkpt lat="53.311999" lon="-1.946560"><ele>216</ele><time>2023-10-27T09:45:04Z</time><name>PT143</name></trkpt>
<trkpt lat="53.311981" lon="-1.946550"><ele>215</ele><time>2023-10-27T09:45:07Z</time><name>PT144</name></trkpt>
<trkpt lat="53.311959" lon="-1.946526"><ele>216</ele><time>2023-10-27T09:45:10Z</time><name>PT145</name></trkpt>
<trkpt lat="53.311947" lon="-1.946523"><ele>216</ele><time>2023-10-27T09:45:18Z</time><name>PT146</name></trkpt>
<trkpt lat="53.311901" lon="-1.946502"><ele>215</ele><time>2023-10-27T09:45:21Z</time><name>PT147</name></trkpt>
<trkpt lat="53.311829" lon="-1.946447"><ele>215</ele><time>2023-10-27T09:45:24Z</time><name>PT148</name></trkpt>
<trkpt lat="53.311762" lon="-1.946378"><ele>215</ele><time>2023-10-27T09:45:28Z</time><name>PT149</name></trkpt>
<trkpt lat="53.311719" lon="-1.946357"><ele>216</ele><time>2023-10-27T09:45:31Z</time><name>PT150</name></trkpt>
<trkpt lat="53.311680" lon="-1.946317"><ele>218</ele><time>2023-10-27T09:45:36Z</time><name>PT151</name></trkpt>
<trkpt lat="53.311657" lon="-1.946308"><ele>218</ele><time>2023-10-27T09:45:39Z</time><name>PT152</name></trkpt>
<trkpt lat="53.311623" lon="-1.946277"><ele>218</ele><time>2023-10-27T09:45:42Z</time><name>PT153</name></trkpt>
<trkpt lat="53.311582" lon="-1.946259"><ele>220</ele><time>2023-10-27T09:45:45Z</time><name>PT154</name></trkpt>
<trkpt lat="53.311549" lon="-1.946236"><ele>220</ele><time>2023-10-27T09:45:48Z</time><name>PT155</name></trkpt>
<trkpt lat="53.311514" lon="-1.946204"><ele>219</ele><time>2023-10-27T09:45:53Z</time><name>PT156</name></trkpt>
<trkpt lat="53.311478" lon="-1.946169"><ele>218</ele><time>2023-10-27T09:45:56Z</time><name>PT157</name></trkpt>
<trkpt lat="53.311445" lon="-1.946131"><ele>217</ele><time>2023-10-27T09:45:59Z</time><name>PT158</name></trkpt>
<trkpt lat="53.311409" lon="-1.946076"><ele>217</ele><time>2023-10-27T09:46:03Z</time><name>PT159</name></trkpt>
<trkpt lat="53.311377" lon="-1.946024"><ele>217</ele><time>2023-10-27T09:46:06Z</time><name>PT160</name></trkpt>
<trkpt lat="53.311333" lon="-1.945956"><ele>216</ele><time>2023-10-27T09:46:11Z</time><name>PT161</name></trkpt>
<trkpt lat="53.311314" lon="-1.945924"><ele>216</ele><time>2023-10-27T09:46:14Z</time><name>PT162</name></trkpt>
<trkpt lat="53.311281" lon="-1.945858"><ele>215</ele><time>2023-10-27T09:46:17Z</time><name>PT163</name></trkpt>
<trkpt lat="53.311246" lon="-1.945810"><ele>215</ele><time>2023-10-27T09:46:20Z</time><name>PT164</name></trkpt>
<trkpt lat="53.311214" lon="-1.945749"><ele>215</ele><time>2023-10-27T09:46:25Z</time><name>PT165</name></trkpt>
<trkpt lat="53.311183" lon="-1.945677"><ele>216</ele><time>2023-10-27T09:46:29Z</time><name>PT166</name></trkpt>
<trkpt lat="53.311167" lon="-1.945641"><ele>216</ele><time>2023-10-27T09:46:32Z</time><name>PT167</name></trkpt>
<trkpt lat="53.311124" lon="-1.945595"><ele>217</ele><time>2023-10-27T09:46:35Z</time><name>PT168</name></trkpt>
<trkpt lat="53.311105" lon="-1.945564"><ele>218</ele><time>2023-10-27T09:46:38Z</time><name>PT169</name></trkpt>
<trkpt lat="53.311082" lon="-1.945513"><ele>218</ele><time>2023-10-27T09:46:41Z</time><name>PT170</name></trkpt>
<trkpt lat="53.311061" lon="-1.945450"><ele>216</ele><time>2023-10-27T09:46:46Z</time><name>PT171</name></trkpt>
<trkpt lat="53.311037" lon="-1.945396"><ele>216</ele><time>2023-10-27T09:46:49Z</time><name>PT172</name></trkpt>
<trkpt lat="53.311018" lon="-1.945353"><ele>216</ele><time>2023-10-27T09:46:52Z</time><name>PT173</name></trkpt>
<trkpt lat="53.310999" lon="-1.945283"><ele>216</ele><time>2023-10-27T09:46:56Z</time><name>PT174</name></trkpt>
<trkpt lat="53.310980" lon="-1.945212"><ele>217</ele><time>2023-10-27T09:46:59Z</time><name>PT175</name></trkpt>
<trkpt lat="53.310964" lon="-1.945154"><ele>219</ele><time>2023-10-27T09:47:02Z</time><name>PT176</name></trkpt>
<trkpt lat="53.310955" lon="-1.945086"><ele>218</ele><time>2023-10-27T09:47:06Z</time><name>PT177</name></trkpt>
<trkpt lat="53.310933" lon="-1.945020"><ele>218</ele><time>2023-10-27T09:47:09Z</time><name>PT178</name></trkpt>
<trkpt lat="53.310899" lon="-1.944947"><ele>217</ele><time>2023-10-27T09:47:12Z</time><name>PT179</name></trkpt>
<trkpt lat="53.310866" lon="-1.944870"><ele>213</ele><time>2023-10-27T09:47:16Z</time><name>PT180</name></trkpt>
<trkpt lat="53.310844" lon="-1.944824"><ele>213</ele><time>2023-10-27T09:47:19Z</time><name>PT181</name></trkpt>
<trkpt lat="53.310814" lon="-1.944771"><ele>213</ele><time>2023-10-27T09:47:24Z</time><name>PT182</name></trkpt>
<trkpt lat="53.310780" lon="-1.944708"><ele>214</ele><time>2023-10-27T09:47:27Z</time><name>PT183</name></trkpt>
<trkpt lat="53.310759" lon="-1.944665"><ele>216</ele><time>2023-10-27T09:47:30Z</time><name>PT184</name></trkpt>
<trkpt lat="53.310721" lon="-1.944622"><ele>217</ele><time>2023-10-27T09:47:34Z</time><name>PT185</name></trkpt>
<trkpt lat="53.310692" lon="-1.944592"><ele>217</ele><time>2023-10-27T09:47:37Z</time><name>PT186</name></trkpt>
<trkpt lat="53.310664" lon="-1.944568"><ele>217</ele><time>2023-10-27T09:47:40Z</time><name>PT187</name></trkpt>
<trkpt lat="53.310655" lon="-1.944542"><ele>216</ele><time>2023-10-27T09:47:44Z</time><name>PT188</name></trkpt>
<trkpt lat="53.310643" lon="-1.944519"><ele>217</ele><time>2023-10-27T09:47:47Z</time><name>PT189</name></trkpt>
<trkpt lat="53.310630" lon="-1.944495"><ele>217</ele><time>2023-10-27T09:47:50Z</time><name>PT190</name></trkpt>
<trkpt lat="53.310602" lon="-1.944448"><ele>218</ele><time>2023-10-27T09:47:53Z</time><name>PT191</name></trkpt>
<trkpt lat="53.310577" lon="-1.944408"><ele>218</ele><time>2023-10-27T09:47:56Z</time><name>PT192</name></trkpt>
<trkpt lat="53.310555" lon="-1.944425"><ele>218</ele><time>2023-10-27T09:48:00Z</time><name>PT193</name></trkpt>
<trkpt lat="53.310535" lon="-1.944411"><ele>217</ele><time>2023-10-27T09:48:05Z</time><name>PT194</name></trkpt>
<trkpt lat="53.310519" lon="-1.944391"><ele>217</ele><time>2023-10-27T09:48:08Z</time><name>PT195</name></trkpt>
<trkpt lat="53.310500" lon="-1.944363"><ele>217</ele><time>2023-10-27T09:48:11Z</time><name>PT196</name></trkpt>
<trkpt lat="53.310484" lon="-1.944336"><ele>216</ele><time>2023-10-27T09:48:14Z</time><name>PT197</name></trkpt>
<trkpt lat="53.310454" lon="-1.944285"><ele>217</ele><time>2023-10-27T09:48:18Z</time><name>PT198</name></trkpt>
<trkpt lat="53.310433" lon="-1.944239"><ele>218</ele><time>2023-10-27T09:48:22Z</time><name>PT199</name></trkpt>
<trkpt lat="53.310412" lon="-1.944210"><ele>219</ele><time>2023-10-27T09:48:25Z</time><name>PT200</name></trkpt>
<trkpt lat="53.310384" lon="-1.944158"><ele>220</ele><time>2023-10-27T09:48:28Z</time><name>PT201</name></trkpt>
<trkpt lat="53.310366" lon="-1.944120"><ele>220</ele><time>2023-10-27T09:48:31Z</time><name>PT202</name></trkpt>
<trkpt lat="53.310368" lon="-1.944094"><ele>220</ele><time>2023-10-27T09:48:35Z</time><name>PT203</name></trkpt>
<trkpt lat="53.310351" lon="-1.944059"><ele>222</ele><time>2023-10-27T09:48:40Z</time><name>PT204</name></trkpt>
<trkpt lat="53.310350" lon="-1.944057"><ele>222</ele><time>2023-10-27T09:48:43Z</time><name>PT205</name></trkpt>
<trkpt lat="53.310350" lon="-1.944055"><ele>223</ele><time>2023-10-27T09:48:46Z</time><name>PT206</name></trkpt>
<trkpt lat="53.310353" lon="-1.944030"><ele>223</ele><time>2023-10-27T09:49:25Z</time><name>PT207</name></trkpt>
<trkpt lat="53.310373" lon="-1.943995"><ele>221</ele><time>2023-10-27T09:49:30Z</time><name>PT208</name></trkpt>
<trkpt lat="53.310381" lon="-1.943951"><ele>220</ele><time>2023-10-27T09:49:33Z</time><name>PT209</name></trkpt>
<trkpt lat="53.310381" lon="-1.943920"><ele>219</ele><time>2023-10-27T09:49:36Z</time><name>PT210</name></trkpt>
<trkpt lat="53.310391" lon="-1.943890"><ele>219</ele><time>2023-10-27T09:49:39Z</time><name>PT211</name></trkpt>
<trkpt lat="53.310398" lon="-1.943874"><ele>220</ele><time>2023-10-27T09:49:42Z</time><name>PT212</name></trkpt>
<trkpt lat="53.310401" lon="-1.943855"><ele>220</ele><time>2023-10-27T09:49:46Z</time><name>PT213</name></trkpt>
<trkpt lat="53.310409" lon="-1.943827"><ele>220</ele><time>2023-10-27T09:49:53Z</time><name>PT214</name></trkpt>
<trkpt lat="53.310412" lon="-1.943812"><ele>220</ele><time>2023-10-27T09:49:56Z</time><name>PT215</name></trkpt>
<trkpt lat="53.310419" lon="-1.943776"><ele>220</ele><time>2023-10-27T09:49:59Z</time><name>PT216</name></trkpt>
<trkpt lat="53.310427" lon="-1.943750"><ele>219</ele><time>2023-10-27T09:50:04Z</time><name>PT217</name></trkpt>
<trkpt lat="53.310450" lon="-1.943702"><ele>218</ele><time>2023-10-27T09:50:07Z</time><name>PT218</name></trkpt>
<trkpt lat="53.310467" lon="-1.943660"><ele>218</ele><time>2023-10-27T09:50:11Z</time><name>PT219</name></trkpt>
<trkpt lat="53.310498" lon="-1.943633"><ele>218</ele><time>2023-10-27T09:50:16Z</time><name>PT220</name></trkpt>
<trkpt lat="53.310513" lon="-1.943580"><ele>219</ele><time>2023-10-27T09:50:19Z</time><name>PT221</name></trkpt>
<trkpt lat="53.310524" lon="-1.943558"><ele>219</ele><time>2023-10-27T09:50:22Z</time><name>PT222</name></trkpt>
<trkpt lat="53.310545" lon="-1.943531"><ele>219</ele><time>2023-10-27T09:50:26Z</time><name>PT223</name></trkpt>
<trkpt lat="53.310568" lon="-1.943453"><ele>217</ele><time>2023-10-27T09:50:34Z</time><name>PT224</name></trkpt>
<trkpt lat="53.310580" lon="-1.943421"><ele>216</ele><time>2023-10-27T09:50:37Z</time><name>PT225</name></trkpt>
<trkpt lat="53.310587" lon="-1.943325"><ele>215</ele><time>2023-10-27T09:50:40Z</time><name>PT226</name></trkpt>
<trkpt lat="53.310594" lon="-1.943261"><ele>215</ele><time>2023-10-27T09:50:43Z</time><name>PT227</name></trkpt>
<trkpt lat="53.310607" lon="-1.943215"><ele>214</ele><time>2023-10-27T09:50:46Z</time><name>PT228</name></trkpt>
<trkpt lat="53.310612" lon="-1.943188"><ele>213</ele><time>2023-10-27T09:50:49Z</time><name>PT229</name></trkpt>
<trkpt lat="53.310621" lon="-1.943142"><ele>213</ele><time>2023-10-27T09:50:53Z</time><name>PT230</name></trkpt>
<trkpt lat="53.310624" lon="-1.943096"><ele>212</ele><time>2023-10-27T09:50:56Z</time><name>PT231</name></trkpt>
<trkpt lat="53.310630" lon="-1.943078"><ele>213</ele><time>2023-10-27T09:51:01Z</time><name>PT232</name></trkpt>
<trkpt lat="53.310631" lon="-1.943028"><ele>213</ele><time>2023-10-27T09:51:04Z</time><name>PT233</name></trkpt>
<trkpt lat="53.310636" lon="-1.943002"><ele>213</ele><time>2023-10-27T09:51:07Z</time><name>PT234</name></trkpt>
<trkpt lat="53.310643" lon="-1.942959"><ele>214</ele><time>2023-10-27T09:51:11Z</time><name>PT235</name></trkpt>
<trkpt lat="53.310643" lon="-1.942888"><ele>213</ele><time>2023-10-27T09:51:15Z</time><name>PT236</name></trkpt>
<trkpt lat="53.310644" lon="-1.942859"><ele>213</ele><time>2023-10-27T09:51:18Z</time><name>PT237</name></trkpt>
<trkpt lat="53.310649" lon="-1.942833"><ele>213</ele><time>2023-10-27T09:51:21Z</time><name>PT238</name></trkpt>
<trkpt lat="53.310649" lon="-1.942774"><ele>214</ele><time>2023-10-27T09:51:25Z</time><name>PT239</name></trkpt>
<trkpt lat="53.310656" lon="-1.942710"><ele>217</ele><time>2023-10-27T09:51:28Z</time><name>PT240</name></trkpt>
<trkpt lat="53.310644" lon="-1.942658"><ele>219</ele><time>2023-10-27T09:51:33Z</time><name>PT241</name></trkpt>
<trkpt lat="53.310650" lon="-1.942630"><ele>219</ele><time>2023-10-27T09:51:36Z</time><name>PT242</name></trkpt>
<trkpt lat="53.310645" lon="-1.942593"><ele>220</ele><time>2023-10-27T09:51:39Z</time><name>PT243</name></trkpt>
<trkpt lat="53.310646" lon="-1.942527"><ele>220</ele><time>2023-10-27T09:51:42Z</time><name>PT244</name></trkpt>
<trkpt lat="53.310647" lon="-1.942490"><ele>222</ele><time>2023-10-27T09:51:45Z</time><name>PT245</name></trkpt>
<trkpt lat="53.310634" lon="-1.942450"><ele>221</ele><time>2023-10-27T09:51:50Z</time><name>PT246</name></trkpt>
<trkpt lat="53.310619" lon="-1.942406"><ele>222</ele><time>2023-10-27T09:51:53Z</time><name>PT247</name></trkpt>
<trkpt lat="53.310624" lon="-1.942402"><ele>222</ele><time>2023-10-27T09:51:56Z</time><name>PT248</name></trkpt>
<trkpt lat="53.310602" lon="-1.942366"><ele>222</ele><time>2023-10-27T09:52:00Z</time><name>PT249</name></trkpt>
<trkpt lat="53.310604" lon="-1.942360"><ele>221</ele><time>2023-10-27T09:52:05Z</time><name>PT250</name></trkpt>
<trkpt lat="53.310586" lon="-1.942322"><ele>223</ele><time>2023-10-27T09:52:08Z</time><name>PT251</name></trkpt>
<trkpt lat="53.310585" lon="-1.942318"><ele>223</ele><time>2023-10-27T09:52:11Z</time><name>PT252</name></trkpt>
<trkpt lat="53.310594" lon="-1.942245"><ele>221</ele><time>2023-10-27T09:52:14Z</time><name>PT253</name></trkpt>
<trkpt lat="53.310595" lon="-1.942202"><ele>220</ele><time>2023-10-27T09:52:19Z</time><name>PT254</name></trkpt>
<trkpt lat="53.310600" lon="-1.942168"><ele>219</ele><time>2023-10-27T09:52:22Z</time><name>PT255</name></trkpt>
<trkpt lat="53.310576" lon="-1.942139"><ele>217</ele><time>2023-10-27T09:52:26Z</time><name>PT256</name></trkpt>
<trkpt lat="53.310583" lon="-1.942090"><ele>217</ele><time>2023-10-27T09:52:31Z</time><name>PT257</name></trkpt>
<trkpt lat="53.310579" lon="-1.942070"><ele>218</ele><time>2023-10-27T09:52:34Z</time><name>PT258</name></trkpt>
<trkpt lat="53.310574" lon="-1.942031"><ele>216</ele><time>2023-10-27T09:52:37Z</time><name>PT259</name></trkpt>
<trkpt lat="53.310543" lon="-1.941994"><ele>215</ele><time>2023-10-27T09:52:40Z</time><name>PT260</name></trkpt>
<trkpt lat="53.310519" lon="-1.941964"><ele>215</ele><time>2023-10-27T09:52:44Z</time><name>PT261</name></trkpt>
<trkpt lat="53.310497" lon="-1.941933"><ele>215</ele><time>2023-10-27T09:52:49Z</time><name>PT262</name></trkpt>
<trkpt lat="53.310473" lon="-1.941910"><ele>216</ele><time>2023-10-27T09:52:52Z</time><name>PT263</name></trkpt>
<trkpt lat="53.310452" lon="-1.941872"><ele>216</ele><time>2023-10-27T09:52:55Z</time><name>PT264</name></trkpt>
<trkpt lat="53.310441" lon="-1.941839"><ele>216</ele><time>2023-10-27T09:52:58Z</time><name>PT265</name></trkpt>
<trkpt lat="53.310413" lon="-1.941804"><ele>216</ele><time>2023-10-27T09:53:02Z</time><name>PT266</name></trkpt>
<trkpt lat="53.310395" lon="-1.941749"><ele>217</ele><time>2023-10-27T09:53:05Z</time><name>PT267</name></trkpt>
<trkpt lat="53.310380" lon="-1.941694"><ele>221</ele><time>2023-10-27T09:53:09Z</time><name>PT268</name></trkpt>
<trkpt lat="53.310351" lon="-1.941653"><ele>219</ele><time>2023-10-27T09:53:12Z</time><name>PT269</name></trkpt>
<trkpt lat="53.310319" lon="-1.941585"><ele>220</ele><time>2023-10-27T09:53:16Z</time><name>PT270</name></trkpt>
<trkpt lat="53.310291" lon="-1.941548"><ele>220</ele><time>2023-10-27T09:53:19Z</time><name>PT271</name></trkpt>
<trkpt lat="53.310281" lon="-1.941504"><ele>217</ele><time>2023-10-27T09:53:22Z</time><name>PT272</name></trkpt>
<trkpt lat="53.310262" lon="-1.941473"><ele>217</ele><time>2023-10-27T09:53:26Z</time><name>PT273</name></trkpt>
<trkpt lat="53.310238" lon="-1.941443"><ele>216</ele><time>2023-10-27T09:53:29Z</time><name>PT274</name></trkpt>
<trkpt lat="53.310219" lon="-1.941407"><ele>214</ele><time>2023-10-27T09:53:32Z</time><name>PT275</name></trkpt>
<trkpt lat="53.310197" lon="-1.941353"><ele>215</ele><time>2023-10-27T09:53:35Z</time><name>PT276</name></trkpt>
<trkpt lat="53.310166" lon="-1.941316"><ele>215</ele><time>2023-10-27T09:53:39Z</time><name>PT277</name></trkpt>
<trkpt lat="53.310144" lon="-1.941264"><ele>215</ele><time>2023-10-27T09:53:44Z</time><name>PT278</name></trkpt>
<trkpt lat="53.310105" lon="-1.941201"><ele>216</ele><time>2023-10-27T09:53:47Z</time><name>PT279</name></trkpt>
<trkpt lat="53.310086" lon="-1.941151"><ele>216</ele><time>2023-10-27T09:53:50Z</time><name>PT280</name></trkpt>
<trkpt lat="53.310073" lon="-1.941109"><ele>216</ele><time>2023-10-27T09:53:53Z</time><name>PT281</name></trkpt>
<trkpt lat="53.310049" lon="-1.941075"><ele>217</ele><time>2023-10-27T09:53:56Z</time><name>PT282</name></trkpt>
<trkpt lat="53.310025" lon="-1.941047"><ele>217</ele><time>2023-10-27T09:53:59Z</time><name>PT283</name></trkpt>
<trkpt lat="53.310011" lon="-1.941019"><ele>217</ele><time>2023-10-27T09:54:02Z</time><name>PT284</name></trkpt>
<trkpt lat="53.310010" lon="-1.940997"><ele>215</ele><time>2023-10-27T09:54:07Z</time><name>PT285</name></trkpt>
<trkpt lat="53.310003" lon="-1.940976"><ele>217</ele><time>2023-10-27T09:54:10Z</time><name>PT286</name></trkpt>
<trkpt lat="53.309982" lon="-1.940941"><ele>218</ele><time>2023-10-27T09:54:13Z</time><name>PT287</name></trkpt>
<trkpt lat="53.309970" lon="-1.940888"><ele>218</ele><time>2023-10-27T09:54:16Z</time><name>PT288</name></trkpt>
<trkpt lat="53.309948" lon="-1.940858"><ele>218</ele><time>2023-10-27T09:54:19Z</time><name>PT289</name></trkpt>
<trkpt lat="53.309935" lon="-1.940843"><ele>217</ele><time>2023-10-27T09:54:23Z</time><name>PT290</name></trkpt>
<trkpt lat="53.309918" lon="-1.940811"><ele>217</ele><time>2023-10-27T09:54:28Z</time><name>PT291</name></trkpt>
<trkpt lat="53.309899" lon="-1.940787"><ele>217</ele><time>2023-10-27T09:54:31Z</time><name>PT292</name></trkpt>
<trkpt lat="53.309886" lon="-1.940767"><ele>215</ele><time>2023-10-27T09:54:34Z</time><name>PT293</name></trkpt>
<trkpt lat="53.309860" lon="-1.940746"><ele>218</ele><time>2023-10-27T09:54:37Z</time><name>PT294</name></trkpt>
<trkpt lat="53.309843" lon="-1.940744"><ele>218</ele><time>2023-10-27T09:54:40Z</time><name>PT295</name></trkpt>
<trkpt lat="53.309818" lon="-1.940725"><ele>219</ele><time>2023-10-27T09:54:45Z</time><name>PT296</name></trkpt>
<trkpt lat="53.309788" lon="-1.940703"><ele>219</ele><time>2023-10-27T09:54:48Z</time><name>PT297</name></trkpt>
<trkpt lat="53.309754" lon="-1.940664"><ele>220</ele><time>2023-10-27T09:54:52Z</time><name>PT298</name></trkpt>
<trkpt lat="53.309731" lon="-1.940646"><ele>220</ele><time>2023-10-27T09:54:55Z</time><name>PT299</name></trkpt>
<trkpt lat="53.309700" lon="-1.940627"><ele>221</ele><time>2023-10-27T09:54:58Z</time><name>PT300</name></trkpt>
<trkpt lat="53.309665" lon="-1.940602"><ele>221</ele><time>2023-10-27T09:55:03Z</time><name>PT301</name></trkpt>
<trkpt lat="53.309644" lon="-1.940575"><ele>220</ele><time>2023-10-27T09:55:06Z</time><name>PT302</name></trkpt>
<trkpt lat="53.309622" lon="-1.940547"><ele>219</ele><time>2023-10-27T09:55:09Z</time><name>PT303</name></trkpt>
<trkpt lat="53.309600" lon="-1.940516"><ele>219</ele><time>2023-10-27T09:55:12Z</time><name>PT304</name></trkpt>
<trkpt lat="53.309584" lon="-1.940495"><ele>220</ele><time>2023-10-27T09:55:16Z</time><name>PT305</name></trkpt>
<trkpt lat="53.309571" lon="-1.940490"><ele>218</ele><time>2023-10-27T09:55:20Z</time><name>PT306</name></trkpt>
<trkpt lat="53.309545" lon="-1.940474"><ele>217</ele><time>2023-10-27T09:55:23Z</time><name>PT307</name></trkpt>
<trkpt lat="53.309526" lon="-1.940463"><ele>216</ele><time>2023-10-27T09:55:26Z</time><name>PT308</name></trkpt>
<trkpt lat="53.309493" lon="-1.940447"><ele>215</ele><time>2023-10-27T09:55:29Z</time><name>PT309</name></trkpt>
<trkpt lat="53.309466" lon="-1.940422"><ele>214</ele><time>2023-10-27T09:55:32Z</time><name>PT310</name></trkpt>
<trkpt lat="53.309452" lon="-1.940420"><ele>214</ele><time>2023-10-27T09:55:36Z</time><name>PT311</name></trkpt>
<trkpt lat="53.309423" lon="-1.940386"><ele>214</ele><time>2023-10-27T09:55:41Z</time><name>PT312</name></trkpt>
<trkpt lat="53.309384" lon="-1.940360"><ele>214</ele><time>2023-10-27T09:55:44Z</time><name>PT313</name></trkpt>
<trkpt lat="53.309369" lon="-1.940373"><ele>215</ele><time>2023-10-27T09:55:47Z</time><name>PT314</name></trkpt>
<trkpt lat="53.309336" lon="-1.940366"><ele>217</ele><time>2023-10-27T09:55:50Z</time><name>PT315</name></trkpt>
<trkpt lat="53.309311" lon="-1.940367"><ele>218</ele><time>2023-10-27T09:55:54Z</time><name>PT316</name></trkpt>
<trkpt lat="53.309285" lon="-1.940362"><ele>218</ele><time>2023-10-27T09:55:58Z</time><name>PT317</name></trkpt>
<trkpt lat="53.309267" lon="-1.940357"><ele>218</ele><time>2023-10-27T09:56:01Z</time><name>PT318</name></trkpt>
<trkpt lat="53.309265" lon="-1.940365"><ele>216</ele><time>2023-10-27T09:56:04Z</time><name>PT319</name></trkpt>
<trkpt lat="53.309253" lon="-1.940389"><ele>214</ele><time>2023-10-27T09:56:07Z</time><name>PT320</name></trkpt>
<trkpt lat="53.309251" lon="-1.940388"><ele>212</ele><time>2023-10-27T09:56:10Z</time><name>PT321</name></trkpt>
<trkpt lat="53.309197" lon="-1.940383"><ele>213</ele><time>2023-10-27T09:56:14Z</time><name>PT322</name></trkpt>
<trkpt lat="53.309140" lon="-1.940369"><ele>215</ele><time>2023-10-27T09:56:19Z</time><name>PT323</name></trkpt>
<trkpt lat="53.309100" lon="-1.940349"><ele>214</ele><time>2023-10-27T09:56:22Z</time><name>PT324</name></trkpt>
<trkpt lat="53.309070" lon="-1.940334"><ele>214</ele><time>2023-10-27T09:56:25Z</time><name>PT325</name></trkpt>
<trkpt lat="53.309040" lon="-1.940349"><ele>215</ele><time>2023-10-27T09:56:28Z</time><name>PT326</name></trkpt>
<trkpt lat="53.309012" lon="-1.940368"><ele>215</ele><time>2023-10-27T09:56:31Z</time><name>PT327</name></trkpt>
<trkpt lat="53.308945" lon="-1.940381"><ele>219</ele><time>2023-10-27T09:56:34Z</time><name>PT328</name></trkpt>
<trkpt lat="53.308880" lon="-1.940393"><ele>224</ele><time>2023-10-27T09:56:38Z</time><name>PT329</name></trkpt>
<trkpt lat="53.308851" lon="-1.940405"><ele>224</ele><time>2023-10-27T09:56:41Z</time><name>PT330</name></trkpt>
<trkpt lat="53.308806" lon="-1.940392"><ele>226</ele><time>2023-10-27T09:56:44Z</time><name>PT331</name></trkpt>
<trkpt lat="53.308779" lon="-1.940416"><ele>226</ele><time>2023-10-27T09:56:48Z</time><name>PT332</name></trkpt>
<trkpt lat="53.308710" lon="-1.940396"><ele>226</ele><time>2023-10-27T09:56:51Z</time><name>PT333</name></trkpt>
<trkpt lat="53.308670" lon="-1.940391"><ele>226</ele><time>2023-10-27T09:56:54Z</time><name>PT334</name></trkpt>
<trkpt lat="53.308630" lon="-1.940411"><ele>224</ele><time>2023-10-27T09:56:58Z</time><name>PT335</name></trkpt>
<trkpt lat="53.308593" lon="-1.940413"><ele>224</ele><time>2023-10-27T09:57:02Z</time><name>PT336</name></trkpt>
<trkpt lat="53.308546" lon="-1.940431"><ele>224</ele><time>2023-10-27T09:57:06Z</time><name>PT337</name></trkpt>
<trkpt lat="53.308513" lon="-1.940455"><ele>222</ele><time>2023-10-27T09:57:09Z</time><name>PT338</name></trkpt>
<trkpt lat="53.308510" lon="-1.940458"><ele>221</ele><time>2023-10-27T09:57:12Z</time><name>PT339</name></trkpt>
<trkpt lat="53.308453" lon="-1.940482"><ele>218</ele><time>2023-10-27T09:57:17Z</time><name>PT340</name></trkpt>
<trkpt lat="53.308385" lon="-1.940449"><ele>220</ele><time>2023-10-27T09:57:20Z</time><name>PT341</name></trkpt>
<trkpt lat="53.308335" lon="-1.940462"><ele>220</ele><time>2023-10-27T09:57:23Z</time><name>PT342</name></trkpt>
<trkpt lat="53.308291" lon="-1.940475"><ele>219</ele><time>2023-10-27T09:57:26Z</time><name>PT343</name></trkpt>
<trkpt lat="53.308249" lon="-1.940487"><ele>221</ele><time>2023-10-27T09:57:29Z</time><name>PT344</name></trkpt>
<trkpt lat="53.308208" lon="-1.940493"><ele>221</ele><time>2023-10-27T09:57:32Z</time><name>PT345</name></trkpt>
<trkpt lat="53.308157" lon="-1.940506"><ele>222</ele><time>2023-10-27T09:57:36Z</time><name>PT346</name></trkpt>
<trkpt lat="53.308116" lon="-1.940508"><ele>223</ele><time>2023-10-27T09:57:39Z</time><name>PT347</name></trkpt>
<trkpt lat="53.308078" lon="-1.940499"><ele>224</ele><time>2023-10-27T09:57:42Z</time><name>PT348</name></trkpt>
<trkpt lat="53.308048" lon="-1.940492"><ele>224</ele><time>2023-10-27T09:57:47Z</time><name>PT349</name></trkpt>
<trkpt lat="53.308012" lon="-1.940511"><ele>223</ele><time>2023-10-27T09:57:50Z</time><name>PT350</name></trkpt>
<trkpt lat="53.307978" lon="-1.940513"><ele>223</ele><time>2023-10-27T09:57:55Z</time><name>PT351</name></trkpt>
<trkpt lat="53.307953" lon="-1.940528"><ele>223</ele><time>2023-10-27T09:57:58Z</time><name>PT352</name></trkpt>
<trkpt lat="53.307927" lon="-1.940534"><ele>222</ele><time>2023-10-27T09:58:01Z</time><name>PT353</name></trkpt>
<trkpt lat="53.307891" lon="-1.940546"><ele>222</ele><time>2023-10-27T09:58:04Z</time><name>PT354</name></trkpt>
<trkpt lat="53.307867" lon="-1.940557"><ele>221</ele><time>2023-10-27T09:58:07Z</time><name>PT355</name></trkpt>
<trkpt lat="53.307840" lon="-1.940567"><ele>220</ele><time>2023-10-27T09:58:10Z</time><name>PT356</name></trkpt>
<trkpt lat="53.307797" lon="-1.940575"><ele>219</ele><time>2023-10-27T09:58:14Z</time><name>PT357</name></trkpt>
<trkpt lat="53.307754" lon="-1.940570"><ele>220</ele><time>2023-10-27T09:58:17Z</time><name>PT358</name></trkpt>
<trkpt lat="53.307738" lon="-1.940581"><ele>221</ele><time>2023-10-27T09:58:20Z</time><name>PT359</name></trkpt>
<trkpt lat="53.307728" lon="-1.940595"><ele>221</ele><time>2023-10-27T09:58:23Z</time><name>PT360</name></trkpt>
<trkpt lat="53.307704" lon="-1.940617"><ele>220</ele><time>2023-10-27T09:58:26Z</time><name>PT361</name></trkpt>
<trkpt lat="53.307694" lon="-1.940641"><ele>219</ele><time>2023-10-27T09:58:30Z</time><name>PT362</name></trkpt>
<trkpt lat="53.307686" lon="-1.940661"><ele>220</ele><time>2023-10-27T09:58:33Z</time><name>PT363</name></trkpt>
<trkpt lat="53.307658" lon="-1.940666"><ele>220</ele><time>2023-10-27T09:58:36Z</time><name>PT364</name></trkpt>
<trkpt lat="53.307634" lon="-1.940667"><ele>220</ele><time>2023-10-27T09:58:39Z</time><name>PT365</name></trkpt>
<trkpt lat="53.307594" lon="-1.940662"><ele>220</ele><time>2023-10-27T09:58:42Z</time><name>PT366</name></trkpt>
<trkpt lat="53.307561" lon="-1.940655"><ele>219</ele><time>2023-10-27T09:58:46Z</time><name>PT367</name></trkpt>
<trkpt lat="53.307535" lon="-1.940659"><ele>219</ele><time>2023-10-27T09:58:51Z</time><name>PT368</name></trkpt>
<trkpt lat="53.307526" lon="-1.940667"><ele>218</ele><time>2023-10-27T09:58:54Z</time><name>PT369</name></trkpt>
<trkpt lat="53.307512" lon="-1.940675"><ele>217</ele><time>2023-10-27T09:58:57Z</time><name>PT370</name></trkpt>
<trkpt lat="53.307491" lon="-1.940665"><ele>216</ele><time>2023-10-27T09:59:00Z</time><name>PT371</name></trkpt>
<trkpt lat="53.307478" lon="-1.940659"><ele>216</ele><time>2023-10-27T09:59:05Z</time><name>PT372</name></trkpt>
<trkpt lat="53.307477" lon="-1.940658"><ele>216</ele><time>2023-10-27T09:59:08Z</time><name>PT373</name></trkpt>
<trkpt lat="53.307454" lon="-1.940662"><ele>219</ele><time>2023-10-27T09:59:48Z</time><name>PT374</name></trkpt>
<trkpt lat="53.307457" lon="-1.940640"><ele>219</ele><time>2023-10-27T09:59:53Z</time><name>PT375</name></trkpt>
<trkpt lat="53.307442" lon="-1.940642"><ele>225</ele><time>2023-10-27T10:01:54Z</time><name>PT376</name></trkpt>
<trkpt lat="53.307443" lon="-1.940629"><ele>225</ele><time>2023-10-27T10:02:03Z</time><name>PT377</name></trkpt>
<trkpt lat="53.307433" lon="-1.940615"><ele>226</ele><time>2023-10-27T10:02:06Z</time><name>PT378</name></trkpt>
<trkpt lat="53.307414" lon="-1.940597"><ele>225</ele><time>2023-10-27T10:02:09Z</time><name>PT379</name></trkpt>
<trkpt lat="53.307405" lon="-1.940587"><ele>225</ele><time>2023-10-27T10:02:12Z</time><name>PT380</name></trkpt>
<trkpt lat="53.307405" lon="-1.940582"><ele>226</ele><time>2023-10-27T10:02:15Z</time><name>PT381</name></trkpt>
<trkpt lat="53.307404" lon="-1.940586"><ele>226</ele><time>2023-10-27T10:04:50Z</time><name>PT382</name></trkpt>
<trkpt lat="53.307377" lon="-1.940598"><ele>226</ele><time>2023-10-27T10:04:55Z</time><name>PT383</name></trkpt>
<trkpt lat="53.307361" lon="-1.940599"><ele>227</ele><time>2023-10-27T10:04:58Z</time><name>PT384</name></trkpt>
<trkpt lat="53.307355" lon="-1.940604"><ele>227</ele><time>2023-10-27T10:05:01Z</time><name>PT385</name></trkpt>
<trkpt lat="53.307337" lon="-1.940617"><ele>226</ele><time>2023-10-27T10:05:08Z</time><name>PT386</name></trkpt>
<trkpt lat="53.307312" lon="-1.940638"><ele>226</ele><time>2023-10-27T10:05:11Z</time><name>PT387</name></trkpt>
<trkpt lat="53.307294" lon="-1.940665"><ele>226</ele><time>2023-10-27T10:05:16Z</time><name>PT388</name></trkpt>
<trkpt lat="53.307287" lon="-1.940688"><ele>226</ele><time>2023-10-27T10:05:19Z</time><name>PT389</name></trkpt>
<trkpt lat="53.307285" lon="-1.940711"><ele>225</ele><time>2023-10-27T10:05:22Z</time><name>PT390</name></trkpt>
<trkpt lat="53.307284" lon="-1.940718"><ele>224</ele><time>2023-10-27T10:05:25Z</time><name>PT391</name></trkpt>
<trkpt lat="53.307284" lon="-1.940764"><ele>224</ele><time>2023-10-27T10:05:28Z</time><name>PT392</name></trkpt>
<trkpt lat="53.307282" lon="-1.940807"><ele>225</ele><time>2023-10-27T10:05:33Z</time><name>PT393</name></trkpt>
<trkpt lat="53.307273" lon="-1.940827"><ele>224</ele><time>2023-10-27T10:05:36Z</time><name>PT394</name></trkpt>
<trkpt lat="53.307273" lon="-1.940836"><ele>225</ele><time>2023-10-27T10:05:39Z</time><name>PT395</name></trkpt>
<trkpt lat="53.307268" lon="-1.940857"><ele>225</ele><time>2023-10-27T10:05:42Z</time><name>PT396</name></trkpt>
<trkpt lat="53.307248" lon="-1.940891"><ele>225</ele><time>2023-10-27T10:05:56Z</time><name>PT397</name></trkpt>
<trkpt lat="53.307242" lon="-1.940929"><ele>226</ele><time>2023-10-27T10:06:00Z</time><name>PT398</name></trkpt>
<trkpt lat="53.307240" lon="-1.940984"><ele>225</ele><time>2023-10-27T10:06:03Z</time><name>PT399</name></trkpt>
<trkpt lat="53.307233" lon="-1.941039"><ele>224</ele><time>2023-10-27T10:06:06Z</time><name>PT400</name></trkpt>
<trkpt lat="53.307223" lon="-1.941101"><ele>225</ele><time>2023-10-27T10:06:11Z</time><name>PT401</name></trkpt>
<trkpt lat="53.307218" lon="-1.941134"><ele>225</ele><time>2023-10-27T10:06:14Z</time><name>PT402</name></trkpt>
<trkpt lat="53.307216" lon="-1.941151"><ele>227</ele><time>2023-10-27T10:06:46Z</time><name>PT403</name></trkpt>
<trkpt lat="53.307213" lon="-1.941162"><ele>227</ele><time>2023-10-27T10:06:50Z</time><name>PT404</name></trkpt>
<trkpt lat="53.307205" lon="-1.941192"><ele>228</ele><time>2023-10-27T10:07:19Z</time><name>PT405</name></trkpt>
<trkpt lat="53.307202" lon="-1.941201"><ele>228</ele><time>2023-10-27T10:07:22Z</time><name>PT406</name></trkpt>
<trkpt lat="53.307200" lon="-1.941205"><ele>228</ele><time>2023-10-27T10:07:25Z</time><name>PT407</name></trkpt>
<trkpt lat="53.307200" lon="-1.941209"><ele>228</ele><time>2023-10-27T10:08:13Z</time><name>PT408</name></trkpt>
<trkpt lat="53.307199" lon="-1.941206"><ele>228</ele><time>2023-10-27T10:08:16Z</time><name>PT409</name></trkpt>
<trkpt lat="53.307203" lon="-1.941211"><ele>228</ele><time>2023-10-27T10:08:19Z</time><name>PT410</name></trkpt>
<trkpt lat="53.307204" lon="-1.941213"><ele>228</ele><time>2023-10-27T10:08:27Z</time><name>PT411</name></trkpt>
<trkpt lat="53.307204" lon="-1.941216"><ele>228</ele><time>2023-10-27T10:08:30Z</time><name>PT412</name></trkpt>
<trkpt lat="53.307204" lon="-1.941213"><ele>227</ele><time>2023-10-27T10:08:48Z</time><name>PT413</name></trkpt>
<trkpt lat="53.307208" lon="-1.941184"><ele>227</ele><time>2023-10-27T10:08:55Z</time><name>PT414</name></trkpt>
<trkpt lat="53.307210" lon="-1.941128"><ele>226</ele><time>2023-10-27T10:08:58Z</time><name>PT415</name></trkpt>
<trkpt lat="53.307214" lon="-1.941059"><ele>224</ele><time>2023-10-27T10:09:03Z</time><name>PT416</name></trkpt>
<trkpt lat="53.307223" lon="-1.940997"><ele>223</ele><time>2023-10-27T10:09:06Z</time><name>PT417</name></trkpt>
<trkpt lat="53.307232" lon="-1.940934"><ele>223</ele><time>2023-10-27T10:09:10Z</time><name>PT418</name></trkpt>
<trkpt lat="53.307226" lon="-1.940869"><ele>221</ele><time>2023-10-27T10:09:15Z</time><name>PT419</name></trkpt>
<trkpt lat="53.307225" lon="-1.940824"><ele>222</ele><time>2023-10-27T10:09:18Z</time><name>PT420</name></trkpt>
<trkpt lat="53.307222" lon="-1.940766"><ele>222</ele><time>2023-10-27T10:09:21Z</time><name>PT421</name></trkpt>
<trkpt lat="53.307218" lon="-1.940744"><ele>221</ele><time>2023-10-27T10:09:24Z</time><name>PT422</name></trkpt>
<trkpt lat="53.307237" lon="-1.940675"><ele>221</ele><time>2023-10-27T10:09:29Z</time><name>PT423</name></trkpt>
<trkpt lat="53.307262" lon="-1.940623"><ele>221</ele><time>2023-10-27T10:09:32Z</time><name>PT424</name></trkpt>
<trkpt lat="53.307291" lon="-1.940556"><ele>220</ele><time>2023-10-27T10:09:35Z</time><name>PT425</name></trkpt>
<trkpt lat="53.307322" lon="-1.940475"><ele>219</ele><time>2023-10-27T10:09:39Z</time><name>PT426</name></trkpt>
<trkpt lat="53.307350" lon="-1.940391"><ele>220</ele><time>2023-10-27T10:09:44Z</time><name>PT427</name></trkpt>
<trkpt lat="53.307372" lon="-1.940345"><ele>220</ele><time>2023-10-27T10:09:47Z</time><name>PT428</name></trkpt>
<trkpt lat="53.307392" lon="-1.940332"><ele>219</ele><time>2023-10-27T10:09:50Z</time><name>PT429</name></trkpt>
<trkpt lat="53.307430" lon="-1.940329"><ele>218</ele><time>2023-10-27T10:09:53Z</time><name>PT430</name></trkpt>
<trkpt lat="53.307450" lon="-1.940309"><ele>217</ele><time>2023-10-27T10:09:56Z</time><name>PT431</name></trkpt>
<trkpt lat="53.307480" lon="-1.940280"><ele>217</ele><time>2023-10-27T10:10:00Z</time><name>PT432</name></trkpt>
<trkpt lat="53.307507" lon="-1.940238"><ele>217</ele><time>2023-10-27T10:10:03Z</time><name>PT433</name></trkpt>
<trkpt lat="53.307533" lon="-1.940193"><ele>219</ele><time>2023-10-27T10:10:06Z</time><name>PT434</name></trkpt>
<trkpt lat="53.307553" lon="-1.940159"><ele>220</ele><time>2023-10-27T10:10:09Z</time><name>PT435</name></trkpt>
<trkpt lat="53.307571" lon="-1.940136"><ele>220</ele><time>2023-10-27T10:10:14Z</time><name>PT436</name></trkpt>
<trkpt lat="53.307596" lon="-1.940085"><ele>221</ele><time>2023-10-27T10:10:17Z</time><name>PT437</name></trkpt>
<trkpt lat="53.307605" lon="-1.940035"><ele>221</ele><time>2023-10-27T10:10:21Z</time><name>PT438</name></trkpt>
<trkpt lat="53.307603" lon="-1.939996"><ele>221</ele><time>2023-10-27T10:10:24Z</time><name>PT439</name></trkpt>
<trkpt lat="53.307596" lon="-1.939968"><ele>221</ele><time>2023-10-27T10:10:27Z</time><name>PT440</name></trkpt>
<trkpt lat="53.307589" lon="-1.939935"><ele>221</ele><time>2023-10-27T10:10:31Z</time><name>PT441</name></trkpt>
<trkpt lat="53.307588" lon="-1.939879"><ele>222</ele><time>2023-10-27T10:10:34Z</time><name>PT442</name></trkpt>
<trkpt lat="53.307581" lon="-1.939849"><ele>223</ele><time>2023-10-27T10:10:37Z</time><name>PT443</name></trkpt>
<trkpt lat="53.307571" lon="-1.939806"><ele>224</ele><time>2023-10-27T10:10:41Z</time><name>PT444</name></trkpt>
<trkpt lat="53.307565" lon="-1.939763"><ele>224</ele><time>2023-10-27T10:10:44Z</time><name>PT445</name></trkpt>
<trkpt lat="53.307554" lon="-1.939729"><ele>225</ele><time>2023-10-27T10:10:47Z</time><name>PT446</name></trkpt>
<trkpt lat="53.307552" lon="-1.939695"><ele>225</ele><time>2023-10-27T10:10:50Z</time><name>PT447</name></trkpt>
<trkpt lat="53.307555" lon="-1.939638"><ele>225</ele><time>2023-10-27T10:10:55Z</time><name>PT448</name></trkpt>
<trkpt lat="53.307551" lon="-1.939577"><ele>225</ele><time>2023-10-27T10:10:58Z</time><name>PT449</name></trkpt>
<trkpt lat="53.307535" lon="-1.939553"><ele>226</ele><time>2023-10-27T10:11:01Z</time><name>PT450</name></trkpt>
<trkpt lat="53.307511" lon="-1.939520"><ele>226</ele><time>2023-10-27T10:11:05Z</time><name>PT451</name></trkpt>
<trkpt lat="53.307484" lon="-1.939492"><ele>226</ele><time>2023-10-27T10:11:10Z</time><name>PT452</name></trkpt>
<trkpt lat="53.307464" lon="-1.939477"><ele>226</ele><time>2023-10-27T10:11:13Z</time><name>PT453</name></trkpt>
<trkpt lat="53.307454" lon="-1.939442"><ele>226</ele><time>2023-10-27T10:11:16Z</time><name>PT454</name></trkpt>
<trkpt lat="53.307457" lon="-1.939444"><ele>226</ele><time>2023-10-27T10:11:20Z</time><name>PT455</name></trkpt>
<trkpt lat="53.307455" lon="-1.939424"><ele>226</ele><time>2023-10-27T10:11:25Z</time><name>PT456</name></trkpt>
<trkpt lat="53.307452" lon="-1.939382"><ele>226</ele><time>2023-10-27T10:11:28Z</time><name>PT457</name></trkpt>
<trkpt lat="53.307453" lon="-1.939338"><ele>226</ele><time>2023-10-27T10:11:32Z</time><name>PT458</name></trkpt>
<trkpt lat="53.307447" lon="-1.939304"><ele>227</ele><time>2023-10-27T10:11:35Z</time><name>PT459</name></trkpt>
<trkpt lat="53.307441" lon="-1.939261"><ele>227</ele><time>2023-10-27T10:11:38Z</time><name>PT460</name></trkpt>
<trkpt lat="53.307415" lon="-1.939239"><ele>228</ele><time>2023-10-27T10:11:43Z</time><name>PT461</name></trkpt>
<trkpt lat="53.307405" lon="-1.939200"><ele>228</ele><time>2023-10-27T10:11:46Z</time><name>PT462</name></trkpt>
<trkpt lat="53.307394" lon="-1.939168"><ele>229</ele><time>2023-10-27T10:11:49Z</time><name>PT463</name></trkpt>
<trkpt lat="53.307389" lon="-1.939124"><ele>229</ele><time>2023-10-27T10:11:52Z</time><name>PT464</name></trkpt>
<trkpt lat="53.307391" lon="-1.939112"><ele>229</ele><time>2023-10-27T10:11:55Z</time><name>PT465</name></trkpt>
<trkpt lat="53.307378" lon="-1.939066"><ele>229</ele><time>2023-10-27T10:11:59Z</time><name>PT466</name></trkpt>
<trkpt lat="53.307370" lon="-1.939021"><ele>229</ele><time>2023-10-27T10:12:02Z</time><name>PT467</name></trkpt>
<trkpt lat="53.307364" lon="-1.938976"><ele>230</ele><time>2023-10-27T10:12:05Z</time><name>PT468</name></trkpt>
<trkpt lat="53.307353" lon="-1.938919"><ele>230</ele><time>2023-10-27T10:12:10Z</time><name>PT469</name></trkpt>
<trkpt lat="53.307340" lon="-1.938865"><ele>231</ele><time>2023-10-27T10:12:13Z</time><name>PT470</name></trkpt>
<trkpt lat="53.307328" lon="-1.938826"><ele>231</ele><time>2023-10-27T10:12:16Z</time><name>PT471</name></trkpt>
<trkpt lat="53.307312" lon="-1.938771"><ele>231</ele><time>2023-10-27T10:12:20Z</time><name>PT472</name></trkpt>
<trkpt lat="53.307295" lon="-1.938712"><ele>232</ele><time>2023-10-27T10:12:25Z</time><name>PT473</name></trkpt>
<trkpt lat="53.307280" lon="-1.938671"><ele>232</ele><time>2023-10-27T10:12:28Z</time><name>PT474</name></trkpt>
<trkpt lat="53.307266" lon="-1.938614"><ele>232</ele><time>2023-10-27T10:12:31Z</time><name>PT475</name></trkpt>
<trkpt lat="53.307252" lon="-1.938559"><ele>232</ele><time>2023-10-27T10:12:35Z</time><name>PT476</name></trkpt>
<trkpt lat="53.307239" lon="-1.938498"><ele>232</ele><time>2023-10-27T10:12:40Z</time><name>PT477</name></trkpt>
<trkpt lat="53.307223" lon="-1.938454"><ele>233</ele><time>2023-10-27T10:12:43Z</time><name>PT478</name></trkpt>
<trkpt lat="53.307208" lon="-1.938418"><ele>232</ele><time>2023-10-27T10:12:46Z</time><name>PT479</name></trkpt>
<trkpt lat="53.307199" lon="-1.938367"><ele>232</ele><time>2023-10-27T10:12:50Z</time><name>PT480</name></trkpt>
<trkpt lat="53.307189" lon="-1.938336"><ele>232</ele><time>2023-10-27T10:12:53Z</time><name>PT481</name></trkpt>
<trkpt lat="53.307185" lon="-1.938295"><ele>233</ele><time>2023-10-27T10:12:56Z</time><name>PT482</name></trkpt>
<trkpt lat="53.307175" lon="-1.938234"><ele>233</ele><time>2023-10-27T10:13:01Z</time><name>PT483</name></trkpt>
<trkpt lat="53.307167" lon="-1.938192"><ele>233</ele><time>2023-10-27T10:13:04Z</time><name>PT484</name></trkpt>
<trkpt lat="53.307160" lon="-1.938150"><ele>233</ele><time>2023-10-27T10:13:07Z</time><name>PT485</name></trkpt>
<trkpt lat="53.307155" lon="-1.938102"><ele>233</ele><time>2023-10-27T10:13:10Z</time><name>PT486</name></trkpt>
<trkpt lat="53.307147" lon="-1.938043"><ele>233</ele><time>2023-10-27T10:13:13Z</time><name>PT487</name></trkpt>
<trkpt lat="53.307148" lon="-1.937988"><ele>232</ele><time>2023-10-27T10:13:18Z</time><name>PT488</name></trkpt>
<trkpt lat="53.307140" lon="-1.937941"><ele>232</ele><time>2023-10-27T10:13:21Z</time><name>PT489</name></trkpt>
<trkpt lat="53.307132" lon="-1.937895"><ele>233</ele><time>2023-10-27T10:13:24Z</time><name>PT490</name></trkpt>
<trkpt lat="53.307126" lon="-1.937882"><ele>234</ele><time>2023-10-27T10:13:27Z</time><name>PT491</name></trkpt>
<trkpt lat="53.307123" lon="-1.937877"><ele>234</ele><time>2023-10-27T10:13:30Z</time><name>PT492</name></trkpt>
<trkpt lat="53.307119" lon="-1.937857"><ele>235</ele><time>2023-10-27T10:13:33Z</time><name>PT493</name></trkpt>
<trkpt lat="53.307097" lon="-1.937839"><ele>235</ele><time>2023-10-27T10:13:37Z</time><name>PT494</name></trkpt>
<trkpt lat="53.307076" lon="-1.937797"><ele>235</ele><time>2023-10-27T10:13:42Z</time><name>PT495</name></trkpt>
<trkpt lat="53.307065" lon="-1.937775"><ele>235</ele><time>2023-10-27T10:13:45Z</time><name>PT496</name></trkpt>
<trkpt lat="53.307055" lon="-1.937728"><ele>234</ele><time>2023-10-27T10:13:48Z</time><name>PT497</name></trkpt>
<trkpt lat="53.307038" lon="-1.937705"><ele>234</ele><time>2023-10-27T10:13:51Z</time><name>PT498</name></trkpt>
<trkpt lat="53.307019" lon="-1.937680"><ele>234</ele><time>2023-10-27T10:13:56Z</time><name>PT499</name></trkpt>
<trkpt lat="53.307018" lon="-1.937681"><ele>234</ele><time>2023-10-27T10:13:59Z</time><name>PT500</name></trkpt>
<trkpt lat="53.307013" lon="-1.937659"><ele>234</ele><time>2023-10-27T10:14:03Z</time><name>PT501</name></trkpt>
<trkpt lat="53.306998" lon="-1.937612"><ele>234</ele><time>2023-10-27T10:14:08Z</time><name>PT502</name></trkpt>
<trkpt lat="53.306986" lon="-1.937566"><ele>234</ele><time>2023-10-27T10:14:11Z</time><name>PT503</name></trkpt>
<trkpt lat="53.306961" lon="-1.937514"><ele>233</ele><time>2023-10-27T10:14:14Z</time><name>PT504</name></trkpt>
<trkpt lat="53.306935" lon="-1.937458"><ele>233</ele><time>2023-10-27T10:14:18Z</time><name>PT505</name></trkpt>
<trkpt lat="53.306915" lon="-1.937415"><ele>233</ele><time>2023-10-27T10:14:21Z</time><name>PT506</name></trkpt>
<trkpt lat="53.306893" lon="-1.937367"><ele>233</ele><time>2023-10-27T10:14:24Z</time><name>PT507</name></trkpt>
<trkpt lat="53.306876" lon="-1.937320"><ele>233</ele><time>2023-10-27T10:14:27Z</time><name>PT508</name></trkpt>
<trkpt lat="53.306855" lon="-1.937263"><ele>234</ele><time>2023-10-27T10:14:32Z</time><name>PT509</name></trkpt>
<trkpt lat="53.306847" lon="-1.937247"><ele>234</ele><time>2023-10-27T10:14:35Z</time><name>PT510</name></trkpt>
<trkpt lat="53.306837" lon="-1.937209"><ele>234</ele><time>2023-10-27T10:14:38Z</time><name>PT511</name></trkpt>
<trkpt lat="53.306820" lon="-1.937171"><ele>234</ele><time>2023-10-27T10:14:41Z</time><name>PT512</name></trkpt>
<trkpt lat="53.306803" lon="-1.937128"><ele>234</ele><time>2023-10-27T10:14:44Z</time><name>PT513</name></trkpt>
<trkpt lat="53.306780" lon="-1.937070"><ele>235</ele><time>2023-10-27T10:14:48Z</time><name>PT514</name></trkpt>
<trkpt lat="53.306761" lon="-1.937027"><ele>235</ele><time>2023-10-27T10:14:51Z</time><name>PT515</name></trkpt>
<trkpt lat="53.306741" lon="-1.936981"><ele>236</ele><time>2023-10-27T10:14:54Z</time><name>PT516</name></trkpt>
<trkpt lat="53.306723" lon="-1.936935"><ele>236</ele><time>2023-10-27T10:14:57Z</time><name>PT517</name></trkpt>
<trkpt lat="53.306703" lon="-1.936895"><ele>236</ele><time>2023-10-27T10:15:00Z</time><name>PT518</name></trkpt>
<trkpt lat="53.306684" lon="-1.936849"><ele>236</ele><time>2023-10-27T10:15:05Z</time><name>PT519</name></trkpt>
<trkpt lat="53.306666" lon="-1.936796"><ele>236</ele><time>2023-10-27T10:15:08Z</time><name>PT520</name></trkpt>
<trkpt lat="53.306653" lon="-1.936759"><ele>236</ele><time>2023-10-27T10:15:11Z</time><name>PT521</name></trkpt>
<trkpt lat="53.306638" lon="-1.936708"><ele>237</ele><time>2023-10-27T10:15:15Z</time><name>PT522</name></trkpt>
<trkpt lat="53.306628" lon="-1.936669"><ele>237</ele><time>2023-10-27T10:15:18Z</time><name>PT523</name></trkpt>
<trkpt lat="53.306610" lon="-1.936628"><ele>237</ele><time>2023-10-27T10:15:21Z</time><name>PT524</name></trkpt>
<trkpt lat="53.306588" lon="-1.936579"><ele>237</ele><time>2023-10-27T10:15:26Z</time><name>PT525</name></trkpt>
<trkpt lat="53.306571" lon="-1.936532"><ele>237</ele><time>2023-10-27T10:15:29Z</time><name>PT526</name></trkpt>
<trkpt lat="53.306552" lon="-1.936481"><ele>238</ele><time>2023-10-27T10:15:32Z</time><name>PT527</name></trkpt>
<trkpt lat="53.306530" lon="-1.936424"><ele>238</ele><time>2023-10-27T10:15:35Z</time><name>PT528</name></trkpt>
<trkpt lat="53.306516" lon="-1.936363"><ele>239</ele><time>2023-10-27T10:15:39Z</time><name>PT529</name></trkpt>
<trkpt lat="53.306504" lon="-1.936314"><ele>238</ele><time>2023-10-27T10:15:42Z</time><name>PT530</name></trkpt>
<trkpt lat="53.306488" lon="-1.936274"><ele>238</ele><time>2023-10-27T10:15:47Z</time><name>PT531</name></trkpt>
<trkpt lat="53.306476" lon="-1.936237"><ele>239</ele><time>2023-10-27T10:15:50Z</time><name>PT532</name></trkpt>
<trkpt lat="53.306449" lon="-1.936204"><ele>239</ele><time>2023-10-27T10:15:53Z</time><name>PT533</name></trkpt>
<trkpt lat="53.306432" lon="-1.936183"><ele>239</ele><time>2023-10-27T10:15:56Z</time><name>PT534</name></trkpt>
<trkpt lat="53.306410" lon="-1.936163"><ele>239</ele><time>2023-10-27T10:16:01Z</time><name>PT535</name></trkpt>
<trkpt lat="53.306408" lon="-1.936167"><ele>241</ele><time>2023-10-27T10:16:04Z</time><name>PT536</name></trkpt>
<trkpt lat="53.306437" lon="-1.936158"><ele>240</ele><time>2023-10-27T10:16:19Z</time><name>PT537</name></trkpt>
<trkpt lat="53.306455" lon="-1.936132"><ele>239</ele><time>2023-10-27T10:16:22Z</time><name>PT538</name></trkpt>
<trkpt lat="53.306462" lon="-1.936084"><ele>239</ele><time>2023-10-27T10:16:25Z</time><name>PT539</name></trkpt>
<trkpt lat="53.306473" lon="-1.936037"><ele>240</ele><time>2023-10-27T10:16:28Z</time><name>PT540</name></trkpt>
<trkpt lat="53.306481" lon="-1.935970"><ele>242</ele><time>2023-10-27T10:16:32Z</time><name>PT541</name></trkpt>
<trkpt lat="53.306483" lon="-1.935915"><ele>242</ele><time>2023-10-27T10:16:35Z</time><name>PT542</name></trkpt>
<trkpt lat="53.306481" lon="-1.935872"><ele>241</ele><time>2023-10-27T10:16:38Z</time><name>PT543</name></trkpt>
<trkpt lat="53.306476" lon="-1.935825"><ele>241</ele><time>2023-10-27T10:16:41Z</time><name>PT544</name></trkpt>
<trkpt lat="53.306463" lon="-1.935762"><ele>241</ele><time>2023-10-27T10:16:46Z</time><name>PT545</name></trkpt>
<trkpt lat="53.306460" lon="-1.935700"><ele>241</ele><time>2023-10-27T10:16:49Z</time><name>PT546</name></trkpt>
<trkpt lat="53.306438" lon="-1.935658"><ele>240</ele><time>2023-10-27T10:16:53Z</time><name>PT547</name></trkpt>
<trkpt lat="53.306419" lon="-1.935643"><ele>240</ele><time>2023-10-27T10:16:56Z</time><name>PT548</name></trkpt>
<trkpt lat="53.306413" lon="-1.935628"><ele>240</ele><time>2023-10-27T10:16:59Z</time><name>PT549</name></trkpt>
<trkpt lat="53.306408" lon="-1.935613"><ele>240</ele><time>2023-10-27T10:17:02Z</time><name>PT550</name></trkpt>
<trkpt lat="53.306406" lon="-1.935609"><ele>240</ele><time>2023-10-27T10:17:07Z</time><name>PT551</name></trkpt>
<trkpt lat="53.306407" lon="-1.935576"><ele>242</ele><time>2023-10-27T10:17:31Z</time><name>PT552</name></trkpt>
<trkpt lat="53.306418" lon="-1.935608"><ele>244</ele><time>2023-10-27T10:18:52Z</time><name>PT553</name></trkpt>
<trkpt lat="53.306412" lon="-1.935616"><ele>245</ele><time>2023-10-27T10:18:55Z</time><name>PT554</name></trkpt>
<trkpt lat="53.306415" lon="-1.935553"><ele>246</ele><time>2023-10-27T10:19:48Z</time><name>PT555</name></trkpt>
<trkpt lat="53.306392" lon="-1.935558"><ele>248</ele><time>2023-10-27T10:19:51Z</time><name>PT556</name></trkpt>
<trkpt lat="53.306359" lon="-1.935545"><ele>248</ele><time>2023-10-27T10:19:55Z</time><name>PT557</name></trkpt>
<trkpt lat="53.306301" lon="-1.935532"><ele>246</ele><time>2023-10-27T10:20:00Z</time><name>PT558</name></trkpt>
<trkpt lat="53.306247" lon="-1.935499"><ele>244</ele><time>2023-10-27T10:20:03Z</time><name>PT559</name></trkpt>
<trkpt lat="53.306221" lon="-1.935481"><ele>238</ele><time>2023-10-27T10:20:06Z</time><name>PT560</name></trkpt>
<trkpt lat="53.306202" lon="-1.935497"><ele>234</ele><time>2023-10-27T10:20:09Z</time><name>PT561</name></trkpt>
<trkpt lat="53.306164" lon="-1.935508"><ele>234</ele><time>2023-10-27T10:20:12Z</time><name>PT562</name></trkpt>
<trkpt lat="53.306131" lon="-1.935513"><ele>236</ele><time>2023-10-27T10:20:15Z</time><name>PT563</name></trkpt>
<trkpt lat="53.306086" lon="-1.935514"><ele>240</ele><time>2023-10-27T10:20:19Z</time><name>PT564</name></trkpt>
<trkpt lat="53.306077" lon="-1.935520"><ele>242</ele><time>2023-10-27T10:20:27Z</time><name>PT565</name></trkpt>
<trkpt lat="53.306052" lon="-1.935512"><ele>243</ele><time>2023-10-27T10:20:30Z</time><name>PT566</name></trkpt>
<trkpt lat="53.306050" lon="-1.935483"><ele>242</ele><time>2023-10-27T10:20:33Z</time><name>PT567</name></trkpt>
<trkpt lat="53.306062" lon="-1.935451"><ele>240</ele><time>2023-10-27T10:20:36Z</time><name>PT568</name></trkpt>
<trkpt lat="53.306074" lon="-1.935414"><ele>238</ele><time>2023-10-27T10:20:40Z</time><name>PT569</name></trkpt>
<trkpt lat="53.306090" lon="-1.935375"><ele>237</ele><time>2023-10-27T10:20:45Z</time><name>PT570</name></trkpt>
<trkpt lat="53.306108" lon="-1.935346"><ele>237</ele><time>2023-10-27T10:20:48Z</time><name>PT571</name></trkpt>
<trkpt lat="53.306122" lon="-1.935306"><ele>235</ele><time>2023-10-27T10:20:51Z</time><name>PT572</name></trkpt>
<trkpt lat="53.306137" lon="-1.935256"><ele>236</ele><time>2023-10-27T10:20:55Z</time><name>PT573</name></trkpt>
<trkpt lat="53.306152" lon="-1.935207"><ele>237</ele><time>2023-10-27T10:20:58Z</time><name>PT574</name></trkpt>
<trkpt lat="53.306159" lon="-1.935158"><ele>237</ele><time>2023-10-27T10:21:02Z</time><name>PT575</name></trkpt>
<trkpt lat="53.306162" lon="-1.935105"><ele>238</ele><time>2023-10-27T10:21:05Z</time><name>PT576</name></trkpt>
<trkpt lat="53.306168" lon="-1.935047"><ele>238</ele><time>2023-10-27T10:21:08Z</time><name>PT577</name></trkpt>
<trkpt lat="53.306183" lon="-1.935006"><ele>238</ele><time>2023-10-27T10:21:11Z</time><name>PT578</name></trkpt>
<trkpt lat="53.306198" lon="-1.934959"><ele>237</ele><time>2023-10-27T10:21:14Z</time><name>PT579</name></trkpt>
<trkpt lat="53.306199" lon="-1.934908"><ele>237</ele><time>2023-10-27T10:21:17Z</time><name>PT580</name></trkpt>
<trkpt lat="53.306200" lon="-1.934840"><ele>238</ele><time>2023-10-27T10:21:21Z</time><name>PT581</name></trkpt>
<trkpt lat="53.306237" lon="-1.934775"><ele>242</ele><time>2023-10-27T10:21:26Z</time><name>PT582</name></trkpt>
<trkpt lat="53.306264" lon="-1.934710"><ele>243</ele><time>2023-10-27T10:21:29Z</time><name>PT583</name></trkpt>
<trkpt lat="53.306292" lon="-1.934644"><ele>244</ele><time>2023-10-27T10:21:33Z</time><name>PT584</name></trkpt>
<trkpt lat="53.306311" lon="-1.934607"><ele>243</ele><time>2023-10-27T10:21:36Z</time><name>PT585</name></trkpt>
<trkpt lat="53.306335" lon="-1.934558"><ele>242</ele><time>2023-10-27T10:21:41Z</time><name>PT586</name></trkpt>
<trkpt lat="53.306358" lon="-1.934511"><ele>240</ele><time>2023-10-27T10:21:44Z</time><name>PT587</name></trkpt>
<trkpt lat="53.306365" lon="-1.934461"><ele>241</ele><time>2023-10-27T10:21:47Z</time><name>PT588</name></trkpt>
<trkpt lat="53.306378" lon="-1.934400"><ele>241</ele><time>2023-10-27T10:21:51Z</time><name>PT589</name></trkpt>
<trkpt lat="53.306386" lon="-1.934357"><ele>242</ele><time>2023-10-27T10:21:54Z</time><name>PT590</name></trkpt>
<trkpt lat="53.306395" lon="-1.934295"><ele>242</ele><time>2023-10-27T10:21:59Z</time><name>PT591</name></trkpt>
<trkpt lat="53.306396" lon="-1.934230"><ele>244</ele><time>2023-10-27T10:22:02Z</time><name>PT592</name></trkpt>
<trkpt lat="53.306408" lon="-1.934148"><ele>246</ele><time>2023-10-27T10:22:05Z</time><name>PT593</name></trkpt>
<trkpt lat="53.306419" lon="-1.934086"><ele>248</ele><time>2023-10-27T10:22:08Z</time><name>PT594</name></trkpt>
<trkpt lat="53.306420" lon="-1.934019"><ele>250</ele><time>2023-10-27T10:22:12Z</time><name>PT595</name></trkpt>
<trkpt lat="53.306434" lon="-1.933971"><ele>249</ele><time>2023-10-27T10:22:17Z</time><name>PT596</name></trkpt>
<trkpt lat="53.306444" lon="-1.933901"><ele>249</ele><time>2023-10-27T10:22:20Z</time><name>PT597</name></trkpt>
<trkpt lat="53.306449" lon="-1.933839"><ele>249</ele><time>2023-10-27T10:22:23Z</time><name>PT598</name></trkpt>
<trkpt lat="53.306455" lon="-1.933769"><ele>251</ele><time>2023-10-27T10:22:27Z</time><name>PT599</name></trkpt>
<trkpt lat="53.306480" lon="-1.933704"><ele>250</ele><time>2023-10-27T10:22:32Z</time><name>PT600</name></trkpt>
<trkpt lat="53.306483" lon="-1.933657"><ele>250</ele><time>2023-10-27T10:22:35Z</time><name>PT601</name></trkpt>
<trkpt lat="53.306497" lon="-1.933612"><ele>250</ele><time>2023-10-27T10:22:38Z</time><name>PT602</name></trkpt>
<trkpt lat="53.306517" lon="-1.933570"><ele>249</ele><time>2023-10-27T10:22:41Z</time><name>PT603</name></trkpt>
<trkpt lat="53.306536" lon="-1.933500"><ele>249</ele><time>2023-10-27T10:22:44Z</time><name>PT604</name></trkpt>
<trkpt lat="53.306546" lon="-1.933456"><ele>249</ele><time>2023-10-27T10:22:47Z</time><name>PT605</name></trkpt>
<trkpt lat="53.306565" lon="-1.933381"><ele>250</ele><time>2023-10-27T10:22:51Z</time><name>PT606</name></trkpt>
<trkpt lat="53.306578" lon="-1.933310"><ele>250</ele><time>2023-10-27T10:22:56Z</time><name>PT607</name></trkpt>
<trkpt lat="53.306595" lon="-1.933248"><ele>251</ele><time>2023-10-27T10:22:59Z</time><name>PT608</name></trkpt>
<trkpt lat="53.306617" lon="-1.933178"><ele>251</ele><time>2023-10-27T10:23:03Z</time><name>PT609</name></trkpt>
<trkpt lat="53.306629" lon="-1.933120"><ele>251</ele><time>2023-10-27T10:23:07Z</time><name>PT610</name></trkpt>
<trkpt lat="53.306645" lon="-1.933068"><ele>251</ele><time>2023-10-27T10:23:10Z</time><name>PT611</name></trkpt>
<trkpt lat="53.306664" lon="-1.932955"><ele>254</ele><time>2023-10-27T10:23:13Z</time><name>PT612</name></trkpt>
<trkpt lat="53.306678" lon="-1.932832"><ele>257</ele><time>2023-10-27T10:23:17Z</time><name>PT613</name></trkpt>
<trkpt lat="53.306700" lon="-1.932740"><ele>257</ele><time>2023-10-27T10:23:22Z</time><name>PT614</name></trkpt>
<trkpt lat="53.306725" lon="-1.932658"><ele>258</ele><time>2023-10-27T10:23:25Z</time><name>PT615</name></trkpt>
<trkpt lat="53.306742" lon="-1.932600"><ele>258</ele><time>2023-10-27T10:23:28Z</time><name>PT616</name></trkpt>
<trkpt lat="53.306763" lon="-1.932539"><ele>258</ele><time>2023-10-27T10:23:31Z</time><name>PT617</name></trkpt>
<trkpt lat="53.306784" lon="-1.932459"><ele>259</ele><time>2023-10-27T10:23:35Z</time><name>PT618</name></trkpt>
<trkpt lat="53.306805" lon="-1.932403"><ele>259</ele><time>2023-10-27T10:23:38Z</time><name>PT619</name></trkpt>
<trkpt lat="53.306829" lon="-1.932328"><ele>259</ele><time>2023-10-27T10:23:43Z</time><name>PT620</name></trkpt>
<trkpt lat="53.306850" lon="-1.932273"><ele>259</ele><time>2023-10-27T10:23:46Z</time><name>PT621</name></trkpt>
<trkpt lat="53.306869" lon="-1.932230"><ele>259</ele><time>2023-10-27T10:23:49Z</time><name>PT622</name></trkpt>
<trkpt lat="53.306897" lon="-1.932196"><ele>259</ele><time>2023-10-27T10:23:52Z</time><name>PT623</name></trkpt>
<trkpt lat="53.306927" lon="-1.932165"><ele>258</ele><time>2023-10-27T10:23:56Z</time><name>PT624</name></trkpt>
<trkpt lat="53.306954" lon="-1.932109"><ele>259</ele><time>2023-10-27T10:24:01Z</time><name>PT625</name></trkpt>
<trkpt lat="53.306970" lon="-1.932062"><ele>258</ele><time>2023-10-27T10:24:04Z</time><name>PT626</name></trkpt>
<trkpt lat="53.306994" lon="-1.932032"><ele>258</ele><time>2023-10-27T10:24:07Z</time><name>PT627</name></trkpt>
<trkpt lat="53.307023" lon="-1.931997"><ele>257</ele><time>2023-10-27T10:24:10Z</time><name>PT628</name></trkpt>
<trkpt lat="53.307047" lon="-1.931959"><ele>256</ele><time>2023-10-27T10:24:13Z</time><name>PT629</name></trkpt>
<trkpt lat="53.307071" lon="-1.931920"><ele>256</ele><time>2023-10-27T10:24:17Z</time><name>PT630</name></trkpt>
<trkpt lat="53.307081" lon="-1.931880"><ele>255</ele><time>2023-10-27T10:24:20Z</time><name>PT631</name></trkpt>
<trkpt lat="53.307081" lon="-1.931845"><ele>255</ele><time>2023-10-27T10:24:25Z</time><name>PT632</name></trkpt>
<trkpt lat="53.307077" lon="-1.931808"><ele>255</ele><time>2023-10-27T10:24:28Z</time><name>PT633</name></trkpt>
<trkpt lat="53.307074" lon="-1.931789"><ele>256</ele><time>2023-10-27T10:24:31Z</time><name>PT634</name></trkpt>
<trkpt lat="53.307076" lon="-1.931766"><ele>255</ele><time>2023-10-27T10:24:42Z</time><name>PT635</name></trkpt>
<trkpt lat="53.307078" lon="-1.931734"><ele>255</ele><time>2023-10-27T10:24:45Z</time><name>PT636</name></trkpt>
<trkpt lat="53.307084" lon="-1.931703"><ele>255</ele><time>2023-10-27T10:24:48Z</time><name>PT637</name></trkpt>
<trkpt lat="53.307084" lon="-1.931689"><ele>255</ele><time>2023-10-27T10:25:02Z</time><name>PT638</name></trkpt>
<trkpt lat="53.307080" lon="-1.931643"><ele>256</ele><time>2023-10-27T10:25:05Z</time><name>PT639</name></trkpt>
<trkpt lat="53.307080" lon="-1.931636"><ele>256</ele><time>2023-10-27T10:25:08Z</time><name>PT640</name></trkpt>
<trkpt lat="53.307083" lon="-1.931622"><ele>255</ele><time>2023-10-27T10:25:23Z</time><name>PT641</name></trkpt>
<trkpt lat="53.307077" lon="-1.931598"><ele>255</ele><time>2023-10-27T10:25:26Z</time><name>PT642</name></trkpt>
<trkpt lat="53.307072" lon="-1.931582"><ele>256</ele><time>2023-10-27T10:27:17Z</time><name>PT643</name></trkpt>
<trkpt lat="53.307072" lon="-1.931572"><ele>256</ele><time>2023-10-27T10:29:05Z</time><name>PT644</name></trkpt>
<trkpt lat="53.307024" lon="-1.931497"><ele>257</ele><time>2023-10-27T10:29:08Z</time><name>PT645</name></trkpt>
<trkpt lat="53.306988" lon="-1.931454"><ele>258</ele><time>2023-10-27T10:29:11Z</time><name>PT646</name></trkpt>
<trkpt lat="53.306945" lon="-1.931384"><ele>260</ele><time>2023-10-27T10:29:15Z</time><name>PT647</name></trkpt>
<trkpt lat="53.306907" lon="-1.931329"><ele>261</ele><time>2023-10-27T10:29:18Z</time><name>PT648</name></trkpt>
<trkpt lat="53.306838" lon="-1.931236"><ele>260</ele><time>2023-10-27T10:29:23Z</time><name>PT649</name></trkpt>
<trkpt lat="53.306798" lon="-1.931176"><ele>261</ele><time>2023-10-27T10:29:26Z</time><name>PT650</name></trkpt>
<trkpt lat="53.306762" lon="-1.931119"><ele>263</ele><time>2023-10-27T10:29:30Z</time><name>PT651</name></trkpt>
<trkpt lat="53.306729" lon="-1.931059"><ele>264</ele><time>2023-10-27T10:29:35Z</time><name>PT652</name></trkpt>
<trkpt lat="53.306703" lon="-1.931021"><ele>264</ele><time>2023-10-27T10:29:38Z</time><name>PT653</name></trkpt>
<trkpt lat="53.306680" lon="-1.930987"><ele>265</ele><time>2023-10-27T10:29:41Z</time><name>PT654</name></trkpt>
<trkpt lat="53.306658" lon="-1.930956"><ele>265</ele><time>2023-10-27T10:29:44Z</time><name>PT655</name></trkpt>
<trkpt lat="53.306626" lon="-1.930916"><ele>266</ele><time>2023-10-27T10:29:47Z</time><name>PT656</name></trkpt>
<trkpt lat="53.306605" lon="-1.930881"><ele>266</ele><time>2023-10-27T10:29:50Z</time><name>PT657</name></trkpt>
<trkpt lat="53.306578" lon="-1.930835"><ele>267</ele><time>2023-10-27T10:29:54Z</time><name>PT658</name></trkpt>
<trkpt lat="53.306560" lon="-1.930784"><ele>269</ele><time>2023-10-27T10:29:59Z</time><name>PT659</name></trkpt>
<trkpt lat="53.306545" lon="-1.930726"><ele>269</ele><time>2023-10-27T10:30:02Z</time><name>PT660</name></trkpt>
<trkpt lat="53.306531" lon="-1.930679"><ele>268</ele><time>2023-10-27T10:30:05Z</time><name>PT661</name></trkpt>
<trkpt lat="53.306519" lon="-1.930619"><ele>270</ele><time>2023-10-27T10:30:10Z</time><name>PT662</name></trkpt>
<trkpt lat="53.306509" lon="-1.930562"><ele>270</ele><time>2023-10-27T10:30:13Z</time><name>PT663</name></trkpt>
<trkpt lat="53.306500" lon="-1.930507"><ele>271</ele><time>2023-10-27T10:30:17Z</time><name>PT664</name></trkpt>
<trkpt lat="53.306492" lon="-1.930453"><ele>271</ele><time>2023-10-27T10:30:22Z</time><name>PT665</name></trkpt>
<trkpt lat="53.306485" lon="-1.930405"><ele>271</ele><time>2023-10-27T10:30:25Z</time><name>PT666</name></trkpt>
<trkpt lat="53.306479" lon="-1.930373"><ele>271</ele><time>2023-10-27T10:30:28Z</time><name>PT667</name></trkpt>
<trkpt lat="53.306470" lon="-1.930332"><ele>271</ele><time>2023-10-27T10:30:31Z</time><name>PT668</name></trkpt>
<trkpt lat="53.306458" lon="-1.930287"><ele>271</ele><time>2023-10-27T10:30:36Z</time><name>PT669</name></trkpt>
<trkpt lat="53.306450" lon="-1.930244"><ele>272</ele><time>2023-10-27T10:30:39Z</time><name>PT670</name></trkpt>
<trkpt lat="53.306440" lon="-1.930198"><ele>273</ele><time>2023-10-27T10:30:42Z</time><name>PT671</name></trkpt>
<trkpt lat="53.306437" lon="-1.930180"><ele>273</ele><time>2023-10-27T10:30:45Z</time><name>PT672</name></trkpt>
<trkpt lat="53.306449" lon="-1.930117"><ele>273</ele><time>2023-10-27T10:31:00Z</time><name>PT673</name></trkpt>
<trkpt lat="53.306451" lon="-1.930078"><ele>274</ele><time>2023-10-27T10:31:03Z</time><name>PT674</name></trkpt>
<trkpt lat="53.306456" lon="-1.930034"><ele>274</ele><time>2023-10-27T10:31:10Z</time><name>PT675</name></trkpt>
<trkpt lat="53.306459" lon="-1.930024"><ele>274</ele><time>2023-10-27T10:31:13Z</time><name>PT676</name></trkpt>
<trkpt lat="53.306478" lon="-1.929980"><ele>275</ele><time>2023-10-27T10:31:21Z</time><name>PT677</name></trkpt>
<trkpt lat="53.306476" lon="-1.929929"><ele>275</ele><time>2023-10-27T10:31:24Z</time><name>PT678</name></trkpt>
<trkpt lat="53.306485" lon="-1.929872"><ele>276</ele><time>2023-10-27T10:31:27Z</time><name>PT679</name></trkpt>
<trkpt lat="53.306498" lon="-1.929827"><ele>276</ele><time>2023-10-27T10:31:31Z</time><name>PT680</name></trkpt>
<trkpt lat="53.306502" lon="-1.929798"><ele>275</ele><time>2023-10-27T10:31:34Z</time><name>PT681</name></trkpt>
<trkpt lat="53.306524" lon="-1.929745"><ele>275</ele><time>2023-10-27T10:31:39Z</time><name>PT682</name></trkpt>
<trkpt lat="53.306551" lon="-1.929708"><ele>277</ele><time>2023-10-27T10:31:42Z</time><name>PT683</name></trkpt>
<trkpt lat="53.306583" lon="-1.929662"><ele>278</ele><time>2023-10-27T10:31:45Z</time><name>PT684</name></trkpt>
<trkpt lat="53.306613" lon="-1.929625"><ele>279</ele><time>2023-10-27T10:31:48Z</time><name>PT685</name></trkpt>
<trkpt lat="53.306650" lon="-1.929592"><ele>279</ele><time>2023-10-27T10:31:52Z</time><name>PT686</name></trkpt>
<trkpt lat="53.306678" lon="-1.929549"><ele>279</ele><time>2023-10-27T10:31:57Z</time><name>PT687</name></trkpt>
<trkpt lat="53.306700" lon="-1.929510"><ele>279</ele><time>2023-10-27T10:32:00Z</time><name>PT688</name></trkpt>
<trkpt lat="53.306706" lon="-1.929490"><ele>279</ele><time>2023-10-27T10:32:03Z</time><name>PT689</name></trkpt>
<trkpt lat="53.306719" lon="-1.929448"><ele>281</ele><time>2023-10-27T10:32:07Z</time><name>PT690</name></trkpt>
<trkpt lat="53.306733" lon="-1.929405"><ele>280</ele><time>2023-10-27T10:32:12Z</time><name>PT691</name></trkpt>
<trkpt lat="53.306754" lon="-1.929371"><ele>280</ele><time>2023-10-27T10:32:15Z</time><name>PT692</name></trkpt>
<trkpt lat="53.306770" lon="-1.929344"><ele>281</ele><time>2023-10-27T10:32:18Z</time><name>PT693</name></trkpt>
<trkpt lat="53.306785" lon="-1.929305"><ele>282</ele><time>2023-10-27T10:32:21Z</time><name>PT694</name></trkpt>
<trkpt lat="53.306801" lon="-1.929249"><ele>282</ele><time>2023-10-27T10:32:24Z</time><name>PT695</name></trkpt>
<trkpt lat="53.306810" lon="-1.929203"><ele>282</ele><time>2023-10-27T10:32:27Z</time><name>PT696</name></trkpt>
<trkpt lat="53.306829" lon="-1.929134"><ele>283</ele><time>2023-10-27T10:32:31Z</time><name>PT697</name></trkpt>
<trkpt lat="53.306850" lon="-1.929090"><ele>285</ele><time>2023-10-27T10:32:34Z</time><name>PT698</name></trkpt>
<trkpt lat="53.306861" lon="-1.929046"><ele>286</ele><time>2023-10-27T10:32:37Z</time><name>PT699</name></trkpt>
<trkpt lat="53.306869" lon="-1.929002"><ele>287</ele><time>2023-10-27T10:32:40Z</time><name>PT700</name></trkpt>
<trkpt lat="53.306879" lon="-1.928940"><ele>288</ele><time>2023-10-27T10:32:45Z</time><name>PT701</name></trkpt>
<trkpt lat="53.306898" lon="-1.928884"><ele>288</ele><time>2023-10-27T10:32:48Z</time><name>PT702</name></trkpt>
<trkpt lat="53.306907" lon="-1.928839"><ele>289</ele><time>2023-10-27T10:32:51Z</time><name>PT703</name></trkpt>
<trkpt lat="53.306916" lon="-1.928786"><ele>289</ele><time>2023-10-27T10:32:55Z</time><name>PT704</name></trkpt>
<trkpt lat="53.306933" lon="-1.928734"><ele>290</ele><time>2023-10-27T10:33:00Z</time><name>PT705</name></trkpt>
<trkpt lat="53.306944" lon="-1.928690"><ele>290</ele><time>2023-10-27T10:33:03Z</time><name>PT706</name></trkpt>
<trkpt lat="53.306970" lon="-1.928635"><ele>292</ele><time>2023-10-27T10:33:06Z</time><name>PT707</name></trkpt>
<trkpt lat="53.306985" lon="-1.928592"><ele>292</ele><time>2023-10-27T10:33:09Z</time><name>PT708</name></trkpt>
<trkpt lat="53.307008" lon="-1.928542"><ele>294</ele><time>2023-10-27T10:33:13Z</time><name>PT709</name></trkpt>
<trkpt lat="53.307029" lon="-1.928500"><ele>294</ele><time>2023-10-27T10:33:16Z</time><name>PT710</name></trkpt>
<trkpt lat="53.307051" lon="-1.928441"><ele>295</ele><time>2023-10-27T10:33:21Z</time><name>PT711</name></trkpt>
<trkpt lat="53.307071" lon="-1.928406"><ele>296</ele><time>2023-10-27T10:33:24Z</time><name>PT712</name></trkpt>
<trkpt lat="53.307094" lon="-1.928355"><ele>297</ele><time>2023-10-27T10:33:27Z</time><name>PT713</name></trkpt>
<trkpt lat="53.307117" lon="-1.928305"><ele>297</ele><time>2023-10-27T10:33:31Z</time><name>PT714</name></trkpt>
<trkpt lat="53.307141" lon="-1.928274"><ele>299</ele><time>2023-10-27T10:33:34Z</time><name>PT715</name></trkpt>
<trkpt lat="53.307163" lon="-1.928233"><ele>300</ele><time>2023-10-27T10:33:39Z</time><name>PT716</name></trkpt>
<trkpt lat="53.307188" lon="-1.928186"><ele>301</ele><time>2023-10-27T10:33:42Z</time><name>PT717</name></trkpt>
<trkpt lat="53.307205" lon="-1.928136"><ele>301</ele><time>2023-10-27T10:33:46Z</time><name>PT718</name></trkpt>
<trkpt lat="53.307221" lon="-1.928101"><ele>302</ele><time>2023-10-27T10:33:49Z</time><name>PT719</name></trkpt>
<trkpt lat="53.307246" lon="-1.928059"><ele>303</ele><time>2023-10-27T10:33:54Z</time><name>PT720</name></trkpt>
<trkpt lat="53.307275" lon="-1.928013"><ele>305</ele><time>2023-10-27T10:33:57Z</time><name>PT721</name></trkpt>
<trkpt lat="53.307300" lon="-1.927970"><ele>307</ele><time>2023-10-27T10:34:01Z</time><name>PT722</name></trkpt>
<trkpt lat="53.307318" lon="-1.927929"><ele>307</ele><time>2023-10-27T10:34:06Z</time><name>PT723</name></trkpt>
<trkpt lat="53.307324" lon="-1.927919"><ele>307</ele><time>2023-10-27T10:34:09Z</time><name>PT724</name></trkpt>
<trkpt lat="53.307324" lon="-1.927920"><ele>307</ele><time>2023-10-27T10:34:12Z</time><name>PT725</name></trkpt>
<trkpt lat="53.307314" lon="-1.927930"><ele>306</ele><time>2023-10-27T10:34:54Z</time><name>PT726</name></trkpt>
<trkpt lat="53.307310" lon="-1.927926"><ele>306</ele><time>2023-10-27T10:34:57Z</time><name>PT727</name></trkpt>
<trkpt lat="53.307328" lon="-1.927902"><ele>305</ele><time>2023-10-27T10:35:10Z</time><name>PT728</name></trkpt>
<trkpt lat="53.307342" lon="-1.927857"><ele>305</ele><time>2023-10-27T10:35:13Z</time><name>PT729</name></trkpt>
<trkpt lat="53.307356" lon="-1.927819"><ele>305</ele><time>2023-10-27T10:35:16Z</time><name>PT730</name></trkpt>
<trkpt lat="53.307366" lon="-1.927775"><ele>305</ele><time>2023-10-27T10:35:21Z</time><name>PT731</name></trkpt>
<trkpt lat="53.307373" lon="-1.927747"><ele>304</ele><time>2023-10-27T10:35:24Z</time><name>PT732</name></trkpt>
<trkpt lat="53.307395" lon="-1.927711"><ele>305</ele><time>2023-10-27T10:35:27Z</time><name>PT733</name></trkpt>
<trkpt lat="53.307412" lon="-1.927675"><ele>305</ele><time>2023-10-27T10:35:31Z</time><name>PT734</name></trkpt>
<trkpt lat="53.307423" lon="-1.927644"><ele>304</ele><time>2023-10-27T10:35:34Z</time><name>PT735</name></trkpt>
<trkpt lat="53.307447" lon="-1.927601"><ele>305</ele><time>2023-10-27T10:35:39Z</time><name>PT736</name></trkpt>
<trkpt lat="53.307461" lon="-1.927572"><ele>305</ele><time>2023-10-27T10:35:42Z</time><name>PT737</name></trkpt>
<trkpt lat="53.307484" lon="-1.927527"><ele>306</ele><time>2023-10-27T10:35:45Z</time><name>PT738</name></trkpt>
<trkpt lat="53.307497" lon="-1.927498"><ele>306</ele><time>2023-10-27T10:35:48Z</time><name>PT739</name></trkpt>
<trkpt lat="53.307515" lon="-1.927465"><ele>307</ele><time>2023-10-27T10:35:52Z</time><name>PT740</name></trkpt>
<trkpt lat="53.307532" lon="-1.927453"><ele>309</ele><time>2023-10-27T10:35:57Z</time><name>PT741</name></trkpt>
<trkpt lat="53.307539" lon="-1.927452"><ele>310</ele><time>2023-10-27T10:36:00Z</time><name>PT742</name></trkpt>
<trkpt lat="53.307551" lon="-1.927425"><ele>310</ele><time>2023-10-27T10:36:03Z</time><name>PT743</name></trkpt>
<trkpt lat="53.307570" lon="-1.927397"><ele>312</ele><time>2023-10-27T10:36:07Z</time><name>PT744</name></trkpt>
<trkpt lat="53.307589" lon="-1.927362"><ele>312</ele><time>2023-10-27T10:36:12Z</time><name>PT745</name></trkpt>
<trkpt lat="53.307588" lon="-1.927366"><ele>312</ele><time>2023-10-27T10:36:15Z</time><name>PT746</name></trkpt>
<trkpt lat="53.307589" lon="-1.927338"><ele>313</ele><time>2023-10-27T10:36:18Z</time><name>PT747</name></trkpt>
<trkpt lat="53.307587" lon="-1.927353"><ele>312</ele><time>2023-10-27T10:36:21Z</time><name>PT748</name></trkpt>
<trkpt lat="53.307590" lon="-1.927342"><ele>312</ele><time>2023-10-27T10:36:29Z</time><name>PT749</name></trkpt>
<trkpt lat="53.307607" lon="-1.927303"><ele>312</ele><time>2023-10-27T10:36:32Z</time><name>PT750</name></trkpt>
<trkpt lat="53.307631" lon="-1.927260"><ele>310</ele><time>2023-10-27T10:36:35Z</time><name>PT751</name></trkpt>
<trkpt lat="53.307646" lon="-1.927222"><ele>310</ele><time>2023-10-27T10:36:39Z</time><name>PT752</name></trkpt>
<trkpt lat="53.307668" lon="-1.927187"><ele>310</ele><time>2023-10-27T10:36:44Z</time><name>PT753</name></trkpt>
<trkpt lat="53.307691" lon="-1.927149"><ele>310</ele><time>2023-10-27T10:36:47Z</time><name>PT754</name></trkpt>
<trkpt lat="53.307703" lon="-1.927098"><ele>310</ele><time>2023-10-27T10:36:51Z</time><name>PT755</name></trkpt>
<trkpt lat="53.307715" lon="-1.927065"><ele>310</ele><time>2023-10-27T10:36:54Z</time><name>PT756</name></trkpt>
<trkpt lat="53.307728" lon="-1.927035"><ele>311</ele><time>2023-10-27T10:36:57Z</time><name>PT757</name></trkpt>
<trkpt lat="53.307747" lon="-1.926997"><ele>313</ele><time>2023-10-27T10:37:02Z</time><name>PT758</name></trkpt>
<trkpt lat="53.307757" lon="-1.926964"><ele>314</ele><time>2023-10-27T10:37:05Z</time><name>PT759</name></trkpt>
<trkpt lat="53.307772" lon="-1.926926"><ele>316</ele><time>2023-10-27T10:37:08Z</time><name>PT760</name></trkpt>
<trkpt lat="53.307771" lon="-1.926901"><ele>316</ele><time>2023-10-27T10:37:11Z</time><name>PT761</name></trkpt>
<trkpt lat="53.307779" lon="-1.926876"><ele>318</ele><time>2023-10-27T10:37:15Z</time><name>PT762</name></trkpt>
<trkpt lat="53.307782" lon="-1.926839"><ele>319</ele><time>2023-10-27T10:37:18Z</time><name>PT763</name></trkpt>
<trkpt lat="53.307758" lon="-1.926799"><ele>318</ele><time>2023-10-27T10:37:22Z</time><name>PT764</name></trkpt>
<trkpt lat="53.307743" lon="-1.926758"><ele>318</ele><time>2023-10-27T10:37:26Z</time><name>PT765</name></trkpt>
<trkpt lat="53.307734" lon="-1.926735"><ele>317</ele><time>2023-10-27T10:37:31Z</time><name>PT766</name></trkpt>
<trkpt lat="53.307724" lon="-1.926719"><ele>318</ele><time>2023-10-27T10:37:34Z</time><name>PT767</name></trkpt>
<trkpt lat="53.307720" lon="-1.926701"><ele>318</ele><time>2023-10-27T10:37:37Z</time><name>PT768</name></trkpt>
<trkpt lat="53.307717" lon="-1.926668"><ele>319</ele><time>2023-10-27T10:37:42Z</time><name>PT769</name></trkpt>
<trkpt lat="53.307708" lon="-1.926633"><ele>319</ele><time>2023-10-27T10:37:45Z</time><name>PT770</name></trkpt>
<trkpt lat="53.307699" lon="-1.926603"><ele>319</ele><time>2023-10-27T10:37:48Z</time><name>PT771</name></trkpt>
<trkpt lat="53.307690" lon="-1.926563"><ele>321</ele><time>2023-10-27T10:37:51Z</time><name>PT772</name></trkpt>
<trkpt lat="53.307682" lon="-1.926540"><ele>321</ele><time>2023-10-27T10:37:54Z</time><name>PT773</name></trkpt>
<trkpt lat="53.307682" lon="-1.926527"><ele>321</ele><time>2023-10-27T10:37:57Z</time><name>PT774</name></trkpt>
<trkpt lat="53.307680" lon="-1.926530"><ele>321</ele><time>2023-10-27T10:38:01Z</time><name>PT775</name></trkpt>
<trkpt lat="53.307676" lon="-1.926518"><ele>322</ele><time>2023-10-27T10:38:06Z</time><name>PT776</name></trkpt>
<trkpt lat="53.307677" lon="-1.926507"><ele>322</ele><time>2023-10-27T10:38:15Z</time><name>PT777</name></trkpt>
<trkpt lat="53.307672" lon="-1.926503"><ele>322</ele><time>2023-10-27T10:38:18Z</time><name>PT778</name></trkpt>
<trkpt lat="53.307667" lon="-1.926483"><ele>322</ele><time>2023-10-27T10:38:22Z</time><name>PT779</name></trkpt>
<trkpt lat="53.307673" lon="-1.926458"><ele>322</ele><time>2023-10-27T10:38:50Z</time><name>PT780</name></trkpt>
<trkpt lat="53.307677" lon="-1.926433"><ele>322</ele><time>2023-10-27T10:38:54Z</time><name>PT781</name></trkpt>
<trkpt lat="53.307668" lon="-1.926405"><ele>323</ele><time>2023-10-27T10:39:05Z</time><name>PT782</name></trkpt>
<trkpt lat="53.307666" lon="-1.926400"><ele>323</ele><time>2023-10-27T10:39:08Z</time><name>PT783</name></trkpt>
<trkpt lat="53.307654" lon="-1.926404"><ele>323</ele><time>2023-10-27T10:39:45Z</time><name>PT784</name></trkpt>
<trkpt lat="53.307593" lon="-1.926420"><ele>323</ele><time>2023-10-27T10:39:49Z</time><name>PT785</name></trkpt>
<trkpt lat="53.307535" lon="-1.926412"><ele>323</ele><time>2023-10-27T10:39:54Z</time><name>PT786</name></trkpt>
<trkpt lat="53.307492" lon="-1.926404"><ele>322</ele><time>2023-10-27T10:39:57Z</time><name>PT787</name></trkpt>
<trkpt lat="53.307467" lon="-1.926388"><ele>322</ele><time>2023-10-27T10:40:00Z</time><name>PT788</name></trkpt>
<trkpt lat="53.307446" lon="-1.926356"><ele>321</ele><time>2023-10-27T10:40:03Z</time><name>PT789</name></trkpt>
<trkpt lat="53.307420" lon="-1.926317"><ele>321</ele><time>2023-10-27T10:40:06Z</time><name>PT790</name></trkpt>
<trkpt lat="53.307409" lon="-1.926308"><ele>326</ele><time>2023-10-27T10:40:09Z</time><name>PT791</name></trkpt>
<trkpt lat="53.307390" lon="-1.926294"><ele>326</ele><time>2023-10-27T10:40:12Z</time><name>PT792</name></trkpt>
<trkpt lat="53.307360" lon="-1.926262"><ele>325</ele><time>2023-10-27T10:40:15Z</time><name>PT793</name></trkpt>
<trkpt lat="53.307329" lon="-1.926240"><ele>324</ele><time>2023-10-27T10:40:18Z</time><name>PT794</name></trkpt>
<trkpt lat="53.307291" lon="-1.926196"><ele>324</ele><time>2023-10-27T10:40:23Z</time><name>PT795</name></trkpt>
<trkpt lat="53.307252" lon="-1.926162"><ele>324</ele><time>2023-10-27T10:40:26Z</time><name>PT796</name></trkpt>
<trkpt lat="53.307206" lon="-1.926120"><ele>324</ele><time>2023-10-27T10:40:29Z</time><name>PT797</name></trkpt>
<trkpt lat="53.307158" lon="-1.926061"><ele>324</ele><time>2023-10-27T10:40:33Z</time><name>PT798</name></trkpt>
<trkpt lat="53.307124" lon="-1.926036"><ele>324</ele><time>2023-10-27T10:40:37Z</time><name>PT799</name></trkpt>
<trkpt lat="53.307075" lon="-1.925982"><ele>325</ele><time>2023-10-27T10:40:41Z</time><name>PT800</name></trkpt>
<trkpt lat="53.307028" lon="-1.925942"><ele>326</ele><time>2023-10-27T10:40:44Z</time><name>PT801</name></trkpt>
<trkpt lat="53.306981" lon="-1.925883"><ele>328</ele><time>2023-10-27T10:40:48Z</time><name>PT802</name></trkpt>
<trkpt lat="53.306952" lon="-1.925838"><ele>331</ele><time>2023-10-27T10:40:51Z</time><name>PT803</name></trkpt>
<trkpt lat="53.306916" lon="-1.925792"><ele>331</ele><time>2023-10-27T10:40:56Z</time><name>PT804</name></trkpt>
<trkpt lat="53.306910" lon="-1.925775"><ele>333</ele><time>2023-10-27T10:40:59Z</time><name>PT805</name></trkpt>
<trkpt lat="53.306897" lon="-1.925768"><ele>335</ele><time>2023-10-27T10:41:06Z</time><name>PT806</name></trkpt>
<trkpt lat="53.306869" lon="-1.925717"><ele>335</ele><time>2023-10-27T10:41:09Z</time><name>PT807</name></trkpt>
<trkpt lat="53.306834" lon="-1.925688"><ele>333</ele><time>2023-10-27T10:41:13Z</time><name>PT808</name></trkpt>
<trkpt lat="53.306817" lon="-1.925665"><ele>332</ele><time>2023-10-27T10:41:16Z</time><name>PT809</name></trkpt>
<trkpt lat="53.306794" lon="-1.925625"><ele>332</ele><time>2023-10-27T10:41:20Z</time><name>PT810</name></trkpt>
<trkpt lat="53.306770" lon="-1.925596"><ele>333</ele><time>2023-10-27T10:41:23Z</time><name>PT811</name></trkpt>
<trkpt lat="53.306748" lon="-1.925555"><ele>333</ele><time>2023-10-27T10:41:27Z</time><name>PT812</name></trkpt>
<trkpt lat="53.306724" lon="-1.925512"><ele>334</ele><time>2023-10-27T10:41:30Z</time><name>PT813</name></trkpt>
<trkpt lat="53.306700" lon="-1.925469"><ele>335</ele><time>2023-10-27T10:41:33Z</time><name>PT814</name></trkpt>
<trkpt lat="53.306666" lon="-1.925414"><ele>337</ele><time>2023-10-27T10:41:37Z</time><name>PT815</name></trkpt>
<trkpt lat="53.306628" lon="-1.925361"><ele>336</ele><time>2023-10-27T10:41:42Z</time><name>PT816</name></trkpt>
<trkpt lat="53.306597" lon="-1.925330"><ele>336</ele><time>2023-10-27T10:41:45Z</time><name>PT817</name></trkpt>
<trkpt lat="53.306565" lon="-1.925278"><ele>337</ele><time>2023-10-27T10:41:48Z</time><name>PT818</name></trkpt>
<trkpt lat="53.306525" lon="-1.925226"><ele>337</ele><time>2023-10-27T10:41:51Z</time><name>PT819</name></trkpt>
<trkpt lat="53.306483" lon="-1.925177"><ele>338</ele><time>2023-10-27T10:41:55Z</time><name>PT820</name></trkpt>
<trkpt lat="53.306435" lon="-1.925108"><ele>339</ele><time>2023-10-27T10:42:00Z</time><name>PT821</name></trkpt>
<trkpt lat="53.306391" lon="-1.925055"><ele>341</ele><time>2023-10-27T10:42:03Z</time><name>PT822</name></trkpt>
<trkpt lat="53.306340" lon="-1.925009"><ele>342</ele><time>2023-10-27T10:42:06Z</time><name>PT823</name></trkpt>
<trkpt lat="53.306296" lon="-1.924999"><ele>342</ele><time>2023-10-27T10:42:10Z</time><name>PT824</name></trkpt>
<trkpt lat="53.306259" lon="-1.924982"><ele>340</ele><time>2023-10-27T10:42:13Z</time><name>PT825</name></trkpt>
<trkpt lat="53.306216" lon="-1.924960"><ele>340</ele><time>2023-10-27T10:42:17Z</time><name>PT826</name></trkpt>
<trkpt lat="53.306172" lon="-1.924949"><ele>339</ele><time>2023-10-27T10:42:20Z</time><name>PT827</name></trkpt>
<trkpt lat="53.306137" lon="-1.924924"><ele>340</ele><time>2023-10-27T10:42:23Z</time><name>PT828</name></trkpt>
<trkpt lat="53.306109" lon="-1.924901"><ele>339</ele><time>2023-10-27T10:42:26Z</time><name>PT829</name></trkpt>
<trkpt lat="53.306071" lon="-1.924868"><ele>339</ele><time>2023-10-27T10:42:29Z</time><name>PT830</name></trkpt>
<trkpt lat="53.306032" lon="-1.924834"><ele>340</ele><time>2023-10-27T10:42:32Z</time><name>PT831</name></trkpt>
<trkpt lat="53.305977" lon="-1.924793"><ele>341</ele><time>2023-10-27T10:42:35Z</time><name>PT832</name></trkpt>
<trkpt lat="53.305940" lon="-1.924764"><ele>341</ele><time>2023-10-27T10:42:38Z</time><name>PT833</name></trkpt>
<trkpt lat="53.305902" lon="-1.924738"><ele>341</ele><time>2023-10-27T10:42:42Z</time><name>PT834</name></trkpt>
<trkpt lat="53.305854" lon="-1.924708"><ele>343</ele><time>2023-10-27T10:42:46Z</time><name>PT835</name></trkpt>
<trkpt lat="53.305820" lon="-1.924686"><ele>343</ele><time>2023-10-27T10:42:49Z</time><name>PT836</name></trkpt>
<trkpt lat="53.305784" lon="-1.924657"><ele>346</ele><time>2023-10-27T10:42:52Z</time><name>PT837</name></trkpt>
<trkpt lat="53.305746" lon="-1.924618"><ele>349</ele><time>2023-10-27T10:42:55Z</time><name>PT838</name></trkpt>
<trkpt lat="53.305703" lon="-1.924584"><ele>351</ele><time>2023-10-27T10:42:59Z</time><name>PT839</name></trkpt>
<trkpt lat="53.305669" lon="-1.924553"><ele>353</ele><time>2023-10-27T10:43:04Z</time><name>PT840</name></trkpt>
<trkpt lat="53.305647" lon="-1.924521"><ele>353</ele><time>2023-10-27T10:43:07Z</time><name>PT841</name></trkpt>
<trkpt lat="53.305610" lon="-1.924496"><ele>352</ele><time>2023-10-27T10:43:10Z</time><name>PT842</name></trkpt>
<trkpt lat="53.305583" lon="-1.924484"><ele>352</ele><time>2023-10-27T10:43:13Z</time><name>PT843</name></trkpt>
<trkpt lat="53.305551" lon="-1.924457"><ele>352</ele><time>2023-10-27T10:43:17Z</time><name>PT844</name></trkpt>
<trkpt lat="53.305516" lon="-1.924439"><ele>351</ele><time>2023-10-27T10:43:22Z</time><name>PT845</name></trkpt>
<trkpt lat="53.305475" lon="-1.924425"><ele>352</ele><time>2023-10-27T10:43:25Z</time><name>PT846</name></trkpt>
<trkpt lat="53.305435" lon="-1.924417"><ele>352</ele><time>2023-10-27T10:43:29Z</time><name>PT847</name></trkpt>
<trkpt lat="53.305395" lon="-1.924410"><ele>355</ele><time>2023-10-27T10:43:34Z</time><name>PT848</name></trkpt>
<trkpt lat="53.305373" lon="-1.924397"><ele>356</ele><time>2023-10-27T10:43:37Z</time><name>PT849</name></trkpt>
<trkpt lat="53.305364" lon="-1.924394"><ele>356</ele><time>2023-10-27T10:43:40Z</time><name>PT850</name></trkpt>
<trkpt lat="53.305332" lon="-1.924381"><ele>356</ele><time>2023-10-27T10:43:44Z</time><name>PT851</name></trkpt>
<trkpt lat="53.305294" lon="-1.924368"><ele>356</ele><time>2023-10-27T10:43:49Z</time><name>PT852</name></trkpt>
<trkpt lat="53.305265" lon="-1.924340"><ele>356</ele><time>2023-10-27T10:43:52Z</time><name>PT853</name></trkpt>
<trkpt lat="53.305241" lon="-1.924319"><ele>356</ele><time>2023-10-27T10:43:55Z</time><name>PT854</name></trkpt>
<trkpt lat="53.305212" lon="-1.924278"><ele>356</ele><time>2023-10-27T10:43:58Z</time><name>PT855</name></trkpt>
<trkpt lat="53.305195" lon="-1.924243"><ele>358</ele><time>2023-10-27T10:44:01Z</time><name>PT856</name></trkpt>
<trkpt lat="53.305169" lon="-1.924192"><ele>359</ele><time>2023-10-27T10:44:05Z</time><name>PT857</name></trkpt>
<trkpt lat="53.305150" lon="-1.924164"><ele>359</ele><time>2023-10-27T10:44:09Z</time><name>PT858</name></trkpt>
<trkpt lat="53.305127" lon="-1.924119"><ele>360</ele><time>2023-10-27T10:44:12Z</time><name>PT859</name></trkpt>
<trkpt lat="53.305110" lon="-1.924085"><ele>360</ele><time>2023-10-27T10:44:15Z</time><name>PT860</name></trkpt>
<trkpt lat="53.305088" lon="-1.924035"><ele>361</ele><time>2023-10-27T10:44:19Z</time><name>PT861</name></trkpt>
<trkpt lat="53.305075" lon="-1.923999"><ele>360</ele><time>2023-10-27T10:44:22Z</time><name>PT862</name></trkpt>
<trkpt lat="53.305052" lon="-1.923951"><ele>361</ele><time>2023-10-27T10:44:27Z</time><name>PT863</name></trkpt>
<trkpt lat="53.305034" lon="-1.923908"><ele>362</ele><time>2023-10-27T10:44:30Z</time><name>PT864</name></trkpt>
<trkpt lat="53.305017" lon="-1.923873"><ele>362</ele><time>2023-10-27T10:44:33Z</time><name>PT865</name></trkpt>
<trkpt lat="53.304997" lon="-1.923812"><ele>363</ele><time>2023-10-27T10:44:36Z</time><name>PT866</name></trkpt>
<trkpt lat="53.304981" lon="-1.923777"><ele>363</ele><time>2023-10-27T10:44:39Z</time><name>PT867</name></trkpt>
<trkpt lat="53.304963" lon="-1.923732"><ele>365</ele><time>2023-10-27T10:44:42Z</time><name>PT868</name></trkpt>
<trkpt lat="53.304946" lon="-1.923694"><ele>365</ele><time>2023-10-27T10:44:45Z</time><name>PT869</name></trkpt>
<trkpt lat="53.304933" lon="-1.923653"><ele>366</ele><time>2023-10-27T10:44:48Z</time><name>PT870</name></trkpt>
<trkpt lat="53.304909" lon="-1.923609"><ele>366</ele><time>2023-10-27T10:44:52Z</time><name>PT871</name></trkpt>
<trkpt lat="53.304890" lon="-1.923569"><ele>367</ele><time>2023-10-27T10:44:55Z</time><name>PT872</name></trkpt>
<trkpt lat="53.304872" lon="-1.923531"><ele>367</ele><time>2023-10-27T10:44:58Z</time><name>PT873</name></trkpt>
<trkpt lat="53.304848" lon="-1.923479"><ele>367</ele><time>2023-10-27T10:45:03Z</time><name>PT874</name></trkpt>
<trkpt lat="53.304826" lon="-1.923418"><ele>368</ele><time>2023-10-27T10:45:06Z</time><name>PT875</name></trkpt>
<trkpt lat="53.304806" lon="-1.923378"><ele>368</ele><time>2023-10-27T10:45:10Z</time><name>PT876</name></trkpt>
<trkpt lat="53.304785" lon="-1.923327"><ele>369</ele><time>2023-10-27T10:45:15Z</time><name>PT877</name></trkpt>
<trkpt lat="53.304770" lon="-1.923289"><ele>369</ele><time>2023-10-27T10:45:18Z</time><name>PT878</name></trkpt>
<trkpt lat="53.304753" lon="-1.923239"><ele>370</ele><time>2023-10-27T10:45:21Z</time><name>PT879</name></trkpt>
<trkpt lat="53.304739" lon="-1.923199"><ele>370</ele><time>2023-10-27T10:45:24Z</time><name>PT880</name></trkpt>
<trkpt lat="53.304726" lon="-1.923169"><ele>370</ele><time>2023-10-27T10:45:27Z</time><name>PT881</name></trkpt>
<trkpt lat="53.304714" lon="-1.923135"><ele>371</ele><time>2023-10-27T10:45:30Z</time><name>PT882</name></trkpt>
<trkpt lat="53.304702" lon="-1.923100"><ele>371</ele><time>2023-10-27T10:45:35Z</time><name>PT883</name></trkpt>
<trkpt lat="53.304694" lon="-1.923088"><ele>371</ele><time>2023-10-27T10:45:38Z</time><name>PT884</name></trkpt>
<trkpt lat="53.304693" lon="-1.923085"><ele>372</ele><time>2023-10-27T10:45:41Z</time><name>PT885</name></trkpt>
<trkpt lat="53.304683" lon="-1.923062"><ele>374</ele><time>2023-10-27T10:45:54Z</time><name>PT886</name></trkpt>
<trkpt lat="53.304675" lon="-1.923036"><ele>374</ele><time>2023-10-27T10:45:57Z</time><name>PT887</name></trkpt>
<trkpt lat="53.304672" lon="-1.923029"><ele>373</ele><time>2023-10-27T10:46:01Z</time><name>PT888</name></trkpt>
<trkpt lat="53.304656" lon="-1.923005"><ele>373</ele><time>2023-10-27T10:46:19Z</time><name>PT889</name></trkpt>
<trkpt lat="53.304647" lon="-1.922977"><ele>374</ele><time>2023-10-27T10:46:22Z</time><name>PT890</name></trkpt>
<trkpt lat="53.304639" lon="-1.922964"><ele>374</ele><time>2023-10-27T10:46:25Z</time><name>PT891</name></trkpt>
<trkpt lat="53.304636" lon="-1.922965"><ele>374</ele><time>2023-10-27T10:46:28Z</time><name>PT892</name></trkpt>
<trkpt lat="53.304635" lon="-1.922961"><ele>373</ele><time>2023-10-27T10:46:49Z</time><name>PT893</name></trkpt>
<trkpt lat="53.304634" lon="-1.922960"><ele>373</ele><time>2023-10-27T10:46:52Z</time><name>PT894</name></trkpt>
<trkpt lat="53.304624" lon="-1.922961"><ele>375</ele><time>2023-10-27T10:47:35Z</time><name>PT895</name></trkpt>
<trkpt lat="53.304620" lon="-1.922962"><ele>375</ele><time>2023-10-27T10:47:38Z</time><name>PT896</name></trkpt>
<trkpt lat="53.304615" lon="-1.922962"><ele>376</ele><time>2023-10-27T10:47:42Z</time><name>PT897</name></trkpt>
<trkpt lat="53.304609" lon="-1.922971"><ele>376</ele><time>2023-10-27T10:47:47Z</time><name>PT898</name></trkpt>
<trkpt lat="53.304599" lon="-1.922959"><ele>376</ele><time>2023-10-27T10:47:50Z</time><name>PT899</name></trkpt>
<trkpt lat="53.304597" lon="-1.922954"><ele>376</ele><time>2023-10-27T10:47:53Z</time><name>PT900</name></trkpt>
<trkpt lat="53.304598" lon="-1.922949"><ele>377</ele><time>2023-10-27T10:47:56Z</time><name>PT901</name></trkpt>
<trkpt lat="53.304582" lon="-1.922945"><ele>377</ele><time>2023-10-27T10:48:04Z</time><name>PT902</name></trkpt>
<trkpt lat="53.304546" lon="-1.922953"><ele>378</ele><time>2023-10-27T10:48:07Z</time><name>PT903</name></trkpt>
<trkpt lat="53.304518" lon="-1.922963"><ele>379</ele><time>2023-10-27T10:48:11Z</time><name>PT904</name></trkpt>
<trkpt lat="53.304494" lon="-1.922953"><ele>381</ele><time>2023-10-27T10:48:14Z</time><name>PT905</name></trkpt>
<trkpt lat="53.304472" lon="-1.922952"><ele>383</ele><time>2023-10-27T10:48:17Z</time><name>PT906</name></trkpt>
<trkpt lat="53.304450" lon="-1.922952"><ele>383</ele><time>2023-10-27T10:48:20Z</time><name>PT907</name></trkpt>
<trkpt lat="53.304425" lon="-1.922955"><ele>383</ele><time>2023-10-27T10:48:24Z</time><name>PT908</name></trkpt>
<trkpt lat="53.304392" lon="-1.922958"><ele>384</ele><time>2023-10-27T10:48:27Z</time><name>PT909</name></trkpt>
<trkpt lat="53.304368" lon="-1.922964"><ele>386</ele><time>2023-10-27T10:48:30Z</time><name>PT910</name></trkpt>
<trkpt lat="53.304346" lon="-1.922964"><ele>387</ele><time>2023-10-27T10:48:33Z</time><name>PT911</name></trkpt>
<trkpt lat="53.304324" lon="-1.922972"><ele>388</ele><time>2023-10-27T10:48:37Z</time><name>PT912</name></trkpt>
<trkpt lat="53.304309" lon="-1.922973"><ele>389</ele><time>2023-10-27T10:48:42Z</time><name>PT913</name></trkpt>
<trkpt lat="53.304278" lon="-1.922972"><ele>389</ele><time>2023-10-27T10:48:45Z</time><name>PT914</name></trkpt>
<trkpt lat="53.304252" lon="-1.922979"><ele>390</ele><time>2023-10-27T10:48:48Z</time><name>PT915</name></trkpt>
<trkpt lat="53.304245" lon="-1.923002"><ele>390</ele><time>2023-10-27T10:48:55Z</time><name>PT916</name></trkpt>
<trkpt lat="53.304225" lon="-1.923020"><ele>392</ele><time>2023-10-27T10:48:58Z</time><name>PT917</name></trkpt>
<trkpt lat="53.304201" lon="-1.923045"><ele>392</ele><time>2023-10-27T10:49:03Z</time><name>PT918</name></trkpt>
<trkpt lat="53.304181" lon="-1.923038"><ele>392</ele><time>2023-10-27T10:49:06Z</time><name>PT919</name></trkpt>
<trkpt lat="53.304149" lon="-1.923034"><ele>393</ele><time>2023-10-27T10:49:09Z</time><name>PT920</name></trkpt>
<trkpt lat="53.304118" lon="-1.923017"><ele>394</ele><time>2023-10-27T10:49:13Z</time><name>PT921</name></trkpt>
<trkpt lat="53.304084" lon="-1.923004"><ele>393</ele><time>2023-10-27T10:49:18Z</time><name>PT922</name></trkpt>
<trkpt lat="53.304059" lon="-1.923008"><ele>394</ele><time>2023-10-27T10:49:21Z</time><name>PT923</name></trkpt>
<trkpt lat="53.304030" lon="-1.923007"><ele>395</ele><time>2023-10-27T10:49:24Z</time><name>PT924</name></trkpt>
<trkpt lat="53.304002" lon="-1.923007"><ele>395</ele><time>2023-10-27T10:49:27Z</time><name>PT925</name></trkpt>
<trkpt lat="53.303976" lon="-1.923016"><ele>395</ele><time>2023-10-27T10:49:31Z</time><name>PT926</name></trkpt>
<trkpt lat="53.303951" lon="-1.923027"><ele>396</ele><time>2023-10-27T10:49:36Z</time><name>PT927</name></trkpt>
<trkpt lat="53.303927" lon="-1.923019"><ele>396</ele><time>2023-10-27T10:49:39Z</time><name>PT928</name></trkpt>
<trkpt lat="53.303908" lon="-1.923017"><ele>396</ele><time>2023-10-27T10:49:42Z</time><name>PT929</name></trkpt>
<trkpt lat="53.303888" lon="-1.923014"><ele>397</ele><time>2023-10-27T10:49:45Z</time><name>PT930</name></trkpt>
<trkpt lat="53.303871" lon="-1.923019"><ele>398</ele><time>2023-10-27T10:49:48Z</time><name>PT931</name></trkpt>
<trkpt lat="53.303844" lon="-1.923035"><ele>398</ele><time>2023-10-27T10:49:51Z</time><name>PT932</name></trkpt>
<trkpt lat="53.303826" lon="-1.923050"><ele>399</ele><time>2023-10-27T10:49:54Z</time><name>PT933</name></trkpt>
<trkpt lat="53.303806" lon="-1.923067"><ele>399</ele><time>2023-10-27T10:49:59Z</time><name>PT934</name></trkpt>
<trkpt lat="53.303789" lon="-1.923065"><ele>399</ele><time>2023-10-27T10:50:05Z</time><name>PT935</name></trkpt>
<trkpt lat="53.303772" lon="-1.923081"><ele>399</ele><time>2023-10-27T10:50:08Z</time><name>PT936</name></trkpt>
<trkpt lat="53.303756" lon="-1.923091"><ele>400</ele><time>2023-10-27T10:50:12Z</time><name>PT937</name></trkpt>
<trkpt lat="53.303745" lon="-1.923100"><ele>401</ele><time>2023-10-27T10:50:15Z</time><name>PT938</name></trkpt>
<trkpt lat="53.303727" lon="-1.923107"><ele>403</ele><time>2023-10-27T10:50:18Z</time><name>PT939</name></trkpt>
<trkpt lat="53.303708" lon="-1.923121"><ele>404</ele><time>2023-10-27T10:50:23Z</time><name>PT940</name></trkpt>
<trkpt lat="53.303690" lon="-1.923135"><ele>405</ele><time>2023-10-27T10:50:26Z</time><name>PT941</name></trkpt>
<trkpt lat="53.303673" lon="-1.923154"><ele>404</ele><time>2023-10-27T10:50:29Z</time><name>PT942</name></trkpt>
<trkpt lat="53.303655" lon="-1.923152"><ele>405</ele><time>2023-10-27T10:50:32Z</time><name>PT943</name></trkpt>
<trkpt lat="53.303650" lon="-1.923154"><ele>406</ele><time>2023-10-27T10:50:36Z</time><name>PT944</name></trkpt>
<trkpt lat="53.303641" lon="-1.923152"><ele>406</ele><time>2023-10-27T10:50:39Z</time><name>PT945</name></trkpt>
<trkpt lat="53.303628" lon="-1.923154"><ele>407</ele><time>2023-10-27T10:50:43Z</time><name>PT946</name></trkpt>
<trkpt lat="53.303622" lon="-1.923162"><ele>408</ele><time>2023-10-27T10:50:46Z</time><name>PT947</name></trkpt>
<trkpt lat="53.303589" lon="-1.923151"><ele>410</ele><time>2023-10-27T10:50:49Z</time><name>PT948</name></trkpt>
<trkpt lat="53.303570" lon="-1.923151"><ele>411</ele><time>2023-10-27T10:50:52Z</time><name>PT949</name></trkpt>
<trkpt lat="53.303554" lon="-1.923146"><ele>410</ele><time>2023-10-27T10:50:55Z</time><name>PT950</name></trkpt>
<trkpt lat="53.303526" lon="-1.923152"><ele>410</ele><time>2023-10-27T10:50:59Z</time><name>PT951</name></trkpt>
<trkpt lat="53.303505" lon="-1.923153"><ele>410</ele><time>2023-10-27T10:51:02Z</time><name>PT952</name></trkpt>
<trkpt lat="53.303494" lon="-1.923147"><ele>410</ele><time>2023-10-27T10:51:05Z</time><name>PT953</name></trkpt>
<trkpt lat="53.303471" lon="-1.923140"><ele>411</ele><time>2023-10-27T10:51:09Z</time><name>PT954</name></trkpt>
<trkpt lat="53.303452" lon="-1.923144"><ele>410</ele><time>2023-10-27T10:51:12Z</time><name>PT955</name></trkpt>
<trkpt lat="53.303446" lon="-1.923132"><ele>411</ele><time>2023-10-27T10:51:15Z</time><name>PT956</name></trkpt>
<trkpt lat="53.303426" lon="-1.923118"><ele>411</ele><time>2023-10-27T10:51:27Z</time><name>PT957</name></trkpt>
<trkpt lat="53.303403" lon="-1.923110"><ele>411</ele><time>2023-10-27T10:51:30Z</time><name>PT958</name></trkpt>
<trkpt lat="53.303390" lon="-1.923082"><ele>410</ele><time>2023-10-27T10:51:33Z</time><name>PT959</name></trkpt>
<trkpt lat="53.303374" lon="-1.923057"><ele>411</ele><time>2023-10-27T10:51:37Z</time><name>PT960</name></trkpt>
<trkpt lat="53.303373" lon="-1.923052"><ele>412</ele><time>2023-10-27T10:51:40Z</time><name>PT961</name></trkpt>
<trkpt lat="53.303345" lon="-1.923027"><ele>413</ele><time>2023-10-27T10:51:51Z</time><name>PT962</name></trkpt>
<trkpt lat="53.303329" lon="-1.922984"><ele>415</ele><time>2023-10-27T10:52:01Z</time><name>PT963</name></trkpt>
<trkpt lat="53.303319" lon="-1.922957"><ele>414</ele><time>2023-10-27T10:52:04Z</time><name>PT964</name></trkpt>
<trkpt lat="53.303308" lon="-1.922922"><ele>415</ele><time>2023-10-27T10:52:07Z</time><name>PT965</name></trkpt>
<trkpt lat="53.303298" lon="-1.922886"><ele>416</ele><time>2023-10-27T10:52:12Z</time><name>PT966</name></trkpt>
<trkpt lat="53.303294" lon="-1.922858"><ele>418</ele><time>2023-10-27T10:52:15Z</time><name>PT967</name></trkpt>
<trkpt lat="53.303281" lon="-1.922824"><ele>419</ele><time>2023-10-27T10:52:18Z</time><name>PT968</name></trkpt>
<trkpt lat="53.303268" lon="-1.922805"><ele>420</ele><time>2023-10-27T10:52:21Z</time><name>PT969</name></trkpt>
<trkpt lat="53.303257" lon="-1.922788"><ele>419</ele><time>2023-10-27T10:52:24Z</time><name>PT970</name></trkpt>
<trkpt lat="53.303262" lon="-1.922775"><ele>420</ele><time>2023-10-27T10:52:27Z</time><name>PT971</name></trkpt>
<trkpt lat="53.303249" lon="-1.922744"><ele>421</ele><time>2023-10-27T10:52:31Z</time><name>PT972</name></trkpt>
<trkpt lat="53.303231" lon="-1.922737"><ele>421</ele><time>2023-10-27T10:52:36Z</time><name>PT973</name></trkpt>
<trkpt lat="53.303228" lon="-1.922734"><ele>421</ele><time>2023-10-27T10:52:39Z</time><name>PT974</name></trkpt>
<trkpt lat="53.303224" lon="-1.922717"><ele>422</ele><time>2023-10-27T10:52:42Z</time><name>PT975</name></trkpt>
<trkpt lat="53.303221" lon="-1.922707"><ele>422</ele><time>2023-10-27T10:52:45Z</time><name>PT976</name></trkpt>
<trkpt lat="53.303206" lon="-1.922697"><ele>421</ele><time>2023-10-27T10:53:03Z</time><name>PT977</name></trkpt>
<trkpt lat="53.303217" lon="-1.922668"><ele>422</ele><time>2023-10-27T10:53:06Z</time><name>PT978</name></trkpt>
<trkpt lat="53.303210" lon="-1.922633"><ele>422</ele><time>2023-10-27T10:54:21Z</time><name>PT979</name></trkpt>
<trkpt lat="53.303202" lon="-1.922611"><ele>424</ele><time>2023-10-27T10:54:24Z</time><name>PT980</name></trkpt>
<trkpt lat="53.303199" lon="-1.922586"><ele>425</ele><time>2023-10-27T10:54:32Z</time><name>PT981</name></trkpt>
<trkpt lat="53.303192" lon="-1.922556"><ele>425</ele><time>2023-10-27T10:54:35Z</time><name>PT982</name></trkpt>
<trkpt lat="53.303180" lon="-1.922523"><ele>426</ele><time>2023-10-27T10:54:38Z</time><name>PT983</name></trkpt>
<trkpt lat="53.303165" lon="-1.922515"><ele>427</ele><time>2023-10-27T10:54:41Z</time><name>PT984</name></trkpt>
<trkpt lat="53.303158" lon="-1.922493"><ele>428</ele><time>2023-10-27T10:54:44Z</time><name>PT985</name></trkpt>
<trkpt lat="53.303154" lon="-1.922458"><ele>429</ele><time>2023-10-27T10:54:49Z</time><name>PT986</name></trkpt>
<trkpt lat="53.303157" lon="-1.922434"><ele>431</ele><time>2023-10-27T10:54:52Z</time><name>PT987</name></trkpt>
<trkpt lat="53.303133" lon="-1.922412"><ele>432</ele><time>2023-10-27T10:54:55Z</time><name>PT988</name></trkpt>
<trkpt lat="53.303117" lon="-1.922404"><ele>432</ele><time>2023-10-27T10:54:58Z</time><name>PT989</name></trkpt>
<trkpt lat="53.303104" lon="-1.922419"><ele>434</ele><time>2023-10-27T10:55:01Z</time><name>PT990</name></trkpt>
<trkpt lat="53.303077" lon="-1.922436"><ele>435</ele><time>2023-10-27T10:55:05Z</time><name>PT991</name></trkpt>
<trkpt lat="53.303053" lon="-1.922441"><ele>435</ele><time>2023-10-27T10:55:10Z</time><name>PT992</name></trkpt>
<trkpt lat="53.303034" lon="-1.922436"><ele>436</ele><time>2023-10-27T10:55:26Z</time><name>PT993</name></trkpt>
<trkpt lat="53.303019" lon="-1.922443"><ele>435</ele><time>2023-10-27T10:55:31Z</time><name>PT994</name></trkpt>
<trkpt lat="53.302998" lon="-1.922452"><ele>434</ele><time>2023-10-27T10:55:34Z</time><name>PT995</name></trkpt>
<trkpt lat="53.302995" lon="-1.922463"><ele>434</ele><time>2023-10-27T10:55:37Z</time><name>PT996</name></trkpt>
<trkpt lat="53.302990" lon="-1.922460"><ele>434</ele><time>2023-10-27T10:55:41Z</time><name>PT997</name></trkpt>
<trkpt lat="53.302976" lon="-1.922448"><ele>434</ele><time>2023-10-27T10:55:46Z</time><name>PT998</name></trkpt>
<trkpt lat="53.302965" lon="-1.922443"><ele>433</ele><time>2023-10-27T10:55:49Z</time><name>PT999</name></trkpt>
<trkpt lat="53.302965" lon="-1.922439"><ele>433</ele><time>2023-10-27T10:55:53Z</time><name>PT1000</name></trkpt>
<trkpt lat="53.302965" lon="-1.922436"><ele>432</ele><time>2023-10-27T10:55:58Z</time><name>PT1001</name></trkpt>
<trkpt lat="53.302964" lon="-1.922434"><ele>431</ele><time>2023-10-27T10:56:01Z</time><name>PT1002</name></trkpt>
<trkpt lat="53.302964" lon="-1.922431"><ele>432</ele><time>2023-10-27T10:56:59Z</time><name>PT1003</name></trkpt>
<trkpt lat="53.302963" lon="-1.922431"><ele>432</ele><time>2023-10-27T10:57:02Z</time><name>PT1004</name></trkpt>
<trkpt lat="53.302955" lon="-1.922426"><ele>432</ele><time>2023-10-27T10:58:45Z</time><name>PT1005</name></trkpt>
<trkpt lat="53.302955" lon="-1.922424"><ele>432</ele><time>2023-10-27T10:58:50Z</time><name>PT1006</name></trkpt>
<trkpt lat="53.302954" lon="-1.922421"><ele>432</ele><time>2023-10-27T11:02:53Z</time><name>PT1007</name></trkpt>
<trkpt lat="53.302954" lon="-1.922425"><ele>432</ele><time>2023-10-27T11:02:56Z</time><name>PT1008</name></trkpt>
<trkpt lat="53.302953" lon="-1.922427"><ele>432</ele><time>2023-10-27T11:02:59Z</time><name>PT1009</name></trkpt>
<trkpt lat="53.302955" lon="-1.922432"><ele>433</ele><time>2023-10-27T11:03:06Z</time><name>PT1010</name></trkpt>
<trkpt lat="53.302954" lon="-1.922434"><ele>433</ele><time>2023-10-27T11:03:09Z</time><name>PT1011</name></trkpt>
<trkpt lat="53.302952" lon="-1.922434"><ele>433</ele><time>2023-10-27T11:05:54Z</time><name>PT1012</name></trkpt>
<trkpt lat="53.302952" lon="-1.922428"><ele>432</ele><time>2023-10-27T11:06:27Z</time><name>PT1013</name></trkpt>
<trkpt lat="53.302956" lon="-1.922425"><ele>432</ele><time>2023-10-27T11:06:31Z</time><name>PT1014</name></trkpt>
<trkpt lat="53.302961" lon="-1.922429"><ele>432</ele><time>2023-10-27T11:07:00Z</time><name>PT1015</name></trkpt>
<trkpt lat="53.302966" lon="-1.922427"><ele>432</ele><time>2023-10-27T11:07:03Z</time><name>PT1016</name></trkpt>
<trkpt lat="53.302973" lon="-1.922422"><ele>432</ele><time>2023-10-27T11:07:30Z</time><name>PT1017</name></trkpt>
<trkpt lat="53.302974" lon="-1.922423"><ele>432</ele><time>2023-10-27T11:07:34Z</time><name>PT1018</name></trkpt>
<trkpt lat="53.302975" lon="-1.922417"><ele>432</ele><time>2023-10-27T11:07:39Z</time><name>PT1019</name></trkpt>
<trkpt lat="53.302948" lon="-1.922379"><ele>434</ele><time>2023-10-27T11:07:45Z</time><name>PT1020</name></trkpt>
<trkpt lat="53.302923" lon="-1.922359"><ele>434</ele><time>2023-10-27T11:07:48Z</time><name>PT1021</name></trkpt>
<trkpt lat="53.302897" lon="-1.922338"><ele>434</ele><time>2023-10-27T11:07:53Z</time><name>PT1022</name></trkpt>
<trkpt lat="53.302879" lon="-1.922330"><ele>434</ele><time>2023-10-27T11:07:56Z</time><name>PT1023</name></trkpt>
<trkpt lat="53.302873" lon="-1.922306"><ele>434</ele><time>2023-10-27T11:07:59Z</time><name>PT1024</name></trkpt>
<trkpt lat="53.302853" lon="-1.922293"><ele>436</ele><time>2023-10-27T11:08:03Z</time><name>PT1025</name></trkpt>
<trkpt lat="53.302850" lon="-1.922285"><ele>436</ele><time>2023-10-27T11:08:08Z</time><name>PT1026</name></trkpt>
<trkpt lat="53.302839" lon="-1.922261"><ele>436</ele><time>2023-10-27T11:08:11Z</time><name>PT1027</name></trkpt>
<trkpt lat="53.302814" lon="-1.922236"><ele>437</ele><time>2023-10-27T11:08:14Z</time><name>PT1028</name></trkpt>
<trkpt lat="53.302784" lon="-1.922223"><ele>437</ele><time>2023-10-27T11:08:18Z</time><name>PT1029</name></trkpt>
<trkpt lat="53.302758" lon="-1.922203"><ele>437</ele><time>2023-10-27T11:08:21Z</time><name>PT1030</name></trkpt>
<trkpt lat="53.302726" lon="-1.922200"><ele>437</ele><time>2023-10-27T11:08:26Z</time><name>PT1031</name></trkpt>
<trkpt lat="53.302688" lon="-1.922193"><ele>438</ele><time>2023-10-27T11:08:29Z</time><name>PT1032</name></trkpt>
<trkpt lat="53.302668" lon="-1.922191"><ele>438</ele><time>2023-10-27T11:08:32Z</time><name>PT1033</name></trkpt>
<trkpt lat="53.302639" lon="-1.922180"><ele>438</ele><time>2023-10-27T11:08:36Z</time><name>PT1034</name></trkpt>
<trkpt lat="53.302612" lon="-1.922168"><ele>439</ele><time>2023-10-27T11:08:39Z</time><name>PT1035</name></trkpt>
<trkpt lat="53.302574" lon="-1.922149"><ele>439</ele><time>2023-10-27T11:08:44Z</time><name>PT1036</name></trkpt>
<trkpt lat="53.302545" lon="-1.922135"><ele>438</ele><time>2023-10-27T11:08:47Z</time><name>PT1037</name></trkpt>
<trkpt lat="53.302510" lon="-1.922116"><ele>438</ele><time>2023-10-27T11:08:50Z</time><name>PT1038</name></trkpt>
<trkpt lat="53.302477" lon="-1.922088"><ele>437</ele><time>2023-10-27T11:08:54Z</time><name>PT1039</name></trkpt>
<trkpt lat="53.302454" lon="-1.922057"><ele>438</ele><time>2023-10-27T11:08:57Z</time><name>PT1040</name></trkpt>
<trkpt lat="53.302431" lon="-1.922017"><ele>438</ele><time>2023-10-27T11:09:02Z</time><name>PT1041</name></trkpt>
<trkpt lat="53.302413" lon="-1.921985"><ele>437</ele><time>2023-10-27T11:09:05Z</time><name>PT1042</name></trkpt>
<trkpt lat="53.302388" lon="-1.921941"><ele>438</ele><time>2023-10-27T11:09:08Z</time><name>PT1043</name></trkpt>
<trkpt lat="53.302360" lon="-1.921893"><ele>438</ele><time>2023-10-27T11:09:12Z</time><name>PT1044</name></trkpt>
<trkpt lat="53.302341" lon="-1.921869"><ele>437</ele><time>2023-10-27T11:09:16Z</time><name>PT1045</name></trkpt>
<trkpt lat="53.302325" lon="-1.921829"><ele>437</ele><time>2023-10-27T11:09:19Z</time><name>PT1046</name></trkpt>
<trkpt lat="53.302312" lon="-1.921790"><ele>437</ele><time>2023-10-27T11:09:22Z</time><name>PT1047</name></trkpt>
<trkpt lat="53.302304" lon="-1.921756"><ele>437</ele><time>2023-10-27T11:09:25Z</time><name>PT1048</name></trkpt>
<trkpt lat="53.302290" lon="-1.921713"><ele>437</ele><time>2023-10-27T11:09:28Z</time><name>PT1049</name></trkpt>
<trkpt lat="53.302273" lon="-1.921661"><ele>437</ele><time>2023-10-27T11:09:32Z</time><name>PT1050</name></trkpt>
<trkpt lat="53.302278" lon="-1.921629"><ele>437</ele><time>2023-10-27T11:09:37Z</time><name>PT1051</name></trkpt>
<trkpt lat="53.302279" lon="-1.921588"><ele>437</ele><time>2023-10-27T11:09:40Z</time><name>PT1052</name></trkpt>
<trkpt lat="53.302281" lon="-1.921579"><ele>437</ele><time>2023-10-27T11:09:43Z</time><name>PT1053</name></trkpt>
<trkpt lat="53.302278" lon="-1.921566"><ele>437</ele><time>2023-10-27T11:09:46Z</time><name>PT1054</name></trkpt>
<trkpt lat="53.302280" lon="-1.921554"><ele>438</ele><time>2023-10-27T11:09:49Z</time><name>PT1055</name></trkpt>
<trkpt lat="53.302282" lon="-1.921555"><ele>438</ele><time>2023-10-27T11:09:53Z</time><name>PT1056</name></trkpt>
<trkpt lat="53.302267" lon="-1.921550"><ele>438</ele><time>2023-10-27T11:10:27Z</time><name>PT1057</name></trkpt>
<trkpt lat="53.302240" lon="-1.921529"><ele>438</ele><time>2023-10-27T11:10:30Z</time><name>PT1058</name></trkpt>
<trkpt lat="53.302211" lon="-1.921506"><ele>437</ele><time>2023-10-27T11:10:33Z</time><name>PT1059</name></trkpt>
<trkpt lat="53.302201" lon="-1.921497"><ele>437</ele><time>2023-10-27T11:10:36Z</time><name>PT1060</name></trkpt>
<trkpt lat="53.302197" lon="-1.921492"><ele>437</ele><time>2023-10-27T11:10:40Z</time><name>PT1061</name></trkpt>
<trkpt lat="53.302196" lon="-1.921490"><ele>436</ele><time>2023-10-27T11:10:45Z</time><name>PT1062</name></trkpt>
<trkpt lat="53.302183" lon="-1.921486"><ele>437</ele><time>2023-10-27T11:10:48Z</time><name>PT1063</name></trkpt>
<trkpt lat="53.302168" lon="-1.921471"><ele>436</ele><time>2023-10-27T11:10:51Z</time><name>PT1064</name></trkpt>
<trkpt lat="53.302148" lon="-1.921446"><ele>435</ele><time>2023-10-27T11:10:54Z</time><name>PT1065</name></trkpt>
<trkpt lat="53.302124" lon="-1.921400"><ele>435</ele><time>2023-10-27T11:10:59Z</time><name>PT1066</name></trkpt>
<trkpt lat="53.302099" lon="-1.921401"><ele>436</ele><time>2023-10-27T11:11:02Z</time><name>PT1067</name></trkpt>
<trkpt lat="53.302080" lon="-1.921393"><ele>437</ele><time>2023-10-27T11:11:05Z</time><name>PT1068</name></trkpt>
<trkpt lat="53.302060" lon="-1.921380"><ele>437</ele><time>2023-10-27T11:11:08Z</time><name>PT1069</name></trkpt>
<trkpt lat="53.302026" lon="-1.921352"><ele>437</ele><time>2023-10-27T11:11:11Z</time><name>PT1070</name></trkpt>
<trkpt lat="53.302008" lon="-1.921330"><ele>437</ele><time>2023-10-27T11:11:14Z</time><name>PT1071</name></trkpt>
<trkpt lat="53.301982" lon="-1.921311"><ele>437</ele><time>2023-10-27T11:11:17Z</time><name>PT1072</name></trkpt>
<trkpt lat="53.301945" lon="-1.921289"><ele>437</ele><time>2023-10-27T11:11:21Z</time><name>PT1073</name></trkpt>
<trkpt lat="53.301905" lon="-1.921268"><ele>437</ele><time>2023-10-27T11:11:26Z</time><name>PT1074</name></trkpt>
<trkpt lat="53.301867" lon="-1.921245"><ele>438</ele><time>2023-10-27T11:11:29Z</time><name>PT1075</name></trkpt>
<trkpt lat="53.301835" lon="-1.921227"><ele>438</ele><time>2023-10-27T11:11:32Z</time><name>PT1076</name></trkpt>
<trkpt lat="53.301797" lon="-1.921194"><ele>438</ele><time>2023-10-27T11:11:37Z</time><name>PT1077</name></trkpt>
<trkpt lat="53.301765" lon="-1.921157"><ele>439</ele><time>2023-10-27T11:11:40Z</time><name>PT1078</name></trkpt>
<trkpt lat="53.301736" lon="-1.921140"><ele>439</ele><time>2023-10-27T11:11:43Z</time><name>PT1079</name></trkpt>
<trkpt lat="53.301701" lon="-1.921100"><ele>439</ele><time>2023-10-27T11:11:47Z</time><name>PT1080</name></trkpt>
<trkpt lat="53.301672" lon="-1.921057"><ele>438</ele><time>2023-10-27T11:11:52Z</time><name>PT1081</name></trkpt>
<trkpt lat="53.301652" lon="-1.921020"><ele>438</ele><time>2023-10-27T11:11:55Z</time><name>PT1082</name></trkpt>
<trkpt lat="53.301629" lon="-1.920993"><ele>438</ele><time>2023-10-27T11:11:58Z</time><name>PT1083</name></trkpt>
<trkpt lat="53.301593" lon="-1.920952"><ele>439</ele><time>2023-10-27T11:12:01Z</time><name>PT1084</name></trkpt>
<trkpt lat="53.301564" lon="-1.920917"><ele>439</ele><time>2023-10-27T11:12:05Z</time><name>PT1085</name></trkpt>
<trkpt lat="53.301540" lon="-1.920903"><ele>440</ele><time>2023-10-27T11:12:08Z</time><name>PT1086</name></trkpt>
<trkpt lat="53.301519" lon="-1.920881"><ele>440</ele><time>2023-10-27T11:12:12Z</time><name>PT1087</name></trkpt>
<trkpt lat="53.301499" lon="-1.920867"><ele>440</ele><time>2023-10-27T11:12:15Z</time><name>PT1088</name></trkpt>
<trkpt lat="53.301459" lon="-1.920844"><ele>440</ele><time>2023-10-27T11:12:18Z</time><name>PT1089</name></trkpt>
<trkpt lat="53.301415" lon="-1.920822"><ele>440</ele><time>2023-10-27T11:12:22Z</time><name>PT1090</name></trkpt>
<trkpt lat="53.301389" lon="-1.920803"><ele>440</ele><time>2023-10-27T11:12:26Z</time><name>PT1091</name></trkpt>
<trkpt lat="53.301362" lon="-1.920782"><ele>440</ele><time>2023-10-27T11:12:29Z</time><name>PT1092</name></trkpt>
<trkpt lat="53.301338" lon="-1.920772"><ele>440</ele><time>2023-10-27T11:12:32Z</time><name>PT1093</name></trkpt>
<trkpt lat="53.301312" lon="-1.920771"><ele>441</ele><time>2023-10-27T11:12:35Z</time><name>PT1094</name></trkpt>
<trkpt lat="53.301273" lon="-1.920761"><ele>441</ele><time>2023-10-27T11:12:38Z</time><name>PT1095</name></trkpt>
<trkpt lat="53.301239" lon="-1.920768"><ele>443</ele><time>2023-10-27T11:12:41Z</time><name>PT1096</name></trkpt>
<trkpt lat="53.301207" lon="-1.920788"><ele>443</ele><time>2023-10-27T11:12:44Z</time><name>PT1097</name></trkpt>
<trkpt lat="53.301178" lon="-1.920806"><ele>443</ele><time>2023-10-27T11:12:47Z</time><name>PT1098</name></trkpt>
<trkpt lat="53.301151" lon="-1.920823"><ele>443</ele><time>2023-10-27T11:12:51Z</time><name>PT1099</name></trkpt>
<trkpt lat="53.301126" lon="-1.920838"><ele>443</ele><time>2023-10-27T11:12:54Z</time><name>PT1100</name></trkpt>
<trkpt lat="53.301093" lon="-1.920855"><ele>443</ele><time>2023-10-27T11:12:57Z</time><name>PT1101</name></trkpt>
<trkpt lat="53.301061" lon="-1.920860"><ele>443</ele><time>2023-10-27T11:13:00Z</time><name>PT1102</name></trkpt>
<trkpt lat="53.301021" lon="-1.920866"><ele>443</ele><time>2023-10-27T11:13:04Z</time><name>PT1103</name></trkpt>
<trkpt lat="53.300986" lon="-1.920859"><ele>443</ele><time>2023-10-27T11:13:07Z</time><name>PT1104</name></trkpt>
<trkpt lat="53.300955" lon="-1.920849"><ele>442</ele><time>2023-10-27T11:13:10Z</time><name>PT1105</name></trkpt>
<trkpt lat="53.300923" lon="-1.920839"><ele>442</ele><time>2023-10-27T11:13:13Z</time><name>PT1106</name></trkpt>
<trkpt lat="53.300880" lon="-1.920836"><ele>442</ele><time>2023-10-27T11:13:18Z</time><name>PT1107</name></trkpt>
<trkpt lat="53.300835" lon="-1.920832"><ele>442</ele><time>2023-10-27T11:13:21Z</time><name>PT1108</name></trkpt>
<trkpt lat="53.300788" lon="-1.920818"><ele>442</ele><time>2023-10-27T11:13:25Z</time><name>PT1109</name></trkpt>
<trkpt lat="53.300751" lon="-1.920788"><ele>442</ele><time>2023-10-27T11:13:30Z</time><name>PT1110</name></trkpt>
<trkpt lat="53.300720" lon="-1.920770"><ele>442</ele><time>2023-10-27T11:13:33Z</time><name>PT1111</name></trkpt>
<trkpt lat="53.300681" lon="-1.920765"><ele>442</ele><time>2023-10-27T11:13:36Z</time><name>PT1112</name></trkpt>
<trkpt lat="53.300647" lon="-1.920771"><ele>441</ele><time>2023-10-27T11:13:39Z</time><name>PT1113</name></trkpt>
<trkpt lat="53.300617" lon="-1.920746"><ele>442</ele><time>2023-10-27T11:13:42Z</time><name>PT1114</name></trkpt>
<trkpt lat="53.300590" lon="-1.920719"><ele>441</ele><time>2023-10-27T11:13:45Z</time><name>PT1115</name></trkpt>
<trkpt lat="53.300551" lon="-1.920694"><ele>440</ele><time>2023-10-27T11:13:49Z</time><name>PT1116</name></trkpt>
<trkpt lat="53.300520" lon="-1.920681"><ele>441</ele><time>2023-10-27T11:13:52Z</time><name>PT1117</name></trkpt>
<trkpt lat="53.300480" lon="-1.920675"><ele>440</ele><time>2023-10-27T11:13:57Z</time><name>PT1118</name></trkpt>
<trkpt lat="53.300454" lon="-1.920670"><ele>440</ele><time>2023-10-27T11:14:00Z</time><name>PT1119</name></trkpt>
<trkpt lat="53.300420" lon="-1.920672"><ele>440</ele><time>2023-10-27T11:14:03Z</time><name>PT1120</name></trkpt>
<trkpt lat="53.300387" lon="-1.920690"><ele>441</ele><time>2023-10-27T11:14:06Z</time><name>PT1121</name></trkpt>
<trkpt lat="53.300359" lon="-1.920699"><ele>441</ele><time>2023-10-27T11:14:09Z</time><name>PT1122</name></trkpt>
<trkpt lat="53.300334" lon="-1.920697"><ele>440</ele><time>2023-10-27T11:14:13Z</time><name>PT1123</name></trkpt>
<trkpt lat="53.300308" lon="-1.920721"><ele>441</ele><time>2023-10-27T11:14:16Z</time><name>PT1124</name></trkpt>
<trkpt lat="53.300276" lon="-1.920753"><ele>441</ele><time>2023-10-27T11:14:21Z</time><name>PT1125</name></trkpt>
<trkpt lat="53.300245" lon="-1.920781"><ele>441</ele><time>2023-10-27T11:14:24Z</time><name>PT1126</name></trkpt>
<trkpt lat="53.300208" lon="-1.920809"><ele>441</ele><time>2023-10-27T11:14:27Z</time><name>PT1127</name></trkpt>
<trkpt lat="53.300166" lon="-1.920836"><ele>441</ele><time>2023-10-27T11:14:31Z</time><name>PT1128</name></trkpt>
<trkpt lat="53.300137" lon="-1.920861"><ele>441</ele><time>2023-10-27T11:14:34Z</time><name>PT1129</name></trkpt>
<trkpt lat="53.300095" lon="-1.920921"><ele>440</ele><time>2023-10-27T11:14:39Z</time><name>PT1130</name></trkpt>
<trkpt lat="53.300059" lon="-1.920944"><ele>439</ele><time>2023-10-27T11:14:42Z</time><name>PT1131</name></trkpt>
<trkpt lat="53.300017" lon="-1.920948"><ele>438</ele><time>2023-10-27T11:14:45Z</time><name>PT1132</name></trkpt>
<trkpt lat="53.299975" lon="-1.920951"><ele>437</ele><time>2023-10-27T11:14:49Z</time><name>PT1133</name></trkpt>
<trkpt lat="53.299938" lon="-1.920957"><ele>436</ele><time>2023-10-27T11:14:52Z</time><name>PT1134</name></trkpt>
<trkpt lat="53.299905" lon="-1.920960"><ele>437</ele><time>2023-10-27T11:14:55Z</time><name>PT1135</name></trkpt>
<trkpt lat="53.299862" lon="-1.920967"><ele>437</ele><time>2023-10-27T11:15:00Z</time><name>PT1136</name></trkpt>
<trkpt lat="53.299818" lon="-1.920961"><ele>437</ele><time>2023-10-27T11:15:03Z</time><name>PT1137</name></trkpt>
<trkpt lat="53.299788" lon="-1.920974"><ele>437</ele><time>2023-10-27T11:15:06Z</time><name>PT1138</name></trkpt>
<trkpt lat="53.299749" lon="-1.920989"><ele>437</ele><time>2023-10-27T11:15:10Z</time><name>PT1139</name></trkpt>
<trkpt lat="53.299705" lon="-1.920989"><ele>437</ele><time>2023-10-27T11:15:15Z</time><name>PT1140</name></trkpt>
<trkpt lat="53.299677" lon="-1.920975"><ele>437</ele><time>2023-10-27T11:15:18Z</time><name>PT1141</name></trkpt>
<trkpt lat="53.299648" lon="-1.920954"><ele>437</ele><time>2023-10-27T11:15:21Z</time><name>PT1142</name></trkpt>
<trkpt lat="53.299606" lon="-1.920959"><ele>438</ele><time>2023-10-27T11:15:25Z</time><name>PT1143</name></trkpt>
<trkpt lat="53.299577" lon="-1.920962"><ele>438</ele><time>2023-10-27T11:15:28Z</time><name>PT1144</name></trkpt>
<trkpt lat="53.299547" lon="-1.920946"><ele>438</ele><time>2023-10-27T11:15:31Z</time><name>PT1145</name></trkpt>
<trkpt lat="53.299502" lon="-1.920936"><ele>437</ele><time>2023-10-27T11:15:36Z</time><name>PT1146</name></trkpt>
<trkpt lat="53.299460" lon="-1.920899"><ele>437</ele><time>2023-10-27T11:15:39Z</time><name>PT1147</name></trkpt>
<trkpt lat="53.299442" lon="-1.920862"><ele>436</ele><time>2023-10-27T11:15:42Z</time><name>PT1148</name></trkpt>
<trkpt lat="53.299431" lon="-1.920826"><ele>435</ele><time>2023-10-27T11:15:45Z</time><name>PT1149</name></trkpt>
<trkpt lat="53.299406" lon="-1.920796"><ele>435</ele><time>2023-10-27T11:15:48Z</time><name>PT1150</name></trkpt>
<trkpt lat="53.299368" lon="-1.920752"><ele>436</ele><time>2023-10-27T11:15:52Z</time><name>PT1151</name></trkpt>
<trkpt lat="53.299335" lon="-1.920721"><ele>437</ele><time>2023-10-27T11:15:55Z</time><name>PT1152</name></trkpt>
<trkpt lat="53.299311" lon="-1.920680"><ele>436</ele><time>2023-10-27T11:16:00Z</time><name>PT1153</name></trkpt>
<trkpt lat="53.299283" lon="-1.920637"><ele>437</ele><time>2023-10-27T11:16:03Z</time><name>PT1154</name></trkpt>
<trkpt lat="53.299255" lon="-1.920605"><ele>437</ele><time>2023-10-27T11:16:06Z</time><name>PT1155</name></trkpt>
<trkpt lat="53.299231" lon="-1.920573"><ele>437</ele><time>2023-10-27T11:16:09Z</time><name>PT1156</name></trkpt>
<trkpt lat="53.299205" lon="-1.920542"><ele>437</ele><time>2023-10-27T11:16:12Z</time><name>PT1157</name></trkpt>
<trkpt lat="53.299172" lon="-1.920504"><ele>436</ele><time>2023-10-27T11:16:15Z</time><name>PT1158</name></trkpt>
<trkpt lat="53.299153" lon="-1.920468"><ele>437</ele><time>2023-10-27T11:16:18Z</time><name>PT1159</name></trkpt>
<trkpt lat="53.299128" lon="-1.920449"><ele>437</ele><time>2023-10-27T11:16:21Z</time><name>PT1160</name></trkpt>
<trkpt lat="53.299087" lon="-1.920431"><ele>437</ele><time>2023-10-27T11:16:25Z</time><name>PT1161</name></trkpt>
<trkpt lat="53.299054" lon="-1.920415"><ele>437</ele><time>2023-10-27T11:16:28Z</time><name>PT1162</name></trkpt>
<trkpt lat="53.299014" lon="-1.920402"><ele>436</ele><time>2023-10-27T11:16:33Z</time><name>PT1163</name></trkpt>
<trkpt lat="53.298983" lon="-1.920381"><ele>436</ele><time>2023-10-27T11:16:36Z</time><name>PT1164</name></trkpt>
<trkpt lat="53.298947" lon="-1.920347"><ele>435</ele><time>2023-10-27T11:16:39Z</time><name>PT1165</name></trkpt>
<trkpt lat="53.298915" lon="-1.920322"><ele>436</ele><time>2023-10-27T11:16:42Z</time><name>PT1166</name></trkpt>
<trkpt lat="53.298897" lon="-1.920289"><ele>436</ele><time>2023-10-27T11:16:45Z</time><name>PT1167</name></trkpt>
<trkpt lat="53.298883" lon="-1.920257"><ele>435</ele><time>2023-10-27T11:16:48Z</time><name>PT1168</name></trkpt>
<trkpt lat="53.298860" lon="-1.920233"><ele>436</ele><time>2023-10-27T11:16:53Z</time><name>PT1169</name></trkpt>
<trkpt lat="53.298841" lon="-1.920227"><ele>436</ele><time>2023-10-27T11:16:56Z</time><name>PT1170</name></trkpt>
<trkpt lat="53.298814" lon="-1.920256"><ele>436</ele><time>2023-10-27T11:16:59Z</time><name>PT1171</name></trkpt>
<trkpt lat="53.298781" lon="-1.920256"><ele>436</ele><time>2023-10-27T11:17:03Z</time><name>PT1172</name></trkpt>
<trkpt lat="53.298751" lon="-1.920253"><ele>437</ele><time>2023-10-27T11:17:08Z</time><name>PT1173</name></trkpt>
<trkpt lat="53.298709" lon="-1.920255"><ele>437</ele><time>2023-10-27T11:17:11Z</time><name>PT1174</name></trkpt>
<trkpt lat="53.298663" lon="-1.920262"><ele>436</ele><time>2023-10-27T11:17:15Z</time><name>PT1175</name></trkpt>
<trkpt lat="53.298630" lon="-1.920253"><ele>435</ele><time>2023-10-27T11:17:18Z</time><name>PT1176</name></trkpt>
<trkpt lat="53.298585" lon="-1.920261"><ele>435</ele><time>2023-10-27T11:17:23Z</time><name>PT1177</name></trkpt>
<trkpt lat="53.298552" lon="-1.920257"><ele>435</ele><time>2023-10-27T11:17:26Z</time><name>PT1178</name></trkpt>
<trkpt lat="53.298514" lon="-1.920247"><ele>433</ele><time>2023-10-27T11:17:29Z</time><name>PT1179</name></trkpt>
<trkpt lat="53.298490" lon="-1.920229"><ele>432</ele><time>2023-10-27T11:17:33Z</time><name>PT1180</name></trkpt>
<trkpt lat="53.298456" lon="-1.920226"><ele>431</ele><time>2023-10-27T11:17:38Z</time><name>PT1181</name></trkpt>
<trkpt lat="53.298419" lon="-1.920227"><ele>431</ele><time>2023-10-27T11:17:41Z</time><name>PT1182</name></trkpt>
<trkpt lat="53.298386" lon="-1.920222"><ele>431</ele><time>2023-10-27T11:17:45Z</time><name>PT1183</name></trkpt>
<trkpt lat="53.298344" lon="-1.920221"><ele>431</ele><time>2023-10-27T11:17:50Z</time><name>PT1184</name></trkpt>
<trkpt lat="53.298317" lon="-1.920230"><ele>431</ele><time>2023-10-27T11:17:53Z</time><name>PT1185</name></trkpt>
<trkpt lat="53.298287" lon="-1.920232"><ele>430</ele><time>2023-10-27T11:17:56Z</time><name>PT1186</name></trkpt>
<trkpt lat="53.298250" lon="-1.920231"><ele>430</ele><time>2023-10-27T11:17:59Z</time><name>PT1187</name></trkpt>
<trkpt lat="53.298220" lon="-1.920227"><ele>431</ele><time>2023-10-27T11:18:02Z</time><name>PT1188</name></trkpt>
<trkpt lat="53.298180" lon="-1.920225"><ele>431</ele><time>2023-10-27T11:18:06Z</time><name>PT1189</name></trkpt>
<trkpt lat="53.298139" lon="-1.920223"><ele>430</ele><time>2023-10-27T11:18:11Z</time><name>PT1190</name></trkpt>
<trkpt lat="53.298105" lon="-1.920217"><ele>431</ele><time>2023-10-27T11:18:14Z</time><name>PT1191</name></trkpt>
<trkpt lat="53.298075" lon="-1.920198"><ele>431</ele><time>2023-10-27T11:18:17Z</time><name>PT1192</name></trkpt>
<trkpt lat="53.298032" lon="-1.920170"><ele>433</ele><time>2023-10-27T11:18:20Z</time><name>PT1193</name></trkpt>
<trkpt lat="53.298012" lon="-1.920156"><ele>431</ele><time>2023-10-27T11:18:23Z</time><name>PT1194</name></trkpt>
<trkpt lat="53.297974" lon="-1.920113"><ele>432</ele><time>2023-10-27T11:18:27Z</time><name>PT1195</name></trkpt>
<trkpt lat="53.297963" lon="-1.920088"><ele>431</ele><time>2023-10-27T11:18:30Z</time><name>PT1196</name></trkpt>
<trkpt lat="53.297940" lon="-1.920056"><ele>430</ele><time>2023-10-27T11:18:33Z</time><name>PT1197</name></trkpt>
<trkpt lat="53.297916" lon="-1.920014"><ele>429</ele><time>2023-10-27T11:18:36Z</time><name>PT1198</name></trkpt>
<trkpt lat="53.297886" lon="-1.919960"><ele>430</ele><time>2023-10-27T11:18:41Z</time><name>PT1199</name></trkpt>
<trkpt lat="53.297863" lon="-1.919909"><ele>430</ele><time>2023-10-27T11:18:44Z</time><name>PT1200</name></trkpt>
<trkpt lat="53.297831" lon="-1.919863"><ele>430</ele><time>2023-10-27T11:18:48Z</time><name>PT1201</name></trkpt>
<trkpt lat="53.297816" lon="-1.919828"><ele>430</ele><time>2023-10-27T11:18:51Z</time><name>PT1202</name></trkpt>
<trkpt lat="53.297785" lon="-1.919792"><ele>431</ele><time>2023-10-27T11:18:56Z</time><name>PT1203</name></trkpt>
<trkpt lat="53.297762" lon="-1.919757"><ele>430</ele><time>2023-10-27T11:18:59Z</time><name>PT1204</name></trkpt>
<trkpt lat="53.297740" lon="-1.919720"><ele>430</ele><time>2023-10-27T11:19:02Z</time><name>PT1205</name></trkpt>
<trkpt lat="53.297729" lon="-1.919714"><ele>430</ele><time>2023-10-27T11:19:06Z</time><name>PT1206</name></trkpt>
<trkpt lat="53.297718" lon="-1.919709"><ele>431</ele><time>2023-10-27T11:19:11Z</time><name>PT1207</name></trkpt>
<trkpt lat="53.297711" lon="-1.919711"><ele>431</ele><time>2023-10-27T11:19:14Z</time><name>PT1208</name></trkpt>
<trkpt lat="53.297685" lon="-1.919700"><ele>430</ele><time>2023-10-27T11:19:17Z</time><name>PT1209</name></trkpt>
<trkpt lat="53.297652" lon="-1.919683"><ele>429</ele><time>2023-10-27T11:19:20Z</time><name>PT1210</name></trkpt>
<trkpt lat="53.297626" lon="-1.919666"><ele>429</ele><time>2023-10-27T11:19:23Z</time><name>PT1211</name></trkpt>
<trkpt lat="53.297591" lon="-1.919642"><ele>429</ele><time>2023-10-27T11:19:26Z</time><name>PT1212</name></trkpt>
<trkpt lat="53.297555" lon="-1.919619"><ele>429</ele><time>2023-10-27T11:19:30Z</time><name>PT1213</name></trkpt>
<trkpt lat="53.297529" lon="-1.919618"><ele>428</ele><time>2023-10-27T11:19:33Z</time><name>PT1214</name></trkpt>
<trkpt lat="53.297499" lon="-1.919622"><ele>429</ele><time>2023-10-27T11:19:36Z</time><name>PT1215</name></trkpt>
<trkpt lat="53.297474" lon="-1.919622"><ele>429</ele><time>2023-10-27T11:19:39Z</time><name>PT1216</name></trkpt>
<trkpt lat="53.297434" lon="-1.919614"><ele>429</ele><time>2023-10-27T11:19:44Z</time><name>PT1217</name></trkpt>
<trkpt lat="53.297387" lon="-1.919617"><ele>429</ele><time>2023-10-27T11:19:47Z</time><name>PT1218</name></trkpt>
<trkpt lat="53.297351" lon="-1.919600"><ele>429</ele><time>2023-10-27T11:19:51Z</time><name>PT1219</name></trkpt>
<trkpt lat="53.297324" lon="-1.919585"><ele>429</ele><time>2023-10-27T11:19:54Z</time><name>PT1220</name></trkpt>
<trkpt lat="53.297287" lon="-1.919552"><ele>429</ele><time>2023-10-27T11:19:59Z</time><name>PT1221</name></trkpt>
<trkpt lat="53.297266" lon="-1.919522"><ele>428</ele><time>2023-10-27T11:20:02Z</time><name>PT1222</name></trkpt>
<trkpt lat="53.297240" lon="-1.919468"><ele>427</ele><time>2023-10-27T11:20:05Z</time><name>PT1223</name></trkpt>
<trkpt lat="53.297223" lon="-1.919427"><ele>427</ele><time>2023-10-27T11:20:08Z</time><name>PT1224</name></trkpt>
<trkpt lat="53.297211" lon="-1.919384"><ele>427</ele><time>2023-10-27T11:20:11Z</time><name>PT1225</name></trkpt>
<trkpt lat="53.297202" lon="-1.919325"><ele>427</ele><time>2023-10-27T11:20:15Z</time><name>PT1226</name></trkpt>
<trkpt lat="53.297183" lon="-1.919269"><ele>427</ele><time>2023-10-27T11:20:20Z</time><name>PT1227</name></trkpt>
<trkpt lat="53.297163" lon="-1.919229"><ele>426</ele><time>2023-10-27T11:20:23Z</time><name>PT1228</name></trkpt>
<trkpt lat="53.297136" lon="-1.919175"><ele>425</ele><time>2023-10-27T11:20:26Z</time><name>PT1229</name></trkpt>
<trkpt lat="53.297114" lon="-1.919115"><ele>426</ele><time>2023-10-27T11:20:30Z</time><name>PT1230</name></trkpt>
<trkpt lat="53.297099" lon="-1.919077"><ele>425</ele><time>2023-10-27T11:20:33Z</time><name>PT1231</name></trkpt>
<trkpt lat="53.297082" lon="-1.919031"><ele>425</ele><time>2023-10-27T11:20:36Z</time><name>PT1232</name></trkpt>
<trkpt lat="53.297056" lon="-1.918977"><ele>425</ele><time>2023-10-27T11:20:41Z</time><name>PT1233</name></trkpt>
<trkpt lat="53.297027" lon="-1.918942"><ele>424</ele><time>2023-10-27T11:20:44Z</time><name>PT1234</name></trkpt>
<trkpt lat="53.297006" lon="-1.918918"><ele>424</ele><time>2023-10-27T11:20:47Z</time><name>PT1235</name></trkpt>
<trkpt lat="53.296981" lon="-1.918877"><ele>423</ele><time>2023-10-27T11:20:50Z</time><name>PT1236</name></trkpt>
<trkpt lat="53.296948" lon="-1.918829"><ele>423</ele><time>2023-10-27T11:20:54Z</time><name>PT1237</name></trkpt>
<trkpt lat="53.296914" lon="-1.918796"><ele>423</ele><time>2023-10-27T11:20:59Z</time><name>PT1238</name></trkpt>
<trkpt lat="53.296884" lon="-1.918755"><ele>424</ele><time>2023-10-27T11:21:02Z</time><name>PT1239</name></trkpt>
<trkpt lat="53.296871" lon="-1.918734"><ele>423</ele><time>2023-10-27T11:21:05Z</time><name>PT1240</name></trkpt>
<trkpt lat="53.296839" lon="-1.918712"><ele>423</ele><time>2023-10-27T11:21:09Z</time><name>PT1241</name></trkpt>
<trkpt lat="53.296817" lon="-1.918689"><ele>423</ele><time>2023-10-27T11:21:12Z</time><name>PT1242</name></trkpt>
<trkpt lat="53.296794" lon="-1.918651"><ele>422</ele><time>2023-10-27T11:21:17Z</time><name>PT1243</name></trkpt>
<trkpt lat="53.296787" lon="-1.918626"><ele>421</ele><time>2023-10-27T11:21:20Z</time><name>PT1244</name></trkpt>
<trkpt lat="53.296773" lon="-1.918606"><ele>421</ele><time>2023-10-27T11:21:23Z</time><name>PT1245</name></trkpt>
<trkpt lat="53.296751" lon="-1.918584"><ele>421</ele><time>2023-10-27T11:21:26Z</time><name>PT1246</name></trkpt>
<trkpt lat="53.296738" lon="-1.918566"><ele>422</ele><time>2023-10-27T11:21:29Z</time><name>PT1247</name></trkpt>
<trkpt lat="53.296717" lon="-1.918552"><ele>422</ele><time>2023-10-27T11:21:32Z</time><name>PT1248</name></trkpt>
<trkpt lat="53.296694" lon="-1.918544"><ele>423</ele><time>2023-10-27T11:21:35Z</time><name>PT1249</name></trkpt>
<trkpt lat="53.296670" lon="-1.918519"><ele>422</ele><time>2023-10-27T11:21:39Z</time><name>PT1250</name></trkpt>
<trkpt lat="53.296643" lon="-1.918480"><ele>423</ele><time>2023-10-27T11:21:44Z</time><name>PT1251</name></trkpt>
<trkpt lat="53.296619" lon="-1.918449"><ele>424</ele><time>2023-10-27T11:21:47Z</time><name>PT1252</name></trkpt>
<trkpt lat="53.296606" lon="-1.918425"><ele>423</ele><time>2023-10-27T11:21:50Z</time><name>PT1253</name></trkpt>
<trkpt lat="53.296591" lon="-1.918411"><ele>422</ele><time>2023-10-27T11:21:54Z</time><name>PT1254</name></trkpt>
<trkpt lat="53.296586" lon="-1.918401"><ele>422</ele><time>2023-10-27T11:21:57Z</time><name>PT1255</name></trkpt>
<trkpt lat="53.296585" lon="-1.918393"><ele>421</ele><time>2023-10-27T11:22:02Z</time><name>PT1256</name></trkpt>
<trkpt lat="53.296568" lon="-1.918390"><ele>420</ele><time>2023-10-27T11:22:05Z</time><name>PT1257</name></trkpt>
<trkpt lat="53.296545" lon="-1.918353"><ele>420</ele><time>2023-10-27T11:22:08Z</time><name>PT1258</name></trkpt>
<trkpt lat="53.296518" lon="-1.918333"><ele>420</ele><time>2023-10-27T11:22:12Z</time><name>PT1259</name></trkpt>
<trkpt lat="53.296495" lon="-1.918314"><ele>420</ele><time>2023-10-27T11:22:15Z</time><name>PT1260</name></trkpt>
<trkpt lat="53.296478" lon="-1.918301"><ele>420</ele><time>2023-10-27T11:22:20Z</time><name>PT1261</name></trkpt>
<trkpt lat="53.296463" lon="-1.918298"><ele>420</ele><time>2023-10-27T11:22:23Z</time><name>PT1262</name></trkpt>
<trkpt lat="53.296452" lon="-1.918282"><ele>419</ele><time>2023-10-27T11:22:26Z</time><name>PT1263</name></trkpt>
<trkpt lat="53.296435" lon="-1.918262"><ele>419</ele><time>2023-10-27T11:22:29Z</time><name>PT1264</name></trkpt>
<trkpt lat="53.296418" lon="-1.918241"><ele>419</ele><time>2023-10-27T11:22:32Z</time><name>PT1265</name></trkpt>
<trkpt lat="53.296393" lon="-1.918198"><ele>419</ele><time>2023-10-27T11:22:36Z</time><name>PT1266</name></trkpt>
<trkpt lat="53.296361" lon="-1.918182"><ele>419</ele><time>2023-10-27T11:22:39Z</time><name>PT1267</name></trkpt>
<trkpt lat="53.296353" lon="-1.918198"><ele>419</ele><time>2023-10-27T11:22:42Z</time><name>PT1268</name></trkpt>
<trkpt lat="53.296357" lon="-1.918211"><ele>419</ele><time>2023-10-27T11:22:45Z</time><name>PT1269</name></trkpt>
<trkpt lat="53.296369" lon="-1.918240"><ele>420</ele><time>2023-10-27T11:22:50Z</time><name>PT1270</name></trkpt>
<trkpt lat="53.296367" lon="-1.918269"><ele>421</ele><time>2023-10-27T11:22:53Z</time><name>PT1271</name></trkpt>
<trkpt lat="53.296375" lon="-1.918305"><ele>421</ele><time>2023-10-27T11:22:56Z</time><name>PT1272</name></trkpt>
<trkpt lat="53.296375" lon="-1.918313"><ele>421</ele><time>2023-10-27T11:22:59Z</time><name>PT1273</name></trkpt>
<trkpt lat="53.296373" lon="-1.918322"><ele>421</ele><time>2023-10-27T11:23:06Z</time><name>PT1274</name></trkpt>
<trkpt lat="53.296353" lon="-1.918349"><ele>421</ele><time>2023-10-27T11:23:09Z</time><name>PT1275</name></trkpt>
<trkpt lat="53.296339" lon="-1.918372"><ele>421</ele><time>2023-10-27T11:23:12Z</time><name>PT1276</name></trkpt>
<trkpt lat="53.296307" lon="-1.918393"><ele>420</ele><time>2023-10-27T11:23:17Z</time><name>PT1277</name></trkpt>
<trkpt lat="53.296306" lon="-1.918428"><ele>421</ele><time>2023-10-27T11:23:20Z</time><name>PT1278</name></trkpt>
<trkpt lat="53.296315" lon="-1.918460"><ele>421</ele><time>2023-10-27T11:23:23Z</time><name>PT1279</name></trkpt>
<trkpt lat="53.296322" lon="-1.918510"><ele>421</ele><time>2023-10-27T11:23:27Z</time><name>PT1280</name></trkpt>
<trkpt lat="53.296324" lon="-1.918532"><ele>422</ele><time>2023-10-27T11:23:30Z</time><name>PT1281</name></trkpt>
<trkpt lat="53.296328" lon="-1.918541"><ele>423</ele><time>2023-10-27T11:23:35Z</time><name>PT1282</name></trkpt>
<trkpt lat="53.296328" lon="-1.918547"><ele>423</ele><time>2023-10-27T11:23:38Z</time><name>PT1283</name></trkpt>
<trkpt lat="53.296332" lon="-1.918580"><ele>424</ele><time>2023-10-27T11:23:59Z</time><name>PT1284</name></trkpt>
<trkpt lat="53.296343" lon="-1.918626"><ele>424</ele><time>2023-10-27T11:24:03Z</time><name>PT1285</name></trkpt>
<trkpt lat="53.296352" lon="-1.918660"><ele>423</ele><time>2023-10-27T11:24:06Z</time><name>PT1286</name></trkpt>
<trkpt lat="53.296344" lon="-1.918697"><ele>423</ele><time>2023-10-27T11:24:09Z</time><name>PT1287</name></trkpt>
<trkpt lat="53.296346" lon="-1.918759"><ele>422</ele><time>2023-10-27T11:24:14Z</time><name>PT1288</name></trkpt>
<trkpt lat="53.296360" lon="-1.918804"><ele>423</ele><time>2023-10-27T11:24:17Z</time><name>PT1289</name></trkpt>
<trkpt lat="53.296373" lon="-1.918859"><ele>423</ele><time>2023-10-27T11:24:20Z</time><name>PT1290</name></trkpt>
<trkpt lat="53.296386" lon="-1.918898"><ele>423</ele><time>2023-10-27T11:24:23Z</time><name>PT1291</name></trkpt>
<trkpt lat="53.296407" lon="-1.918932"><ele>423</ele><time>2023-10-27T11:24:28Z</time><name>PT1292</name></trkpt>
<trkpt lat="53.296425" lon="-1.918929"><ele>423</ele><time>2023-10-27T11:24:31Z</time><name>PT1293</name></trkpt>
<trkpt lat="53.296441" lon="-1.918954"><ele>422</ele><time>2023-10-27T11:24:34Z</time><name>PT1294</name></trkpt>
<trkpt lat="53.296443" lon="-1.919019"><ele>421</ele><time>2023-10-27T11:24:37Z</time><name>PT1295</name></trkpt>
<trkpt lat="53.296433" lon="-1.919061"><ele>420</ele><time>2023-10-27T11:24:41Z</time><name>PT1296</name></trkpt>
<trkpt lat="53.296425" lon="-1.919108"><ele>421</ele><time>2023-10-27T11:24:46Z</time><name>PT1297</name></trkpt>
<trkpt lat="53.296424" lon="-1.919149"><ele>421</ele><time>2023-10-27T11:24:49Z</time><name>PT1298</name></trkpt>
<trkpt lat="53.296429" lon="-1.919196"><ele>421</ele><time>2023-10-27T11:24:52Z</time><name>PT1299</name></trkpt>
<trkpt lat="53.296426" lon="-1.919233"><ele>422</ele><time>2023-10-27T11:24:55Z</time><name>PT1300</name></trkpt>
<trkpt lat="53.296418" lon="-1.919274"><ele>421</ele><time>2023-10-27T11:24:58Z</time><name>PT1301</name></trkpt>
<trkpt lat="53.296413" lon="-1.919341"><ele>421</ele><time>2023-10-27T11:25:02Z</time><name>PT1302</name></trkpt>
<trkpt lat="53.296401" lon="-1.919381"><ele>422</ele><time>2023-10-27T11:25:05Z</time><name>PT1303</name></trkpt>
<trkpt lat="53.296385" lon="-1.919421"><ele>422</ele><time>2023-10-27T11:25:08Z</time><name>PT1304</name></trkpt>
<trkpt lat="53.296370" lon="-1.919456"><ele>422</ele><time>2023-10-27T11:25:11Z</time><name>PT1305</name></trkpt>
<trkpt lat="53.296351" lon="-1.919511"><ele>422</ele><time>2023-10-27T11:25:16Z</time><name>PT1306</name></trkpt>
<trkpt lat="53.296325" lon="-1.919548"><ele>422</ele><time>2023-10-27T11:25:19Z</time><name>PT1307</name></trkpt>
<trkpt lat="53.296304" lon="-1.919562"><ele>422</ele><time>2023-10-27T11:25:22Z</time><name>PT1308</name></trkpt>
<trkpt lat="53.296279" lon="-1.919586"><ele>423</ele><time>2023-10-27T11:25:26Z</time><name>PT1309</name></trkpt>
<trkpt lat="53.296265" lon="-1.919625"><ele>422</ele><time>2023-10-27T11:25:31Z</time><name>PT1310</name></trkpt>
<trkpt lat="53.296251" lon="-1.919658"><ele>421</ele><time>2023-10-27T11:25:34Z</time><name>PT1311</name></trkpt>
<trkpt lat="53.296231" lon="-1.919683"><ele>421</ele><time>2023-10-27T11:25:37Z</time><name>PT1312</name></trkpt>
<trkpt lat="53.296212" lon="-1.919722"><ele>421</ele><time>2023-10-27T11:25:40Z</time><name>PT1313</name></trkpt>
<trkpt lat="53.296179" lon="-1.919769"><ele>422</ele><time>2023-10-27T11:25:44Z</time><name>PT1314</name></trkpt>
<trkpt lat="53.296160" lon="-1.919793"><ele>422</ele><time>2023-10-27T11:25:47Z</time><name>PT1315</name></trkpt>
<trkpt lat="53.296138" lon="-1.919829"><ele>422</ele><time>2023-10-27T11:25:52Z</time><name>PT1316</name></trkpt>
<trkpt lat="53.296126" lon="-1.919869"><ele>423</ele><time>2023-10-27T11:25:55Z</time><name>PT1317</name></trkpt>
<trkpt lat="53.296099" lon="-1.919895"><ele>423</ele><time>2023-10-27T11:25:58Z</time><name>PT1318</name></trkpt>
<trkpt lat="53.296081" lon="-1.919918"><ele>423</ele><time>2023-10-27T11:26:01Z</time><name>PT1319</name></trkpt>
<trkpt lat="53.296062" lon="-1.919956"><ele>424</ele><time>2023-10-27T11:26:05Z</time><name>PT1320</name></trkpt>
<trkpt lat="53.296048" lon="-1.919966"><ele>425</ele><time>2023-10-27T11:26:08Z</time><name>PT1321</name></trkpt>
<trkpt lat="53.296031" lon="-1.920009"><ele>424</ele><time>2023-10-27T11:26:13Z</time><name>PT1322</name></trkpt>
<trkpt lat="53.296023" lon="-1.920047"><ele>423</ele><time>2023-10-27T11:26:16Z</time><name>PT1323</name></trkpt>
<trkpt lat="53.295995" lon="-1.920098"><ele>423</ele><time>2023-10-27T11:26:19Z</time><name>PT1324</name></trkpt>
<trkpt lat="53.295975" lon="-1.920150"><ele>422</ele><time>2023-10-27T11:26:23Z</time><name>PT1325</name></trkpt>
<trkpt lat="53.295953" lon="-1.920183"><ele>421</ele><time>2023-10-27T11:26:26Z</time><name>PT1326</name></trkpt>
<trkpt lat="53.295934" lon="-1.920216"><ele>421</ele><time>2023-10-27T11:26:29Z</time><name>PT1327</name></trkpt>
<trkpt lat="53.295907" lon="-1.920259"><ele>421</ele><time>2023-10-27T11:26:34Z</time><name>PT1328</name></trkpt>
<trkpt lat="53.295901" lon="-1.920279"><ele>419</ele><time>2023-10-27T11:26:37Z</time><name>PT1329</name></trkpt>
<trkpt lat="53.295881" lon="-1.920317"><ele>419</ele><time>2023-10-27T11:26:40Z</time><name>PT1330</name></trkpt>
<trkpt lat="53.295870" lon="-1.920377"><ele>419</ele><time>2023-10-27T11:26:43Z</time><name>PT1331</name></trkpt>
<trkpt lat="53.295852" lon="-1.920417"><ele>420</ele><time>2023-10-27T11:26:47Z</time><name>PT1332</name></trkpt>
<trkpt lat="53.295835" lon="-1.920440"><ele>421</ele><time>2023-10-27T11:26:50Z</time><name>PT1333</name></trkpt>
<trkpt lat="53.295815" lon="-1.920477"><ele>422</ele><time>2023-10-27T11:26:55Z</time><name>PT1334</name></trkpt>
<trkpt lat="53.295791" lon="-1.920508"><ele>422</ele><time>2023-10-27T11:26:58Z</time><name>PT1335</name></trkpt>
<trkpt lat="53.295783" lon="-1.920556"><ele>422</ele><time>2023-10-27T11:27:01Z</time><name>PT1336</name></trkpt>
<trkpt lat="53.295748" lon="-1.920618"><ele>422</ele><time>2023-10-27T11:27:05Z</time><name>PT1337</name></trkpt>
<trkpt lat="53.295716" lon="-1.920681"><ele>423</ele><time>2023-10-27T11:27:10Z</time><name>PT1338</name></trkpt>
<trkpt lat="53.295693" lon="-1.920745"><ele>423</ele><time>2023-10-27T11:27:13Z</time><name>PT1339</name></trkpt>
<trkpt lat="53.295667" lon="-1.920797"><ele>423</ele><time>2023-10-27T11:27:17Z</time><name>PT1340</name></trkpt>
<trkpt lat="53.295645" lon="-1.920862"><ele>424</ele><time>2023-10-27T11:27:22Z</time><name>PT1341</name></trkpt>
<trkpt lat="53.295627" lon="-1.920893"><ele>424</ele><time>2023-10-27T11:27:25Z</time><name>PT1342</name></trkpt>
<trkpt lat="53.295607" lon="-1.920949"><ele>425</ele><time>2023-10-27T11:27:28Z</time><name>PT1343</name></trkpt>
<trkpt lat="53.295592" lon="-1.920985"><ele>426</ele><time>2023-10-27T11:27:31Z</time><name>PT1344</name></trkpt>
<trkpt lat="53.295579" lon="-1.921031"><ele>426</ele><time>2023-10-27T11:27:35Z</time><name>PT1345</name></trkpt>
<trkpt lat="53.295569" lon="-1.921056"><ele>427</ele><time>2023-10-27T11:27:38Z</time><name>PT1346</name></trkpt>
<trkpt lat="53.295562" lon="-1.921119"><ele>426</ele><time>2023-10-27T11:27:43Z</time><name>PT1347</name></trkpt>
<trkpt lat="53.295538" lon="-1.921180"><ele>427</ele><time>2023-10-27T11:27:46Z</time><name>PT1348</name></trkpt>
<trkpt lat="53.295529" lon="-1.921243"><ele>427</ele><time>2023-10-27T11:27:50Z</time><name>PT1349</name></trkpt>
<trkpt lat="53.295515" lon="-1.921282"><ele>426</ele><time>2023-10-27T11:27:53Z</time><name>PT1350</name></trkpt>
<trkpt lat="53.295498" lon="-1.921339"><ele>426</ele><time>2023-10-27T11:27:58Z</time><name>PT1351</name></trkpt>
<trkpt lat="53.295482" lon="-1.921384"><ele>426</ele><time>2023-10-27T11:28:01Z</time><name>PT1352</name></trkpt>
<trkpt lat="53.295480" lon="-1.921416"><ele>426</ele><time>2023-10-27T11:28:04Z</time><name>PT1353</name></trkpt>
<trkpt lat="53.295492" lon="-1.921477"><ele>427</ele><time>2023-10-27T11:28:08Z</time><name>PT1354</name></trkpt>
<trkpt lat="53.295500" lon="-1.921550"><ele>428</ele><time>2023-10-27T11:28:13Z</time><name>PT1355</name></trkpt>
<trkpt lat="53.295502" lon="-1.921590"><ele>428</ele><time>2023-10-27T11:28:16Z</time><name>PT1356</name></trkpt>
<trkpt lat="53.295497" lon="-1.921629"><ele>428</ele><time>2023-10-27T11:28:19Z</time><name>PT1357</name></trkpt>
<trkpt lat="53.295499" lon="-1.921673"><ele>428</ele><time>2023-10-27T11:28:22Z</time><name>PT1358</name></trkpt>
<trkpt lat="53.295500" lon="-1.921731"><ele>428</ele><time>2023-10-27T11:28:25Z</time><name>PT1359</name></trkpt>
<trkpt lat="53.295498" lon="-1.921767"><ele>428</ele><time>2023-10-27T11:28:28Z</time><name>PT1360</name></trkpt>
<trkpt lat="53.295508" lon="-1.921820"><ele>428</ele><time>2023-10-27T11:28:33Z</time><name>PT1361</name></trkpt>
<trkpt lat="53.295515" lon="-1.921874"><ele>428</ele><time>2023-10-27T11:28:36Z</time><name>PT1362</name></trkpt>
<trkpt lat="53.295521" lon="-1.921936"><ele>428</ele><time>2023-10-27T11:28:40Z</time><name>PT1363</name></trkpt>
<trkpt lat="53.295522" lon="-1.921986"><ele>428</ele><time>2023-10-27T11:28:43Z</time><name>PT1364</name></trkpt>
<trkpt lat="53.295514" lon="-1.922026"><ele>428</ele><time>2023-10-27T11:28:46Z</time><name>PT1365</name></trkpt>
<trkpt lat="53.295493" lon="-1.922056"><ele>428</ele><time>2023-10-27T11:28:49Z</time><name>PT1366</name></trkpt>
<trkpt lat="53.295472" lon="-1.922075"><ele>427</ele><time>2023-10-27T11:28:52Z</time><name>PT1367</name></trkpt>
<trkpt lat="53.295457" lon="-1.922125"><ele>426</ele><time>2023-10-27T11:28:56Z</time><name>PT1368</name></trkpt>
<trkpt lat="53.295450" lon="-1.922162"><ele>427</ele><time>2023-10-27T11:28:59Z</time><name>PT1369</name></trkpt>
<trkpt lat="53.295443" lon="-1.922209"><ele>427</ele><time>2023-10-27T11:29:04Z</time><name>PT1370</name></trkpt>
<trkpt lat="53.295427" lon="-1.922262"><ele>426</ele><time>2023-10-27T11:29:07Z</time><name>PT1371</name></trkpt>
<trkpt lat="53.295409" lon="-1.922317"><ele>425</ele><time>2023-10-27T11:29:11Z</time><name>PT1372</name></trkpt>
<trkpt lat="53.295397" lon="-1.922356"><ele>426</ele><time>2023-10-27T11:29:16Z</time><name>PT1373</name></trkpt>
<trkpt lat="53.295390" lon="-1.922375"><ele>426</ele><time>2023-10-27T11:29:19Z</time><name>PT1374</name></trkpt>
<trkpt lat="53.295380" lon="-1.922424"><ele>427</ele><time>2023-10-27T11:29:22Z</time><name>PT1375</name></trkpt>
<trkpt lat="53.295372" lon="-1.922466"><ele>427</ele><time>2023-10-27T11:29:25Z</time><name>PT1376</name></trkpt>
<trkpt lat="53.295372" lon="-1.922503"><ele>426</ele><time>2023-10-27T11:29:29Z</time><name>PT1377</name></trkpt>
<trkpt lat="53.295371" lon="-1.922551"><ele>426</ele><time>2023-10-27T11:29:32Z</time><name>PT1378</name></trkpt>
<trkpt lat="53.295361" lon="-1.922581"><ele>426</ele><time>2023-10-27T11:29:35Z</time><name>PT1379</name></trkpt>
<trkpt lat="53.295356" lon="-1.922618"><ele>426</ele><time>2023-10-27T11:29:39Z</time><name>PT1380</name></trkpt>
<trkpt lat="53.295348" lon="-1.922658"><ele>426</ele><time>2023-10-27T11:29:42Z</time><name>PT1381</name></trkpt>
<trkpt lat="53.295346" lon="-1.922694"><ele>426</ele><time>2023-10-27T11:29:45Z</time><name>PT1382</name></trkpt>
<trkpt lat="53.295337" lon="-1.922744"><ele>426</ele><time>2023-10-27T11:29:49Z</time><name>PT1383</name></trkpt>
<trkpt lat="53.295325" lon="-1.922778"><ele>427</ele><time>2023-10-27T11:29:54Z</time><name>PT1384</name></trkpt>
<trkpt lat="53.295313" lon="-1.922789"><ele>427</ele><time>2023-10-27T11:29:57Z</time><name>PT1385</name></trkpt>
<trkpt lat="53.295306" lon="-1.922821"><ele>428</ele><time>2023-10-27T11:30:00Z</time><name>PT1386</name></trkpt>
<trkpt lat="53.295307" lon="-1.922878"><ele>427</ele><time>2023-10-27T11:30:04Z</time><name>PT1387</name></trkpt>
<trkpt lat="53.295291" lon="-1.922924"><ele>428</ele><time>2023-10-27T11:30:09Z</time><name>PT1388</name></trkpt>
<trkpt lat="53.295290" lon="-1.922970"><ele>428</ele><time>2023-10-27T11:30:12Z</time><name>PT1389</name></trkpt>
<trkpt lat="53.295291" lon="-1.922999"><ele>428</ele><time>2023-10-27T11:30:15Z</time><name>PT1390</name></trkpt>
<trkpt lat="53.295283" lon="-1.923034"><ele>428</ele><time>2023-10-27T11:30:19Z</time><name>PT1391</name></trkpt>
<trkpt lat="53.295286" lon="-1.923062"><ele>427</ele><time>2023-10-27T11:30:22Z</time><name>PT1392</name></trkpt>
<trkpt lat="53.295287" lon="-1.923122"><ele>427</ele><time>2023-10-27T11:30:27Z</time><name>PT1393</name></trkpt>
<trkpt lat="53.295280" lon="-1.923172"><ele>427</ele><time>2023-10-27T11:30:30Z</time><name>PT1394</name></trkpt>
<trkpt lat="53.295276" lon="-1.923207"><ele>427</ele><time>2023-10-27T11:30:33Z</time><name>PT1395</name></trkpt>
<trkpt lat="53.295269" lon="-1.923252"><ele>427</ele><time>2023-10-27T11:30:37Z</time><name>PT1396</name></trkpt>
<trkpt lat="53.295267" lon="-1.923296"><ele>427</ele><time>2023-10-27T11:30:42Z</time><name>PT1397</name></trkpt>
<trkpt lat="53.295266" lon="-1.923340"><ele>426</ele><time>2023-10-27T11:30:45Z</time><name>PT1398</name></trkpt>
<trkpt lat="53.295265" lon="-1.923383"><ele>427</ele><time>2023-10-27T11:30:48Z</time><name>PT1399</name></trkpt>
<trkpt lat="53.295253" lon="-1.923428"><ele>426</ele><time>2023-10-27T11:30:51Z</time><name>PT1400</name></trkpt>
<trkpt lat="53.295250" lon="-1.923454"><ele>426</ele><time>2023-10-27T11:30:54Z</time><name>PT1401</name></trkpt>
<trkpt lat="53.295264" lon="-1.923484"><ele>426</ele><time>2023-10-27T11:30:57Z</time><name>PT1402</name></trkpt>
<trkpt lat="53.295278" lon="-1.923535"><ele>426</ele><time>2023-10-27T11:31:01Z</time><name>PT1403</name></trkpt>
<trkpt lat="53.295287" lon="-1.923575"><ele>426</ele><time>2023-10-27T11:31:04Z</time><name>PT1404</name></trkpt>
<trkpt lat="53.295299" lon="-1.923643"><ele>426</ele><time>2023-10-27T11:31:09Z</time><name>PT1405</name></trkpt>
<trkpt lat="53.295298" lon="-1.923691"><ele>426</ele><time>2023-10-27T11:31:12Z</time><name>PT1406</name></trkpt>
<trkpt lat="53.295297" lon="-1.923746"><ele>426</ele><time>2023-10-27T11:31:15Z</time><name>PT1407</name></trkpt>
<trkpt lat="53.295299" lon="-1.923793"><ele>426</ele><time>2023-10-27T11:31:19Z</time><name>PT1408</name></trkpt>
<trkpt lat="53.295298" lon="-1.923827"><ele>426</ele><time>2023-10-27T11:31:22Z</time><name>PT1409</name></trkpt>
<trkpt lat="53.295290" lon="-1.923872"><ele>427</ele><time>2023-10-27T11:31:27Z</time><name>PT1410</name></trkpt>
<trkpt lat="53.295278" lon="-1.923897"><ele>427</ele><time>2023-10-27T11:31:30Z</time><name>PT1411</name></trkpt>
<trkpt lat="53.295277" lon="-1.923936"><ele>427</ele><time>2023-10-27T11:31:33Z</time><name>PT1412</name></trkpt>
<trkpt lat="53.295284" lon="-1.923954"><ele>427</ele><time>2023-10-27T11:31:37Z</time><name>PT1413</name></trkpt>
<trkpt lat="53.295286" lon="-1.924003"><ele>426</ele><time>2023-10-27T11:31:40Z</time><name>PT1414</name></trkpt>
<trkpt lat="53.295293" lon="-1.924057"><ele>426</ele><time>2023-10-27T11:31:43Z</time><name>PT1415</name></trkpt>
<trkpt lat="53.295297" lon="-1.924119"><ele>427</ele><time>2023-10-27T11:31:48Z</time><name>PT1416</name></trkpt>
<trkpt lat="53.295305" lon="-1.924165"><ele>426</ele><time>2023-10-27T11:31:51Z</time><name>PT1417</name></trkpt>
<trkpt lat="53.295310" lon="-1.924226"><ele>426</ele><time>2023-10-27T11:31:54Z</time><name>PT1418</name></trkpt>
<trkpt lat="53.295309" lon="-1.924264"><ele>427</ele><time>2023-10-27T11:31:57Z</time><name>PT1419</name></trkpt>
<trkpt lat="53.295308" lon="-1.924294"><ele>427</ele><time>2023-10-27T11:32:00Z</time><name>PT1420</name></trkpt>
<trkpt lat="53.295297" lon="-1.924343"><ele>427</ele><time>2023-10-27T11:32:05Z</time><name>PT1421</name></trkpt>
<trkpt lat="53.295295" lon="-1.924374"><ele>427</ele><time>2023-10-27T11:32:08Z</time><name>PT1422</name></trkpt>
<trkpt lat="53.295296" lon="-1.924422"><ele>427</ele><time>2023-10-27T11:32:11Z</time><name>PT1423</name></trkpt>
<trkpt lat="53.295294" lon="-1.924449"><ele>427</ele><time>2023-10-27T11:32:14Z</time><name>PT1424</name></trkpt>
<trkpt lat="53.295291" lon="-1.924486"><ele>428</ele><time>2023-10-27T11:32:17Z</time><name>PT1425</name></trkpt>
<trkpt lat="53.295280" lon="-1.924515"><ele>428</ele><time>2023-10-27T11:32:20Z</time><name>PT1426</name></trkpt>
<trkpt lat="53.295270" lon="-1.924567"><ele>428</ele><time>2023-10-27T11:32:24Z</time><name>PT1427</name></trkpt>
<trkpt lat="53.295273" lon="-1.924632"><ele>427</ele><time>2023-10-27T11:32:29Z</time><name>PT1428</name></trkpt>
<trkpt lat="53.295274" lon="-1.924674"><ele>427</ele><time>2023-10-27T11:32:32Z</time><name>PT1429</name></trkpt>
<trkpt lat="53.295270" lon="-1.924715"><ele>427</ele><time>2023-10-27T11:32:35Z</time><name>PT1430</name></trkpt>
<trkpt lat="53.295278" lon="-1.924756"><ele>427</ele><time>2023-10-27T11:32:38Z</time><name>PT1431</name></trkpt>
<trkpt lat="53.295275" lon="-1.924827"><ele>427</ele><time>2023-10-27T11:32:41Z</time><name>PT1432</name></trkpt>
<trkpt lat="53.295276" lon="-1.924895"><ele>427</ele><time>2023-10-27T11:32:45Z</time><name>PT1433</name></trkpt>
<trkpt lat="53.295277" lon="-1.924955"><ele>427</ele><time>2023-10-27T11:32:50Z</time><name>PT1434</name></trkpt>
<trkpt lat="53.295287" lon="-1.924996"><ele>427</ele><time>2023-10-27T11:32:53Z</time><name>PT1435</name></trkpt>
<trkpt lat="53.295291" lon="-1.925042"><ele>427</ele><time>2023-10-27T11:32:56Z</time><name>PT1436</name></trkpt>
<trkpt lat="53.295288" lon="-1.925078"><ele>427</ele><time>2023-10-27T11:32:59Z</time><name>PT1437</name></trkpt>
<trkpt lat="53.295282" lon="-1.925139"><ele>427</ele><time>2023-10-27T11:33:02Z</time><name>PT1438</name></trkpt>
<trkpt lat="53.295282" lon="-1.925176"><ele>427</ele><time>2023-10-27T11:33:05Z</time><name>PT1439</name></trkpt>
<trkpt lat="53.295281" lon="-1.925231"><ele>427</ele><time>2023-10-27T11:33:09Z</time><name>PT1440</name></trkpt>
<trkpt lat="53.295275" lon="-1.925265"><ele>427</ele><time>2023-10-27T11:33:12Z</time><name>PT1441</name></trkpt>
<trkpt lat="53.295250" lon="-1.925321"><ele>427</ele><time>2023-10-27T11:33:17Z</time><name>PT1442</name></trkpt>
<trkpt lat="53.295233" lon="-1.925353"><ele>427</ele><time>2023-10-27T11:33:20Z</time><name>PT1443</name></trkpt>
<trkpt lat="53.295215" lon="-1.925400"><ele>428</ele><time>2023-10-27T11:33:23Z</time><name>PT1444</name></trkpt>
<trkpt lat="53.295213" lon="-1.925454"><ele>427</ele><time>2023-10-27T11:33:27Z</time><name>PT1445</name></trkpt>
<trkpt lat="53.295202" lon="-1.925517"><ele>427</ele><time>2023-10-27T11:33:32Z</time><name>PT1446</name></trkpt>
<trkpt lat="53.295187" lon="-1.925547"><ele>430</ele><time>2023-10-27T11:33:35Z</time><name>PT1447</name></trkpt>
<trkpt lat="53.295184" lon="-1.925618"><ele>430</ele><time>2023-10-27T11:33:39Z</time><name>PT1448</name></trkpt>
<trkpt lat="53.295185" lon="-1.925671"><ele>430</ele><time>2023-10-27T11:33:42Z</time><name>PT1449</name></trkpt>
<trkpt lat="53.295181" lon="-1.925722"><ele>431</ele><time>2023-10-27T11:33:45Z</time><name>PT1450</name></trkpt>
<trkpt lat="53.295174" lon="-1.925767"><ele>430</ele><time>2023-10-27T11:33:48Z</time><name>PT1451</name></trkpt>
<trkpt lat="53.295166" lon="-1.925823"><ele>430</ele><time>2023-10-27T11:33:53Z</time><name>PT1452</name></trkpt>
<trkpt lat="53.295153" lon="-1.925884"><ele>430</ele><time>2023-10-27T11:33:56Z</time><name>PT1453</name></trkpt>
<trkpt lat="53.295133" lon="-1.925924"><ele>430</ele><time>2023-10-27T11:33:59Z</time><name>PT1454</name></trkpt>
<trkpt lat="53.295120" lon="-1.925988"><ele>429</ele><time>2023-10-27T11:34:03Z</time><name>PT1455</name></trkpt>
<trkpt lat="53.295106" lon="-1.926029"><ele>429</ele><time>2023-10-27T11:34:06Z</time><name>PT1456</name></trkpt>
<trkpt lat="53.295080" lon="-1.926074"><ele>429</ele><time>2023-10-27T11:34:11Z</time><name>PT1457</name></trkpt>
<trkpt lat="53.295073" lon="-1.926116"><ele>429</ele><time>2023-10-27T11:34:14Z</time><name>PT1458</name></trkpt>
<trkpt lat="53.295056" lon="-1.926171"><ele>429</ele><time>2023-10-27T11:34:17Z</time><name>PT1459</name></trkpt>
<trkpt lat="53.295031" lon="-1.926204"><ele>429</ele><time>2023-10-27T11:34:21Z</time><name>PT1460</name></trkpt>
<trkpt lat="53.295019" lon="-1.926233"><ele>429</ele><time>2023-10-27T11:34:24Z</time><name>PT1461</name></trkpt>
<trkpt lat="53.294990" lon="-1.926267"><ele>430</ele><time>2023-10-27T11:34:29Z</time><name>PT1462</name></trkpt>
<trkpt lat="53.294966" lon="-1.926302"><ele>431</ele><time>2023-10-27T11:34:32Z</time><name>PT1463</name></trkpt>
<trkpt lat="53.294942" lon="-1.926349"><ele>431</ele><time>2023-10-27T11:34:35Z</time><name>PT1464</name></trkpt>
<trkpt lat="53.294918" lon="-1.926390"><ele>431</ele><time>2023-10-27T11:34:39Z</time><name>PT1465</name></trkpt>
<trkpt lat="53.294893" lon="-1.926413"><ele>431</ele><time>2023-10-27T11:34:44Z</time><name>PT1466</name></trkpt>
<trkpt lat="53.294870" lon="-1.926446"><ele>431</ele><time>2023-10-27T11:34:47Z</time><name>PT1467</name></trkpt>
<trkpt lat="53.294851" lon="-1.926494"><ele>431</ele><time>2023-10-27T11:34:51Z</time><name>PT1468</name></trkpt>
<trkpt lat="53.294835" lon="-1.926540"><ele>432</ele><time>2023-10-27T11:34:56Z</time><name>PT1469</name></trkpt>
<trkpt lat="53.294830" lon="-1.926578"><ele>431</ele><time>2023-10-27T11:34:59Z</time><name>PT1470</name></trkpt>
<trkpt lat="53.294818" lon="-1.926627"><ele>432</ele><time>2023-10-27T11:35:02Z</time><name>PT1471</name></trkpt>
<trkpt lat="53.294802" lon="-1.926682"><ele>432</ele><time>2023-10-27T11:35:05Z</time><name>PT1472</name></trkpt>
<trkpt lat="53.294782" lon="-1.926751"><ele>431</ele><time>2023-10-27T11:35:08Z</time><name>PT1473</name></trkpt>
<trkpt lat="53.294767" lon="-1.926821"><ele>431</ele><time>2023-10-27T11:35:12Z</time><name>PT1474</name></trkpt>
<trkpt lat="53.294742" lon="-1.926888"><ele>431</ele><time>2023-10-27T11:35:17Z</time><name>PT1475</name></trkpt>
<trkpt lat="53.294707" lon="-1.926926"><ele>431</ele><time>2023-10-27T11:35:20Z</time><name>PT1476</name></trkpt>
<trkpt lat="53.294663" lon="-1.926965"><ele>432</ele><time>2023-10-27T11:35:24Z</time><name>PT1477</name></trkpt>
<trkpt lat="53.294637" lon="-1.926993"><ele>432</ele><time>2023-10-27T11:35:27Z</time><name>PT1478</name></trkpt>
<trkpt lat="53.294613" lon="-1.927025"><ele>431</ele><time>2023-10-27T11:35:32Z</time><name>PT1479</name></trkpt>
<trkpt lat="53.294588" lon="-1.927043"><ele>430</ele><time>2023-10-27T11:35:35Z</time><name>PT1480</name></trkpt>
<trkpt lat="53.294573" lon="-1.927074"><ele>431</ele><time>2023-10-27T11:35:38Z</time><name>PT1481</name></trkpt>
<trkpt lat="53.294552" lon="-1.927105"><ele>431</ele><time>2023-10-27T11:35:41Z</time><name>PT1482</name></trkpt>
<trkpt lat="53.294528" lon="-1.927134"><ele>431</ele><time>2023-10-27T11:35:44Z</time><name>PT1483</name></trkpt>
<trkpt lat="53.294495" lon="-1.927175"><ele>432</ele><time>2023-10-27T11:35:47Z</time><name>PT1484</name></trkpt>
<trkpt lat="53.294469" lon="-1.927203"><ele>433</ele><time>2023-10-27T11:35:50Z</time><name>PT1485</name></trkpt>
<trkpt lat="53.294446" lon="-1.927239"><ele>432</ele><time>2023-10-27T11:35:53Z</time><name>PT1486</name></trkpt>
<trkpt lat="53.294410" lon="-1.927291"><ele>432</ele><time>2023-10-27T11:35:57Z</time><name>PT1487</name></trkpt>
<trkpt lat="53.294387" lon="-1.927322"><ele>432</ele><time>2023-10-27T11:36:00Z</time><name>PT1488</name></trkpt>
<trkpt lat="53.294364" lon="-1.927351"><ele>432</ele><time>2023-10-27T11:36:05Z</time><name>PT1489</name></trkpt>
<trkpt lat="53.294347" lon="-1.927380"><ele>432</ele><time>2023-10-27T11:36:08Z</time><name>PT1490</name></trkpt>
<trkpt lat="53.294335" lon="-1.927424"><ele>432</ele><time>2023-10-27T11:36:11Z</time><name>PT1491</name></trkpt>
<trkpt lat="53.294320" lon="-1.927471"><ele>432</ele><time>2023-10-27T11:36:14Z</time><name>PT1492</name></trkpt>
<trkpt lat="53.294303" lon="-1.927515"><ele>432</ele><time>2023-10-27T11:36:17Z</time><name>PT1493</name></trkpt>
<trkpt lat="53.294293" lon="-1.927587"><ele>431</ele><time>2023-10-27T11:36:21Z</time><name>PT1494</name></trkpt>
<trkpt lat="53.294282" lon="-1.927649"><ele>431</ele><time>2023-10-27T11:36:26Z</time><name>PT1495</name></trkpt>
<trkpt lat="53.294255" lon="-1.927695"><ele>431</ele><time>2023-10-27T11:36:29Z</time><name>PT1496</name></trkpt>
<trkpt lat="53.294229" lon="-1.927697"><ele>431</ele><time>2023-10-27T11:36:32Z</time><name>PT1497</name></trkpt>
<trkpt lat="53.294205" lon="-1.927677"><ele>431</ele><time>2023-10-27T11:36:35Z</time><name>PT1498</name></trkpt>
<trkpt lat="53.294176" lon="-1.927662"><ele>432</ele><time>2023-10-27T11:36:38Z</time><name>PT1499</name></trkpt>
<trkpt lat="53.294140" lon="-1.927634"><ele>431</ele><time>2023-10-27T11:36:42Z</time><name>PT1500</name></trkpt>
<trkpt lat="53.294113" lon="-1.927616"><ele>431</ele><time>2023-10-27T11:36:45Z</time><name>PT1501</name></trkpt>
<trkpt lat="53.294076" lon="-1.927581"><ele>431</ele><time>2023-10-27T11:36:50Z</time><name>PT1502</name></trkpt>
<trkpt lat="53.294043" lon="-1.927559"><ele>431</ele><time>2023-10-27T11:36:53Z</time><name>PT1503</name></trkpt>
<trkpt lat="53.294016" lon="-1.927539"><ele>431</ele><time>2023-10-27T11:36:56Z</time><name>PT1504</name></trkpt>
<trkpt lat="53.293991" lon="-1.927522"><ele>430</ele><time>2023-10-27T11:36:59Z</time><name>PT1505</name></trkpt>
<trkpt lat="53.293966" lon="-1.927497"><ele>430</ele><time>2023-10-27T11:37:02Z</time><name>PT1506</name></trkpt>
<trkpt lat="53.293929" lon="-1.927475"><ele>430</ele><time>2023-10-27T11:37:07Z</time><name>PT1507</name></trkpt>
<trkpt lat="53.293902" lon="-1.927460"><ele>430</ele><time>2023-10-27T11:37:10Z</time><name>PT1508</name></trkpt>
<trkpt lat="53.293870" lon="-1.927430"><ele>429</ele><time>2023-10-27T11:37:13Z</time><name>PT1509</name></trkpt>
<trkpt lat="53.293851" lon="-1.927394"><ele>429</ele><time>2023-10-27T11:37:17Z</time><name>PT1510</name></trkpt>
<trkpt lat="53.293835" lon="-1.927362"><ele>429</ele><time>2023-10-27T11:37:21Z</time><name>PT1511</name></trkpt>
<trkpt lat="53.293818" lon="-1.927328"><ele>427</ele><time>2023-10-27T11:37:24Z</time><name>PT1512</name></trkpt>
<trkpt lat="53.293785" lon="-1.927290"><ele>426</ele><time>2023-10-27T11:37:27Z</time><name>PT1513</name></trkpt>
<trkpt lat="53.293762" lon="-1.927267"><ele>426</ele><time>2023-10-27T11:37:30Z</time><name>PT1514</name></trkpt>
<trkpt lat="53.293732" lon="-1.927241"><ele>426</ele><time>2023-10-27T11:37:34Z</time><name>PT1515</name></trkpt>
<trkpt lat="53.293702" lon="-1.927217"><ele>426</ele><time>2023-10-27T11:37:39Z</time><name>PT1516</name></trkpt>
<trkpt lat="53.293676" lon="-1.927185"><ele>426</ele><time>2023-10-27T11:37:42Z</time><name>PT1517</name></trkpt>
<trkpt lat="53.293657" lon="-1.927159"><ele>426</ele><time>2023-10-27T11:37:46Z</time><name>PT1518</name></trkpt>
<trkpt lat="53.293640" lon="-1.927135"><ele>426</ele><time>2023-10-27T11:37:49Z</time><name>PT1519</name></trkpt>
<trkpt lat="53.293631" lon="-1.927106"><ele>426</ele><time>2023-10-27T11:37:52Z</time><name>PT1520</name></trkpt>
<trkpt lat="53.293615" lon="-1.927061"><ele>425</ele><time>2023-10-27T11:37:57Z</time><name>PT1521</name></trkpt>
<trkpt lat="53.293594" lon="-1.927046"><ele>425</ele><time>2023-10-27T11:38:00Z</time><name>PT1522</name></trkpt>
<trkpt lat="53.293568" lon="-1.927038"><ele>426</ele><time>2023-10-27T11:38:03Z</time><name>PT1523</name></trkpt>
<trkpt lat="53.293537" lon="-1.927021"><ele>426</ele><time>2023-10-27T11:38:06Z</time><name>PT1524</name></trkpt>
<trkpt lat="53.293505" lon="-1.927000"><ele>426</ele><time>2023-10-27T11:38:11Z</time><name>PT1525</name></trkpt>
<trkpt lat="53.293480" lon="-1.927004"><ele>427</ele><time>2023-10-27T11:38:14Z</time><name>PT1526</name></trkpt>
<trkpt lat="53.293448" lon="-1.926976"><ele>427</ele><time>2023-10-27T11:38:17Z</time><name>PT1527</name></trkpt>
<trkpt lat="53.293413" lon="-1.926939"><ele>427</ele><time>2023-10-27T11:38:21Z</time><name>PT1528</name></trkpt>
<trkpt lat="53.293380" lon="-1.926904"><ele>427</ele><time>2023-10-27T11:38:26Z</time><name>PT1529</name></trkpt>
<trkpt lat="53.293354" lon="-1.926861"><ele>427</ele><time>2023-10-27T11:38:29Z</time><name>PT1530</name></trkpt>
<trkpt lat="53.293334" lon="-1.926831"><ele>427</ele><time>2023-10-27T11:38:32Z</time><name>PT1531</name></trkpt>
<trkpt lat="53.293315" lon="-1.926802"><ele>427</ele><time>2023-10-27T11:38:35Z</time><name>PT1532</name></trkpt>
<trkpt lat="53.293282" lon="-1.926760"><ele>427</ele><time>2023-10-27T11:38:39Z</time><name>PT1533</name></trkpt>
<trkpt lat="53.293258" lon="-1.926725"><ele>427</ele><time>2023-10-27T11:38:43Z</time><name>PT1534</name></trkpt>
<trkpt lat="53.293236" lon="-1.926681"><ele>426</ele><time>2023-10-27T11:38:46Z</time><name>PT1535</name></trkpt>
<trkpt lat="53.293217" lon="-1.926645"><ele>426</ele><time>2023-10-27T11:38:49Z</time><name>PT1536</name></trkpt>
<trkpt lat="53.293199" lon="-1.926583"><ele>427</ele><time>2023-10-27T11:38:53Z</time><name>PT1537</name></trkpt>
<trkpt lat="53.293183" lon="-1.926543"><ele>427</ele><time>2023-10-27T11:38:56Z</time><name>PT1538</name></trkpt>
<trkpt lat="53.293164" lon="-1.926511"><ele>427</ele><time>2023-10-27T11:38:59Z</time><name>PT1539</name></trkpt>
<trkpt lat="53.293151" lon="-1.926452"><ele>427</ele><time>2023-10-27T11:39:04Z</time><name>PT1540</name></trkpt>
<trkpt lat="53.293137" lon="-1.926405"><ele>427</ele><time>2023-10-27T11:39:07Z</time><name>PT1541</name></trkpt>
<trkpt lat="53.293115" lon="-1.926365"><ele>426</ele><time>2023-10-27T11:39:10Z</time><name>PT1542</name></trkpt>
<trkpt lat="53.293090" lon="-1.926318"><ele>425</ele><time>2023-10-27T11:39:14Z</time><name>PT1543</name></trkpt>
<trkpt lat="53.293072" lon="-1.926285"><ele>425</ele><time>2023-10-27T11:39:17Z</time><name>PT1544</name></trkpt>
<trkpt lat="53.293053" lon="-1.926254"><ele>425</ele><time>2023-10-27T11:39:21Z</time><name>PT1545</name></trkpt>
<trkpt lat="53.293021" lon="-1.926215"><ele>426</ele><time>2023-10-27T11:39:24Z</time><name>PT1546</name></trkpt>
<trkpt lat="53.293009" lon="-1.926167"><ele>426</ele><time>2023-10-27T11:39:27Z</time><name>PT1547</name></trkpt>
<trkpt lat="53.292998" lon="-1.926129"><ele>426</ele><time>2023-10-27T11:39:30Z</time><name>PT1548</name></trkpt>
<trkpt lat="53.292977" lon="-1.926074"><ele>427</ele><time>2023-10-27T11:39:34Z</time><name>PT1549</name></trkpt>
<trkpt lat="53.292957" lon="-1.926031"><ele>427</ele><time>2023-10-27T11:39:37Z</time><name>PT1550</name></trkpt>
<trkpt lat="53.292933" lon="-1.925976"><ele>427</ele><time>2023-10-27T11:39:42Z</time><name>PT1551</name></trkpt>
<trkpt lat="53.292917" lon="-1.925936"><ele>427</ele><time>2023-10-27T11:39:45Z</time><name>PT1552</name></trkpt>
<trkpt lat="53.292885" lon="-1.925894"><ele>427</ele><time>2023-10-27T11:39:48Z</time><name>PT1553</name></trkpt>
<trkpt lat="53.292862" lon="-1.925848"><ele>427</ele><time>2023-10-27T11:39:52Z</time><name>PT1554</name></trkpt>
<trkpt lat="53.292844" lon="-1.925812"><ele>427</ele><time>2023-10-27T11:39:55Z</time><name>PT1555</name></trkpt>
<trkpt lat="53.292822" lon="-1.925757"><ele>427</ele><time>2023-10-27T11:40:00Z</time><name>PT1556</name></trkpt>
<trkpt lat="53.292812" lon="-1.925702"><ele>427</ele><time>2023-10-27T11:40:03Z</time><name>PT1557</name></trkpt>
<trkpt lat="53.292788" lon="-1.925666"><ele>427</ele><time>2023-10-27T11:40:06Z</time><name>PT1558</name></trkpt>
<trkpt lat="53.292773" lon="-1.925630"><ele>427</ele><time>2023-10-27T11:40:09Z</time><name>PT1559</name></trkpt>
<trkpt lat="53.292757" lon="-1.925572"><ele>427</ele><time>2023-10-27T11:40:12Z</time><name>PT1560</name></trkpt>
<trkpt lat="53.292745" lon="-1.925512"><ele>428</ele><time>2023-10-27T11:40:17Z</time><name>PT1561</name></trkpt>
<trkpt lat="53.292729" lon="-1.925465"><ele>427</ele><time>2023-10-27T11:40:20Z</time><name>PT1562</name></trkpt>
<trkpt lat="53.292713" lon="-1.925409"><ele>427</ele><time>2023-10-27T11:40:23Z</time><name>PT1563</name></trkpt>
<trkpt lat="53.292704" lon="-1.925366"><ele>426</ele><time>2023-10-27T11:40:26Z</time><name>PT1564</name></trkpt>
<trkpt lat="53.292696" lon="-1.925303"><ele>426</ele><time>2023-10-27T11:40:30Z</time><name>PT1565</name></trkpt>
<trkpt lat="53.292687" lon="-1.925255"><ele>426</ele><time>2023-10-27T11:40:33Z</time><name>PT1566</name></trkpt>
<trkpt lat="53.292678" lon="-1.925212"><ele>426</ele><time>2023-10-27T11:40:37Z</time><name>PT1567</name></trkpt>
<trkpt lat="53.292667" lon="-1.925182"><ele>425</ele><time>2023-10-27T11:40:40Z</time><name>PT1568</name></trkpt>
<trkpt lat="53.292660" lon="-1.925143"><ele>425</ele><time>2023-10-27T11:40:43Z</time><name>PT1569</name></trkpt>
<trkpt lat="53.292645" lon="-1.925123"><ele>424</ele><time>2023-10-27T11:40:47Z</time><name>PT1570</name></trkpt>
<trkpt lat="53.292627" lon="-1.925098"><ele>424</ele><time>2023-10-27T11:40:50Z</time><name>PT1571</name></trkpt>
<trkpt lat="53.292609" lon="-1.925057"><ele>424</ele><time>2023-10-27T11:40:55Z</time><name>PT1572</name></trkpt>
<trkpt lat="53.292592" lon="-1.925028"><ele>425</ele><time>2023-10-27T11:40:58Z</time><name>PT1573</name></trkpt>
<trkpt lat="53.292579" lon="-1.924993"><ele>425</ele><time>2023-10-27T11:41:01Z</time><name>PT1574</name></trkpt>
<trkpt lat="53.292566" lon="-1.924951"><ele>426</ele><time>2023-10-27T11:41:05Z</time><name>PT1575</name></trkpt>
<trkpt lat="53.292559" lon="-1.924935"><ele>426</ele><time>2023-10-27T11:41:08Z</time><name>PT1576</name></trkpt>
<trkpt lat="53.292561" lon="-1.924934"><ele>425</ele><time>2023-10-27T11:41:11Z</time><name>PT1577</name></trkpt>
<trkpt lat="53.292559" lon="-1.924916"><ele>425</ele><time>2023-10-27T11:41:16Z</time><name>PT1578</name></trkpt>
<trkpt lat="53.292533" lon="-1.924869"><ele>425</ele><time>2023-10-27T11:41:22Z</time><name>PT1579</name></trkpt>
<trkpt lat="53.292520" lon="-1.924832"><ele>425</ele><time>2023-10-27T11:41:25Z</time><name>PT1580</name></trkpt>
<trkpt lat="53.292510" lon="-1.924792"><ele>426</ele><time>2023-10-27T11:41:30Z</time><name>PT1581</name></trkpt>
<trkpt lat="53.292492" lon="-1.924749"><ele>426</ele><time>2023-10-27T11:41:33Z</time><name>PT1582</name></trkpt>
<trkpt lat="53.292466" lon="-1.924689"><ele>427</ele><time>2023-10-27T11:41:36Z</time><name>PT1583</name></trkpt>
<trkpt lat="53.292450" lon="-1.924645"><ele>427</ele><time>2023-10-27T11:41:40Z</time><name>PT1584</name></trkpt>
<trkpt lat="53.292444" lon="-1.924601"><ele>427</ele><time>2023-10-27T11:41:43Z</time><name>PT1585</name></trkpt>
<trkpt lat="53.292435" lon="-1.924551"><ele>426</ele><time>2023-10-27T11:41:48Z</time><name>PT1586</name></trkpt>
<trkpt lat="53.292428" lon="-1.924528"><ele>427</ele><time>2023-10-27T11:41:51Z</time><name>PT1587</name></trkpt>
<trkpt lat="53.292422" lon="-1.924488"><ele>428</ele><time>2023-10-27T11:41:54Z</time><name>PT1588</name></trkpt>
<trkpt lat="53.292412" lon="-1.924445"><ele>428</ele><time>2023-10-27T11:41:59Z</time><name>PT1589</name></trkpt>
<trkpt lat="53.292394" lon="-1.924411"><ele>428</ele><time>2023-10-27T11:42:02Z</time><name>PT1590</name></trkpt>
<trkpt lat="53.292372" lon="-1.924355"><ele>429</ele><time>2023-10-27T11:42:05Z</time><name>PT1591</name></trkpt>
<trkpt lat="53.292356" lon="-1.924309"><ele>429</ele><time>2023-10-27T11:42:08Z</time><name>PT1592</name></trkpt>
<trkpt lat="53.292337" lon="-1.924255"><ele>429</ele><time>2023-10-27T11:42:12Z</time><name>PT1593</name></trkpt>
<trkpt lat="53.292321" lon="-1.924222"><ele>429</ele><time>2023-10-27T11:42:15Z</time><name>PT1594</name></trkpt>
<trkpt lat="53.292298" lon="-1.924172"><ele>430</ele><time>2023-10-27T11:42:20Z</time><name>PT1595</name></trkpt>
<trkpt lat="53.292285" lon="-1.924133"><ele>430</ele><time>2023-10-27T11:42:23Z</time><name>PT1596</name></trkpt>
<trkpt lat="53.292267" lon="-1.924078"><ele>430</ele><time>2023-10-27T11:42:26Z</time><name>PT1597</name></trkpt>
<trkpt lat="53.292255" lon="-1.924035"><ele>430</ele><time>2023-10-27T11:42:29Z</time><name>PT1598</name></trkpt>
<trkpt lat="53.292238" lon="-1.924001"><ele>430</ele><time>2023-10-27T11:42:32Z</time><name>PT1599</name></trkpt>
<trkpt lat="53.292230" lon="-1.923959"><ele>430</ele><time>2023-10-27T11:42:35Z</time><name>PT1600</name></trkpt>
<trkpt lat="53.292209" lon="-1.923913"><ele>429</ele><time>2023-10-27T11:42:40Z</time><name>PT1601</name></trkpt>
<trkpt lat="53.292189" lon="-1.923880"><ele>430</ele><time>2023-10-27T11:42:43Z</time><name>PT1602</name></trkpt>
<trkpt lat="53.292166" lon="-1.923842"><ele>430</ele><time>2023-10-27T11:42:47Z</time><name>PT1603</name></trkpt>
<trkpt lat="53.292142" lon="-1.923781"><ele>430</ele><time>2023-10-27T11:42:52Z</time><name>PT1604</name></trkpt>
<trkpt lat="53.292128" lon="-1.923721"><ele>430</ele><time>2023-10-27T11:42:55Z</time><name>PT1605</name></trkpt>
<trkpt lat="53.292120" lon="-1.923676"><ele>430</ele><time>2023-10-27T11:42:58Z</time><name>PT1606</name></trkpt>
<trkpt lat="53.292107" lon="-1.923624"><ele>430</ele><time>2023-10-27T11:43:01Z</time><name>PT1607</name></trkpt>
<trkpt lat="53.292100" lon="-1.923585"><ele>429</ele><time>2023-10-27T11:43:04Z</time><name>PT1608</name></trkpt>
<trkpt lat="53.292088" lon="-1.923529"><ele>429</ele><time>2023-10-27T11:43:08Z</time><name>PT1609</name></trkpt>
<trkpt lat="53.292070" lon="-1.923476"><ele>429</ele><time>2023-10-27T11:43:13Z</time><name>PT1610</name></trkpt>
<trkpt lat="53.292062" lon="-1.923433"><ele>429</ele><time>2023-10-27T11:43:16Z</time><name>PT1611</name></trkpt>
<trkpt lat="53.292062" lon="-1.923399"><ele>428</ele><time>2023-10-27T11:43:19Z</time><name>PT1612</name></trkpt>
<trkpt lat="53.292055" lon="-1.923362"><ele>428</ele><time>2023-10-27T11:43:22Z</time><name>PT1613</name></trkpt>
<trkpt lat="53.292033" lon="-1.923315"><ele>428</ele><time>2023-10-27T11:43:26Z</time><name>PT1614</name></trkpt>
<trkpt lat="53.292006" lon="-1.923274"><ele>429</ele><time>2023-10-27T11:43:31Z</time><name>PT1615</name></trkpt>
<trkpt lat="53.291982" lon="-1.923214"><ele>428</ele><time>2023-10-27T11:43:34Z</time><name>PT1616</name></trkpt>
<trkpt lat="53.291962" lon="-1.923180"><ele>428</ele><time>2023-10-27T11:43:37Z</time><name>PT1617</name></trkpt>
<trkpt lat="53.291941" lon="-1.923139"><ele>427</ele><time>2023-10-27T11:43:41Z</time><name>PT1618</name></trkpt>
<trkpt lat="53.291913" lon="-1.923103"><ele>427</ele><time>2023-10-27T11:43:46Z</time><name>PT1619</name></trkpt>
<trkpt lat="53.291895" lon="-1.923057"><ele>427</ele><time>2023-10-27T11:43:49Z</time><name>PT1620</name></trkpt>
<trkpt lat="53.291877" lon="-1.923029"><ele>427</ele><time>2023-10-27T11:43:52Z</time><name>PT1621</name></trkpt>
<trkpt lat="53.291869" lon="-1.923006"><ele>427</ele><time>2023-10-27T11:43:55Z</time><name>PT1622</name></trkpt>
<trkpt lat="53.291850" lon="-1.922976"><ele>427</ele><time>2023-10-27T11:43:59Z</time><name>PT1623</name></trkpt>
<trkpt lat="53.291821" lon="-1.922936"><ele>427</ele><time>2023-10-27T11:44:04Z</time><name>PT1624</name></trkpt>
<trkpt lat="53.291801" lon="-1.922900"><ele>428</ele><time>2023-10-27T11:44:07Z</time><name>PT1625</name></trkpt>
<trkpt lat="53.291773" lon="-1.922861"><ele>428</ele><time>2023-10-27T11:44:10Z</time><name>PT1626</name></trkpt>
<trkpt lat="53.291753" lon="-1.922825"><ele>428</ele><time>2023-10-27T11:44:13Z</time><name>PT1627</name></trkpt>
<trkpt lat="53.291726" lon="-1.922778"><ele>428</ele><time>2023-10-27T11:44:18Z</time><name>PT1628</name></trkpt>
<trkpt lat="53.291706" lon="-1.922756"><ele>428</ele><time>2023-10-27T11:44:21Z</time><name>PT1629</name></trkpt>
<trkpt lat="53.291683" lon="-1.922724"><ele>428</ele><time>2023-10-27T11:44:24Z</time><name>PT1630</name></trkpt>
<trkpt lat="53.291663" lon="-1.922691"><ele>427</ele><time>2023-10-27T11:44:28Z</time><name>PT1631</name></trkpt>
<trkpt lat="53.291638" lon="-1.922667"><ele>427</ele><time>2023-10-27T11:44:31Z</time><name>PT1632</name></trkpt>
<trkpt lat="53.291604" lon="-1.922639"><ele>427</ele><time>2023-10-27T11:44:36Z</time><name>PT1633</name></trkpt>
<trkpt lat="53.291580" lon="-1.922621"><ele>427</ele><time>2023-10-27T11:44:39Z</time><name>PT1634</name></trkpt>
<trkpt lat="53.291551" lon="-1.922581"><ele>427</ele><time>2023-10-27T11:44:42Z</time><name>PT1635</name></trkpt>
<trkpt lat="53.291537" lon="-1.922552"><ele>427</ele><time>2023-10-27T11:44:45Z</time><name>PT1636</name></trkpt>
<trkpt lat="53.291511" lon="-1.922502"><ele>427</ele><time>2023-10-27T11:44:49Z</time><name>PT1637</name></trkpt>
<trkpt lat="53.291481" lon="-1.922466"><ele>426</ele><time>2023-10-27T11:44:54Z</time><name>PT1638</name></trkpt>
<trkpt lat="53.291465" lon="-1.922437"><ele>427</ele><time>2023-10-27T11:44:57Z</time><name>PT1639</name></trkpt>
<trkpt lat="53.291468" lon="-1.922441"><ele>426</ele><time>2023-10-27T11:45:00Z</time><name>PT1640</name></trkpt>
<trkpt lat="53.291466" lon="-1.922452"><ele>428</ele><time>2023-10-27T11:45:03Z</time><name>PT1641</name></trkpt>
<trkpt lat="53.291462" lon="-1.922442"><ele>427</ele><time>2023-10-27T11:45:10Z</time><name>PT1642</name></trkpt>
<trkpt lat="53.291453" lon="-1.922445"><ele>427</ele><time>2023-10-27T11:45:13Z</time><name>PT1643</name></trkpt>
<trkpt lat="53.291448" lon="-1.922447"><ele>427</ele><time>2023-10-27T11:45:24Z</time><name>PT1644</name></trkpt>
<trkpt lat="53.291446" lon="-1.922438"><ele>427</ele><time>2023-10-27T11:45:27Z</time><name>PT1645</name></trkpt>
<trkpt lat="53.291447" lon="-1.922436"><ele>426</ele><time>2023-10-27T11:46:24Z</time><name>PT1646</name></trkpt>
<trkpt lat="53.291443" lon="-1.922407"><ele>426</ele><time>2023-10-27T11:46:27Z</time><name>PT1647</name></trkpt>
<trkpt lat="53.291439" lon="-1.922353"><ele>426</ele><time>2023-10-27T11:46:30Z</time><name>PT1648</name></trkpt>
<trkpt lat="53.291432" lon="-1.922287"><ele>425</ele><time>2023-10-27T11:46:34Z</time><name>PT1649</name></trkpt>
<trkpt lat="53.291435" lon="-1.922234"><ele>425</ele><time>2023-10-27T11:46:37Z</time><name>PT1650</name></trkpt>
<trkpt lat="53.291432" lon="-1.922175"><ele>425</ele><time>2023-10-27T11:46:40Z</time><name>PT1651</name></trkpt>
<trkpt lat="53.291425" lon="-1.922104"><ele>425</ele><time>2023-10-27T11:46:45Z</time><name>PT1652</name></trkpt>
<trkpt lat="53.291423" lon="-1.922058"><ele>426</ele><time>2023-10-27T11:46:48Z</time><name>PT1653</name></trkpt>
<trkpt lat="53.291420" lon="-1.922023"><ele>426</ele><time>2023-10-27T11:46:51Z</time><name>PT1654</name></trkpt>
<trkpt lat="53.291427" lon="-1.921991"><ele>427</ele><time>2023-10-27T11:46:54Z</time><name>PT1655</name></trkpt>
<trkpt lat="53.291440" lon="-1.921954"><ele>429</ele><time>2023-10-27T11:46:57Z</time><name>PT1656</name></trkpt>
<trkpt lat="53.291440" lon="-1.921891"><ele>429</ele><time>2023-10-27T11:47:02Z</time><name>PT1657</name></trkpt>
<trkpt lat="53.291437" lon="-1.921840"><ele>429</ele><time>2023-10-27T11:47:05Z</time><name>PT1658</name></trkpt>
<trkpt lat="53.291424" lon="-1.921775"><ele>429</ele><time>2023-10-27T11:47:08Z</time><name>PT1659</name></trkpt>
<trkpt lat="53.291402" lon="-1.921729"><ele>429</ele><time>2023-10-27T11:47:12Z</time><name>PT1660</name></trkpt>
<trkpt lat="53.291385" lon="-1.921703"><ele>429</ele><time>2023-10-27T11:47:15Z</time><name>PT1661</name></trkpt>
<trkpt lat="53.291366" lon="-1.921648"><ele>427</ele><time>2023-10-27T11:47:20Z</time><name>PT1662</name></trkpt>
<trkpt lat="53.291356" lon="-1.921589"><ele>427</ele><time>2023-10-27T11:47:23Z</time><name>PT1663</name></trkpt>
<trkpt lat="53.291343" lon="-1.921550"><ele>427</ele><time>2023-10-27T11:47:27Z</time><name>PT1664</name></trkpt>
<trkpt lat="53.291330" lon="-1.921516"><ele>427</ele><time>2023-10-27T11:47:30Z</time><name>PT1665</name></trkpt>
<trkpt lat="53.291313" lon="-1.921503"><ele>426</ele><time>2023-10-27T11:47:34Z</time><name>PT1666</name></trkpt>
<trkpt lat="53.291301" lon="-1.921453"><ele>425</ele><time>2023-10-27T11:47:37Z</time><name>PT1667</name></trkpt>
<trkpt lat="53.291307" lon="-1.921402"><ele>425</ele><time>2023-10-27T11:47:40Z</time><name>PT1668</name></trkpt>
<trkpt lat="53.291295" lon="-1.921332"><ele>425</ele><time>2023-10-27T11:47:44Z</time><name>PT1669</name></trkpt>
<trkpt lat="53.291281" lon="-1.921283"><ele>424</ele><time>2023-10-27T11:47:47Z</time><name>PT1670</name></trkpt>
<trkpt lat="53.291256" lon="-1.921245"><ele>425</ele><time>2023-10-27T11:47:50Z</time><name>PT1671</name></trkpt>
<trkpt lat="53.291208" lon="-1.921209"><ele>427</ele><time>2023-10-27T11:47:55Z</time><name>PT1672</name></trkpt>
<trkpt lat="53.291167" lon="-1.921211"><ele>428</ele><time>2023-10-27T11:47:58Z</time><name>PT1673</name></trkpt>
<trkpt lat="53.291146" lon="-1.921223"><ele>429</ele><time>2023-10-27T11:48:01Z</time><name>PT1674</name></trkpt>
<trkpt lat="53.291127" lon="-1.921260"><ele>429</ele><time>2023-10-27T11:48:05Z</time><name>PT1675</name></trkpt>
<trkpt lat="53.291127" lon="-1.921287"><ele>429</ele><time>2023-10-27T11:48:08Z</time><name>PT1676</name></trkpt>
<trkpt lat="53.291126" lon="-1.921285"><ele>430</ele><time>2023-10-27T11:48:13Z</time><name>PT1677</name></trkpt>
<trkpt lat="53.291109" lon="-1.921313"><ele>430</ele><time>2023-10-27T11:48:20Z</time><name>PT1678</name></trkpt>
<trkpt lat="53.291080" lon="-1.921357"><ele>430</ele><time>2023-10-27T11:48:25Z</time><name>PT1679</name></trkpt>
<trkpt lat="53.291062" lon="-1.921382"><ele>430</ele><time>2023-10-27T11:48:28Z</time><name>PT1680</name></trkpt>
<trkpt lat="53.291028" lon="-1.921406"><ele>431</ele><time>2023-10-27T11:48:31Z</time><name>PT1681</name></trkpt>
<trkpt lat="53.290994" lon="-1.921437"><ele>431</ele><time>2023-10-27T11:48:35Z</time><name>PT1682</name></trkpt>
<trkpt lat="53.290973" lon="-1.921466"><ele>431</ele><time>2023-10-27T11:48:38Z</time><name>PT1683</name></trkpt>
<trkpt lat="53.290946" lon="-1.921482"><ele>431</ele><time>2023-10-27T11:48:41Z</time><name>PT1684</name></trkpt>
<trkpt lat="53.290909" lon="-1.921510"><ele>431</ele><time>2023-10-27T11:48:46Z</time><name>PT1685</name></trkpt>
<trkpt lat="53.290869" lon="-1.921530"><ele>430</ele><time>2023-10-27T11:48:49Z</time><name>PT1686</name></trkpt>
<trkpt lat="53.290822" lon="-1.921563"><ele>432</ele><time>2023-10-27T11:48:53Z</time><name>PT1687</name></trkpt>
<trkpt lat="53.290787" lon="-1.921587"><ele>432</ele><time>2023-10-27T11:48:56Z</time><name>PT1688</name></trkpt>
<trkpt lat="53.290753" lon="-1.921616"><ele>432</ele><time>2023-10-27T11:48:59Z</time><name>PT1689</name></trkpt>
<trkpt lat="53.290721" lon="-1.921635"><ele>432</ele><time>2023-10-27T11:49:02Z</time><name>PT1690</name></trkpt>
<trkpt lat="53.290677" lon="-1.921663"><ele>433</ele><time>2023-10-27T11:49:07Z</time><name>PT1691</name></trkpt>
<trkpt lat="53.290645" lon="-1.921689"><ele>433</ele><time>2023-10-27T11:49:10Z</time><name>PT1692</name></trkpt>
<trkpt lat="53.290608" lon="-1.921707"><ele>433</ele><time>2023-10-27T11:49:13Z</time><name>PT1693</name></trkpt>
<trkpt lat="53.290569" lon="-1.921740"><ele>434</ele><time>2023-10-27T11:49:16Z</time><name>PT1694</name></trkpt>
<trkpt lat="53.290526" lon="-1.921764"><ele>435</ele><time>2023-10-27T11:49:20Z</time><name>PT1695</name></trkpt>
<trkpt lat="53.290487" lon="-1.921789"><ele>434</ele><time>2023-10-27T11:49:23Z</time><name>PT1696</name></trkpt>
<trkpt lat="53.290442" lon="-1.921822"><ele>433</ele><time>2023-10-27T11:49:28Z</time><name>PT1697</name></trkpt>
<trkpt lat="53.290400" lon="-1.921861"><ele>433</ele><time>2023-10-27T11:49:31Z</time><name>PT1698</name></trkpt>
<trkpt lat="53.290359" lon="-1.921911"><ele>433</ele><time>2023-10-27T11:49:35Z</time><name>PT1699</name></trkpt>
<trkpt lat="53.290320" lon="-1.921956"><ele>433</ele><time>2023-10-27T11:49:40Z</time><name>PT1700</name></trkpt>
<trkpt lat="53.290287" lon="-1.921984"><ele>432</ele><time>2023-10-27T11:49:43Z</time><name>PT1701</name></trkpt>
<trkpt lat="53.290253" lon="-1.922012"><ele>432</ele><time>2023-10-27T11:49:46Z</time><name>PT1702</name></trkpt>
<trkpt lat="53.290221" lon="-1.922032"><ele>432</ele><time>2023-10-27T11:49:49Z</time><name>PT1703</name></trkpt>
<trkpt lat="53.290177" lon="-1.922051"><ele>432</ele><time>2023-10-27T11:49:52Z</time><name>PT1704</name></trkpt>
<trkpt lat="53.290131" lon="-1.922049"><ele>432</ele><time>2023-10-27T11:49:56Z</time><name>PT1705</name></trkpt>
<trkpt lat="53.290100" lon="-1.922035"><ele>432</ele><time>2023-10-27T11:49:59Z</time><name>PT1706</name></trkpt>
<trkpt lat="53.290074" lon="-1.922007"><ele>433</ele><time>2023-10-27T11:50:02Z</time><name>PT1707</name></trkpt>
<trkpt lat="53.290038" lon="-1.921964"><ele>433</ele><time>2023-10-27T11:50:07Z</time><name>PT1708</name></trkpt>
<trkpt lat="53.290013" lon="-1.921932"><ele>433</ele><time>2023-10-27T11:50:10Z</time><name>PT1709</name></trkpt>
<trkpt lat="53.289984" lon="-1.921886"><ele>434</ele><time>2023-10-27T11:50:13Z</time><name>PT1710</name></trkpt>
<trkpt lat="53.289961" lon="-1.921856"><ele>435</ele><time>2023-10-27T11:50:16Z</time><name>PT1711</name></trkpt>
<trkpt lat="53.289944" lon="-1.921819"><ele>435</ele><time>2023-10-27T11:50:19Z</time><name>PT1712</name></trkpt>
<trkpt lat="53.289922" lon="-1.921780"><ele>435</ele><time>2023-10-27T11:50:22Z</time><name>PT1713</name></trkpt>
<trkpt lat="53.289896" lon="-1.921744"><ele>436</ele><time>2023-10-27T11:50:27Z</time><name>PT1714</name></trkpt>
<trkpt lat="53.289868" lon="-1.921706"><ele>437</ele><time>2023-10-27T11:50:30Z</time><name>PT1715</name></trkpt>
<trkpt lat="53.289843" lon="-1.921674"><ele>437</ele><time>2023-10-27T11:50:33Z</time><name>PT1716</name></trkpt>
<trkpt lat="53.289811" lon="-1.921651"><ele>437</ele><time>2023-10-27T11:50:36Z</time><name>PT1717</name></trkpt>
<trkpt lat="53.289782" lon="-1.921630"><ele>437</ele><time>2023-10-27T11:50:39Z</time><name>PT1718</name></trkpt>
<trkpt lat="53.289744" lon="-1.921630"><ele>438</ele><time>2023-10-27T11:50:43Z</time><name>PT1719</name></trkpt>
<trkpt lat="53.289705" lon="-1.921667"><ele>438</ele><time>2023-10-27T11:50:48Z</time><name>PT1720</name></trkpt>
<trkpt lat="53.289678" lon="-1.921701"><ele>437</ele><time>2023-10-27T11:50:51Z</time><name>PT1721</name></trkpt>
<trkpt lat="53.289646" lon="-1.921727"><ele>437</ele><time>2023-10-27T11:50:54Z</time><name>PT1722</name></trkpt>
<trkpt lat="53.289602" lon="-1.921751"><ele>436</ele><time>2023-10-27T11:50:57Z</time><name>PT1723</name></trkpt>
<trkpt lat="53.289565" lon="-1.921769"><ele>437</ele><time>2023-10-27T11:51:01Z</time><name>PT1724</name></trkpt>
<trkpt lat="53.289535" lon="-1.921774"><ele>437</ele><time>2023-10-27T11:51:04Z</time><name>PT1725</name></trkpt>
<trkpt lat="53.289501" lon="-1.921768"><ele>438</ele><time>2023-10-27T11:51:09Z</time><name>PT1726</name></trkpt>
<trkpt lat="53.289474" lon="-1.921763"><ele>439</ele><time>2023-10-27T11:51:12Z</time><name>PT1727</name></trkpt>
<trkpt lat="53.289446" lon="-1.921747"><ele>440</ele><time>2023-10-27T11:51:15Z</time><name>PT1728</name></trkpt>
<trkpt lat="53.289422" lon="-1.921739"><ele>440</ele><time>2023-10-27T11:51:18Z</time><name>PT1729</name></trkpt>
<trkpt lat="53.289389" lon="-1.921717"><ele>441</ele><time>2023-10-27T11:51:23Z</time><name>PT1730</name></trkpt>
<trkpt lat="53.289362" lon="-1.921701"><ele>442</ele><time>2023-10-27T11:51:26Z</time><name>PT1731</name></trkpt>
<trkpt lat="53.289327" lon="-1.921678"><ele>442</ele><time>2023-10-27T11:51:29Z</time><name>PT1732</name></trkpt>
<trkpt lat="53.289286" lon="-1.921668"><ele>444</ele><time>2023-10-27T11:51:33Z</time><name>PT1733</name></trkpt>
<trkpt lat="53.289252" lon="-1.921653"><ele>445</ele><time>2023-10-27T11:51:38Z</time><name>PT1734</name></trkpt>
<trkpt lat="53.289222" lon="-1.921639"><ele>445</ele><time>2023-10-27T11:51:41Z</time><name>PT1735</name></trkpt>
<trkpt lat="53.289180" lon="-1.921613"><ele>445</ele><time>2023-10-27T11:51:44Z</time><name>PT1736</name></trkpt>
<trkpt lat="53.289151" lon="-1.921594"><ele>446</ele><time>2023-10-27T11:51:47Z</time><name>PT1737</name></trkpt>
<trkpt lat="53.289120" lon="-1.921564"><ele>447</ele><time>2023-10-27T11:51:51Z</time><name>PT1738</name></trkpt>
<trkpt lat="53.289081" lon="-1.921509"><ele>447</ele><time>2023-10-27T11:51:55Z</time><name>PT1739</name></trkpt>
<trkpt lat="53.289059" lon="-1.921476"><ele>447</ele><time>2023-10-27T11:51:58Z</time><name>PT1740</name></trkpt>
<trkpt lat="53.289031" lon="-1.921443"><ele>447</ele><time>2023-10-27T11:52:01Z</time><name>PT1741</name></trkpt>
<trkpt lat="53.288999" lon="-1.921410"><ele>448</ele><time>2023-10-27T11:52:05Z</time><name>PT1742</name></trkpt>
<trkpt lat="53.288974" lon="-1.921389"><ele>448</ele><time>2023-10-27T11:52:08Z</time><name>PT1743</name></trkpt>
<trkpt lat="53.288931" lon="-1.921376"><ele>448</ele><time>2023-10-27T11:52:13Z</time><name>PT1744</name></trkpt>
<trkpt lat="53.288899" lon="-1.921358"><ele>448</ele><time>2023-10-27T11:52:16Z</time><name>PT1745</name></trkpt>
<trkpt lat="53.288866" lon="-1.921336"><ele>448</ele><time>2023-10-27T11:52:19Z</time><name>PT1746</name></trkpt>
<trkpt lat="53.288827" lon="-1.921302"><ele>449</ele><time>2023-10-27T11:52:22Z</time><name>PT1747</name></trkpt>
<trkpt lat="53.288794" lon="-1.921256"><ele>448</ele><time>2023-10-27T11:52:25Z</time><name>PT1748</name></trkpt>
<trkpt lat="53.288775" lon="-1.921215"><ele>448</ele><time>2023-10-27T11:52:28Z</time><name>PT1749</name></trkpt>
<trkpt lat="53.288752" lon="-1.921158"><ele>449</ele><time>2023-10-27T11:52:32Z</time><name>PT1750</name></trkpt>
<trkpt lat="53.288747" lon="-1.921122"><ele>449</ele><time>2023-10-27T11:52:36Z</time><name>PT1751</name></trkpt>
<trkpt lat="53.288744" lon="-1.921080"><ele>449</ele><time>2023-10-27T11:52:39Z</time><name>PT1752</name></trkpt>
<trkpt lat="53.288744" lon="-1.921016"><ele>450</ele><time>2023-10-27T11:52:42Z</time><name>PT1753</name></trkpt>
<trkpt lat="53.288738" lon="-1.920971"><ele>450</ele><time>2023-10-27T11:52:45Z</time><name>PT1754</name></trkpt>
<trkpt lat="53.288736" lon="-1.920928"><ele>450</ele><time>2023-10-27T11:52:48Z</time><name>PT1755</name></trkpt>
<trkpt lat="53.288732" lon="-1.920871"><ele>450</ele><time>2023-10-27T11:52:51Z</time><name>PT1756</name></trkpt>
<trkpt lat="53.288736" lon="-1.920810"><ele>450</ele><time>2023-10-27T11:52:55Z</time><name>PT1757</name></trkpt>
<trkpt lat="53.288733" lon="-1.920777"><ele>451</ele><time>2023-10-27T11:52:58Z</time><name>PT1758</name></trkpt>
<trkpt lat="53.288728" lon="-1.920739"><ele>452</ele><time>2023-10-27T11:53:03Z</time><name>PT1759</name></trkpt>
<trkpt lat="53.288722" lon="-1.920695"><ele>453</ele><time>2023-10-27T11:53:06Z</time><name>PT1760</name></trkpt>
<trkpt lat="53.288720" lon="-1.920689"><ele>453</ele><time>2023-10-27T11:53:09Z</time><name>PT1761</name></trkpt>
<trkpt lat="53.288711" lon="-1.920637"><ele>454</ele><time>2023-10-27T11:53:27Z</time><name>PT1762</name></trkpt>
<trkpt lat="53.288698" lon="-1.920574"><ele>455</ele><time>2023-10-27T11:53:31Z</time><name>PT1763</name></trkpt>
<trkpt lat="53.288685" lon="-1.920521"><ele>455</ele><time>2023-10-27T11:53:34Z</time><name>PT1764</name></trkpt>
<trkpt lat="53.288679" lon="-1.920479"><ele>455</ele><time>2023-10-27T11:53:37Z</time><name>PT1765</name></trkpt>
<trkpt lat="53.288662" lon="-1.920419"><ele>455</ele><time>2023-10-27T11:53:42Z</time><name>PT1766</name></trkpt>
<trkpt lat="53.288645" lon="-1.920371"><ele>456</ele><time>2023-10-27T11:53:45Z</time><name>PT1767</name></trkpt>
<trkpt lat="53.288638" lon="-1.920315"><ele>456</ele><time>2023-10-27T11:53:48Z</time><name>PT1768</name></trkpt>
<trkpt lat="53.288637" lon="-1.920259"><ele>457</ele><time>2023-10-27T11:53:51Z</time><name>PT1769</name></trkpt>
<trkpt lat="53.288639" lon="-1.920192"><ele>457</ele><time>2023-10-27T11:53:56Z</time><name>PT1770</name></trkpt>
<trkpt lat="53.288627" lon="-1.920150"><ele>457</ele><time>2023-10-27T11:53:59Z</time><name>PT1771</name></trkpt>
<trkpt lat="53.288610" lon="-1.920127"><ele>457</ele><time>2023-10-27T11:54:02Z</time><name>PT1772</name></trkpt>
<trkpt lat="53.288588" lon="-1.920128"><ele>457</ele><time>2023-10-27T11:54:05Z</time><name>PT1773</name></trkpt>
<trkpt lat="53.288587" lon="-1.920127"><ele>457</ele><time>2023-10-27T11:54:09Z</time><name>PT1774</name></trkpt>
<trkpt lat="53.288585" lon="-1.920129"><ele>457</ele><time>2023-10-27T11:54:15Z</time><name>PT1775</name></trkpt>
<trkpt lat="53.288578" lon="-1.920124"><ele>457</ele><time>2023-10-27T11:54:20Z</time><name>PT1776</name></trkpt>
<trkpt lat="53.288595" lon="-1.920148"><ele>457</ele><time>2023-10-27T11:54:37Z</time><name>PT1777</name></trkpt>
<trkpt lat="53.288604" lon="-1.920194"><ele>457</ele><time>2023-10-27T11:54:40Z</time><name>PT1778</name></trkpt>
<trkpt lat="53.288621" lon="-1.920256"><ele>456</ele><time>2023-10-27T11:54:43Z</time><name>PT1779</name></trkpt>
<trkpt lat="53.288638" lon="-1.920322"><ele>456</ele><time>2023-10-27T11:54:47Z</time><name>PT1780</name></trkpt>
<trkpt lat="53.288650" lon="-1.920368"><ele>456</ele><time>2023-10-27T11:54:52Z</time><name>PT1781</name></trkpt>
<trkpt lat="53.288658" lon="-1.920393"><ele>455</ele><time>2023-10-27T11:54:55Z</time><name>PT1782</name></trkpt>
<trkpt lat="53.288657" lon="-1.920406"><ele>455</ele><time>2023-10-27T11:54:58Z</time><name>PT1783</name></trkpt>
<trkpt lat="53.288651" lon="-1.920425"><ele>455</ele><time>2023-10-27T11:55:01Z</time><name>PT1784</name></trkpt>
<trkpt lat="53.288640" lon="-1.920476"><ele>455</ele><time>2023-10-27T11:55:04Z</time><name>PT1785</name></trkpt>
<trkpt lat="53.288623" lon="-1.920523"><ele>454</ele><time>2023-10-27T11:55:07Z</time><name>PT1786</name></trkpt>
<trkpt lat="53.288600" lon="-1.920563"><ele>454</ele><time>2023-10-27T11:55:12Z</time><name>PT1787</name></trkpt>
<trkpt lat="53.288575" lon="-1.920597"><ele>454</ele><time>2023-10-27T11:55:15Z</time><name>PT1788</name></trkpt>
<trkpt lat="53.288550" lon="-1.920647"><ele>454</ele><time>2023-10-27T11:55:18Z</time><name>PT1789</name></trkpt>
<trkpt lat="53.288510" lon="-1.920681"><ele>453</ele><time>2023-10-27T11:55:21Z</time><name>PT1790</name></trkpt>
<trkpt lat="53.288479" lon="-1.920739"><ele>453</ele><time>2023-10-27T11:55:25Z</time><name>PT1791</name></trkpt>
<trkpt lat="53.288457" lon="-1.920779"><ele>453</ele><time>2023-10-27T11:55:28Z</time><name>PT1792</name></trkpt>
<trkpt lat="53.288427" lon="-1.920804"><ele>452</ele><time>2023-10-27T11:55:33Z</time><name>PT1793</name></trkpt>
<trkpt lat="53.288404" lon="-1.920800"><ele>452</ele><time>2023-10-27T11:55:36Z</time><name>PT1794</name></trkpt>
<trkpt lat="53.288395" lon="-1.920801"><ele>452</ele><time>2023-10-27T11:55:39Z</time><name>PT1795</name></trkpt>
<trkpt lat="53.288382" lon="-1.920844"><ele>452</ele><time>2023-10-27T11:55:42Z</time><name>PT1796</name></trkpt>
<trkpt lat="53.288366" lon="-1.920895"><ele>451</ele><time>2023-10-27T11:55:45Z</time><name>PT1797</name></trkpt>
<trkpt lat="53.288350" lon="-1.920955"><ele>450</ele><time>2023-10-27T11:55:50Z</time><name>PT1798</name></trkpt>
<trkpt lat="53.288331" lon="-1.920996"><ele>450</ele><time>2023-10-27T11:55:53Z</time><name>PT1799</name></trkpt>
<trkpt lat="53.288316" lon="-1.921031"><ele>450</ele><time>2023-10-27T11:55:56Z</time><name>PT1800</name></trkpt>
<trkpt lat="53.288316" lon="-1.921078"><ele>448</ele><time>2023-10-27T11:55:59Z</time><name>PT1801</name></trkpt>
<trkpt lat="53.288313" lon="-1.921128"><ele>447</ele><time>2023-10-27T11:56:03Z</time><name>PT1802</name></trkpt>
<trkpt lat="53.288299" lon="-1.921179"><ele>446</ele><time>2023-10-27T11:56:06Z</time><name>PT1803</name></trkpt>
<trkpt lat="53.288265" lon="-1.921220"><ele>446</ele><time>2023-10-27T11:56:11Z</time><name>PT1804</name></trkpt>
<trkpt lat="53.288281" lon="-1.921280"><ele>445</ele><time>2023-10-27T11:56:14Z</time><name>PT1805</name></trkpt>
<trkpt lat="53.288304" lon="-1.921344"><ele>445</ele><time>2023-10-27T11:56:18Z</time><name>PT1806</name></trkpt>
<trkpt lat="53.288322" lon="-1.921397"><ele>445</ele><time>2023-10-27T11:56:21Z</time><name>PT1807</name></trkpt>
<trkpt lat="53.288342" lon="-1.921456"><ele>444</ele><time>2023-10-27T11:56:26Z</time><name>PT1808</name></trkpt>
<trkpt lat="53.288362" lon="-1.921522"><ele>444</ele><time>2023-10-27T11:56:29Z</time><name>PT1809</name></trkpt>
<trkpt lat="53.288375" lon="-1.921571"><ele>443</ele><time>2023-10-27T11:56:32Z</time><name>PT1810</name></trkpt>
<trkpt lat="53.288386" lon="-1.921628"><ele>442</ele><time>2023-10-27T11:56:36Z</time><name>PT1811</name></trkpt>
<trkpt lat="53.288393" lon="-1.921685"><ele>442</ele><time>2023-10-27T11:56:39Z</time><name>PT1812</name></trkpt>
<trkpt lat="53.288411" lon="-1.921738"><ele>442</ele><time>2023-10-27T11:56:44Z</time><name>PT1813</name></trkpt>
<trkpt lat="53.288411" lon="-1.921794"><ele>442</ele><time>2023-10-27T11:56:47Z</time><name>PT1814</name></trkpt>
<trkpt lat="53.288423" lon="-1.921865"><ele>441</ele><time>2023-10-27T11:56:50Z</time><name>PT1815</name></trkpt>
<trkpt lat="53.288430" lon="-1.921928"><ele>441</ele><time>2023-10-27T11:56:53Z</time><name>PT1816</name></trkpt>
<trkpt lat="53.288448" lon="-1.921988"><ele>441</ele><time>2023-10-27T11:56:57Z</time><name>PT1817</name></trkpt>
<trkpt lat="53.288464" lon="-1.922036"><ele>440</ele><time>2023-10-27T11:57:00Z</time><name>PT1818</name></trkpt>
<trkpt lat="53.288477" lon="-1.922101"><ele>440</ele><time>2023-10-27T11:57:03Z</time><name>PT1819</name></trkpt>
<trkpt lat="53.288502" lon="-1.922175"><ele>440</ele><time>2023-10-27T11:57:08Z</time><name>PT1820</name></trkpt>
<trkpt lat="53.288524" lon="-1.922231"><ele>440</ele><time>2023-10-27T11:57:11Z</time><name>PT1821</name></trkpt>
<trkpt lat="53.288544" lon="-1.922303"><ele>440</ele><time>2023-10-27T11:57:14Z</time><name>PT1822</name></trkpt>
<trkpt lat="53.288558" lon="-1.922351"><ele>440</ele><time>2023-10-27T11:57:17Z</time><name>PT1823</name></trkpt>
<trkpt lat="53.288576" lon="-1.922411"><ele>440</ele><time>2023-10-27T11:57:21Z</time><name>PT1824</name></trkpt>
<trkpt lat="53.288592" lon="-1.922450"><ele>439</ele><time>2023-10-27T11:57:24Z</time><name>PT1825</name></trkpt>
<trkpt lat="53.288610" lon="-1.922508"><ele>439</ele><time>2023-10-27T11:57:29Z</time><name>PT1826</name></trkpt>
<trkpt lat="53.288629" lon="-1.922573"><ele>438</ele><time>2023-10-27T11:57:32Z</time><name>PT1827</name></trkpt>
<trkpt lat="53.288636" lon="-1.922646"><ele>437</ele><time>2023-10-27T11:57:36Z</time><name>PT1828</name></trkpt>
<trkpt lat="53.288639" lon="-1.922706"><ele>437</ele><time>2023-10-27T11:57:40Z</time><name>PT1829</name></trkpt>
<trkpt lat="53.288655" lon="-1.922791"><ele>437</ele><time>2023-10-27T11:57:43Z</time><name>PT1830</name></trkpt>
<trkpt lat="53.288660" lon="-1.922865"><ele>436</ele><time>2023-10-27T11:57:47Z</time><name>PT1831</name></trkpt>
<trkpt lat="53.288669" lon="-1.922922"><ele>436</ele><time>2023-10-27T11:57:50Z</time><name>PT1832</name></trkpt>
<trkpt lat="53.288671" lon="-1.922983"><ele>435</ele><time>2023-10-27T11:57:53Z</time><name>PT1833</name></trkpt>
<trkpt lat="53.288670" lon="-1.923063"><ele>434</ele><time>2023-10-27T11:57:58Z</time><name>PT1834</name></trkpt>
<trkpt lat="53.288663" lon="-1.923130"><ele>434</ele><time>2023-10-27T11:58:01Z</time><name>PT1835</name></trkpt>
<trkpt lat="53.288643" lon="-1.923194"><ele>435</ele><time>2023-10-27T11:58:05Z</time><name>PT1836</name></trkpt>
<trkpt lat="53.288628" lon="-1.923263"><ele>435</ele><time>2023-10-27T11:58:10Z</time><name>PT1837</name></trkpt>
<trkpt lat="53.288616" lon="-1.923327"><ele>435</ele><time>2023-10-27T11:58:13Z</time><name>PT1838</name></trkpt>
<trkpt lat="53.288599" lon="-1.923384"><ele>435</ele><time>2023-10-27T11:58:16Z</time><name>PT1839</name></trkpt>
<trkpt lat="53.288593" lon="-1.923435"><ele>436</ele><time>2023-10-27T11:58:19Z</time><name>PT1840</name></trkpt>
<trkpt lat="53.288582" lon="-1.923506"><ele>435</ele><time>2023-10-27T11:58:23Z</time><name>PT1841</name></trkpt>
<trkpt lat="53.288557" lon="-1.923571"><ele>435</ele><time>2023-10-27T11:58:28Z</time><name>PT1842</name></trkpt>
<trkpt lat="53.288535" lon="-1.923640"><ele>435</ele><time>2023-10-27T11:58:31Z</time><name>PT1843</name></trkpt>
<trkpt lat="53.288509" lon="-1.923706"><ele>434</ele><time>2023-10-27T11:58:35Z</time><name>PT1844</name></trkpt>
<trkpt lat="53.288488" lon="-1.923754"><ele>433</ele><time>2023-10-27T11:58:38Z</time><name>PT1845</name></trkpt>
<trkpt lat="53.288457" lon="-1.923815"><ele>433</ele><time>2023-10-27T11:58:43Z</time><name>PT1846</name></trkpt>
<trkpt lat="53.288425" lon="-1.923853"><ele>433</ele><time>2023-10-27T11:58:46Z</time><name>PT1847</name></trkpt>
<trkpt lat="53.288388" lon="-1.923892"><ele>433</ele><time>2023-10-27T11:58:49Z</time><name>PT1848</name></trkpt>
<trkpt lat="53.288347" lon="-1.923912"><ele>433</ele><time>2023-10-27T11:58:53Z</time><name>PT1849</name></trkpt>
<trkpt lat="53.288323" lon="-1.923926"><ele>434</ele><time>2023-10-27T11:58:56Z</time><name>PT1850</name></trkpt>
<trkpt lat="53.288288" lon="-1.923962"><ele>434</ele><time>2023-10-27T11:59:01Z</time><name>PT1851</name></trkpt>
<trkpt lat="53.288254" lon="-1.923977"><ele>433</ele><time>2023-10-27T11:59:04Z</time><name>PT1852</name></trkpt>
<trkpt lat="53.288243" lon="-1.923980"><ele>431</ele><time>2023-10-27T11:59:07Z</time><name>PT1853</name></trkpt>
<trkpt lat="53.288221" lon="-1.923999"><ele>431</ele><time>2023-10-27T11:59:10Z</time><name>PT1854</name></trkpt>
<trkpt lat="53.288188" lon="-1.924031"><ele>431</ele><time>2023-10-27T11:59:14Z</time><name>PT1855</name></trkpt>
<trkpt lat="53.288175" lon="-1.924056"><ele>430</ele><time>2023-10-27T11:59:17Z</time><name>PT1856</name></trkpt>
<trkpt lat="53.288195" lon="-1.924095"><ele>431</ele><time>2023-10-27T11:59:22Z</time><name>PT1857</name></trkpt>
<trkpt lat="53.288215" lon="-1.924114"><ele>430</ele><time>2023-10-27T11:59:25Z</time><name>PT1858</name></trkpt>
<trkpt lat="53.288224" lon="-1.924135"><ele>428</ele><time>2023-10-27T11:59:29Z</time><name>PT1859</name></trkpt>
<trkpt lat="53.288206" lon="-1.924143"><ele>427</ele><time>2023-10-27T11:59:33Z</time><name>PT1860</name></trkpt>
<trkpt lat="53.288203" lon="-1.924143"><ele>429</ele><time>2023-10-27T11:59:36Z</time><name>PT1861</name></trkpt>
<trkpt lat="53.288214" lon="-1.924176"><ele>430</ele><time>2023-10-27T11:59:39Z</time><name>PT1862</name></trkpt>
<trkpt lat="53.288249" lon="-1.924195"><ele>430</ele><time>2023-10-27T11:59:42Z</time><name>PT1863</name></trkpt>
<trkpt lat="53.288278" lon="-1.924215"><ele>430</ele><time>2023-10-27T11:59:45Z</time><name>PT1864</name></trkpt>
<trkpt lat="53.288311" lon="-1.924262"><ele>432</ele><time>2023-10-27T11:59:49Z</time><name>PT1865</name></trkpt>
<trkpt lat="53.288330" lon="-1.924301"><ele>432</ele><time>2023-10-27T11:59:53Z</time><name>PT1866</name></trkpt>
<trkpt lat="53.288350" lon="-1.924348"><ele>432</ele><time>2023-10-27T11:59:56Z</time><name>PT1867</name></trkpt>
<trkpt lat="53.288372" lon="-1.924407"><ele>433</ele><time>2023-10-27T11:59:59Z</time><name>PT1868</name></trkpt>
<trkpt lat="53.288384" lon="-1.924452"><ele>433</ele><time>2023-10-27T12:00:02Z</time><name>PT1869</name></trkpt>
<trkpt lat="53.288396" lon="-1.924503"><ele>433</ele><time>2023-10-27T12:00:06Z</time><name>PT1870</name></trkpt>
<trkpt lat="53.288405" lon="-1.924529"><ele>432</ele><time>2023-10-27T12:00:09Z</time><name>PT1871</name></trkpt>
<trkpt lat="53.288425" lon="-1.924582"><ele>431</ele><time>2023-10-27T12:00:14Z</time><name>PT1872</name></trkpt>
<trkpt lat="53.288451" lon="-1.924596"><ele>430</ele><time>2023-10-27T12:00:17Z</time><name>PT1873</name></trkpt>
<trkpt lat="53.288461" lon="-1.924579"><ele>430</ele><time>2023-10-27T12:00:20Z</time><name>PT1874</name></trkpt>
<trkpt lat="53.288466" lon="-1.924596"><ele>431</ele><time>2023-10-27T12:00:23Z</time><name>PT1875</name></trkpt>
<trkpt lat="53.288458" lon="-1.924605"><ele>431</ele><time>2023-10-27T12:00:27Z</time><name>PT1876</name></trkpt>
<trkpt lat="53.288443" lon="-1.924610"><ele>431</ele><time>2023-10-27T12:00:30Z</time><name>PT1877</name></trkpt>
<trkpt lat="53.288430" lon="-1.924605"><ele>431</ele><time>2023-10-27T12:00:33Z</time><name>PT1878</name></trkpt>
<trkpt lat="53.288425" lon="-1.924617"><ele>431</ele><time>2023-10-27T12:00:37Z</time><name>PT1879</name></trkpt>
<trkpt lat="53.288424" lon="-1.924626"><ele>431</ele><time>2023-10-27T12:00:40Z</time><name>PT1880</name></trkpt>
<trkpt lat="53.288424" lon="-1.924629"><ele>431</ele><time>2023-10-27T12:00:43Z</time><name>PT1881</name></trkpt>
<trkpt lat="53.288425" lon="-1.924621"><ele>431</ele><time>2023-10-27T12:00:52Z</time><name>PT1882</name></trkpt>
<trkpt lat="53.288425" lon="-1.924621"><ele>431</ele><time>2023-10-27T12:00:56Z</time><name>PT1883</name></trkpt>
<trkpt lat="53.288433" lon="-1.924628"><ele>431</ele><time>2023-10-27T12:01:44Z</time><name>PT1884</name></trkpt>
<trkpt lat="53.288451" lon="-1.924622"><ele>431</ele><time>2023-10-27T12:01:49Z</time><name>PT1885</name></trkpt>
<trkpt lat="53.288466" lon="-1.924631"><ele>432</ele><time>2023-10-27T12:01:52Z</time><name>PT1886</name></trkpt>
<trkpt lat="53.288466" lon="-1.924638"><ele>432</ele><time>2023-10-27T12:01:56Z</time><name>PT1887</name></trkpt>
<trkpt lat="53.288464" lon="-1.924664"><ele>432</ele><time>2023-10-27T12:02:01Z</time><name>PT1888</name></trkpt>
<trkpt lat="53.288461" lon="-1.924668"><ele>432</ele><time>2023-10-27T12:02:04Z</time><name>PT1889</name></trkpt>
<trkpt lat="53.288464" lon="-1.924674"><ele>432</ele><time>2023-10-27T12:02:07Z</time><name>PT1890</name></trkpt>
<trkpt lat="53.288469" lon="-1.924674"><ele>433</ele><time>2023-10-27T12:02:10Z</time><name>PT1891</name></trkpt>
<trkpt lat="53.288469" lon="-1.924668"><ele>433</ele><time>2023-10-27T12:02:21Z</time><name>PT1892</name></trkpt>
<trkpt lat="53.288464" lon="-1.924673"><ele>433</ele><time>2023-10-27T12:02:24Z</time><name>PT1893</name></trkpt>
<trkpt lat="53.288440" lon="-1.924683"><ele>432</ele><time>2023-10-27T12:02:27Z</time><name>PT1894</name></trkpt>
<trkpt lat="53.288418" lon="-1.924711"><ele>433</ele><time>2023-10-27T12:02:31Z</time><name>PT1895</name></trkpt>
<trkpt lat="53.288414" lon="-1.924734"><ele>433</ele><time>2023-10-27T12:02:34Z</time><name>PT1896</name></trkpt>
<trkpt lat="53.288412" lon="-1.924729"><ele>432</ele><time>2023-10-27T12:08:19Z</time><name>PT1897</name></trkpt>
<trkpt lat="53.288418" lon="-1.924738"><ele>431</ele><time>2023-10-27T12:08:24Z</time><name>PT1898</name></trkpt>
<trkpt lat="53.288424" lon="-1.924739"><ele>431</ele><time>2023-10-27T12:09:13Z</time><name>PT1899</name></trkpt>
<trkpt lat="53.288426" lon="-1.924740"><ele>431</ele><time>2023-10-27T12:09:16Z</time><name>PT1900</name></trkpt>
<trkpt lat="53.288429" lon="-1.924740"><ele>431</ele><time>2023-10-27T12:09:21Z</time><name>PT1901</name></trkpt>
<trkpt lat="53.288429" lon="-1.924741"><ele>431</ele><time>2023-10-27T12:09:24Z</time><name>PT1902</name></trkpt>
<trkpt lat="53.288431" lon="-1.924743"><ele>431</ele><time>2023-10-27T12:17:52Z</time><name>PT1903</name></trkpt>
<trkpt lat="53.288432" lon="-1.924739"><ele>431</ele><time>2023-10-27T12:21:51Z</time><name>PT1904</name></trkpt>
<trkpt lat="53.288427" lon="-1.924750"><ele>431</ele><time>2023-10-27T12:21:56Z</time><name>PT1905</name></trkpt>
<trkpt lat="53.288426" lon="-1.924758"><ele>430</ele><time>2023-10-27T12:21:59Z</time><name>PT1906</name></trkpt>
<trkpt lat="53.288425" lon="-1.924758"><ele>431</ele><time>2023-10-27T12:22:02Z</time><name>PT1907</name></trkpt>
<trkpt lat="53.288432" lon="-1.924757"><ele>431</ele><time>2023-10-27T12:22:23Z</time><name>PT1908</name></trkpt>
<trkpt lat="53.288434" lon="-1.924766"><ele>431</ele><time>2023-10-27T12:22:26Z</time><name>PT1909</name></trkpt>
<trkpt lat="53.288432" lon="-1.924752"><ele>431</ele><time>2023-10-27T12:22:29Z</time><name>PT1910</name></trkpt>
<trkpt lat="53.288442" lon="-1.924770"><ele>431</ele><time>2023-10-27T12:22:35Z</time><name>PT1911</name></trkpt>
<trkpt lat="53.288450" lon="-1.924786"><ele>431</ele><time>2023-10-27T12:22:38Z</time><name>PT1912</name></trkpt>
<trkpt lat="53.288453" lon="-1.924798"><ele>431</ele><time>2023-10-27T12:22:41Z</time><name>PT1913</name></trkpt>
<trkpt lat="53.288456" lon="-1.924802"><ele>431</ele><time>2023-10-27T12:22:44Z</time><name>PT1914</name></trkpt>
<trkpt lat="53.288453" lon="-1.924801"><ele>431</ele><time>2023-10-27T12:23:54Z</time><name>PT1915</name></trkpt>
<trkpt lat="53.288451" lon="-1.924805"><ele>431</ele><time>2023-10-27T12:23:57Z</time><name>PT1916</name></trkpt>
<trkpt lat="53.288455" lon="-1.924809"><ele>431</ele><time>2023-10-27T12:24:04Z</time><name>PT1917</name></trkpt>
<trkpt lat="53.288457" lon="-1.924827"><ele>431</ele><time>2023-10-27T12:24:08Z</time><name>PT1918</name></trkpt>
<trkpt lat="53.288459" lon="-1.924880"><ele>432</ele><time>2023-10-27T12:24:12Z</time><name>PT1919</name></trkpt>
<trkpt lat="53.288462" lon="-1.924923"><ele>431</ele><time>2023-10-27T12:24:15Z</time><name>PT1920</name></trkpt>
<trkpt lat="53.288462" lon="-1.924978"><ele>430</ele><time>2023-10-27T12:24:20Z</time><name>PT1921</name></trkpt>
<trkpt lat="53.288452" lon="-1.925037"><ele>429</ele><time>2023-10-27T12:24:23Z</time><name>PT1922</name></trkpt>
<trkpt lat="53.288440" lon="-1.925102"><ele>429</ele><time>2023-10-27T12:24:28Z</time><name>PT1923</name></trkpt>
<trkpt lat="53.288432" lon="-1.925147"><ele>429</ele><time>2023-10-27T12:24:31Z</time><name>PT1924</name></trkpt>
<trkpt lat="53.288427" lon="-1.925192"><ele>429</ele><time>2023-10-27T12:24:34Z</time><name>PT1925</name></trkpt>
<trkpt lat="53.288417" lon="-1.925264"><ele>429</ele><time>2023-10-27T12:24:37Z</time><name>PT1926</name></trkpt>
<trkpt lat="53.288411" lon="-1.925329"><ele>428</ele><time>2023-10-27T12:24:41Z</time><name>PT1927</name></trkpt>
<trkpt lat="53.288403" lon="-1.925374"><ele>428</ele><time>2023-10-27T12:24:44Z</time><name>PT1928</name></trkpt>
<trkpt lat="53.288392" lon="-1.925433"><ele>428</ele><time>2023-10-27T12:24:49Z</time><name>PT1929</name></trkpt>
<trkpt lat="53.288385" lon="-1.925473"><ele>428</ele><time>2023-10-27T12:24:52Z</time><name>PT1930</name></trkpt>
<trkpt lat="53.288371" lon="-1.925527"><ele>427</ele><time>2023-10-27T12:24:55Z</time><name>PT1931</name></trkpt>
<trkpt lat="53.288362" lon="-1.925598"><ele>428</ele><time>2023-10-27T12:24:59Z</time><name>PT1932</name></trkpt>
<trkpt lat="53.288349" lon="-1.925651"><ele>427</ele><time>2023-10-27T12:25:04Z</time><name>PT1933</name></trkpt>
<trkpt lat="53.288339" lon="-1.925686"><ele>426</ele><time>2023-10-27T12:25:07Z</time><name>PT1934</name></trkpt>
<trkpt lat="53.288324" lon="-1.925760"><ele>426</ele><time>2023-10-27T12:25:10Z</time><name>PT1935</name></trkpt>
<trkpt lat="53.288307" lon="-1.925818"><ele>426</ele><time>2023-10-27T12:25:13Z</time><name>PT1936</name></trkpt>
<trkpt lat="53.288291" lon="-1.925875"><ele>423</ele><time>2023-10-27T12:25:17Z</time><name>PT1937</name></trkpt>
<trkpt lat="53.288280" lon="-1.925914"><ele>422</ele><time>2023-10-27T12:25:20Z</time><name>PT1938</name></trkpt>
<trkpt lat="53.288275" lon="-1.925961"><ele>422</ele><time>2023-10-27T12:25:23Z</time><name>PT1939</name></trkpt>
<trkpt lat="53.288271" lon="-1.926004"><ele>421</ele><time>2023-10-27T12:25:27Z</time><name>PT1940</name></trkpt>
<trkpt lat="53.288257" lon="-1.926063"><ele>420</ele><time>2023-10-27T12:25:30Z</time><name>PT1941</name></trkpt>
<trkpt lat="53.288241" lon="-1.926105"><ele>420</ele><time>2023-10-27T12:25:33Z</time><name>PT1942</name></trkpt>
<trkpt lat="53.288221" lon="-1.926160"><ele>420</ele><time>2023-10-27T12:25:37Z</time><name>PT1943</name></trkpt>
<trkpt lat="53.288214" lon="-1.926195"><ele>420</ele><time>2023-10-27T12:25:41Z</time><name>PT1944</name></trkpt>
<trkpt lat="53.288202" lon="-1.926225"><ele>420</ele><time>2023-10-27T12:25:44Z</time><name>PT1945</name></trkpt>
<trkpt lat="53.288179" lon="-1.926279"><ele>420</ele><time>2023-10-27T12:25:47Z</time><name>PT1946</name></trkpt>
<trkpt lat="53.288162" lon="-1.926328"><ele>420</ele><time>2023-10-27T12:25:51Z</time><name>PT1947</name></trkpt>
<trkpt lat="53.288147" lon="-1.926371"><ele>420</ele><time>2023-10-27T12:25:56Z</time><name>PT1948</name></trkpt>
<trkpt lat="53.288136" lon="-1.926403"><ele>420</ele><time>2023-10-27T12:25:59Z</time><name>PT1949</name></trkpt>
<trkpt lat="53.288118" lon="-1.926464"><ele>420</ele><time>2023-10-27T12:26:02Z</time><name>PT1950</name></trkpt>
<trkpt lat="53.288101" lon="-1.926506"><ele>420</ele><time>2023-10-27T12:26:05Z</time><name>PT1951</name></trkpt>
<trkpt lat="53.288087" lon="-1.926551"><ele>420</ele><time>2023-10-27T12:26:09Z</time><name>PT1952</name></trkpt>
<trkpt lat="53.288078" lon="-1.926572"><ele>421</ele><time>2023-10-27T12:26:12Z</time><name>PT1953</name></trkpt>
<trkpt lat="53.288078" lon="-1.926578"><ele>421</ele><time>2023-10-27T12:26:15Z</time><name>PT1954</name></trkpt>
<trkpt lat="53.288073" lon="-1.926617"><ele>420</ele><time>2023-10-27T12:26:19Z</time><name>PT1955</name></trkpt>
<trkpt lat="53.288065" lon="-1.926650"><ele>419</ele><time>2023-10-27T12:26:22Z</time><name>PT1956</name></trkpt>
<trkpt lat="53.288052" lon="-1.926695"><ele>418</ele><time>2023-10-27T12:26:25Z</time><name>PT1957</name></trkpt>
<trkpt lat="53.288049" lon="-1.926750"><ele>417</ele><time>2023-10-27T12:26:28Z</time><name>PT1958</name></trkpt>
<trkpt lat="53.288028" lon="-1.926818"><ele>416</ele><time>2023-10-27T12:26:32Z</time><name>PT1959</name></trkpt>
<trkpt lat="53.288013" lon="-1.926879"><ele>416</ele><time>2023-10-27T12:26:37Z</time><name>PT1960</name></trkpt>
<trkpt lat="53.288000" lon="-1.926924"><ele>416</ele><time>2023-10-27T12:26:40Z</time><name>PT1961</name></trkpt>
<trkpt lat="53.287987" lon="-1.926983"><ele>416</ele><time>2023-10-27T12:26:43Z</time><name>PT1962</name></trkpt>
<trkpt lat="53.287978" lon="-1.927034"><ele>415</ele><time>2023-10-27T12:26:46Z</time><name>PT1963</name></trkpt>
<trkpt lat="53.287973" lon="-1.927078"><ele>415</ele><time>2023-10-27T12:26:49Z</time><name>PT1964</name></trkpt>
<trkpt lat="53.287963" lon="-1.927127"><ele>415</ele><time>2023-10-27T12:26:53Z</time><name>PT1965</name></trkpt>
<trkpt lat="53.287953" lon="-1.927173"><ele>415</ele><time>2023-10-27T12:26:57Z</time><name>PT1966</name></trkpt>
<trkpt lat="53.287942" lon="-1.927241"><ele>414</ele><time>2023-10-27T12:27:00Z</time><name>PT1967</name></trkpt>
<trkpt lat="53.287925" lon="-1.927305"><ele>414</ele><time>2023-10-27T12:27:04Z</time><name>PT1968</name></trkpt>
<trkpt lat="53.287905" lon="-1.927370"><ele>414</ele><time>2023-10-27T12:27:09Z</time><name>PT1969</name></trkpt>
<trkpt lat="53.287892" lon="-1.927439"><ele>414</ele><time>2023-10-27T12:27:12Z</time><name>PT1970</name></trkpt>
<trkpt lat="53.287891" lon="-1.927489"><ele>413</ele><time>2023-10-27T12:27:15Z</time><name>PT1971</name></trkpt>
<trkpt lat="53.287877" lon="-1.927538"><ele>413</ele><time>2023-10-27T12:27:18Z</time><name>PT1972</name></trkpt>
<trkpt lat="53.287865" lon="-1.927597"><ele>412</ele><time>2023-10-27T12:27:22Z</time><name>PT1973</name></trkpt>
<trkpt lat="53.287863" lon="-1.927640"><ele>412</ele><time>2023-10-27T12:27:25Z</time><name>PT1974</name></trkpt>
<trkpt lat="53.287851" lon="-1.927698"><ele>412</ele><time>2023-10-27T12:27:30Z</time><name>PT1975</name></trkpt>
<trkpt lat="53.287837" lon="-1.927755"><ele>411</ele><time>2023-10-27T12:27:33Z</time><name>PT1976</name></trkpt>
<trkpt lat="53.287825" lon="-1.927800"><ele>411</ele><time>2023-10-27T12:27:36Z</time><name>PT1977</name></trkpt>
<trkpt lat="53.287801" lon="-1.927856"><ele>410</ele><time>2023-10-27T12:27:41Z</time><name>PT1978</name></trkpt>
<trkpt lat="53.287775" lon="-1.927892"><ele>411</ele><time>2023-10-27T12:27:44Z</time><name>PT1979</name></trkpt>
<trkpt lat="53.287748" lon="-1.927956"><ele>411</ele><time>2023-10-27T12:27:47Z</time><name>PT1980</name></trkpt>
<trkpt lat="53.287728" lon="-1.928006"><ele>411</ele><time>2023-10-27T12:27:51Z</time><name>PT1981</name></trkpt>
<trkpt lat="53.287718" lon="-1.928051"><ele>410</ele><time>2023-10-27T12:27:54Z</time><name>PT1982</name></trkpt>
<trkpt lat="53.287700" lon="-1.928088"><ele>410</ele><time>2023-10-27T12:27:57Z</time><name>PT1983</name></trkpt>
<trkpt lat="53.287682" lon="-1.928151"><ele>409</ele><time>2023-10-27T12:28:02Z</time><name>PT1984</name></trkpt>
<trkpt lat="53.287672" lon="-1.928203"><ele>408</ele><time>2023-10-27T12:28:05Z</time><name>PT1985</name></trkpt>
<trkpt lat="53.287657" lon="-1.928263"><ele>407</ele><time>2023-10-27T12:28:08Z</time><name>PT1986</name></trkpt>
<trkpt lat="53.287645" lon="-1.928301"><ele>407</ele><time>2023-10-27T12:28:11Z</time><name>PT1987</name></trkpt>
<trkpt lat="53.287631" lon="-1.928346"><ele>407</ele><time>2023-10-27T12:28:14Z</time><name>PT1988</name></trkpt>
<trkpt lat="53.287621" lon="-1.928414"><ele>407</ele><time>2023-10-27T12:28:19Z</time><name>PT1989</name></trkpt>
<trkpt lat="53.287612" lon="-1.928467"><ele>408</ele><time>2023-10-27T12:28:22Z</time><name>PT1990</name></trkpt>
<trkpt lat="53.287602" lon="-1.928544"><ele>408</ele><time>2023-10-27T12:28:25Z</time><name>PT1991</name></trkpt>
<trkpt lat="53.287590" lon="-1.928616"><ele>408</ele><time>2023-10-27T12:28:29Z</time><name>PT1992</name></trkpt>
<trkpt lat="53.287579" lon="-1.928661"><ele>408</ele><time>2023-10-27T12:28:32Z</time><name>PT1993</name></trkpt>
<trkpt lat="53.287564" lon="-1.928733"><ele>408</ele><time>2023-10-27T12:28:37Z</time><name>PT1994</name></trkpt>
<trkpt lat="53.287552" lon="-1.928782"><ele>408</ele><time>2023-10-27T12:28:40Z</time><name>PT1995</name></trkpt>
<trkpt lat="53.287538" lon="-1.928829"><ele>408</ele><time>2023-10-27T12:28:43Z</time><name>PT1996</name></trkpt>
<trkpt lat="53.287536" lon="-1.928880"><ele>408</ele><time>2023-10-27T12:28:47Z</time><name>PT1997</name></trkpt>
<trkpt lat="53.287525" lon="-1.928914"><ele>408</ele><time>2023-10-27T12:28:51Z</time><name>PT1998</name></trkpt>
<trkpt lat="53.287511" lon="-1.928970"><ele>407</ele><time>2023-10-27T12:28:54Z</time><name>PT1999</name></trkpt>
<trkpt lat="53.287499" lon="-1.929006"><ele>406</ele><time>2023-10-27T12:28:57Z</time><name>PT2000</name></trkpt>
<trkpt lat="53.287476" lon="-1.929098"><ele>406</ele><time>2023-10-27T12:29:01Z</time><name>PT2001</name></trkpt>
<trkpt lat="53.287458" lon="-1.929137"><ele>405</ele><time>2023-10-27T12:29:04Z</time><name>PT2002</name></trkpt>
<trkpt lat="53.287444" lon="-1.929175"><ele>405</ele><time>2023-10-27T12:29:07Z</time><name>PT2003</name></trkpt>
<trkpt lat="53.287428" lon="-1.929216"><ele>405</ele><time>2023-10-27T12:29:10Z</time><name>PT2004</name></trkpt>
<trkpt lat="53.287415" lon="-1.929266"><ele>405</ele><time>2023-10-27T12:29:13Z</time><name>PT2005</name></trkpt>
<trkpt lat="53.287405" lon="-1.929310"><ele>405</ele><time>2023-10-27T12:29:16Z</time><name>PT2006</name></trkpt>
<trkpt lat="53.287395" lon="-1.929369"><ele>404</ele><time>2023-10-27T12:29:21Z</time><name>PT2007</name></trkpt>
<trkpt lat="53.287380" lon="-1.929439"><ele>405</ele><time>2023-10-27T12:29:24Z</time><name>PT2008</name></trkpt>
<trkpt lat="53.287377" lon="-1.929472"><ele>404</ele><time>2023-10-27T12:29:27Z</time><name>PT2009</name></trkpt>
<trkpt lat="53.287369" lon="-1.929529"><ele>404</ele><time>2023-10-27T12:29:32Z</time><name>PT2010</name></trkpt>
<trkpt lat="53.287363" lon="-1.929573"><ele>403</ele><time>2023-10-27T12:29:35Z</time><name>PT2011</name></trkpt>
<trkpt lat="53.287357" lon="-1.929623"><ele>404</ele><time>2023-10-27T12:29:38Z</time><name>PT2012</name></trkpt>
<trkpt lat="53.287346" lon="-1.929684"><ele>402</ele><time>2023-10-27T12:29:41Z</time><name>PT2013</name></trkpt>
<trkpt lat="53.287340" lon="-1.929723"><ele>401</ele><time>2023-10-27T12:29:44Z</time><name>PT2014</name></trkpt>
<trkpt lat="53.287335" lon="-1.929765"><ele>401</ele><time>2023-10-27T12:29:47Z</time><name>PT2015</name></trkpt>
<trkpt lat="53.287316" lon="-1.929822"><ele>400</ele><time>2023-10-27T12:29:51Z</time><name>PT2016</name></trkpt>
<trkpt lat="53.287312" lon="-1.929896"><ele>400</ele><time>2023-10-27T12:29:56Z</time><name>PT2017</name></trkpt>
<trkpt lat="53.287309" lon="-1.929939"><ele>399</ele><time>2023-10-27T12:29:59Z</time><name>PT2018</name></trkpt>
<trkpt lat="53.287299" lon="-1.930006"><ele>399</ele><time>2023-10-27T12:30:02Z</time><name>PT2019</name></trkpt>
<trkpt lat="53.287289" lon="-1.930070"><ele>398</ele><time>2023-10-27T12:30:06Z</time><name>PT2020</name></trkpt>
<trkpt lat="53.287280" lon="-1.930132"><ele>397</ele><time>2023-10-27T12:30:11Z</time><name>PT2021</name></trkpt>
<trkpt lat="53.287272" lon="-1.930195"><ele>396</ele><time>2023-10-27T12:30:14Z</time><name>PT2022</name></trkpt>
<trkpt lat="53.287272" lon="-1.930239"><ele>396</ele><time>2023-10-27T12:30:17Z</time><name>PT2023</name></trkpt>
<trkpt lat="53.287275" lon="-1.930294"><ele>396</ele><time>2023-10-27T12:30:20Z</time><name>PT2024</name></trkpt>
<trkpt lat="53.287272" lon="-1.930363"><ele>395</ele><time>2023-10-27T12:30:24Z</time><name>PT2025</name></trkpt>
<trkpt lat="53.287270" lon="-1.930408"><ele>394</ele><time>2023-10-27T12:30:27Z</time><name>PT2026</name></trkpt>
<trkpt lat="53.287272" lon="-1.930443"><ele>393</ele><time>2023-10-27T12:30:31Z</time><name>PT2027</name></trkpt>
<trkpt lat="53.287265" lon="-1.930484"><ele>393</ele><time>2023-10-27T12:30:34Z</time><name>PT2028</name></trkpt>
<trkpt lat="53.287256" lon="-1.930518"><ele>393</ele><time>2023-10-27T12:30:37Z</time><name>PT2029</name></trkpt>
<trkpt lat="53.287247" lon="-1.930548"><ele>393</ele><time>2023-10-27T12:30:40Z</time><name>PT2030</name></trkpt>
<trkpt lat="53.287238" lon="-1.930582"><ele>394</ele><time>2023-10-27T12:30:43Z</time><name>PT2031</name></trkpt>
<trkpt lat="53.287216" lon="-1.930619"><ele>394</ele><time>2023-10-27T12:30:47Z</time><name>PT2032</name></trkpt>
<trkpt lat="53.287210" lon="-1.930658"><ele>393</ele><time>2023-10-27T12:30:52Z</time><name>PT2033</name></trkpt>
<trkpt lat="53.287203" lon="-1.930677"><ele>393</ele><time>2023-10-27T12:30:55Z</time><name>PT2034</name></trkpt>
<trkpt lat="53.287204" lon="-1.930704"><ele>392</ele><time>2023-10-27T12:31:00Z</time><name>PT2035</name></trkpt>
<trkpt lat="53.287208" lon="-1.930710"><ele>391</ele><time>2023-10-27T12:31:03Z</time><name>PT2036</name></trkpt>
<trkpt lat="53.287209" lon="-1.930710"><ele>391</ele><time>2023-10-27T12:31:06Z</time><name>PT2037</name></trkpt>
<trkpt lat="53.287224" lon="-1.930736"><ele>391</ele><time>2023-10-27T12:31:09Z</time><name>PT2038</name></trkpt>
<trkpt lat="53.287224" lon="-1.930769"><ele>390</ele><time>2023-10-27T12:31:12Z</time><name>PT2039</name></trkpt>
<trkpt lat="53.287214" lon="-1.930809"><ele>390</ele><time>2023-10-27T12:31:16Z</time><name>PT2040</name></trkpt>
<trkpt lat="53.287213" lon="-1.930842"><ele>388</ele><time>2023-10-27T12:31:19Z</time><name>PT2041</name></trkpt>
<trkpt lat="53.287218" lon="-1.930893"><ele>387</ele><time>2023-10-27T12:31:24Z</time><name>PT2042</name></trkpt>
<trkpt lat="53.287210" lon="-1.930942"><ele>387</ele><time>2023-10-27T12:31:27Z</time><name>PT2043</name></trkpt>
<trkpt lat="53.287202" lon="-1.930991"><ele>386</ele><time>2023-10-27T12:31:30Z</time><name>PT2044</name></trkpt>
<trkpt lat="53.287197" lon="-1.931030"><ele>386</ele><time>2023-10-27T12:31:33Z</time><name>PT2045</name></trkpt>
<trkpt lat="53.287190" lon="-1.931076"><ele>385</ele><time>2023-10-27T12:31:36Z</time><name>PT2046</name></trkpt>
<trkpt lat="53.287190" lon="-1.931134"><ele>384</ele><time>2023-10-27T12:31:41Z</time><name>PT2047</name></trkpt>
<trkpt lat="53.287184" lon="-1.931180"><ele>383</ele><time>2023-10-27T12:31:44Z</time><name>PT2048</name></trkpt>
<trkpt lat="53.287185" lon="-1.931218"><ele>382</ele><time>2023-10-27T12:31:47Z</time><name>PT2049</name></trkpt>
<trkpt lat="53.287191" lon="-1.931268"><ele>381</ele><time>2023-10-27T12:31:51Z</time><name>PT2050</name></trkpt>
<trkpt lat="53.287183" lon="-1.931329"><ele>381</ele><time>2023-10-27T12:31:54Z</time><name>PT2051</name></trkpt>
<trkpt lat="53.287174" lon="-1.931371"><ele>380</ele><time>2023-10-27T12:31:57Z</time><name>PT2052</name></trkpt>
<trkpt lat="53.287168" lon="-1.931425"><ele>380</ele><time>2023-10-27T12:32:01Z</time><name>PT2053</name></trkpt>
<trkpt lat="53.287166" lon="-1.931474"><ele>380</ele><time>2023-10-27T12:32:04Z</time><name>PT2054</name></trkpt>
<trkpt lat="53.287162" lon="-1.931540"><ele>380</ele><time>2023-10-27T12:32:08Z</time><name>PT2055</name></trkpt>
<trkpt lat="53.287163" lon="-1.931603"><ele>378</ele><time>2023-10-27T12:32:13Z</time><name>PT2056</name></trkpt>
<trkpt lat="53.287159" lon="-1.931646"><ele>377</ele><time>2023-10-27T12:32:16Z</time><name>PT2057</name></trkpt>
<trkpt lat="53.287160" lon="-1.931690"><ele>375</ele><time>2023-10-27T12:32:19Z</time><name>PT2058</name></trkpt>
<trkpt lat="53.287159" lon="-1.931747"><ele>374</ele><time>2023-10-27T12:32:23Z</time><name>PT2059</name></trkpt>
<trkpt lat="53.287152" lon="-1.931806"><ele>374</ele><time>2023-10-27T12:32:28Z</time><name>PT2060</name></trkpt>
<trkpt lat="53.287147" lon="-1.931850"><ele>373</ele><time>2023-10-27T12:32:31Z</time><name>PT2061</name></trkpt>
<trkpt lat="53.287143" lon="-1.931897"><ele>373</ele><time>2023-10-27T12:32:34Z</time><name>PT2062</name></trkpt>
<trkpt lat="53.287144" lon="-1.931942"><ele>372</ele><time>2023-10-27T12:32:37Z</time><name>PT2063</name></trkpt>
<trkpt lat="53.287131" lon="-1.932014"><ele>371</ele><time>2023-10-27T12:32:40Z</time><name>PT2064</name></trkpt>
<trkpt lat="53.287124" lon="-1.932069"><ele>370</ele><time>2023-10-27T12:32:43Z</time><name>PT2065</name></trkpt>
<trkpt lat="53.287121" lon="-1.932126"><ele>370</ele><time>2023-10-27T12:32:46Z</time><name>PT2066</name></trkpt>
<trkpt lat="53.287119" lon="-1.932175"><ele>369</ele><time>2023-10-27T12:32:49Z</time><name>PT2067</name></trkpt>
<trkpt lat="53.287115" lon="-1.932227"><ele>369</ele><time>2023-10-27T12:32:52Z</time><name>PT2068</name></trkpt>
<trkpt lat="53.287110" lon="-1.932290"><ele>368</ele><time>2023-10-27T12:32:57Z</time><name>PT2069</name></trkpt>
<trkpt lat="53.287099" lon="-1.932330"><ele>367</ele><time>2023-10-27T12:33:00Z</time><name>PT2070</name></trkpt>
<trkpt lat="53.287096" lon="-1.932385"><ele>367</ele><time>2023-10-27T12:33:03Z</time><name>PT2071</name></trkpt>
<trkpt lat="53.287092" lon="-1.932461"><ele>367</ele><time>2023-10-27T12:33:06Z</time><name>PT2072</name></trkpt>
<trkpt lat="53.287092" lon="-1.932511"><ele>366</ele><time>2023-10-27T12:33:09Z</time><name>PT2073</name></trkpt>
<trkpt lat="53.287092" lon="-1.932563"><ele>365</ele><time>2023-10-27T12:33:13Z</time><name>PT2074</name></trkpt>
<trkpt lat="53.287086" lon="-1.932605"><ele>365</ele><time>2023-10-27T12:33:17Z</time><name>PT2075</name></trkpt>
<trkpt lat="53.287085" lon="-1.932671"><ele>364</ele><time>2023-10-27T12:33:20Z</time><name>PT2076</name></trkpt>
<trkpt lat="53.287088" lon="-1.932727"><ele>364</ele><time>2023-10-27T12:33:23Z</time><name>PT2077</name></trkpt>
<trkpt lat="53.287081" lon="-1.932793"><ele>364</ele><time>2023-10-27T12:33:27Z</time><name>PT2078</name></trkpt>
<trkpt lat="53.287082" lon="-1.932837"><ele>363</ele><time>2023-10-27T12:33:30Z</time><name>PT2079</name></trkpt>
<trkpt lat="53.287077" lon="-1.932901"><ele>362</ele><time>2023-10-27T12:33:35Z</time><name>PT2080</name></trkpt>
<trkpt lat="53.287069" lon="-1.932957"><ele>361</ele><time>2023-10-27T12:33:38Z</time><name>PT2081</name></trkpt>
<trkpt lat="53.287058" lon="-1.933030"><ele>361</ele><time>2023-10-27T12:33:41Z</time><name>PT2082</name></trkpt>
<trkpt lat="53.287057" lon="-1.933080"><ele>360</ele><time>2023-10-27T12:33:44Z</time><name>PT2083</name></trkpt>
<trkpt lat="53.287050" lon="-1.933150"><ele>360</ele><time>2023-10-27T12:33:48Z</time><name>PT2084</name></trkpt>
<trkpt lat="53.287041" lon="-1.933190"><ele>359</ele><time>2023-10-27T12:33:51Z</time><name>PT2085</name></trkpt>
<trkpt lat="53.287031" lon="-1.933235"><ele>359</ele><time>2023-10-27T12:33:55Z</time><name>PT2086</name></trkpt>
<trkpt lat="53.287017" lon="-1.933305"><ele>359</ele><time>2023-10-27T12:33:58Z</time><name>PT2087</name></trkpt>
<trkpt lat="53.287009" lon="-1.933361"><ele>359</ele><time>2023-10-27T12:34:01Z</time><name>PT2088</name></trkpt>
<trkpt lat="53.287000" lon="-1.933430"><ele>358</ele><time>2023-10-27T12:34:05Z</time><name>PT2089</name></trkpt>
<trkpt lat="53.286986" lon="-1.933476"><ele>358</ele><time>2023-10-27T12:34:08Z</time><name>PT2090</name></trkpt>
<trkpt lat="53.286969" lon="-1.933546"><ele>358</ele><time>2023-10-27T12:34:13Z</time><name>PT2091</name></trkpt>
<trkpt lat="53.286961" lon="-1.933593"><ele>358</ele><time>2023-10-27T12:34:16Z</time><name>PT2092</name></trkpt>
<trkpt lat="53.286942" lon="-1.933656"><ele>358</ele><time>2023-10-27T12:34:19Z</time><name>PT2093</name></trkpt>
<trkpt lat="53.286932" lon="-1.933710"><ele>358</ele><time>2023-10-27T12:34:22Z</time><name>PT2094</name></trkpt>
<trkpt lat="53.286916" lon="-1.933784"><ele>358</ele><time>2023-10-27T12:34:26Z</time><name>PT2095</name></trkpt>
<trkpt lat="53.286905" lon="-1.933844"><ele>359</ele><time>2023-10-27T12:34:29Z</time><name>PT2096</name></trkpt>
<trkpt lat="53.286901" lon="-1.933897"><ele>360</ele><time>2023-10-27T12:34:33Z</time><name>PT2097</name></trkpt>
<trkpt lat="53.286894" lon="-1.933940"><ele>360</ele><time>2023-10-27T12:34:36Z</time><name>PT2098</name></trkpt>
<trkpt lat="53.286881" lon="-1.933989"><ele>361</ele><time>2023-10-27T12:34:39Z</time><name>PT2099</name></trkpt>
<trkpt lat="53.286888" lon="-1.934023"><ele>360</ele><time>2023-10-27T12:34:42Z</time><name>PT2100</name></trkpt>
<trkpt lat="53.286894" lon="-1.934073"><ele>361</ele><time>2023-10-27T12:34:45Z</time><name>PT2101</name></trkpt>
<trkpt lat="53.286905" lon="-1.934127"><ele>362</ele><time>2023-10-27T12:34:49Z</time><name>PT2102</name></trkpt>
<trkpt lat="53.286911" lon="-1.934180"><ele>361</ele><time>2023-10-27T12:34:54Z</time><name>PT2103</name></trkpt>
<trkpt lat="53.286906" lon="-1.934216"><ele>361</ele><time>2023-10-27T12:34:57Z</time><name>PT2104</name></trkpt>
<trkpt lat="53.286888" lon="-1.934248"><ele>362</ele><time>2023-10-27T12:35:00Z</time><name>PT2105</name></trkpt>
<trkpt lat="53.286880" lon="-1.934296"><ele>363</ele><time>2023-10-27T12:35:03Z</time><name>PT2106</name></trkpt>
<trkpt lat="53.286884" lon="-1.934358"><ele>363</ele><time>2023-10-27T12:35:06Z</time><name>PT2107</name></trkpt>
<trkpt lat="53.286881" lon="-1.934427"><ele>363</ele><time>2023-10-27T12:35:10Z</time><name>PT2108</name></trkpt>
<trkpt lat="53.286875" lon="-1.934490"><ele>363</ele><time>2023-10-27T12:35:15Z</time><name>PT2109</name></trkpt>
<trkpt lat="53.286860" lon="-1.934544"><ele>363</ele><time>2023-10-27T12:35:18Z</time><name>PT2110</name></trkpt>
<trkpt lat="53.286845" lon="-1.934572"><ele>363</ele><time>2023-10-27T12:35:22Z</time><name>PT2111</name></trkpt>
<trkpt lat="53.286829" lon="-1.934632"><ele>363</ele><time>2023-10-27T12:35:27Z</time><name>PT2112</name></trkpt>
<trkpt lat="53.286826" lon="-1.934675"><ele>363</ele><time>2023-10-27T12:35:30Z</time><name>PT2113</name></trkpt>
<trkpt lat="53.286815" lon="-1.934721"><ele>361</ele><time>2023-10-27T12:35:33Z</time><name>PT2114</name></trkpt>
<trkpt lat="53.286803" lon="-1.934751"><ele>359</ele><time>2023-10-27T12:35:38Z</time><name>PT2115</name></trkpt>
<trkpt lat="53.286812" lon="-1.934782"><ele>358</ele><time>2023-10-27T12:35:41Z</time><name>PT2116</name></trkpt>
<trkpt lat="53.286821" lon="-1.934839"><ele>357</ele><time>2023-10-27T12:35:44Z</time><name>PT2117</name></trkpt>
<trkpt lat="53.286815" lon="-1.934873"><ele>356</ele><time>2023-10-27T12:35:47Z</time><name>PT2118</name></trkpt>
<trkpt lat="53.286798" lon="-1.934925"><ele>356</ele><time>2023-10-27T12:35:52Z</time><name>PT2119</name></trkpt>
<trkpt lat="53.286806" lon="-1.934976"><ele>356</ele><time>2023-10-27T12:35:55Z</time><name>PT2120</name></trkpt>
<trkpt lat="53.286809" lon="-1.935030"><ele>356</ele><time>2023-10-27T12:35:58Z</time><name>PT2121</name></trkpt>
<trkpt lat="53.286807" lon="-1.935097"><ele>355</ele><time>2023-10-27T12:36:01Z</time><name>PT2122</name></trkpt>
<trkpt lat="53.286804" lon="-1.935149"><ele>355</ele><time>2023-10-27T12:36:04Z</time><name>PT2123</name></trkpt>
<trkpt lat="53.286814" lon="-1.935209"><ele>355</ele><time>2023-10-27T12:36:08Z</time><name>PT2124</name></trkpt>
<trkpt lat="53.286834" lon="-1.935245"><ele>355</ele><time>2023-10-27T12:36:11Z</time><name>PT2125</name></trkpt>
<trkpt lat="53.286858" lon="-1.935303"><ele>355</ele><time>2023-10-27T12:36:16Z</time><name>PT2126</name></trkpt>
<trkpt lat="53.286872" lon="-1.935346"><ele>355</ele><time>2023-10-27T12:36:19Z</time><name>PT2127</name></trkpt>
<trkpt lat="53.286884" lon="-1.935379"><ele>354</ele><time>2023-10-27T12:36:22Z</time><name>PT2128</name></trkpt>
<trkpt lat="53.286888" lon="-1.935429"><ele>353</ele><time>2023-10-27T12:36:25Z</time><name>PT2129</name></trkpt>
<trkpt lat="53.286893" lon="-1.935466"><ele>352</ele><time>2023-10-27T12:36:28Z</time><name>PT2130</name></trkpt>
<trkpt lat="53.286902" lon="-1.935524"><ele>352</ele><time>2023-10-27T12:36:33Z</time><name>PT2131</name></trkpt>
<trkpt lat="53.286897" lon="-1.935567"><ele>351</ele><time>2023-10-27T12:36:36Z</time><name>PT2132</name></trkpt>
<trkpt lat="53.286891" lon="-1.935633"><ele>351</ele><time>2023-10-27T12:36:39Z</time><name>PT2133</name></trkpt>
<trkpt lat="53.286884" lon="-1.935686"><ele>350</ele><time>2023-10-27T12:36:43Z</time><name>PT2134</name></trkpt>
<trkpt lat="53.286881" lon="-1.935756"><ele>350</ele><time>2023-10-27T12:36:48Z</time><name>PT2135</name></trkpt>
<trkpt lat="53.286866" lon="-1.935791"><ele>349</ele><time>2023-10-27T12:36:51Z</time><name>PT2136</name></trkpt>
<trkpt lat="53.286878" lon="-1.935847"><ele>349</ele><time>2023-10-27T12:36:54Z</time><name>PT2137</name></trkpt>
<trkpt lat="53.286884" lon="-1.935902"><ele>349</ele><time>2023-10-27T12:36:58Z</time><name>PT2138</name></trkpt>
<trkpt lat="53.286886" lon="-1.935932"><ele>349</ele><time>2023-10-27T12:37:01Z</time><name>PT2139</name></trkpt>
<trkpt lat="53.286883" lon="-1.935975"><ele>348</ele><time>2023-10-27T12:37:05Z</time><name>PT2140</name></trkpt>
<trkpt lat="53.286881" lon="-1.936027"><ele>347</ele><time>2023-10-27T12:37:08Z</time><name>PT2141</name></trkpt>
<trkpt lat="53.286878" lon="-1.936069"><ele>347</ele><time>2023-10-27T12:37:11Z</time><name>PT2142</name></trkpt>
<trkpt lat="53.286863" lon="-1.936120"><ele>346</ele><time>2023-10-27T12:37:15Z</time><name>PT2143</name></trkpt>
<trkpt lat="53.286849" lon="-1.936139"><ele>345</ele><time>2023-10-27T12:37:18Z</time><name>PT2144</name></trkpt>
<trkpt lat="53.286837" lon="-1.936160"><ele>344</ele><time>2023-10-27T12:37:21Z</time><name>PT2145</name></trkpt>
<trkpt lat="53.286831" lon="-1.936188"><ele>345</ele><time>2023-10-27T12:37:26Z</time><name>PT2146</name></trkpt>
<trkpt lat="53.286823" lon="-1.936221"><ele>345</ele><time>2023-10-27T12:37:29Z</time><name>PT2147</name></trkpt>
<trkpt lat="53.286817" lon="-1.936239"><ele>345</ele><time>2023-10-27T12:37:32Z</time><name>PT2148</name></trkpt>
<trkpt lat="53.286819" lon="-1.936285"><ele>343</ele><time>2023-10-27T12:37:36Z</time><name>PT2149</name></trkpt>
<trkpt lat="53.286804" lon="-1.936331"><ele>342</ele><time>2023-10-27T12:37:39Z</time><name>PT2150</name></trkpt>
<trkpt lat="53.286802" lon="-1.936376"><ele>343</ele><time>2023-10-27T12:37:43Z</time><name>PT2151</name></trkpt>
<trkpt lat="53.286801" lon="-1.936374"><ele>342</ele><time>2023-10-27T12:37:46Z</time><name>PT2152</name></trkpt>
<trkpt lat="53.286802" lon="-1.936379"><ele>342</ele><time>2023-10-27T12:37:49Z</time><name>PT2153</name></trkpt>
<trkpt lat="53.286814" lon="-1.936408"><ele>341</ele><time>2023-10-27T12:37:53Z</time><name>PT2154</name></trkpt>
<trkpt lat="53.286814" lon="-1.936450"><ele>339</ele><time>2023-10-27T12:37:58Z</time><name>PT2155</name></trkpt>
<trkpt lat="53.286816" lon="-1.936471"><ele>338</ele><time>2023-10-27T12:38:01Z</time><name>PT2156</name></trkpt>
<trkpt lat="53.286817" lon="-1.936505"><ele>337</ele><time>2023-10-27T12:38:04Z</time><name>PT2157</name></trkpt>
<trkpt lat="53.286828" lon="-1.936530"><ele>335</ele><time>2023-10-27T12:38:07Z</time><name>PT2158</name></trkpt>
<trkpt lat="53.286842" lon="-1.936558"><ele>334</ele><time>2023-10-27T12:38:10Z</time><name>PT2159</name></trkpt>
<trkpt lat="53.286847" lon="-1.936597"><ele>333</ele><time>2023-10-27T12:38:14Z</time><name>PT2160</name></trkpt>
<trkpt lat="53.286848" lon="-1.936612"><ele>333</ele><time>2023-10-27T12:38:17Z</time><name>PT2161</name></trkpt>
<trkpt lat="53.286856" lon="-1.936624"><ele>333</ele><time>2023-10-27T12:38:21Z</time><name>PT2162</name></trkpt>
<trkpt lat="53.286858" lon="-1.936634"><ele>332</ele><time>2023-10-27T12:38:24Z</time><name>PT2163</name></trkpt>
<trkpt lat="53.286870" lon="-1.936653"><ele>333</ele><time>2023-10-27T12:38:27Z</time><name>PT2164</name></trkpt>
<trkpt lat="53.286901" lon="-1.936668"><ele>336</ele><time>2023-10-27T12:38:30Z</time><name>PT2165</name></trkpt>
<trkpt lat="53.286941" lon="-1.936681"><ele>337</ele><time>2023-10-27T12:38:33Z</time><name>PT2166</name></trkpt>
<trkpt lat="53.286964" lon="-1.936718"><ele>336</ele><time>2023-10-27T12:38:37Z</time><name>PT2167</name></trkpt>
<trkpt lat="53.286979" lon="-1.936758"><ele>335</ele><time>2023-10-27T12:38:40Z</time><name>PT2168</name></trkpt>
<trkpt lat="53.287015" lon="-1.936791"><ele>338</ele><time>2023-10-27T12:38:45Z</time><name>PT2169</name></trkpt>
<trkpt lat="53.287042" lon="-1.936821"><ele>339</ele><time>2023-10-27T12:38:48Z</time><name>PT2170</name></trkpt>
<trkpt lat="53.287051" lon="-1.936854"><ele>339</ele><time>2023-10-27T12:38:51Z</time><name>PT2171</name></trkpt>
<trkpt lat="53.287059" lon="-1.936895"><ele>339</ele><time>2023-10-27T12:38:54Z</time><name>PT2172</name></trkpt>
<trkpt lat="53.287066" lon="-1.936928"><ele>337</ele><time>2023-10-27T12:38:57Z</time><name>PT2173</name></trkpt>
<trkpt lat="53.287071" lon="-1.936963"><ele>337</ele><time>2023-10-27T12:39:00Z</time><name>PT2174</name></trkpt>
<trkpt lat="53.287087" lon="-1.937008"><ele>336</ele><time>2023-10-27T12:39:03Z</time><name>PT2175</name></trkpt>
<trkpt lat="53.287099" lon="-1.937062"><ele>336</ele><time>2023-10-27T12:39:08Z</time><name>PT2176</name></trkpt>
<trkpt lat="53.287100" lon="-1.937114"><ele>335</ele><time>2023-10-27T12:39:11Z</time><name>PT2177</name></trkpt>
<trkpt lat="53.287096" lon="-1.937174"><ele>335</ele><time>2023-10-27T12:39:15Z</time><name>PT2178</name></trkpt>
<trkpt lat="53.287094" lon="-1.937225"><ele>335</ele><time>2023-10-27T12:39:18Z</time><name>PT2179</name></trkpt>
<trkpt lat="53.287093" lon="-1.937291"><ele>335</ele><time>2023-10-27T12:39:23Z</time><name>PT2180</name></trkpt>
<trkpt lat="53.287085" lon="-1.937336"><ele>336</ele><time>2023-10-27T12:39:26Z</time><name>PT2181</name></trkpt>
<trkpt lat="53.287082" lon="-1.937402"><ele>336</ele><time>2023-10-27T12:39:29Z</time><name>PT2182</name></trkpt>
<trkpt lat="53.287075" lon="-1.937472"><ele>337</ele><time>2023-10-27T12:39:33Z</time><name>PT2183</name></trkpt>
<trkpt lat="53.287071" lon="-1.937524"><ele>337</ele><time>2023-10-27T12:39:37Z</time><name>PT2184</name></trkpt>
<trkpt lat="53.287066" lon="-1.937578"><ele>337</ele><time>2023-10-27T12:39:40Z</time><name>PT2185</name></trkpt>
<trkpt lat="53.287079" lon="-1.937640"><ele>337</ele><time>2023-10-27T12:39:43Z</time><name>PT2186</name></trkpt>
<trkpt lat="53.287106" lon="-1.937708"><ele>338</ele><time>2023-10-27T12:39:46Z</time><name>PT2187</name></trkpt>
<trkpt lat="53.287127" lon="-1.937746"><ele>338</ele><time>2023-10-27T12:39:49Z</time><name>PT2188</name></trkpt>
<trkpt lat="53.287139" lon="-1.937789"><ele>338</ele><time>2023-10-27T12:39:53Z</time><name>PT2189</name></trkpt>
<trkpt lat="53.287145" lon="-1.937825"><ele>338</ele><time>2023-10-27T12:39:58Z</time><name>PT2190</name></trkpt>
<trkpt lat="53.287141" lon="-1.937869"><ele>338</ele><time>2023-10-27T12:40:01Z</time><name>PT2191</name></trkpt>
<trkpt lat="53.287139" lon="-1.937910"><ele>338</ele><time>2023-10-27T12:40:04Z</time><name>PT2192</name></trkpt>
<trkpt lat="53.287143" lon="-1.937964"><ele>338</ele><time>2023-10-27T12:40:07Z</time><name>PT2193</name></trkpt>
<trkpt lat="53.287132" lon="-1.938012"><ele>339</ele><time>2023-10-27T12:40:11Z</time><name>PT2194</name></trkpt>
<trkpt lat="53.287137" lon="-1.938061"><ele>339</ele><time>2023-10-27T12:40:15Z</time><name>PT2195</name></trkpt>
<trkpt lat="53.287154" lon="-1.938130"><ele>339</ele><time>2023-10-27T12:40:18Z</time><name>PT2196</name></trkpt>
<trkpt lat="53.287167" lon="-1.938179"><ele>340</ele><time>2023-10-27T12:40:21Z</time><name>PT2197</name></trkpt>
<trkpt lat="53.287182" lon="-1.938238"><ele>340</ele><time>2023-10-27T12:40:25Z</time><name>PT2198</name></trkpt>
<trkpt lat="53.287189" lon="-1.938304"><ele>340</ele><time>2023-10-27T12:40:30Z</time><name>PT2199</name></trkpt>
<trkpt lat="53.287197" lon="-1.938346"><ele>340</ele><time>2023-10-27T12:40:33Z</time><name>PT2200</name></trkpt>
<trkpt lat="53.287184" lon="-1.938403"><ele>341</ele><time>2023-10-27T12:40:36Z</time><name>PT2201</name></trkpt>
<trkpt lat="53.287171" lon="-1.938441"><ele>341</ele><time>2023-10-27T12:40:39Z</time><name>PT2202</name></trkpt>
<trkpt lat="53.287150" lon="-1.938507"><ele>342</ele><time>2023-10-27T12:40:43Z</time><name>PT2203</name></trkpt>
<trkpt lat="53.287137" lon="-1.938600"><ele>343</ele><time>2023-10-27T12:40:48Z</time><name>PT2204</name></trkpt>
<trkpt lat="53.287121" lon="-1.938662"><ele>343</ele><time>2023-10-27T12:40:51Z</time><name>PT2205</name></trkpt>
<trkpt lat="53.287110" lon="-1.938727"><ele>343</ele><time>2023-10-27T12:40:56Z</time><name>PT2206</name></trkpt>
<trkpt lat="53.287098" lon="-1.938774"><ele>343</ele><time>2023-10-27T12:40:59Z</time><name>PT2207</name></trkpt>
<trkpt lat="53.287084" lon="-1.938822"><ele>343</ele><time>2023-10-27T12:41:02Z</time><name>PT2208</name></trkpt>
<trkpt lat="53.287071" lon="-1.938873"><ele>344</ele><time>2023-10-27T12:41:05Z</time><name>PT2209</name></trkpt>
<trkpt lat="53.287049" lon="-1.938921"><ele>345</ele><time>2023-10-27T12:41:09Z</time><name>PT2210</name></trkpt>
<trkpt lat="53.287028" lon="-1.938971"><ele>346</ele><time>2023-10-27T12:41:14Z</time><name>PT2211</name></trkpt>
<trkpt lat="53.287007" lon="-1.939000"><ele>346</ele><time>2023-10-27T12:41:17Z</time><name>PT2212</name></trkpt>
<trkpt lat="53.286978" lon="-1.939043"><ele>346</ele><time>2023-10-27T12:41:20Z</time><name>PT2213</name></trkpt>
<trkpt lat="53.286955" lon="-1.939071"><ele>346</ele><time>2023-10-27T12:41:23Z</time><name>PT2214</name></trkpt>
<trkpt lat="53.286937" lon="-1.939120"><ele>346</ele><time>2023-10-27T12:41:26Z</time><name>PT2215</name></trkpt>
<trkpt lat="53.286926" lon="-1.939168"><ele>345</ele><time>2023-10-27T12:41:29Z</time><name>PT2216</name></trkpt>
<trkpt lat="53.286923" lon="-1.939233"><ele>345</ele><time>2023-10-27T12:41:33Z</time><name>PT2217</name></trkpt>
<trkpt lat="53.286914" lon="-1.939255"><ele>345</ele><time>2023-10-27T12:41:36Z</time><name>PT2218</name></trkpt>
<trkpt lat="53.286904" lon="-1.939283"><ele>345</ele><time>2023-10-27T12:41:39Z</time><name>PT2219</name></trkpt>
<trkpt lat="53.286886" lon="-1.939304"><ele>345</ele><time>2023-10-27T12:41:43Z</time><name>PT2220</name></trkpt>
<trkpt lat="53.286863" lon="-1.939343"><ele>345</ele><time>2023-10-27T12:41:46Z</time><name>PT2221</name></trkpt>
<trkpt lat="53.286847" lon="-1.939388"><ele>345</ele><time>2023-10-27T12:41:50Z</time><name>PT2222</name></trkpt>
<trkpt lat="53.286831" lon="-1.939421"><ele>345</ele><time>2023-10-27T12:41:53Z</time><name>PT2223</name></trkpt>
<trkpt lat="53.286830" lon="-1.939470"><ele>346</ele><time>2023-10-27T12:41:56Z</time><name>PT2224</name></trkpt>
<trkpt lat="53.286821" lon="-1.939511"><ele>345</ele><time>2023-10-27T12:41:59Z</time><name>PT2225</name></trkpt>
<trkpt lat="53.286810" lon="-1.939551"><ele>345</ele><time>2023-10-27T12:42:02Z</time><name>PT2226</name></trkpt>
<trkpt lat="53.286798" lon="-1.939590"><ele>346</ele><time>2023-10-27T12:42:05Z</time><name>PT2227</name></trkpt>
<trkpt lat="53.286786" lon="-1.939623"><ele>346</ele><time>2023-10-27T12:42:09Z</time><name>PT2228</name></trkpt>
<trkpt lat="53.286776" lon="-1.939679"><ele>346</ele><time>2023-10-27T12:42:12Z</time><name>PT2229</name></trkpt>
<trkpt lat="53.286770" lon="-1.939722"><ele>347</ele><time>2023-10-27T12:42:15Z</time><name>PT2230</name></trkpt>
<trkpt lat="53.286761" lon="-1.939761"><ele>347</ele><time>2023-10-27T12:42:18Z</time><name>PT2231</name></trkpt>
<trkpt lat="53.286757" lon="-1.939818"><ele>348</ele><time>2023-10-27T12:42:22Z</time><name>PT2232</name></trkpt>
<trkpt lat="53.286753" lon="-1.939854"><ele>348</ele><time>2023-10-27T12:42:25Z</time><name>PT2233</name></trkpt>
<trkpt lat="53.286743" lon="-1.939899"><ele>348</ele><time>2023-10-27T12:42:28Z</time><name>PT2234</name></trkpt>
<trkpt lat="53.286737" lon="-1.939944"><ele>349</ele><time>2023-10-27T12:42:31Z</time><name>PT2235</name></trkpt>
<trkpt lat="53.286727" lon="-1.940006"><ele>349</ele><time>2023-10-27T12:42:36Z</time><name>PT2236</name></trkpt>
<trkpt lat="53.286723" lon="-1.940028"><ele>348</ele><time>2023-10-27T12:42:39Z</time><name>PT2237</name></trkpt>
<trkpt lat="53.286720" lon="-1.940071"><ele>349</ele><time>2023-10-27T12:42:43Z</time><name>PT2238</name></trkpt>
<trkpt lat="53.286713" lon="-1.940097"><ele>349</ele><time>2023-10-27T12:42:47Z</time><name>PT2239</name></trkpt>
<trkpt lat="53.286708" lon="-1.940144"><ele>349</ele><time>2023-10-27T12:42:50Z</time><name>PT2240</name></trkpt>
<trkpt lat="53.286705" lon="-1.940166"><ele>349</ele><time>2023-10-27T12:42:53Z</time><name>PT2241</name></trkpt>
<trkpt lat="53.286712" lon="-1.940203"><ele>349</ele><time>2023-10-27T12:42:56Z</time><name>PT2242</name></trkpt>
<trkpt lat="53.286712" lon="-1.940239"><ele>348</ele><time>2023-10-27T12:43:00Z</time><name>PT2243</name></trkpt>
<trkpt lat="53.286708" lon="-1.940270"><ele>347</ele><time>2023-10-27T12:43:03Z</time><name>PT2244</name></trkpt>
<trkpt lat="53.286714" lon="-1.940317"><ele>347</ele><time>2023-10-27T12:43:08Z</time><name>PT2245</name></trkpt>
<trkpt lat="53.286709" lon="-1.940348"><ele>347</ele><time>2023-10-27T12:43:11Z</time><name>PT2246</name></trkpt>
<trkpt lat="53.286715" lon="-1.940393"><ele>346</ele><time>2023-10-27T12:43:14Z</time><name>PT2247</name></trkpt>
<trkpt lat="53.286727" lon="-1.940418"><ele>347</ele><time>2023-10-27T12:43:17Z</time><name>PT2248</name></trkpt>
<trkpt lat="53.286733" lon="-1.940428"><ele>347</ele><time>2023-10-27T12:43:21Z</time><name>PT2249</name></trkpt>
<trkpt lat="53.286726" lon="-1.940431"><ele>349</ele><time>2023-10-27T12:43:25Z</time><name>PT2250</name></trkpt>
<trkpt lat="53.286722" lon="-1.940434"><ele>349</ele><time>2023-10-27T12:43:28Z</time><name>PT2251</name></trkpt>
<trkpt lat="53.286718" lon="-1.940472"><ele>350</ele><time>2023-10-27T12:43:37Z</time><name>PT2252</name></trkpt>
<trkpt lat="53.286698" lon="-1.940526"><ele>350</ele><time>2023-10-27T12:43:41Z</time><name>PT2253</name></trkpt>
<trkpt lat="53.286675" lon="-1.940555"><ele>350</ele><time>2023-10-27T12:43:44Z</time><name>PT2254</name></trkpt>
<trkpt lat="53.286658" lon="-1.940570"><ele>351</ele><time>2023-10-27T12:43:49Z</time><name>PT2255</name></trkpt>
<trkpt lat="53.286654" lon="-1.940587"><ele>352</ele><time>2023-10-27T12:43:52Z</time><name>PT2256</name></trkpt>
<trkpt lat="53.286648" lon="-1.940604"><ele>352</ele><time>2023-10-27T12:43:55Z</time><name>PT2257</name></trkpt>
<trkpt lat="53.286645" lon="-1.940614"><ele>352</ele><time>2023-10-27T12:43:58Z</time><name>PT2258</name></trkpt>
<trkpt lat="53.286630" lon="-1.940654"><ele>353</ele><time>2023-10-27T12:44:01Z</time><name>PT2259</name></trkpt>
<trkpt lat="53.286610" lon="-1.940688"><ele>354</ele><time>2023-10-27T12:44:06Z</time><name>PT2260</name></trkpt>
<trkpt lat="53.286600" lon="-1.940724"><ele>354</ele><time>2023-10-27T12:44:09Z</time><name>PT2261</name></trkpt>
<trkpt lat="53.286584" lon="-1.940742"><ele>354</ele><time>2023-10-27T12:44:12Z</time><name>PT2262</name></trkpt>
<trkpt lat="53.286560" lon="-1.940763"><ele>356</ele><time>2023-10-27T12:44:15Z</time><name>PT2263</name></trkpt>
<trkpt lat="53.286540" lon="-1.940791"><ele>358</ele><time>2023-10-27T12:44:18Z</time><name>PT2264</name></trkpt>
<trkpt lat="53.286525" lon="-1.940805"><ele>358</ele><time>2023-10-27T12:44:21Z</time><name>PT2265</name></trkpt>
<trkpt lat="53.286507" lon="-1.940818"><ele>359</ele><time>2023-10-27T12:44:24Z</time><name>PT2266</name></trkpt>
<trkpt lat="53.286482" lon="-1.940849"><ele>360</ele><time>2023-10-27T12:44:28Z</time><name>PT2267</name></trkpt>
<trkpt lat="53.286461" lon="-1.940882"><ele>361</ele><time>2023-10-27T12:44:33Z</time><name>PT2268</name></trkpt>
<trkpt lat="53.286450" lon="-1.940916"><ele>362</ele><time>2023-10-27T12:44:36Z</time><name>PT2269</name></trkpt>
<trkpt lat="53.286443" lon="-1.940963"><ele>361</ele><time>2023-10-27T12:44:39Z</time><name>PT2270</name></trkpt>
<trkpt lat="53.286433" lon="-1.941007"><ele>361</ele><time>2023-10-27T12:44:44Z</time><name>PT2271</name></trkpt>
<trkpt lat="53.286415" lon="-1.941019"><ele>362</ele><time>2023-10-27T12:44:47Z</time><name>PT2272</name></trkpt>
<trkpt lat="53.286400" lon="-1.941024"><ele>362</ele><time>2023-10-27T12:44:50Z</time><name>PT2273</name></trkpt>
<trkpt lat="53.286369" lon="-1.941045"><ele>362</ele><time>2023-10-27T12:44:53Z</time><name>PT2274</name></trkpt>
<trkpt lat="53.286366" lon="-1.941048"><ele>362</ele><time>2023-10-27T12:44:56Z</time><name>PT2275</name></trkpt>
<trkpt lat="53.286342" lon="-1.941063"><ele>363</ele><time>2023-10-27T12:45:00Z</time><name>PT2276</name></trkpt>
<trkpt lat="53.286325" lon="-1.941093"><ele>364</ele><time>2023-10-27T12:45:03Z</time><name>PT2277</name></trkpt>
<trkpt lat="53.286309" lon="-1.941134"><ele>364</ele><time>2023-10-27T12:45:08Z</time><name>PT2278</name></trkpt>
<trkpt lat="53.286284" lon="-1.941165"><ele>364</ele><time>2023-10-27T12:45:11Z</time><name>PT2279</name></trkpt>
<trkpt lat="53.286273" lon="-1.941172"><ele>364</ele><time>2023-10-27T12:45:15Z</time><name>PT2280</name></trkpt>
<trkpt lat="53.286263" lon="-1.941205"><ele>364</ele><time>2023-10-27T12:45:19Z</time><name>PT2281</name></trkpt>
<trkpt lat="53.286247" lon="-1.941235"><ele>364</ele><time>2023-10-27T12:45:22Z</time><name>PT2282</name></trkpt>
<trkpt lat="53.286236" lon="-1.941271"><ele>365</ele><time>2023-10-27T12:45:25Z</time><name>PT2283</name></trkpt>
<trkpt lat="53.286228" lon="-1.941301"><ele>366</ele><time>2023-10-27T12:45:28Z</time><name>PT2284</name></trkpt>
<trkpt lat="53.286212" lon="-1.941348"><ele>366</ele><time>2023-10-27T12:45:31Z</time><name>PT2285</name></trkpt>
<trkpt lat="53.286201" lon="-1.941382"><ele>367</ele><time>2023-10-27T12:45:34Z</time><name>PT2286</name></trkpt>
<trkpt lat="53.286190" lon="-1.941426"><ele>368</ele><time>2023-10-27T12:45:37Z</time><name>PT2287</name></trkpt>
<trkpt lat="53.286176" lon="-1.941466"><ele>368</ele><time>2023-10-27T12:45:41Z</time><name>PT2288</name></trkpt>
<trkpt lat="53.286167" lon="-1.941529"><ele>369</ele><time>2023-10-27T12:45:46Z</time><name>PT2289</name></trkpt>
<trkpt lat="53.286159" lon="-1.941567"><ele>369</ele><time>2023-10-27T12:45:49Z</time><name>PT2290</name></trkpt>
<trkpt lat="53.286139" lon="-1.941631"><ele>369</ele><time>2023-10-27T12:45:52Z</time><name>PT2291</name></trkpt>
<trkpt lat="53.286135" lon="-1.941670"><ele>369</ele><time>2023-10-27T12:45:55Z</time><name>PT2292</name></trkpt>
<trkpt lat="53.286122" lon="-1.941719"><ele>369</ele><time>2023-10-27T12:45:59Z</time><name>PT2293</name></trkpt>
<trkpt lat="53.286113" lon="-1.941763"><ele>368</ele><time>2023-10-27T12:46:04Z</time><name>PT2294</name></trkpt>
<trkpt lat="53.286113" lon="-1.941794"><ele>368</ele><time>2023-10-27T12:46:07Z</time><name>PT2295</name></trkpt>
<trkpt lat="53.286107" lon="-1.941841"><ele>368</ele><time>2023-10-27T12:46:10Z</time><name>PT2296</name></trkpt>
<trkpt lat="53.286107" lon="-1.941893"><ele>368</ele><time>2023-10-27T12:46:14Z</time><name>PT2297</name></trkpt>
<trkpt lat="53.286106" lon="-1.941938"><ele>368</ele><time>2023-10-27T12:46:19Z</time><name>PT2298</name></trkpt>
<trkpt lat="53.286102" lon="-1.941990"><ele>369</ele><time>2023-10-27T12:46:22Z</time><name>PT2299</name></trkpt>
<trkpt lat="53.286097" lon="-1.942026"><ele>369</ele><time>2023-10-27T12:46:25Z</time><name>PT2300</name></trkpt>
<trkpt lat="53.286100" lon="-1.942083"><ele>369</ele><time>2023-10-27T12:46:29Z</time><name>PT2301</name></trkpt>
<trkpt lat="53.286100" lon="-1.942122"><ele>370</ele><time>2023-10-27T12:46:32Z</time><name>PT2302</name></trkpt>
<trkpt lat="53.286100" lon="-1.942180"><ele>371</ele><time>2023-10-27T12:46:37Z</time><name>PT2303</name></trkpt>
<trkpt lat="53.286100" lon="-1.942216"><ele>372</ele><time>2023-10-27T12:46:40Z</time><name>PT2304</name></trkpt>
<trkpt lat="53.286102" lon="-1.942268"><ele>373</ele><time>2023-10-27T12:46:43Z</time><name>PT2305</name></trkpt>
<trkpt lat="53.286103" lon="-1.942304"><ele>373</ele><time>2023-10-27T12:46:46Z</time><name>PT2306</name></trkpt>
<trkpt lat="53.286108" lon="-1.942354"><ele>373</ele><time>2023-10-27T12:46:50Z</time><name>PT2307</name></trkpt>
<trkpt lat="53.286123" lon="-1.942413"><ele>373</ele><time>2023-10-27T12:46:55Z</time><name>PT2308</name></trkpt>
<trkpt lat="53.286129" lon="-1.942462"><ele>372</ele><time>2023-10-27T12:46:58Z</time><name>PT2309</name></trkpt>
<trkpt lat="53.286126" lon="-1.942514"><ele>372</ele><time>2023-10-27T12:47:03Z</time><name>PT2310</name></trkpt>
<trkpt lat="53.286129" lon="-1.942542"><ele>372</ele><time>2023-10-27T12:47:06Z</time><name>PT2311</name></trkpt>
<trkpt lat="53.286130" lon="-1.942560"><ele>372</ele><time>2023-10-27T12:47:09Z</time><name>PT2312</name></trkpt>
<trkpt lat="53.286130" lon="-1.942569"><ele>372</ele><time>2023-10-27T12:47:12Z</time><name>PT2313</name></trkpt>
<trkpt lat="53.286135" lon="-1.942631"><ele>372</ele><time>2023-10-27T12:47:16Z</time><name>PT2314</name></trkpt>
<trkpt lat="53.286139" lon="-1.942684"><ele>372</ele><time>2023-10-27T12:47:19Z</time><name>PT2315</name></trkpt>
<trkpt lat="53.286141" lon="-1.942742"><ele>372</ele><time>2023-10-27T12:47:24Z</time><name>PT2316</name></trkpt>
<trkpt lat="53.286147" lon="-1.942783"><ele>372</ele><time>2023-10-27T12:47:27Z</time><name>PT2317</name></trkpt>
<trkpt lat="53.286148" lon="-1.942820"><ele>373</ele><time>2023-10-27T12:47:30Z</time><name>PT2318</name></trkpt>
<trkpt lat="53.286155" lon="-1.942877"><ele>373</ele><time>2023-10-27T12:47:33Z</time><name>PT2319</name></trkpt>
<trkpt lat="53.286158" lon="-1.942921"><ele>373</ele><time>2023-10-27T12:47:36Z</time><name>PT2320</name></trkpt>
<trkpt lat="53.286160" lon="-1.942962"><ele>373</ele><time>2023-10-27T12:47:39Z</time><name>PT2321</name></trkpt>
<trkpt lat="53.286160" lon="-1.943006"><ele>374</ele><time>2023-10-27T12:47:42Z</time><name>PT2322</name></trkpt>
<trkpt lat="53.286161" lon="-1.943042"><ele>375</ele><time>2023-10-27T12:47:45Z</time><name>PT2323</name></trkpt>
<trkpt lat="53.286161" lon="-1.943073"><ele>376</ele><time>2023-10-27T12:47:48Z</time><name>PT2324</name></trkpt>
<trkpt lat="53.286167" lon="-1.943113"><ele>376</ele><time>2023-10-27T12:47:53Z</time><name>PT2325</name></trkpt>
<trkpt lat="53.286174" lon="-1.943154"><ele>376</ele><time>2023-10-27T12:47:56Z</time><name>PT2326</name></trkpt>
<trkpt lat="53.286175" lon="-1.943149"><ele>376</ele><time>2023-10-27T12:47:59Z</time><name>PT2327</name></trkpt>
<trkpt lat="53.286174" lon="-1.943161"><ele>376</ele><time>2023-10-27T12:48:06Z</time><name>PT2328</name></trkpt>
<trkpt lat="53.286173" lon="-1.943237"><ele>377</ele><time>2023-10-27T12:48:11Z</time><name>PT2329</name></trkpt>
<trkpt lat="53.286176" lon="-1.943301"><ele>377</ele><time>2023-10-27T12:48:14Z</time><name>PT2330</name></trkpt>
<trkpt lat="53.286180" lon="-1.943361"><ele>377</ele><time>2023-10-27T12:48:17Z</time><name>PT2331</name></trkpt>
<trkpt lat="53.286193" lon="-1.943401"><ele>377</ele><time>2023-10-27T12:48:20Z</time><name>PT2332</name></trkpt>
<trkpt lat="53.286200" lon="-1.943447"><ele>377</ele><time>2023-10-27T12:48:23Z</time><name>PT2333</name></trkpt>
<trkpt lat="53.286212" lon="-1.943509"><ele>378</ele><time>2023-10-27T12:48:28Z</time><name>PT2334</name></trkpt>
<trkpt lat="53.286219" lon="-1.943568"><ele>378</ele><time>2023-10-27T12:48:31Z</time><name>PT2335</name></trkpt>
<trkpt lat="53.286222" lon="-1.943617"><ele>378</ele><time>2023-10-27T12:48:35Z</time><name>PT2336</name></trkpt>
<trkpt lat="53.286229" lon="-1.943656"><ele>379</ele><time>2023-10-27T12:48:38Z</time><name>PT2337</name></trkpt>
<trkpt lat="53.286240" lon="-1.943697"><ele>379</ele><time>2023-10-27T12:48:43Z</time><name>PT2338</name></trkpt>
<trkpt lat="53.286246" lon="-1.943742"><ele>379</ele><time>2023-10-27T12:48:46Z</time><name>PT2339</name></trkpt>
<trkpt lat="53.286260" lon="-1.943804"><ele>378</ele><time>2023-10-27T12:48:49Z</time><name>PT2340</name></trkpt>
<trkpt lat="53.286282" lon="-1.943834"><ele>378</ele><time>2023-10-27T12:48:52Z</time><name>PT2341</name></trkpt>
<trkpt lat="53.286305" lon="-1.943863"><ele>378</ele><time>2023-10-27T12:48:55Z</time><name>PT2342</name></trkpt>
<trkpt lat="53.286322" lon="-1.943913"><ele>378</ele><time>2023-10-27T12:49:00Z</time><name>PT2343</name></trkpt>
<trkpt lat="53.286334" lon="-1.943965"><ele>378</ele><time>2023-10-27T12:49:03Z</time><name>PT2344</name></trkpt>
<trkpt lat="53.286343" lon="-1.944020"><ele>378</ele><time>2023-10-27T12:49:06Z</time><name>PT2345</name></trkpt>
<trkpt lat="53.286354" lon="-1.944058"><ele>378</ele><time>2023-10-27T12:49:09Z</time><name>PT2346</name></trkpt>
<trkpt lat="53.286375" lon="-1.944107"><ele>380</ele><time>2023-10-27T12:49:13Z</time><name>PT2347</name></trkpt>
<trkpt lat="53.286399" lon="-1.944145"><ele>380</ele><time>2023-10-27T12:49:16Z</time><name>PT2348</name></trkpt>
<trkpt lat="53.286426" lon="-1.944182"><ele>380</ele><time>2023-10-27T12:49:21Z</time><name>PT2349</name></trkpt>
<trkpt lat="53.286434" lon="-1.944210"><ele>380</ele><time>2023-10-27T12:49:24Z</time><name>PT2350</name></trkpt>
<trkpt lat="53.286447" lon="-1.944257"><ele>380</ele><time>2023-10-27T12:49:39Z</time><name>PT2351</name></trkpt>
<trkpt lat="53.286478" lon="-1.944309"><ele>380</ele><time>2023-10-27T12:49:42Z</time><name>PT2352</name></trkpt>
<trkpt lat="53.286498" lon="-1.944353"><ele>380</ele><time>2023-10-27T12:49:45Z</time><name>PT2353</name></trkpt>
<trkpt lat="53.286529" lon="-1.944404"><ele>379</ele><time>2023-10-27T12:49:50Z</time><name>PT2354</name></trkpt>
<trkpt lat="53.286563" lon="-1.944454"><ele>378</ele><time>2023-10-27T12:49:53Z</time><name>PT2355</name></trkpt>
<trkpt lat="53.286593" lon="-1.944513"><ele>378</ele><time>2023-10-27T12:49:57Z</time><name>PT2356</name></trkpt>
<trkpt lat="53.286617" lon="-1.944553"><ele>378</ele><time>2023-10-27T12:50:01Z</time><name>PT2357</name></trkpt>
<trkpt lat="53.286642" lon="-1.944593"><ele>378</ele><time>2023-10-27T12:50:04Z</time><name>PT2358</name></trkpt>
<trkpt lat="53.286682" lon="-1.944626"><ele>377</ele><time>2023-10-27T12:50:07Z</time><name>PT2359</name></trkpt>
<trkpt lat="53.286700" lon="-1.944664"><ele>377</ele><time>2023-10-27T12:50:10Z</time><name>PT2360</name></trkpt>
<trkpt lat="53.286715" lon="-1.944724"><ele>376</ele><time>2023-10-27T12:50:15Z</time><name>PT2361</name></trkpt>
<trkpt lat="53.286737" lon="-1.944784"><ele>376</ele><time>2023-10-27T12:50:18Z</time><name>PT2362</name></trkpt>
<trkpt lat="53.286753" lon="-1.944835"><ele>377</ele><time>2023-10-27T12:50:21Z</time><name>PT2363</name></trkpt>
<trkpt lat="53.286774" lon="-1.944871"><ele>377</ele><time>2023-10-27T12:50:24Z</time><name>PT2364</name></trkpt>
<trkpt lat="53.286804" lon="-1.944924"><ele>378</ele><time>2023-10-27T12:50:29Z</time><name>PT2365</name></trkpt>
<trkpt lat="53.286828" lon="-1.944978"><ele>378</ele><time>2023-10-27T12:50:32Z</time><name>PT2366</name></trkpt>
<trkpt lat="53.286859" lon="-1.945033"><ele>378</ele><time>2023-10-27T12:50:35Z</time><name>PT2367</name></trkpt>
<trkpt lat="53.286887" lon="-1.945099"><ele>378</ele><time>2023-10-27T12:50:39Z</time><name>PT2368</name></trkpt>
<trkpt lat="53.286905" lon="-1.945149"><ele>379</ele><time>2023-10-27T12:50:42Z</time><name>PT2369</name></trkpt>
<trkpt lat="53.286925" lon="-1.945203"><ele>378</ele><time>2023-10-27T12:50:47Z</time><name>PT2370</name></trkpt>
<trkpt lat="53.286945" lon="-1.945271"><ele>377</ele><time>2023-10-27T12:50:50Z</time><name>PT2371</name></trkpt>
<trkpt lat="53.286977" lon="-1.945328"><ele>377</ele><time>2023-10-27T12:50:54Z</time><name>PT2372</name></trkpt>
<trkpt lat="53.286995" lon="-1.945382"><ele>377</ele><time>2023-10-27T12:50:57Z</time><name>PT2373</name></trkpt>
<trkpt lat="53.287014" lon="-1.945417"><ele>376</ele><time>2023-10-27T12:51:01Z</time><name>PT2374</name></trkpt>
<trkpt lat="53.287029" lon="-1.945462"><ele>377</ele><time>2023-10-27T12:51:04Z</time><name>PT2375</name></trkpt>
<trkpt lat="53.287042" lon="-1.945533"><ele>377</ele><time>2023-10-27T12:51:07Z</time><name>PT2376</name></trkpt>
<trkpt lat="53.287050" lon="-1.945601"><ele>377</ele><time>2023-10-27T12:51:11Z</time><name>PT2377</name></trkpt>
<trkpt lat="53.287048" lon="-1.945651"><ele>378</ele><time>2023-10-27T12:51:14Z</time><name>PT2378</name></trkpt>
<trkpt lat="53.287039" lon="-1.945723"><ele>378</ele><time>2023-10-27T12:51:19Z</time><name>PT2379</name></trkpt>
<trkpt lat="53.287026" lon="-1.945787"><ele>377</ele><time>2023-10-27T12:51:22Z</time><name>PT2380</name></trkpt>
<trkpt lat="53.286998" lon="-1.945850"><ele>377</ele><time>2023-10-27T12:51:25Z</time><name>PT2381</name></trkpt>
<trkpt lat="53.286964" lon="-1.945930"><ele>380</ele><time>2023-10-27T12:51:30Z</time><name>PT2382</name></trkpt>
<trkpt lat="53.286935" lon="-1.945978"><ele>382</ele><time>2023-10-27T12:51:33Z</time><name>PT2383</name></trkpt>
<trkpt lat="53.286915" lon="-1.946010"><ele>382</ele><time>2023-10-27T12:51:36Z</time><name>PT2384</name></trkpt>
<trkpt lat="53.286891" lon="-1.946055"><ele>383</ele><time>2023-10-27T12:51:41Z</time><name>PT2385</name></trkpt>
<trkpt lat="53.286865" lon="-1.946094"><ele>384</ele><time>2023-10-27T12:51:44Z</time><name>PT2386</name></trkpt>
<trkpt lat="53.286845" lon="-1.946124"><ele>384</ele><time>2023-10-27T12:51:47Z</time><name>PT2387</name></trkpt>
<trkpt lat="53.286824" lon="-1.946163"><ele>384</ele><time>2023-10-27T12:51:50Z</time><name>PT2388</name></trkpt>
<trkpt lat="53.286803" lon="-1.946195"><ele>384</ele><time>2023-10-27T12:51:53Z</time><name>PT2389</name></trkpt>
<trkpt lat="53.286784" lon="-1.946224"><ele>384</ele><time>2023-10-27T12:51:56Z</time><name>PT2390</name></trkpt>
<trkpt lat="53.286754" lon="-1.946246"><ele>385</ele><time>2023-10-27T12:52:01Z</time><name>PT2391</name></trkpt>
<trkpt lat="53.286718" lon="-1.946283"><ele>386</ele><time>2023-10-27T12:52:04Z</time><name>PT2392</name></trkpt>
<trkpt lat="53.286680" lon="-1.946314"><ele>387</ele><time>2023-10-27T12:52:08Z</time><name>PT2393</name></trkpt>
<trkpt lat="53.286644" lon="-1.946338"><ele>387</ele><time>2023-10-27T12:52:13Z</time><name>PT2394</name></trkpt>
<trkpt lat="53.286611" lon="-1.946350"><ele>386</ele><time>2023-10-27T12:52:16Z</time><name>PT2395</name></trkpt>
<trkpt lat="53.286583" lon="-1.946391"><ele>386</ele><time>2023-10-27T12:52:20Z</time><name>PT2396</name></trkpt>
<trkpt lat="53.286568" lon="-1.946426"><ele>385</ele><time>2023-10-27T12:52:23Z</time><name>PT2397</name></trkpt>
<trkpt lat="53.286548" lon="-1.946466"><ele>386</ele><time>2023-10-27T12:52:26Z</time><name>PT2398</name></trkpt>
<trkpt lat="53.286537" lon="-1.946508"><ele>387</ele><time>2023-10-27T12:52:30Z</time><name>PT2399</name></trkpt>
<trkpt lat="53.286541" lon="-1.946581"><ele>386</ele><time>2023-10-27T12:52:33Z</time><name>PT2400</name></trkpt>
<trkpt lat="53.286537" lon="-1.946651"><ele>386</ele><time>2023-10-27T12:52:37Z</time><name>PT2401</name></trkpt>
<trkpt lat="53.286533" lon="-1.946706"><ele>387</ele><time>2023-10-27T12:52:42Z</time><name>PT2402</name></trkpt>
<trkpt lat="53.286531" lon="-1.946752"><ele>388</ele><time>2023-10-27T12:52:45Z</time><name>PT2403</name></trkpt>
<trkpt lat="53.286535" lon="-1.946800"><ele>387</ele><time>2023-10-27T12:52:48Z</time><name>PT2404</name></trkpt>
<trkpt lat="53.286537" lon="-1.946864"><ele>388</ele><time>2023-10-27T12:52:51Z</time><name>PT2405</name></trkpt>
<trkpt lat="53.286534" lon="-1.946921"><ele>388</ele><time>2023-10-27T12:52:55Z</time><name>PT2406</name></trkpt>
<trkpt lat="53.286525" lon="-1.946984"><ele>388</ele><time>2023-10-27T12:53:00Z</time><name>PT2407</name></trkpt>
<trkpt lat="53.286509" lon="-1.947035"><ele>388</ele><time>2023-10-27T12:53:03Z</time><name>PT2408</name></trkpt>
<trkpt lat="53.286493" lon="-1.947084"><ele>388</ele><time>2023-10-27T12:53:06Z</time><name>PT2409</name></trkpt>
<trkpt lat="53.286469" lon="-1.947132"><ele>389</ele><time>2023-10-27T12:53:11Z</time><name>PT2410</name></trkpt>
<trkpt lat="53.286444" lon="-1.947180"><ele>389</ele><time>2023-10-27T12:53:14Z</time><name>PT2411</name></trkpt>
<trkpt lat="53.286435" lon="-1.947224"><ele>388</ele><time>2023-10-27T12:53:17Z</time><name>PT2412</name></trkpt>
<trkpt lat="53.286421" lon="-1.947298"><ele>389</ele><time>2023-10-27T12:53:21Z</time><name>PT2413</name></trkpt>
<trkpt lat="53.286420" lon="-1.947362"><ele>390</ele><time>2023-10-27T12:53:26Z</time><name>PT2414</name></trkpt>
<trkpt lat="53.286418" lon="-1.947404"><ele>391</ele><time>2023-10-27T12:53:29Z</time><name>PT2415</name></trkpt>
<trkpt lat="53.286422" lon="-1.947450"><ele>391</ele><time>2023-10-27T12:53:32Z</time><name>PT2416</name></trkpt>
<trkpt lat="53.286426" lon="-1.947513"><ele>391</ele><time>2023-10-27T12:53:35Z</time><name>PT2417</name></trkpt>
<trkpt lat="53.286430" lon="-1.947563"><ele>391</ele><time>2023-10-27T12:53:38Z</time><name>PT2418</name></trkpt>
<trkpt lat="53.286428" lon="-1.947627"><ele>391</ele><time>2023-10-27T12:53:42Z</time><name>PT2419</name></trkpt>
<trkpt lat="53.286430" lon="-1.947689"><ele>391</ele><time>2023-10-27T12:53:46Z</time><name>PT2420</name></trkpt>
<trkpt lat="53.286428" lon="-1.947727"><ele>390</ele><time>2023-10-27T12:53:49Z</time><name>PT2421</name></trkpt>
<trkpt lat="53.286427" lon="-1.947770"><ele>390</ele><time>2023-10-27T12:53:52Z</time><name>PT2422</name></trkpt>
<trkpt lat="53.286427" lon="-1.947798"><ele>391</ele><time>2023-10-27T12:53:55Z</time><name>PT2423</name></trkpt>
<trkpt lat="53.286417" lon="-1.947854"><ele>392</ele><time>2023-10-27T12:53:59Z</time><name>PT2424</name></trkpt>
<trkpt lat="53.286408" lon="-1.947910"><ele>392</ele><time>2023-10-27T12:54:02Z</time><name>PT2425</name></trkpt>
<trkpt lat="53.286406" lon="-1.947953"><ele>393</ele><time>2023-10-27T12:54:05Z</time><name>PT2426</name></trkpt>
<trkpt lat="53.286398" lon="-1.948008"><ele>393</ele><time>2023-10-27T12:54:09Z</time><name>PT2427</name></trkpt>
<trkpt lat="53.286388" lon="-1.948073"><ele>394</ele><time>2023-10-27T12:54:14Z</time><name>PT2428</name></trkpt>
<trkpt lat="53.286382" lon="-1.948088"><ele>394</ele><time>2023-10-27T12:54:17Z</time><name>PT2429</name></trkpt>
<trkpt lat="53.286384" lon="-1.948099"><ele>394</ele><time>2023-10-27T12:54:20Z</time><name>PT2430</name></trkpt>
<trkpt lat="53.286389" lon="-1.948097"><ele>394</ele><time>2023-10-27T12:54:23Z</time><name>PT2431</name></trkpt>
<trkpt lat="53.286385" lon="-1.948091"><ele>394</ele><time>2023-10-27T12:54:26Z</time><name>PT2432</name></trkpt>
<trkpt lat="53.286387" lon="-1.948093"><ele>394</ele><time>2023-10-27T12:54:30Z</time><name>PT2433</name></trkpt>
<trkpt lat="53.286390" lon="-1.948096"><ele>394</ele><time>2023-10-27T12:55:05Z</time><name>PT2434</name></trkpt>
<trkpt lat="53.286386" lon="-1.948094"><ele>394</ele><time>2023-10-27T12:55:10Z</time><name>PT2435</name></trkpt>
<trkpt lat="53.286397" lon="-1.948086"><ele>394</ele><time>2023-10-27T12:56:11Z</time><name>PT2436</name></trkpt>
<trkpt lat="53.286403" lon="-1.948085"><ele>394</ele><time>2023-10-27T12:56:14Z</time><name>PT2437</name></trkpt>
<trkpt lat="53.286404" lon="-1.948089"><ele>394</ele><time>2023-10-27T12:57:07Z</time><name>PT2438</name></trkpt>
<trkpt lat="53.286405" lon="-1.948088"><ele>394</ele><time>2023-10-27T12:57:11Z</time><name>PT2439</name></trkpt>
<trkpt lat="53.286413" lon="-1.948089"><ele>393</ele><time>2023-10-27T12:58:22Z</time><name>PT2440</name></trkpt>
<trkpt lat="53.286423" lon="-1.948092"><ele>393</ele><time>2023-10-27T12:58:28Z</time><name>PT2441</name></trkpt>
<trkpt lat="53.286423" lon="-1.948092"><ele>394</ele><time>2023-10-27T12:58:31Z</time><name>PT2442</name></trkpt>
<trkpt lat="53.286417" lon="-1.948092"><ele>393</ele><time>2023-10-27T12:58:40Z</time><name>PT2443</name></trkpt>
<trkpt lat="53.286421" lon="-1.948078"><ele>393</ele><time>2023-10-27T12:58:44Z</time><name>PT2444</name></trkpt>
<trkpt lat="53.286434" lon="-1.948069"><ele>393</ele><time>2023-10-27T12:58:49Z</time><name>PT2445</name></trkpt>
<trkpt lat="53.286452" lon="-1.948035"><ele>392</ele><time>2023-10-27T12:58:52Z</time><name>PT2446</name></trkpt>
<trkpt lat="53.286477" lon="-1.948003"><ele>392</ele><time>2023-10-27T12:58:55Z</time><name>PT2447</name></trkpt>
<trkpt lat="53.286501" lon="-1.947977"><ele>392</ele><time>2023-10-27T12:58:58Z</time><name>PT2448</name></trkpt>
<trkpt lat="53.286538" lon="-1.947945"><ele>393</ele><time>2023-10-27T12:59:01Z</time><name>PT2449</name></trkpt>
<trkpt lat="53.286572" lon="-1.947905"><ele>390</ele><time>2023-10-27T12:59:05Z</time><name>PT2450</name></trkpt>
<trkpt lat="53.286602" lon="-1.947883"><ele>390</ele><time>2023-10-27T12:59:08Z</time><name>PT2451</name></trkpt>
<trkpt lat="53.286628" lon="-1.947857"><ele>389</ele><time>2023-10-27T12:59:11Z</time><name>PT2452</name></trkpt>
<trkpt lat="53.286656" lon="-1.947841"><ele>388</ele><time>2023-10-27T12:59:15Z</time><name>PT2453</name></trkpt>
<trkpt lat="53.286681" lon="-1.947807"><ele>388</ele><time>2023-10-27T12:59:18Z</time><name>PT2454</name></trkpt>
<trkpt lat="53.286700" lon="-1.947757"><ele>388</ele><time>2023-10-27T12:59:21Z</time><name>PT2455</name></trkpt>
<trkpt lat="53.286725" lon="-1.947711"><ele>387</ele><time>2023-10-27T12:59:25Z</time><name>PT2456</name></trkpt>
<trkpt lat="53.286749" lon="-1.947667"><ele>386</ele><time>2023-10-27T12:59:28Z</time><name>PT2457</name></trkpt>
<trkpt lat="53.286765" lon="-1.947618"><ele>385</ele><time>2023-10-27T12:59:33Z</time><name>PT2458</name></trkpt>
<trkpt lat="53.286786" lon="-1.947591"><ele>384</ele><time>2023-10-27T12:59:36Z</time><name>PT2459</name></trkpt>
<trkpt lat="53.286818" lon="-1.947557"><ele>383</ele><time>2023-10-27T12:59:39Z</time><name>PT2460</name></trkpt>
<trkpt lat="53.286839" lon="-1.947520"><ele>382</ele><time>2023-10-27T12:59:42Z</time><name>PT2461</name></trkpt>
<trkpt lat="53.286869" lon="-1.947487"><ele>381</ele><time>2023-10-27T12:59:47Z</time><name>PT2462</name></trkpt>
<trkpt lat="53.286887" lon="-1.947453"><ele>381</ele><time>2023-10-27T12:59:50Z</time><name>PT2463</name></trkpt>
<trkpt lat="53.286917" lon="-1.947404"><ele>380</ele><time>2023-10-27T12:59:53Z</time><name>PT2464</name></trkpt>
<trkpt lat="53.286942" lon="-1.947378"><ele>379</ele><time>2023-10-27T12:59:56Z</time><name>PT2465</name></trkpt>
<trkpt lat="53.286970" lon="-1.947339"><ele>378</ele><time>2023-10-27T13:00:00Z</time><name>PT2466</name></trkpt>
<trkpt lat="53.287002" lon="-1.947322"><ele>378</ele><time>2023-10-27T13:00:03Z</time><name>PT2467</name></trkpt>
<trkpt lat="53.287030" lon="-1.947300"><ele>377</ele><time>2023-10-27T13:00:06Z</time><name>PT2468</name></trkpt>
<trkpt lat="53.287058" lon="-1.947280"><ele>376</ele><time>2023-10-27T13:00:09Z</time><name>PT2469</name></trkpt>
<trkpt lat="53.287086" lon="-1.947258"><ele>374</ele><time>2023-10-27T13:00:14Z</time><name>PT2470</name></trkpt>
<trkpt lat="53.287101" lon="-1.947236"><ele>375</ele><time>2023-10-27T13:00:17Z</time><name>PT2471</name></trkpt>
<trkpt lat="53.287123" lon="-1.947206"><ele>374</ele><time>2023-10-27T13:00:20Z</time><name>PT2472</name></trkpt>
<trkpt lat="53.287148" lon="-1.947179"><ele>375</ele><time>2023-10-27T13:00:23Z</time><name>PT2473</name></trkpt>
<trkpt lat="53.287186" lon="-1.947150"><ele>375</ele><time>2023-10-27T13:00:28Z</time><name>PT2474</name></trkpt>
<trkpt lat="53.287229" lon="-1.947118"><ele>375</ele><time>2023-10-27T13:00:31Z</time><name>PT2475</name></trkpt>
<trkpt lat="53.287259" lon="-1.947097"><ele>375</ele><time>2023-10-27T13:00:34Z</time><name>PT2476</name></trkpt>
<trkpt lat="53.287296" lon="-1.947054"><ele>374</ele><time>2023-10-27T13:00:38Z</time><name>PT2477</name></trkpt>
<trkpt lat="53.287323" lon="-1.947027"><ele>373</ele><time>2023-10-27T13:00:41Z</time><name>PT2478</name></trkpt>
<trkpt lat="53.287352" lon="-1.946997"><ele>373</ele><time>2023-10-27T13:00:44Z</time><name>PT2479</name></trkpt>
<trkpt lat="53.287396" lon="-1.946960"><ele>373</ele><time>2023-10-27T13:00:49Z</time><name>PT2480</name></trkpt>
<trkpt lat="53.287426" lon="-1.946924"><ele>372</ele><time>2023-10-27T13:00:52Z</time><name>PT2481</name></trkpt>
<trkpt lat="53.287463" lon="-1.946902"><ele>373</ele><time>2023-10-27T13:00:55Z</time><name>PT2482</name></trkpt>
<trkpt lat="53.287500" lon="-1.946864"><ele>372</ele><time>2023-10-27T13:00:58Z</time><name>PT2483</name></trkpt>
<trkpt lat="53.287545" lon="-1.946831"><ele>371</ele><time>2023-10-27T13:01:02Z</time><name>PT2484</name></trkpt>
<trkpt lat="53.287582" lon="-1.946807"><ele>371</ele><time>2023-10-27T13:01:05Z</time><name>PT2485</name></trkpt>
<trkpt lat="53.287614" lon="-1.946783"><ele>370</ele><time>2023-10-27T13:01:09Z</time><name>PT2486</name></trkpt>
<trkpt lat="53.287646" lon="-1.946769"><ele>370</ele><time>2023-10-27T13:01:12Z</time><name>PT2487</name></trkpt>
<trkpt lat="53.287690" lon="-1.946745"><ele>369</ele><time>2023-10-27T13:01:15Z</time><name>PT2488</name></trkpt>
<trkpt lat="53.287729" lon="-1.946726"><ele>369</ele><time>2023-10-27T13:01:18Z</time><name>PT2489</name></trkpt>
<trkpt lat="53.287758" lon="-1.946697"><ele>369</ele><time>2023-10-27T13:01:22Z</time><name>PT2490</name></trkpt>
<trkpt lat="53.287778" lon="-1.946670"><ele>368</ele><time>2023-10-27T13:01:25Z</time><name>PT2491</name></trkpt>
<trkpt lat="53.287812" lon="-1.946635"><ele>367</ele><time>2023-10-27T13:01:28Z</time><name>PT2492</name></trkpt>
<trkpt lat="53.287850" lon="-1.946599"><ele>367</ele><time>2023-10-27T13:01:32Z</time><name>PT2493</name></trkpt>
<trkpt lat="53.287888" lon="-1.946566"><ele>366</ele><time>2023-10-27T13:01:37Z</time><name>PT2494</name></trkpt>
<trkpt lat="53.287917" lon="-1.946539"><ele>366</ele><time>2023-10-27T13:01:40Z</time><name>PT2495</name></trkpt>
<trkpt lat="53.287956" lon="-1.946503"><ele>365</ele><time>2023-10-27T13:01:43Z</time><name>PT2496</name></trkpt>
<trkpt lat="53.287986" lon="-1.946481"><ele>365</ele><time>2023-10-27T13:01:46Z</time><name>PT2497</name></trkpt>
<trkpt lat="53.288028" lon="-1.946452"><ele>364</ele><time>2023-10-27T13:01:50Z</time><name>PT2498</name></trkpt>
<trkpt lat="53.288055" lon="-1.946422"><ele>363</ele><time>2023-10-27T13:01:53Z</time><name>PT2499</name></trkpt>
<trkpt lat="53.288080" lon="-1.946392"><ele>363</ele><time>2023-10-27T13:01:56Z</time><name>PT2500</name></trkpt>
<trkpt lat="53.288120" lon="-1.946348"><ele>362</ele><time>2023-10-27T13:02:01Z</time><name>PT2501</name></trkpt>
<trkpt lat="53.288158" lon="-1.946308"><ele>362</ele><time>2023-10-27T13:02:04Z</time><name>PT2502</name></trkpt>
<trkpt lat="53.288195" lon="-1.946276"><ele>361</ele><time>2023-10-27T13:02:07Z</time><name>PT2503</name></trkpt>
<trkpt lat="53.288222" lon="-1.946251"><ele>361</ele><time>2023-10-27T13:02:10Z</time><name>PT2504</name></trkpt>
<trkpt lat="53.288249" lon="-1.946226"><ele>361</ele><time>2023-10-27T13:02:13Z</time><name>PT2505</name></trkpt>
<trkpt lat="53.288286" lon="-1.946192"><ele>360</ele><time>2023-10-27T13:02:18Z</time><name>PT2506</name></trkpt>
<trkpt lat="53.288309" lon="-1.946161"><ele>359</ele><time>2023-10-27T13:02:21Z</time><name>PT2507</name></trkpt>
<trkpt lat="53.288338" lon="-1.946107"><ele>358</ele><time>2023-10-27T13:02:24Z</time><name>PT2508</name></trkpt>
<trkpt lat="53.288362" lon="-1.946072"><ele>357</ele><time>2023-10-27T13:02:27Z</time><name>PT2509</name></trkpt>
<trkpt lat="53.288389" lon="-1.946035"><ele>356</ele><time>2023-10-27T13:02:32Z</time><name>PT2510</name></trkpt>
<trkpt lat="53.288412" lon="-1.945994"><ele>356</ele><time>2023-10-27T13:02:35Z</time><name>PT2511</name></trkpt>
<trkpt lat="53.288441" lon="-1.945932"><ele>354</ele><time>2023-10-27T13:02:38Z</time><name>PT2512</name></trkpt>
<trkpt lat="53.288478" lon="-1.945895"><ele>354</ele><time>2023-10-27T13:02:42Z</time><name>PT2513</name></trkpt>
<trkpt lat="53.288506" lon="-1.945861"><ele>353</ele><time>2023-10-27T13:02:45Z</time><name>PT2514</name></trkpt>
<trkpt lat="53.288541" lon="-1.945822"><ele>352</ele><time>2023-10-27T13:02:50Z</time><name>PT2515</name></trkpt>
<trkpt lat="53.288574" lon="-1.945792"><ele>351</ele><time>2023-10-27T13:02:53Z</time><name>PT2516</name></trkpt>
<trkpt lat="53.288600" lon="-1.945759"><ele>350</ele><time>2023-10-27T13:02:56Z</time><name>PT2517</name></trkpt>
<trkpt lat="53.288645" lon="-1.945724"><ele>350</ele><time>2023-10-27T13:02:59Z</time><name>PT2518</name></trkpt>
<trkpt lat="53.288672" lon="-1.945697"><ele>348</ele><time>2023-10-27T13:03:02Z</time><name>PT2519</name></trkpt>
<trkpt lat="53.288702" lon="-1.945655"><ele>347</ele><time>2023-10-27T13:03:05Z</time><name>PT2520</name></trkpt>
<trkpt lat="53.288738" lon="-1.945605"><ele>346</ele><time>2023-10-27T13:03:10Z</time><name>PT2521</name></trkpt>
<trkpt lat="53.288763" lon="-1.945569"><ele>344</ele><time>2023-10-27T13:03:13Z</time><name>PT2522</name></trkpt>
<trkpt lat="53.288799" lon="-1.945519"><ele>343</ele><time>2023-10-27T13:03:16Z</time><name>PT2523</name></trkpt>
<trkpt lat="53.288828" lon="-1.945481"><ele>342</ele><time>2023-10-27T13:03:20Z</time><name>PT2524</name></trkpt>
<trkpt lat="53.288859" lon="-1.945454"><ele>341</ele><time>2023-10-27T13:03:23Z</time><name>PT2525</name></trkpt>
<trkpt lat="53.288890" lon="-1.945430"><ele>340</ele><time>2023-10-27T13:03:26Z</time><name>PT2526</name></trkpt>
<trkpt lat="53.288926" lon="-1.945392"><ele>339</ele><time>2023-10-27T13:03:31Z</time><name>PT2527</name></trkpt>
<trkpt lat="53.288968" lon="-1.945366"><ele>338</ele><time>2023-10-27T13:03:34Z</time><name>PT2528</name></trkpt>
<trkpt lat="53.289007" lon="-1.945326"><ele>337</ele><time>2023-10-27T13:03:38Z</time><name>PT2529</name></trkpt>
<trkpt lat="53.289043" lon="-1.945293"><ele>337</ele><time>2023-10-27T13:03:43Z</time><name>PT2530</name></trkpt>
<trkpt lat="53.289068" lon="-1.945263"><ele>336</ele><time>2023-10-27T13:03:46Z</time><name>PT2531</name></trkpt>
<trkpt lat="53.289093" lon="-1.945233"><ele>335</ele><time>2023-10-27T13:03:49Z</time><name>PT2532</name></trkpt>
<trkpt lat="53.289124" lon="-1.945202"><ele>335</ele><time>2023-10-27T13:03:52Z</time><name>PT2533</name></trkpt>
<trkpt lat="53.289164" lon="-1.945159"><ele>334</ele><time>2023-10-27T13:03:55Z</time><name>PT2534</name></trkpt>
<trkpt lat="53.289188" lon="-1.945146"><ele>334</ele><time>2023-10-27T13:03:58Z</time><name>PT2535</name></trkpt>
<trkpt lat="53.289223" lon="-1.945131"><ele>333</ele><time>2023-10-27T13:04:01Z</time><name>PT2536</name></trkpt>
<trkpt lat="53.289253" lon="-1.945110"><ele>332</ele><time>2023-10-27T13:04:04Z</time><name>PT2537</name></trkpt>
<trkpt lat="53.289295" lon="-1.945083"><ele>331</ele><time>2023-10-27T13:04:09Z</time><name>PT2538</name></trkpt>
<trkpt lat="53.289339" lon="-1.945062"><ele>330</ele><time>2023-10-27T13:04:12Z</time><name>PT2539</name></trkpt>
<trkpt lat="53.289370" lon="-1.945044"><ele>329</ele><time>2023-10-27T13:04:15Z</time><name>PT2540</name></trkpt>
<trkpt lat="53.289402" lon="-1.945029"><ele>328</ele><time>2023-10-27T13:04:18Z</time><name>PT2541</name></trkpt>
<trkpt lat="53.289429" lon="-1.945013"><ele>327</ele><time>2023-10-27T13:04:21Z</time><name>PT2542</name></trkpt>
<trkpt lat="53.289475" lon="-1.944996"><ele>327</ele><time>2023-10-27T13:04:26Z</time><name>PT2543</name></trkpt>
<trkpt lat="53.289508" lon="-1.944979"><ele>326</ele><time>2023-10-27T13:04:29Z</time><name>PT2544</name></trkpt>
<trkpt lat="53.289537" lon="-1.944966"><ele>325</ele><time>2023-10-27T13:04:32Z</time><name>PT2545</name></trkpt>
<trkpt lat="53.289573" lon="-1.944942"><ele>323</ele><time>2023-10-27T13:04:36Z</time><name>PT2546</name></trkpt>
<trkpt lat="53.289581" lon="-1.944912"><ele>321</ele><time>2023-10-27T13:04:39Z</time><name>PT2547</name></trkpt>
<trkpt lat="53.289598" lon="-1.944889"><ele>319</ele><time>2023-10-27T13:04:44Z</time><name>PT2548</name></trkpt>
<trkpt lat="53.289625" lon="-1.944873"><ele>318</ele><time>2023-10-27T13:04:47Z</time><name>PT2549</name></trkpt>
<trkpt lat="53.289653" lon="-1.944827"><ele>318</ele><time>2023-10-27T13:04:50Z</time><name>PT2550</name></trkpt>
<trkpt lat="53.289673" lon="-1.944804"><ele>318</ele><time>2023-10-27T13:04:53Z</time><name>PT2551</name></trkpt>
<trkpt lat="53.289702" lon="-1.944783"><ele>317</ele><time>2023-10-27T13:04:57Z</time><name>PT2552</name></trkpt>
<trkpt lat="53.289729" lon="-1.944761"><ele>316</ele><time>2023-10-27T13:05:00Z</time><name>PT2553</name></trkpt>
<trkpt lat="53.289756" lon="-1.944736"><ele>316</ele><time>2023-10-27T13:05:03Z</time><name>PT2554</name></trkpt>
<trkpt lat="53.289786" lon="-1.944713"><ele>315</ele><time>2023-10-27T13:05:06Z</time><name>PT2555</name></trkpt>
<trkpt lat="53.289817" lon="-1.944674"><ele>314</ele><time>2023-10-27T13:05:11Z</time><name>PT2556</name></trkpt>
<trkpt lat="53.289828" lon="-1.944662"><ele>313</ele><time>2023-10-27T13:05:14Z</time><name>PT2557</name></trkpt>
<trkpt lat="53.289840" lon="-1.944652"><ele>313</ele><time>2023-10-27T13:05:18Z</time><name>PT2558</name></trkpt>
<trkpt lat="53.289860" lon="-1.944640"><ele>313</ele><time>2023-10-27T13:05:22Z</time><name>PT2559</name></trkpt>
<trkpt lat="53.289906" lon="-1.944629"><ele>313</ele><time>2023-10-27T13:05:25Z</time><name>PT2560</name></trkpt>
<trkpt lat="53.289949" lon="-1.944623"><ele>312</ele><time>2023-10-27T13:05:29Z</time><name>PT2561</name></trkpt>
<trkpt lat="53.289986" lon="-1.944607"><ele>312</ele><time>2023-10-27T13:05:32Z</time><name>PT2562</name></trkpt>
<trkpt lat="53.290029" lon="-1.944572"><ele>311</ele><time>2023-10-27T13:05:37Z</time><name>PT2563</name></trkpt>
<trkpt lat="53.290067" lon="-1.944519"><ele>311</ele><time>2023-10-27T13:05:40Z</time><name>PT2564</name></trkpt>
<trkpt lat="53.290109" lon="-1.944480"><ele>310</ele><time>2023-10-27T13:05:44Z</time><name>PT2565</name></trkpt>
<trkpt lat="53.290155" lon="-1.944439"><ele>310</ele><time>2023-10-27T13:05:49Z</time><name>PT2566</name></trkpt>
<trkpt lat="53.290200" lon="-1.944402"><ele>309</ele><time>2023-10-27T13:05:52Z</time><name>PT2567</name></trkpt>
<trkpt lat="53.290231" lon="-1.944382"><ele>309</ele><time>2023-10-27T13:05:55Z</time><name>PT2568</name></trkpt>
<trkpt lat="53.290273" lon="-1.944350"><ele>309</ele><time>2023-10-27T13:05:59Z</time><name>PT2569</name></trkpt>
<trkpt lat="53.290308" lon="-1.944328"><ele>308</ele><time>2023-10-27T13:06:02Z</time><name>PT2570</name></trkpt>
<trkpt lat="53.290341" lon="-1.944311"><ele>308</ele><time>2023-10-27T13:06:05Z</time><name>PT2571</name></trkpt>
<trkpt lat="53.290378" lon="-1.944284"><ele>308</ele><time>2023-10-27T13:06:08Z</time><name>PT2572</name></trkpt>
<trkpt lat="53.290413" lon="-1.944270"><ele>307</ele><time>2023-10-27T13:06:11Z</time><name>PT2573</name></trkpt>
<trkpt lat="53.290450" lon="-1.944235"><ele>306</ele><time>2023-10-27T13:06:16Z</time><name>PT2574</name></trkpt>
<trkpt lat="53.290480" lon="-1.944204"><ele>306</ele><time>2023-10-27T13:06:19Z</time><name>PT2575</name></trkpt>
<trkpt lat="53.290516" lon="-1.944180"><ele>305</ele><time>2023-10-27T13:06:22Z</time><name>PT2576</name></trkpt>
<trkpt lat="53.290563" lon="-1.944161"><ele>305</ele><time>2023-10-27T13:06:25Z</time><name>PT2577</name></trkpt>
<trkpt lat="53.290600" lon="-1.944144"><ele>304</ele><time>2023-10-27T13:06:28Z</time><name>PT2578</name></trkpt>
<trkpt lat="53.290633" lon="-1.944146"><ele>304</ele><time>2023-10-27T13:06:31Z</time><name>PT2579</name></trkpt>
<trkpt lat="53.290682" lon="-1.944142"><ele>303</ele><time>2023-10-27T13:06:35Z</time><name>PT2580</name></trkpt>
<trkpt lat="53.290733" lon="-1.944141"><ele>302</ele><time>2023-10-27T13:06:40Z</time><name>PT2581</name></trkpt>
<trkpt lat="53.290784" lon="-1.944138"><ele>302</ele><time>2023-10-27T13:06:43Z</time><name>PT2582</name></trkpt>
<trkpt lat="53.290835" lon="-1.944134"><ele>301</ele><time>2023-10-27T13:06:47Z</time><name>PT2583</name></trkpt>
<trkpt lat="53.290872" lon="-1.944124"><ele>300</ele><time>2023-10-27T13:06:51Z</time><name>PT2584</name></trkpt>
<trkpt lat="53.290905" lon="-1.944138"><ele>300</ele><time>2023-10-27T13:06:54Z</time><name>PT2585</name></trkpt>
<trkpt lat="53.290948" lon="-1.944136"><ele>300</ele><time>2023-10-27T13:06:57Z</time><name>PT2586</name></trkpt>
<trkpt lat="53.290987" lon="-1.944127"><ele>299</ele><time>2023-10-27T13:07:00Z</time><name>PT2587</name></trkpt>
<trkpt lat="53.291027" lon="-1.944123"><ele>299</ele><time>2023-10-27T13:07:03Z</time><name>PT2588</name></trkpt>
<trkpt lat="53.291080" lon="-1.944120"><ele>298</ele><time>2023-10-27T13:07:07Z</time><name>PT2589</name></trkpt>
<trkpt lat="53.291132" lon="-1.944110"><ele>297</ele><time>2023-10-27T13:07:12Z</time><name>PT2590</name></trkpt>
<trkpt lat="53.291174" lon="-1.944108"><ele>297</ele><time>2023-10-27T13:07:15Z</time><name>PT2591</name></trkpt>
<trkpt lat="53.291226" lon="-1.944100"><ele>296</ele><time>2023-10-27T13:07:18Z</time><name>PT2592</name></trkpt>
<trkpt lat="53.291279" lon="-1.944091"><ele>295</ele><time>2023-10-27T13:07:22Z</time><name>PT2593</name></trkpt>
<trkpt lat="53.291320" lon="-1.944081"><ele>294</ele><time>2023-10-27T13:07:26Z</time><name>PT2594</name></trkpt>
<trkpt lat="53.291370" lon="-1.944075"><ele>293</ele><time>2023-10-27T13:07:30Z</time><name>PT2595</name></trkpt>
<trkpt lat="53.291420" lon="-1.944065"><ele>292</ele><time>2023-10-27T13:07:33Z</time><name>PT2596</name></trkpt>
<trkpt lat="53.291471" lon="-1.944071"><ele>291</ele><time>2023-10-27T13:07:37Z</time><name>PT2597</name></trkpt>
<trkpt lat="53.291504" lon="-1.944086"><ele>291</ele><time>2023-10-27T13:07:40Z</time><name>PT2598</name></trkpt>
<trkpt lat="53.291531" lon="-1.944138"><ele>291</ele><time>2023-10-27T13:07:45Z</time><name>PT2599</name></trkpt>
<trkpt lat="53.291537" lon="-1.944157"><ele>291</ele><time>2023-10-27T13:07:48Z</time><name>PT2600</name></trkpt>
<trkpt lat="53.291557" lon="-1.944196"><ele>291</ele><time>2023-10-27T13:07:51Z</time><name>PT2601</name></trkpt>
<trkpt lat="53.291600" lon="-1.944217"><ele>291</ele><time>2023-10-27T13:07:54Z</time><name>PT2602</name></trkpt>
<trkpt lat="53.291635" lon="-1.944233"><ele>291</ele><time>2023-10-27T13:07:57Z</time><name>PT2603</name></trkpt>
<trkpt lat="53.291671" lon="-1.944241"><ele>291</ele><time>2023-10-27T13:08:00Z</time><name>PT2604</name></trkpt>
<trkpt lat="53.291708" lon="-1.944243"><ele>291</ele><time>2023-10-27T13:08:03Z</time><name>PT2605</name></trkpt>
<trkpt lat="53.291753" lon="-1.944251"><ele>292</ele><time>2023-10-27T13:08:07Z</time><name>PT2606</name></trkpt>
<trkpt lat="53.291788" lon="-1.944255"><ele>292</ele><time>2023-10-27T13:08:10Z</time><name>PT2607</name></trkpt>
<trkpt lat="53.291824" lon="-1.944257"><ele>293</ele><time>2023-10-27T13:08:13Z</time><name>PT2608</name></trkpt>
<trkpt lat="53.291860" lon="-1.944258"><ele>293</ele><time>2023-10-27T13:08:16Z</time><name>PT2609</name></trkpt>
<trkpt lat="53.291908" lon="-1.944255"><ele>293</ele><time>2023-10-27T13:08:21Z</time><name>PT2610</name></trkpt>
<trkpt lat="53.291944" lon="-1.944257"><ele>294</ele><time>2023-10-27T13:08:24Z</time><name>PT2611</name></trkpt>
<trkpt lat="53.291977" lon="-1.944250"><ele>294</ele><time>2023-10-27T13:08:27Z</time><name>PT2612</name></trkpt>
<trkpt lat="53.292013" lon="-1.944258"><ele>294</ele><time>2023-10-27T13:08:30Z</time><name>PT2613</name></trkpt>
<trkpt lat="53.292048" lon="-1.944258"><ele>295</ele><time>2023-10-27T13:08:33Z</time><name>PT2614</name></trkpt>
<trkpt lat="53.292095" lon="-1.944266"><ele>295</ele><time>2023-10-27T13:08:36Z</time><name>PT2615</name></trkpt>
<trkpt lat="53.292128" lon="-1.944263"><ele>296</ele><time>2023-10-27T13:08:39Z</time><name>PT2616</name></trkpt>
<trkpt lat="53.292177" lon="-1.944264"><ele>296</ele><time>2023-10-27T13:08:43Z</time><name>PT2617</name></trkpt>
<trkpt lat="53.292213" lon="-1.944259"><ele>296</ele><time>2023-10-27T13:08:46Z</time><name>PT2618</name></trkpt>
<trkpt lat="53.292249" lon="-1.944258"><ele>296</ele><time>2023-10-27T13:08:49Z</time><name>PT2619</name></trkpt>
<trkpt lat="53.292296" lon="-1.944263"><ele>296</ele><time>2023-10-27T13:08:54Z</time><name>PT2620</name></trkpt>
<trkpt lat="53.292341" lon="-1.944267"><ele>297</ele><time>2023-10-27T13:08:57Z</time><name>PT2621</name></trkpt>
<trkpt lat="53.292374" lon="-1.944269"><ele>297</ele><time>2023-10-27T13:09:00Z</time><name>PT2622</name></trkpt>
<trkpt lat="53.292406" lon="-1.944273"><ele>297</ele><time>2023-10-27T13:09:03Z</time><name>PT2623</name></trkpt>
<trkpt lat="53.292449" lon="-1.944267"><ele>297</ele><time>2023-10-27T13:09:07Z</time><name>PT2624</name></trkpt>
<trkpt lat="53.292490" lon="-1.944268"><ele>298</ele><time>2023-10-27T13:09:12Z</time><name>PT2625</name></trkpt>
<trkpt lat="53.292515" lon="-1.944281"><ele>299</ele><time>2023-10-27T13:09:15Z</time><name>PT2626</name></trkpt>
<trkpt lat="53.292535" lon="-1.944292"><ele>299</ele><time>2023-10-27T13:09:18Z</time><name>PT2627</name></trkpt>
<trkpt lat="53.292520" lon="-1.944323"><ele>300</ele><time>2023-10-27T13:09:21Z</time><name>PT2628</name></trkpt>
<trkpt lat="53.292500" lon="-1.944358"><ele>300</ele><time>2023-10-27T13:09:24Z</time><name>PT2629</name></trkpt>
<trkpt lat="53.292494" lon="-1.944409"><ele>299</ele><time>2023-10-27T13:09:27Z</time><name>PT2630</name></trkpt>
<trkpt lat="53.292507" lon="-1.944462"><ele>299</ele><time>2023-10-27T13:09:30Z</time><name>PT2631</name></trkpt>
<trkpt lat="53.292533" lon="-1.944512"><ele>298</ele><time>2023-10-27T13:09:35Z</time><name>PT2632</name></trkpt>
<trkpt lat="53.292561" lon="-1.944554"><ele>298</ele><time>2023-10-27T13:09:38Z</time><name>PT2633</name></trkpt>
<trkpt lat="53.292572" lon="-1.944579"><ele>297</ele><time>2023-10-27T13:09:41Z</time><name>PT2634</name></trkpt>
<trkpt lat="53.292584" lon="-1.944586"><ele>296</ele><time>2023-10-27T13:09:45Z</time><name>PT2635</name></trkpt>
<trkpt lat="53.292579" lon="-1.944592"><ele>296</ele><time>2023-10-27T13:09:50Z</time><name>PT2636</name></trkpt>
<trkpt lat="53.292594" lon="-1.944578"><ele>295</ele><time>2023-10-27T13:09:53Z</time><name>PT2637</name></trkpt>
<trkpt lat="53.292617" lon="-1.944548"><ele>293</ele><time>2023-10-27T13:09:57Z</time><name>PT2638</name></trkpt>
<trkpt lat="53.292635" lon="-1.944518"><ele>293</ele><time>2023-10-27T13:10:02Z</time><name>PT2639</name></trkpt>
<trkpt lat="53.292661" lon="-1.944535"><ele>292</ele><time>2023-10-27T13:10:05Z</time><name>PT2640</name></trkpt>
<trkpt lat="53.292692" lon="-1.944537"><ele>290</ele><time>2023-10-27T13:10:09Z</time><name>PT2641</name></trkpt>
<trkpt lat="53.292714" lon="-1.944534"><ele>288</ele><time>2023-10-27T13:10:14Z</time><name>PT2642</name></trkpt>
<trkpt lat="53.292725" lon="-1.944543"><ele>287</ele><time>2023-10-27T13:10:17Z</time><name>PT2643</name></trkpt>
<trkpt lat="53.292740" lon="-1.944562"><ele>287</ele><time>2023-10-27T13:10:20Z</time><name>PT2644</name></trkpt>
<trkpt lat="53.292755" lon="-1.944557"><ele>287</ele><time>2023-10-27T13:10:23Z</time><name>PT2645</name></trkpt>
<trkpt lat="53.292755" lon="-1.944557"><ele>287</ele><time>2023-10-27T13:10:27Z</time><name>PT2646</name></trkpt>
<trkpt lat="53.292762" lon="-1.944553"><ele>287</ele><time>2023-10-27T13:10:30Z</time><name>PT2647</name></trkpt>
<trkpt lat="53.292768" lon="-1.944545"><ele>286</ele><time>2023-10-27T13:10:35Z</time><name>PT2648</name></trkpt>
<trkpt lat="53.292768" lon="-1.944544"><ele>286</ele><time>2023-10-27T13:10:38Z</time><name>PT2649</name></trkpt>
<trkpt lat="53.292768" lon="-1.944546"><ele>286</ele><time>2023-10-27T13:10:42Z</time><name>PT2650</name></trkpt>
<trkpt lat="53.292768" lon="-1.944542"><ele>286</ele><time>2023-10-27T13:10:45Z</time><name>PT2651</name></trkpt>
<trkpt lat="53.292789" lon="-1.944519"><ele>285</ele><time>2023-10-27T13:10:50Z</time><name>PT2652</name></trkpt>
<trkpt lat="53.292803" lon="-1.944501"><ele>284</ele><time>2023-10-27T13:10:53Z</time><name>PT2653</name></trkpt>
<trkpt lat="53.292820" lon="-1.944478"><ele>284</ele><time>2023-10-27T13:10:56Z</time><name>PT2654</name></trkpt>
<trkpt lat="53.292847" lon="-1.944457"><ele>283</ele><time>2023-10-27T13:10:59Z</time><name>PT2655</name></trkpt>
<trkpt lat="53.292864" lon="-1.944447"><ele>282</ele><time>2023-10-27T13:11:02Z</time><name>PT2656</name></trkpt>
<trkpt lat="53.292886" lon="-1.944430"><ele>281</ele><time>2023-10-27T13:11:05Z</time><name>PT2657</name></trkpt>
<trkpt lat="53.292919" lon="-1.944396"><ele>280</ele><time>2023-10-27T13:11:10Z</time><name>PT2658</name></trkpt>
<trkpt lat="53.292947" lon="-1.944366"><ele>280</ele><time>2023-10-27T13:11:13Z</time><name>PT2659</name></trkpt>
<trkpt lat="53.292987" lon="-1.944332"><ele>282</ele><time>2023-10-27T13:11:16Z</time><name>PT2660</name></trkpt>
<trkpt lat="53.293012" lon="-1.944312"><ele>282</ele><time>2023-10-27T13:11:20Z</time><name>PT2661</name></trkpt>
<trkpt lat="53.293049" lon="-1.944296"><ele>281</ele><time>2023-10-27T13:11:25Z</time><name>PT2662</name></trkpt>
<trkpt lat="53.293072" lon="-1.944280"><ele>280</ele><time>2023-10-27T13:11:28Z</time><name>PT2663</name></trkpt>
<trkpt lat="53.293093" lon="-1.944259"><ele>278</ele><time>2023-10-27T13:11:31Z</time><name>PT2664</name></trkpt>
<trkpt lat="53.293138" lon="-1.944239"><ele>278</ele><time>2023-10-27T13:11:34Z</time><name>PT2665</name></trkpt>
<trkpt lat="53.293168" lon="-1.944234"><ele>277</ele><time>2023-10-27T13:11:37Z</time><name>PT2666</name></trkpt>
<trkpt lat="53.293208" lon="-1.944214"><ele>276</ele><time>2023-10-27T13:11:41Z</time><name>PT2667</name></trkpt>
<trkpt lat="53.293243" lon="-1.944207"><ele>273</ele><time>2023-10-27T13:11:44Z</time><name>PT2668</name></trkpt>
<trkpt lat="53.293286" lon="-1.944193"><ele>272</ele><time>2023-10-27T13:11:49Z</time><name>PT2669</name></trkpt>
<trkpt lat="53.293338" lon="-1.944178"><ele>271</ele><time>2023-10-27T13:11:52Z</time><name>PT2670</name></trkpt>
<trkpt lat="53.293382" lon="-1.944166"><ele>270</ele><time>2023-10-27T13:11:57Z</time><name>PT2671</name></trkpt>
<trkpt lat="53.293413" lon="-1.944156"><ele>268</ele><time>2023-10-27T13:12:00Z</time><name>PT2672</name></trkpt>
<trkpt lat="53.293450" lon="-1.944145"><ele>267</ele><time>2023-10-27T13:12:03Z</time><name>PT2673</name></trkpt>
<trkpt lat="53.293492" lon="-1.944128"><ele>266</ele><time>2023-10-27T13:12:07Z</time><name>PT2674</name></trkpt>
<trkpt lat="53.293536" lon="-1.944128"><ele>264</ele><time>2023-10-27T13:12:12Z</time><name>PT2675</name></trkpt>
<trkpt lat="53.293595" lon="-1.944128"><ele>265</ele><time>2023-10-27T13:12:15Z</time><name>PT2676</name></trkpt>
<trkpt lat="53.293632" lon="-1.944129"><ele>264</ele><time>2023-10-27T13:12:18Z</time><name>PT2677</name></trkpt>
<trkpt lat="53.293690" lon="-1.944125"><ele>263</ele><time>2023-10-27T13:12:23Z</time><name>PT2678</name></trkpt>
<trkpt lat="53.293728" lon="-1.944124"><ele>262</ele><time>2023-10-27T13:12:26Z</time><name>PT2679</name></trkpt>
<trkpt lat="53.293762" lon="-1.944135"><ele>262</ele><time>2023-10-27T13:12:29Z</time><name>PT2680</name></trkpt>
<trkpt lat="53.293795" lon="-1.944135"><ele>261</ele><time>2023-10-27T13:12:32Z</time><name>PT2681</name></trkpt>
<trkpt lat="53.293821" lon="-1.944154"><ele>260</ele><time>2023-10-27T13:12:35Z</time><name>PT2682</name></trkpt>
<trkpt lat="53.293840" lon="-1.944188"><ele>257</ele><time>2023-10-27T13:12:39Z</time><name>PT2683</name></trkpt>
<trkpt lat="53.293877" lon="-1.944213"><ele>259</ele><time>2023-10-27T13:12:42Z</time><name>PT2684</name></trkpt>
<trkpt lat="53.293918" lon="-1.944240"><ele>260</ele><time>2023-10-27T13:12:45Z</time><name>PT2685</name></trkpt>
<trkpt lat="53.293944" lon="-1.944274"><ele>259</ele><time>2023-10-27T13:12:48Z</time><name>PT2686</name></trkpt>
<trkpt lat="53.293988" lon="-1.944318"><ele>260</ele><time>2023-10-27T13:12:53Z</time><name>PT2687</name></trkpt>
<trkpt lat="53.294019" lon="-1.944347"><ele>259</ele><time>2023-10-27T13:12:56Z</time><name>PT2688</name></trkpt>
<trkpt lat="53.294062" lon="-1.944385"><ele>260</ele><time>2023-10-27T13:13:01Z</time><name>PT2689</name></trkpt>
<trkpt lat="53.294093" lon="-1.944406"><ele>259</ele><time>2023-10-27T13:13:04Z</time><name>PT2690</name></trkpt>
<trkpt lat="53.294123" lon="-1.944423"><ele>259</ele><time>2023-10-27T13:13:07Z</time><name>PT2691</name></trkpt>
<trkpt lat="53.294202" lon="-1.944430"><ele>262</ele><time>2023-10-27T13:13:10Z</time><name>PT2692</name></trkpt>
<trkpt lat="53.294246" lon="-1.944416"><ele>260</ele><time>2023-10-27T13:13:14Z</time><name>PT2693</name></trkpt>
<trkpt lat="53.294292" lon="-1.944390"><ele>259</ele><time>2023-10-27T13:13:19Z</time><name>PT2694</name></trkpt>
<trkpt lat="53.294326" lon="-1.944362"><ele>260</ele><time>2023-10-27T13:13:22Z</time><name>PT2695</name></trkpt>
<trkpt lat="53.294361" lon="-1.944320"><ele>258</ele><time>2023-10-27T13:13:25Z</time><name>PT2696</name></trkpt>
<trkpt lat="53.294399" lon="-1.944274"><ele>254</ele><time>2023-10-27T13:13:29Z</time><name>PT2697</name></trkpt>
<trkpt lat="53.294447" lon="-1.944238"><ele>255</ele><time>2023-10-27T13:13:32Z</time><name>PT2698</name></trkpt>
<trkpt lat="53.294487" lon="-1.944198"><ele>255</ele><time>2023-10-27T13:13:36Z</time><name>PT2699</name></trkpt>
<trkpt lat="53.294519" lon="-1.944157"><ele>254</ele><time>2023-10-27T13:13:39Z</time><name>PT2700</name></trkpt>
<trkpt lat="53.294557" lon="-1.944123"><ele>255</ele><time>2023-10-27T13:13:42Z</time><name>PT2701</name></trkpt>
<trkpt lat="53.294577" lon="-1.944130"><ele>257</ele><time>2023-10-27T13:13:45Z</time><name>PT2702</name></trkpt>
<trkpt lat="53.294586" lon="-1.944130"><ele>258</ele><time>2023-10-27T13:13:48Z</time><name>PT2703</name></trkpt>
<trkpt lat="53.294584" lon="-1.944164"><ele>259</ele><time>2023-10-27T13:13:52Z</time><name>PT2704</name></trkpt>
<trkpt lat="53.294582" lon="-1.944177"><ele>258</ele><time>2023-10-27T13:13:55Z</time><name>PT2705</name></trkpt>
<trkpt lat="53.294585" lon="-1.944211"><ele>259</ele><time>2023-10-27T13:14:00Z</time><name>PT2706</name></trkpt>
<trkpt lat="53.294604" lon="-1.944262"><ele>261</ele><time>2023-10-27T13:14:03Z</time><name>PT2707</name></trkpt>
<trkpt lat="53.294628" lon="-1.944281"><ele>261</ele><time>2023-10-27T13:14:07Z</time><name>PT2708</name></trkpt>
<trkpt lat="53.294640" lon="-1.944300"><ele>261</ele><time>2023-10-27T13:14:10Z</time><name>PT2709</name></trkpt>
<trkpt lat="53.294688" lon="-1.944376"><ele>262</ele><time>2023-10-27T13:14:15Z</time><name>PT2710</name></trkpt>
<trkpt lat="53.294721" lon="-1.944438"><ele>259</ele><time>2023-10-27T13:14:18Z</time><name>PT2711</name></trkpt>
<trkpt lat="53.294744" lon="-1.944494"><ele>258</ele><time>2023-10-27T13:14:22Z</time><name>PT2712</name></trkpt>
<trkpt lat="53.294762" lon="-1.944558"><ele>257</ele><time>2023-10-27T13:14:27Z</time><name>PT2713</name></trkpt>
<trkpt lat="53.294777" lon="-1.944621"><ele>257</ele><time>2023-10-27T13:14:30Z</time><name>PT2714</name></trkpt>
<trkpt lat="53.294796" lon="-1.944673"><ele>257</ele><time>2023-10-27T13:14:33Z</time><name>PT2715</name></trkpt>
<trkpt lat="53.294821" lon="-1.944711"><ele>258</ele><time>2023-10-27T13:14:36Z</time><name>PT2716</name></trkpt>
<trkpt lat="53.294836" lon="-1.944736"><ele>259</ele><time>2023-10-27T13:14:39Z</time><name>PT2717</name></trkpt>
<trkpt lat="53.294861" lon="-1.944787"><ele>260</ele><time>2023-10-27T13:14:42Z</time><name>PT2718</name></trkpt>
<trkpt lat="53.294892" lon="-1.944839"><ele>259</ele><time>2023-10-27T13:14:46Z</time><name>PT2719</name></trkpt>
<trkpt lat="53.294924" lon="-1.944870"><ele>257</ele><time>2023-10-27T13:14:51Z</time><name>PT2720</name></trkpt>
<trkpt lat="53.294958" lon="-1.944917"><ele>257</ele><time>2023-10-27T13:14:54Z</time><name>PT2721</name></trkpt>
<trkpt lat="53.294996" lon="-1.944956"><ele>259</ele><time>2023-10-27T13:14:58Z</time><name>PT2722</name></trkpt>
<trkpt lat="53.295035" lon="-1.944997"><ele>259</ele><time>2023-10-27T13:15:03Z</time><name>PT2723</name></trkpt>
<trkpt lat="53.295066" lon="-1.945026"><ele>260</ele><time>2023-10-27T13:15:06Z</time><name>PT2724</name></trkpt>
<trkpt lat="53.295096" lon="-1.945073"><ele>259</ele><time>2023-10-27T13:15:09Z</time><name>PT2725</name></trkpt>
<trkpt lat="53.295122" lon="-1.945107"><ele>260</ele><time>2023-10-27T13:15:12Z</time><name>PT2726</name></trkpt>
<trkpt lat="53.295153" lon="-1.945133"><ele>260</ele><time>2023-10-27T13:15:15Z</time><name>PT2727</name></trkpt>
<trkpt lat="53.295184" lon="-1.945166"><ele>260</ele><time>2023-10-27T13:15:18Z</time><name>PT2728</name></trkpt>
<trkpt lat="53.295223" lon="-1.945209"><ele>260</ele><time>2023-10-27T13:15:23Z</time><name>PT2729</name></trkpt>
<trkpt lat="53.295252" lon="-1.945253"><ele>260</ele><time>2023-10-27T13:15:26Z</time><name>PT2730</name></trkpt>
<trkpt lat="53.295289" lon="-1.945313"><ele>261</ele><time>2023-10-27T13:15:29Z</time><name>PT2731</name></trkpt>
<trkpt lat="53.295317" lon="-1.945349"><ele>261</ele><time>2023-10-27T13:15:32Z</time><name>PT2732</name></trkpt>
<trkpt lat="53.295334" lon="-1.945389"><ele>260</ele><time>2023-10-27T13:15:35Z</time><name>PT2733</name></trkpt>
<trkpt lat="53.295357" lon="-1.945453"><ele>260</ele><time>2023-10-27T13:15:39Z</time><name>PT2734</name></trkpt>
<trkpt lat="53.295370" lon="-1.945511"><ele>261</ele><time>2023-10-27T13:15:42Z</time><name>PT2735</name></trkpt>
<trkpt lat="53.295375" lon="-1.945573"><ele>260</ele><time>2023-10-27T13:15:47Z</time><name>PT2736</name></trkpt>
<trkpt lat="53.295366" lon="-1.945613"><ele>260</ele><time>2023-10-27T13:15:50Z</time><name>PT2737</name></trkpt>
<trkpt lat="53.295368" lon="-1.945651"><ele>260</ele><time>2023-10-27T13:15:53Z</time><name>PT2738</name></trkpt>
<trkpt lat="53.295362" lon="-1.945691"><ele>259</ele><time>2023-10-27T13:15:56Z</time><name>PT2739</name></trkpt>
<trkpt lat="53.295340" lon="-1.945743"><ele>261</ele><time>2023-10-27T13:16:01Z</time><name>PT2740</name></trkpt>
<trkpt lat="53.295324" lon="-1.945760"><ele>261</ele><time>2023-10-27T13:16:04Z</time><name>PT2741</name></trkpt>
<trkpt lat="53.295322" lon="-1.945807"><ele>261</ele><time>2023-10-27T13:16:07Z</time><name>PT2742</name></trkpt>
<trkpt lat="53.295321" lon="-1.945863"><ele>260</ele><time>2023-10-27T13:16:11Z</time><name>PT2743</name></trkpt>
<trkpt lat="53.295329" lon="-1.945893"><ele>259</ele><time>2023-10-27T13:16:14Z</time><name>PT2744</name></trkpt>
<trkpt lat="53.295329" lon="-1.945907"><ele>259</ele><time>2023-10-27T13:16:17Z</time><name>PT2745</name></trkpt>
<trkpt lat="53.295328" lon="-1.945934"><ele>258</ele><time>2023-10-27T13:16:20Z</time><name>PT2746</name></trkpt>
<trkpt lat="53.295326" lon="-1.945942"><ele>258</ele><time>2023-10-27T13:16:25Z</time><name>PT2747</name></trkpt>
<trkpt lat="53.295336" lon="-1.945966"><ele>258</ele><time>2023-10-27T13:16:28Z</time><name>PT2748</name></trkpt>
<trkpt lat="53.295367" lon="-1.945996"><ele>257</ele><time>2023-10-27T13:16:31Z</time><name>PT2749</name></trkpt>
<trkpt lat="53.295400" lon="-1.946020"><ele>257</ele><time>2023-10-27T13:16:34Z</time><name>PT2750</name></trkpt>
<trkpt lat="53.295433" lon="-1.946062"><ele>257</ele><time>2023-10-27T13:16:39Z</time><name>PT2751</name></trkpt>
<trkpt lat="53.295451" lon="-1.946101"><ele>257</ele><time>2023-10-27T13:16:42Z</time><name>PT2752</name></trkpt>
<trkpt lat="53.295473" lon="-1.946150"><ele>258</ele><time>2023-10-27T13:16:45Z</time><name>PT2753</name></trkpt>
<trkpt lat="53.295508" lon="-1.946186"><ele>259</ele><time>2023-10-27T13:16:49Z</time><name>PT2754</name></trkpt>
<trkpt lat="53.295540" lon="-1.946215"><ele>260</ele><time>2023-10-27T13:16:52Z</time><name>PT2755</name></trkpt>
<trkpt lat="53.295571" lon="-1.946237"><ele>261</ele><time>2023-10-27T13:16:55Z</time><name>PT2756</name></trkpt>
<trkpt lat="53.295605" lon="-1.946280"><ele>261</ele><time>2023-10-27T13:17:00Z</time><name>PT2757</name></trkpt>
<trkpt lat="53.295631" lon="-1.946311"><ele>262</ele><time>2023-10-27T13:17:03Z</time><name>PT2758</name></trkpt>
<trkpt lat="53.295659" lon="-1.946356"><ele>262</ele><time>2023-10-27T13:17:06Z</time><name>PT2759</name></trkpt>
<trkpt lat="53.295677" lon="-1.946388"><ele>263</ele><time>2023-10-27T13:17:09Z</time><name>PT2760</name></trkpt>
<trkpt lat="53.295698" lon="-1.946417"><ele>263</ele><time>2023-10-27T13:17:12Z</time><name>PT2761</name></trkpt>
<trkpt lat="53.295719" lon="-1.946446"><ele>264</ele><time>2023-10-27T13:17:15Z</time><name>PT2762</name></trkpt>
<trkpt lat="53.295748" lon="-1.946493"><ele>263</ele><time>2023-10-27T13:17:19Z</time><name>PT2763</name></trkpt>
<trkpt lat="53.295770" lon="-1.946520"><ele>264</ele><time>2023-10-27T13:17:23Z</time><name>PT2764</name></trkpt>
<trkpt lat="53.295793" lon="-1.946553"><ele>264</ele><time>2023-10-27T13:17:26Z</time><name>PT2765</name></trkpt>
<trkpt lat="53.295816" lon="-1.946588"><ele>265</ele><time>2023-10-27T13:17:29Z</time><name>PT2766</name></trkpt>
<trkpt lat="53.295844" lon="-1.946624"><ele>265</ele><time>2023-10-27T13:17:32Z</time><name>PT2767</name></trkpt>
<trkpt lat="53.295867" lon="-1.946645"><ele>265</ele><time>2023-10-27T13:17:35Z</time><name>PT2768</name></trkpt>
<trkpt lat="53.295904" lon="-1.946682"><ele>266</ele><time>2023-10-27T13:17:39Z</time><name>PT2769</name></trkpt>
<trkpt lat="53.295935" lon="-1.946707"><ele>266</ele><time>2023-10-27T13:17:42Z</time><name>PT2770</name></trkpt>
<trkpt lat="53.295961" lon="-1.946735"><ele>266</ele><time>2023-10-27T13:17:45Z</time><name>PT2771</name></trkpt>
<trkpt lat="53.295997" lon="-1.946771"><ele>266</ele><time>2023-10-27T13:17:50Z</time><name>PT2772</name></trkpt>
<trkpt lat="53.296036" lon="-1.946808"><ele>266</ele><time>2023-10-27T13:17:53Z</time><name>PT2773</name></trkpt>
<trkpt lat="53.296077" lon="-1.946840"><ele>266</ele><time>2023-10-27T13:17:57Z</time><name>PT2774</name></trkpt>
<trkpt lat="53.296123" lon="-1.946872"><ele>267</ele><time>2023-10-27T13:18:02Z</time><name>PT2775</name></trkpt>
<trkpt lat="53.296166" lon="-1.946908"><ele>268</ele><time>2023-10-27T13:18:05Z</time><name>PT2776</name></trkpt>
<trkpt lat="53.296197" lon="-1.946921"><ele>268</ele><time>2023-10-27T13:18:08Z</time><name>PT2777</name></trkpt>
<trkpt lat="53.296227" lon="-1.946950"><ele>268</ele><time>2023-10-27T13:18:11Z</time><name>PT2778</name></trkpt>
<trkpt lat="53.296255" lon="-1.946962"><ele>268</ele><time>2023-10-27T13:18:14Z</time><name>PT2779</name></trkpt>
<trkpt lat="53.296290" lon="-1.946974"><ele>269</ele><time>2023-10-27T13:18:19Z</time><name>PT2780</name></trkpt>
<trkpt lat="53.296326" lon="-1.946998"><ele>269</ele><time>2023-10-27T13:18:22Z</time><name>PT2781</name></trkpt>
<trkpt lat="53.296354" lon="-1.947010"><ele>269</ele><time>2023-10-27T13:18:25Z</time><name>PT2782</name></trkpt>
<trkpt lat="53.296391" lon="-1.947029"><ele>269</ele><time>2023-10-27T13:18:29Z</time><name>PT2783</name></trkpt>
<trkpt lat="53.296399" lon="-1.947030"><ele>269</ele><time>2023-10-27T13:18:32Z</time><name>PT2784</name></trkpt>
<trkpt lat="53.296399" lon="-1.947029"><ele>270</ele><time>2023-10-27T13:18:35Z</time><name>PT2785</name></trkpt>
<trkpt lat="53.296426" lon="-1.947042"><ele>269</ele><time>2023-10-27T13:18:48Z</time><name>PT2786</name></trkpt>
<trkpt lat="53.296460" lon="-1.947073"><ele>269</ele><time>2023-10-27T13:18:51Z</time><name>PT2787</name></trkpt>
<trkpt lat="53.296502" lon="-1.947114"><ele>269</ele><time>2023-10-27T13:18:55Z</time><name>PT2788</name></trkpt>
<trkpt lat="53.296536" lon="-1.947141"><ele>269</ele><time>2023-10-27T13:18:58Z</time><name>PT2789</name></trkpt>
<trkpt lat="53.296568" lon="-1.947167"><ele>268</ele><time>2023-10-27T13:19:01Z</time><name>PT2790</name></trkpt>
<trkpt lat="53.296598" lon="-1.947197"><ele>268</ele><time>2023-10-27T13:19:05Z</time><name>PT2791</name></trkpt>
<trkpt lat="53.296628" lon="-1.947230"><ele>268</ele><time>2023-10-27T13:19:08Z</time><name>PT2792</name></trkpt>
<trkpt lat="53.296675" lon="-1.947263"><ele>268</ele><time>2023-10-27T13:19:11Z</time><name>PT2793</name></trkpt>
<trkpt lat="53.296717" lon="-1.947282"><ele>269</ele><time>2023-10-27T13:19:15Z</time><name>PT2794</name></trkpt>
<trkpt lat="53.296735" lon="-1.947303"><ele>269</ele><time>2023-10-27T13:19:18Z</time><name>PT2795</name></trkpt>
<trkpt lat="53.296753" lon="-1.947330"><ele>269</ele><time>2023-10-27T13:19:23Z</time><name>PT2796</name></trkpt>
<trkpt lat="53.296754" lon="-1.947350"><ele>269</ele><time>2023-10-27T13:19:26Z</time><name>PT2797</name></trkpt>
<trkpt lat="53.296756" lon="-1.947359"><ele>269</ele><time>2023-10-27T13:19:29Z</time><name>PT2798</name></trkpt>
<trkpt lat="53.296756" lon="-1.947383"><ele>269</ele><time>2023-10-27T13:19:33Z</time><name>PT2799</name></trkpt>
<trkpt lat="53.296766" lon="-1.947418"><ele>270</ele><time>2023-10-27T13:19:38Z</time><name>PT2800</name></trkpt>
<trkpt lat="53.296784" lon="-1.947446"><ele>271</ele><time>2023-10-27T13:19:41Z</time><name>PT2801</name></trkpt>
<trkpt lat="53.296807" lon="-1.947488"><ele>271</ele><time>2023-10-27T13:19:44Z</time><name>PT2802</name></trkpt>
<trkpt lat="53.296830" lon="-1.947529"><ele>271</ele><time>2023-10-27T13:19:48Z</time><name>PT2803</name></trkpt>
<trkpt lat="53.296851" lon="-1.947549"><ele>271</ele><time>2023-10-27T13:19:51Z</time><name>PT2804</name></trkpt>
<trkpt lat="53.296872" lon="-1.947566"><ele>271</ele><time>2023-10-27T13:19:55Z</time><name>PT2805</name></trkpt>
<trkpt lat="53.296891" lon="-1.947614"><ele>271</ele><time>2023-10-27T13:19:58Z</time><name>PT2806</name></trkpt>
<trkpt lat="53.296913" lon="-1.947651"><ele>271</ele><time>2023-10-27T13:20:01Z</time><name>PT2807</name></trkpt>
<trkpt lat="53.296933" lon="-1.947686"><ele>272</ele><time>2023-10-27T13:20:04Z</time><name>PT2808</name></trkpt>
<trkpt lat="53.296956" lon="-1.947742"><ele>272</ele><time>2023-10-27T13:20:08Z</time><name>PT2809</name></trkpt>
<trkpt lat="53.296972" lon="-1.947792"><ele>272</ele><time>2023-10-27T13:20:11Z</time><name>PT2810</name></trkpt>
<trkpt lat="53.296999" lon="-1.947849"><ele>272</ele><time>2023-10-27T13:20:16Z</time><name>PT2811</name></trkpt>
<trkpt lat="53.297030" lon="-1.947902"><ele>273</ele><time>2023-10-27T13:20:19Z</time><name>PT2812</name></trkpt>
<trkpt lat="53.297049" lon="-1.947941"><ele>273</ele><time>2023-10-27T13:20:22Z</time><name>PT2813</name></trkpt>
<trkpt lat="53.297064" lon="-1.947984"><ele>272</ele><time>2023-10-27T13:20:25Z</time><name>PT2814</name></trkpt>
<trkpt lat="53.297080" lon="-1.948024"><ele>273</ele><time>2023-10-27T13:20:29Z</time><name>PT2815</name></trkpt>
<trkpt lat="53.297108" lon="-1.948064"><ele>273</ele><time>2023-10-27T13:20:33Z</time><name>PT2816</name></trkpt>
<trkpt lat="53.297123" lon="-1.948099"><ele>273</ele><time>2023-10-27T13:20:36Z</time><name>PT2817</name></trkpt>
<trkpt lat="53.297149" lon="-1.948155"><ele>273</ele><time>2023-10-27T13:20:39Z</time><name>PT2818</name></trkpt>
<trkpt lat="53.297171" lon="-1.948211"><ele>273</ele><time>2023-10-27T13:20:43Z</time><name>PT2819</name></trkpt>
<trkpt lat="53.297191" lon="-1.948250"><ele>273</ele><time>2023-10-27T13:20:46Z</time><name>PT2820</name></trkpt>
<trkpt lat="53.297211" lon="-1.948316"><ele>274</ele><time>2023-10-27T13:20:51Z</time><name>PT2821</name></trkpt>
<trkpt lat="53.297224" lon="-1.948370"><ele>274</ele><time>2023-10-27T13:20:54Z</time><name>PT2822</name></trkpt>
<trkpt lat="53.297238" lon="-1.948401"><ele>274</ele><time>2023-10-27T13:20:57Z</time><name>PT2823</name></trkpt>
<trkpt lat="53.297256" lon="-1.948447"><ele>275</ele><time>2023-10-27T13:21:00Z</time><name>PT2824</name></trkpt>
<trkpt lat="53.297272" lon="-1.948481"><ele>275</ele><time>2023-10-27T13:21:03Z</time><name>PT2825</name></trkpt>
<trkpt lat="53.297293" lon="-1.948528"><ele>275</ele><time>2023-10-27T13:21:07Z</time><name>PT2826</name></trkpt>
<trkpt lat="53.297317" lon="-1.948577"><ele>275</ele><time>2023-10-27T13:21:12Z</time><name>PT2827</name></trkpt>
<trkpt lat="53.297333" lon="-1.948610"><ele>276</ele><time>2023-10-27T13:21:15Z</time><name>PT2828</name></trkpt>
<trkpt lat="53.297354" lon="-1.948648"><ele>276</ele><time>2023-10-27T13:21:18Z</time><name>PT2829</name></trkpt>
<trkpt lat="53.297370" lon="-1.948683"><ele>277</ele><time>2023-10-27T13:21:21Z</time><name>PT2830</name></trkpt>
<trkpt lat="53.297385" lon="-1.948737"><ele>277</ele><time>2023-10-27T13:21:26Z</time><name>PT2831</name></trkpt>
<trkpt lat="53.297396" lon="-1.948774"><ele>278</ele><time>2023-10-27T13:21:29Z</time><name>PT2832</name></trkpt>
<trkpt lat="53.297406" lon="-1.948811"><ele>278</ele><time>2023-10-27T13:21:32Z</time><name>PT2833</name></trkpt>
<trkpt lat="53.297424" lon="-1.948856"><ele>279</ele><time>2023-10-27T13:21:35Z</time><name>PT2834</name></trkpt>
<trkpt lat="53.297436" lon="-1.948871"><ele>279</ele><time>2023-10-27T13:21:38Z</time><name>PT2835</name></trkpt>
<trkpt lat="53.297454" lon="-1.948897"><ele>280</ele><time>2023-10-27T13:21:43Z</time><name>PT2836</name></trkpt>
<trkpt lat="53.297470" lon="-1.948924"><ele>281</ele><time>2023-10-27T13:21:46Z</time><name>PT2837</name></trkpt>
<trkpt lat="53.297497" lon="-1.948958"><ele>281</ele><time>2023-10-27T13:21:49Z</time><name>PT2838</name></trkpt>
<trkpt lat="53.297511" lon="-1.948991"><ele>281</ele><time>2023-10-27T13:21:52Z</time><name>PT2839</name></trkpt>
<trkpt lat="53.297530" lon="-1.949033"><ele>281</ele><time>2023-10-27T13:21:56Z</time><name>PT2840</name></trkpt>
<trkpt lat="53.297546" lon="-1.949063"><ele>280</ele><time>2023-10-27T13:21:59Z</time><name>PT2841</name></trkpt>
<trkpt lat="53.297554" lon="-1.949073"><ele>281</ele><time>2023-10-27T13:22:02Z</time><name>PT2842</name></trkpt>
<trkpt lat="53.297554" lon="-1.949073"><ele>281</ele><time>2023-10-27T13:22:07Z</time><name>PT2843</name></trkpt>
<trkpt lat="53.297586" lon="-1.949095"><ele>281</ele><time>2023-10-27T13:22:10Z</time><name>PT2844</name></trkpt>
<trkpt lat="53.297618" lon="-1.949124"><ele>281</ele><time>2023-10-27T13:22:14Z</time><name>PT2845</name></trkpt>
<trkpt lat="53.297628" lon="-1.949164"><ele>281</ele><time>2023-10-27T13:22:17Z</time><name>PT2846</name></trkpt>
<trkpt lat="53.297645" lon="-1.949208"><ele>282</ele><time>2023-10-27T13:22:22Z</time><name>PT2847</name></trkpt>
<trkpt lat="53.297656" lon="-1.949240"><ele>283</ele><time>2023-10-27T13:22:25Z</time><name>PT2848</name></trkpt>
<trkpt lat="53.297675" lon="-1.949282"><ele>283</ele><time>2023-10-27T13:22:28Z</time><name>PT2849</name></trkpt>
<trkpt lat="53.297689" lon="-1.949315"><ele>283</ele><time>2023-10-27T13:22:31Z</time><name>PT2850</name></trkpt>
<trkpt lat="53.297707" lon="-1.949358"><ele>284</ele><time>2023-10-27T13:22:35Z</time><name>PT2851</name></trkpt>
<trkpt lat="53.297721" lon="-1.949382"><ele>285</ele><time>2023-10-27T13:22:39Z</time><name>PT2852</name></trkpt>
<trkpt lat="53.297736" lon="-1.949415"><ele>286</ele><time>2023-10-27T13:22:42Z</time><name>PT2853</name></trkpt>
<trkpt lat="53.297759" lon="-1.949439"><ele>288</ele><time>2023-10-27T13:22:46Z</time><name>PT2854</name></trkpt>
<trkpt lat="53.297782" lon="-1.949451"><ele>290</ele><time>2023-10-27T13:22:49Z</time><name>PT2855</name></trkpt>
<trkpt lat="53.297802" lon="-1.949471"><ele>291</ele><time>2023-10-27T13:22:53Z</time><name>PT2856</name></trkpt>
<trkpt lat="53.297821" lon="-1.949495"><ele>291</ele><time>2023-10-27T13:22:56Z</time><name>PT2857</name></trkpt>
<trkpt lat="53.297847" lon="-1.949520"><ele>292</ele><time>2023-10-27T13:22:59Z</time><name>PT2858</name></trkpt>
<trkpt lat="53.297866" lon="-1.949536"><ele>293</ele><time>2023-10-27T13:23:02Z</time><name>PT2859</name></trkpt>
<trkpt lat="53.297890" lon="-1.949560"><ele>294</ele><time>2023-10-27T13:23:06Z</time><name>PT2860</name></trkpt>
<trkpt lat="53.297910" lon="-1.949598"><ele>294</ele><time>2023-10-27T13:23:11Z</time><name>PT2861</name></trkpt>
<trkpt lat="53.297925" lon="-1.949627"><ele>295</ele><time>2023-10-27T13:23:14Z</time><name>PT2862</name></trkpt>
<trkpt lat="53.297939" lon="-1.949665"><ele>296</ele><time>2023-10-27T13:23:17Z</time><name>PT2863</name></trkpt>
<trkpt lat="53.297965" lon="-1.949698"><ele>297</ele><time>2023-10-27T13:23:21Z</time><name>PT2864</name></trkpt>
<trkpt lat="53.297984" lon="-1.949714"><ele>297</ele><time>2023-10-27T13:23:24Z</time><name>PT2865</name></trkpt>
<trkpt lat="53.297995" lon="-1.949744"><ele>298</ele><time>2023-10-27T13:23:27Z</time><name>PT2866</name></trkpt>
<trkpt lat="53.298008" lon="-1.949770"><ele>299</ele><time>2023-10-27T13:23:31Z</time><name>PT2867</name></trkpt>
<trkpt lat="53.298026" lon="-1.949797"><ele>300</ele><time>2023-10-27T13:23:34Z</time><name>PT2868</name></trkpt>
<trkpt lat="53.298051" lon="-1.949813"><ele>300</ele><time>2023-10-27T13:23:37Z</time><name>PT2869</name></trkpt>
<trkpt lat="53.298082" lon="-1.949838"><ele>300</ele><time>2023-10-27T13:23:41Z</time><name>PT2870</name></trkpt>
<trkpt lat="53.298106" lon="-1.949855"><ele>300</ele><time>2023-10-27T13:23:44Z</time><name>PT2871</name></trkpt>
<trkpt lat="53.298131" lon="-1.949869"><ele>301</ele><time>2023-10-27T13:23:48Z</time><name>PT2872</name></trkpt>
<trkpt lat="53.298155" lon="-1.949877"><ele>301</ele><time>2023-10-27T13:23:51Z</time><name>PT2873</name></trkpt>
<trkpt lat="53.298189" lon="-1.949892"><ele>302</ele><time>2023-10-27T13:23:54Z</time><name>PT2874</name></trkpt>
<trkpt lat="53.298222" lon="-1.949919"><ele>303</ele><time>2023-10-27T13:23:59Z</time><name>PT2875</name></trkpt>
<trkpt lat="53.298245" lon="-1.949934"><ele>303</ele><time>2023-10-27T13:24:02Z</time><name>PT2876</name></trkpt>
<trkpt lat="53.298278" lon="-1.949956"><ele>303</ele><time>2023-10-27T13:24:05Z</time><name>PT2877</name></trkpt>
<trkpt lat="53.298306" lon="-1.949981"><ele>305</ele><time>2023-10-27T13:24:09Z</time><name>PT2878</name></trkpt>
<trkpt lat="53.298335" lon="-1.950000"><ele>305</ele><time>2023-10-27T13:24:14Z</time><name>PT2879</name></trkpt>
<trkpt lat="53.298362" lon="-1.950019"><ele>306</ele><time>2023-10-27T13:24:17Z</time><name>PT2880</name></trkpt>
<trkpt lat="53.298386" lon="-1.950034"><ele>307</ele><time>2023-10-27T13:24:20Z</time><name>PT2881</name></trkpt>
<trkpt lat="53.298420" lon="-1.950042"><ele>307</ele><time>2023-10-27T13:24:25Z</time><name>PT2882</name></trkpt>
<trkpt lat="53.298448" lon="-1.950054"><ele>308</ele><time>2023-10-27T13:24:28Z</time><name>PT2883</name></trkpt>
<trkpt lat="53.298473" lon="-1.950068"><ele>308</ele><time>2023-10-27T13:24:31Z</time><name>PT2884</name></trkpt>
<trkpt lat="53.298494" lon="-1.950096"><ele>309</ele><time>2023-10-27T13:24:35Z</time><name>PT2885</name></trkpt>
<trkpt lat="53.298494" lon="-1.950108"><ele>310</ele><time>2023-10-27T13:24:40Z</time><name>PT2886</name></trkpt>
<trkpt lat="53.298479" lon="-1.950103"><ele>310</ele><time>2023-10-27T13:24:43Z</time><name>PT2887</name></trkpt>
<trkpt lat="53.298484" lon="-1.950105"><ele>310</ele><time>2023-10-27T13:24:47Z</time><name>PT2888</name></trkpt>
<trkpt lat="53.298484" lon="-1.950104"><ele>310</ele><time>2023-10-27T13:24:50Z</time><name>PT2889</name></trkpt>
<trkpt lat="53.298484" lon="-1.950100"><ele>310</ele><time>2023-10-27T13:24:55Z</time><name>PT2890</name></trkpt>
<trkpt lat="53.298485" lon="-1.950094"><ele>310</ele><time>2023-10-27T13:24:58Z</time><name>PT2891</name></trkpt>
<trkpt lat="53.298487" lon="-1.950092"><ele>311</ele><time>2023-10-27T13:25:01Z</time><name>PT2892</name></trkpt>
<trkpt lat="53.298489" lon="-1.950087"><ele>311</ele><time>2023-10-27T13:25:05Z</time><name>PT2893</name></trkpt>
<trkpt lat="53.298488" lon="-1.950087"><ele>310</ele><time>2023-10-27T13:25:12Z</time><name>PT2894</name></trkpt>
<trkpt lat="53.298491" lon="-1.950078"><ele>310</ele><time>2023-10-27T13:25:15Z</time><name>PT2895</name></trkpt>
<trkpt lat="53.298503" lon="-1.950084"><ele>310</ele><time>2023-10-27T13:25:30Z</time><name>PT2896</name></trkpt>
<trkpt lat="53.298505" lon="-1.950091"><ele>310</ele><time>2023-10-27T13:25:33Z</time><name>PT2897</name></trkpt>
<trkpt lat="53.298508" lon="-1.950073"><ele>310</ele><time>2023-10-27T13:25:50Z</time><name>PT2898</name></trkpt>
<trkpt lat="53.298510" lon="-1.950069"><ele>310</ele><time>2023-10-27T13:25:54Z</time><name>PT2899</name></trkpt>
<trkpt lat="53.298514" lon="-1.950067"><ele>310</ele><time>2023-10-27T13:26:37Z</time><name>PT2900</name></trkpt>
<trkpt lat="53.298511" lon="-1.950067"><ele>310</ele><time>2023-10-27T13:26:40Z</time><name>PT2901</name></trkpt>
<trkpt lat="53.298521" lon="-1.950068"><ele>310</ele><time>2023-10-27T13:27:07Z</time><name>PT2902</name></trkpt>
<trkpt lat="53.298534" lon="-1.950062"><ele>310</ele><time>2023-10-27T13:27:12Z</time><name>PT2903</name></trkpt>
<trkpt lat="53.298535" lon="-1.950067"><ele>312</ele><time>2023-10-27T13:27:44Z</time><name>PT2904</name></trkpt>
<trkpt lat="53.298534" lon="-1.950082"><ele>312</ele><time>2023-10-27T13:27:57Z</time><name>PT2905</name></trkpt>
<trkpt lat="53.298529" lon="-1.950082"><ele>313</ele><time>2023-10-27T13:28:08Z</time><name>PT2906</name></trkpt>
<trkpt lat="53.298530" lon="-1.950081"><ele>312</ele><time>2023-10-27T13:28:11Z</time><name>PT2907</name></trkpt>
<trkpt lat="53.298544" lon="-1.950089"><ele>311</ele><time>2023-10-27T13:28:15Z</time><name>PT2908</name></trkpt>
<trkpt lat="53.298550" lon="-1.950085"><ele>312</ele><time>2023-10-27T13:28:18Z</time><name>PT2909</name></trkpt>
<trkpt lat="53.298578" lon="-1.950069"><ele>311</ele><time>2023-10-27T13:28:23Z</time><name>PT2910</name></trkpt>
<trkpt lat="53.298623" lon="-1.950047"><ele>309</ele><time>2023-10-27T13:28:26Z</time><name>PT2911</name></trkpt>
<trkpt lat="53.298660" lon="-1.950034"><ele>308</ele><time>2023-10-27T13:28:29Z</time><name>PT2912</name></trkpt>
<trkpt lat="53.298700" lon="-1.949999"><ele>305</ele><time>2023-10-27T13:28:33Z</time><name>PT2913</name></trkpt>
<trkpt lat="53.298755" lon="-1.949967"><ele>305</ele><time>2023-10-27T13:28:38Z</time><name>PT2914</name></trkpt>
<trkpt lat="53.298799" lon="-1.949938"><ele>305</ele><time>2023-10-27T13:28:41Z</time><name>PT2915</name></trkpt>
<trkpt lat="53.298843" lon="-1.949918"><ele>306</ele><time>2023-10-27T13:28:44Z</time><name>PT2916</name></trkpt>
<trkpt lat="53.298890" lon="-1.949902"><ele>306</ele><time>2023-10-27T13:28:48Z</time><name>PT2917</name></trkpt>
<trkpt lat="53.298924" lon="-1.949926"><ele>306</ele><time>2023-10-27T13:28:51Z</time><name>PT2918</name></trkpt>
<trkpt lat="53.298952" lon="-1.949961"><ele>306</ele><time>2023-10-27T13:28:54Z</time><name>PT2919</name></trkpt>
<trkpt lat="53.298985" lon="-1.949994"><ele>306</ele><time>2023-10-27T13:28:57Z</time><name>PT2920</name></trkpt>
<trkpt lat="53.299023" lon="-1.950029"><ele>305</ele><time>2023-10-27T13:29:02Z</time><name>PT2921</name></trkpt>
<trkpt lat="53.299065" lon="-1.950050"><ele>305</ele><time>2023-10-27T13:29:05Z</time><name>PT2922</name></trkpt>
<trkpt lat="53.299094" lon="-1.950071"><ele>305</ele><time>2023-10-27T13:29:08Z</time><name>PT2923</name></trkpt>
<trkpt lat="53.299124" lon="-1.950106"><ele>306</ele><time>2023-10-27T13:29:11Z</time><name>PT2924</name></trkpt>
<trkpt lat="53.299147" lon="-1.950142"><ele>307</ele><time>2023-10-27T13:29:14Z</time><name>PT2925</name></trkpt>
<trkpt lat="53.299178" lon="-1.950201"><ele>307</ele><time>2023-10-27T13:29:19Z</time><name>PT2926</name></trkpt>
<trkpt lat="53.299198" lon="-1.950250"><ele>308</ele><time>2023-10-27T13:29:22Z</time><name>PT2927</name></trkpt>
<trkpt lat="53.299220" lon="-1.950320"><ele>309</ele><time>2023-10-27T13:29:25Z</time><name>PT2928</name></trkpt>
<trkpt lat="53.299235" lon="-1.950392"><ele>309</ele><time>2023-10-27T13:29:29Z</time><name>PT2929</name></trkpt>
<trkpt lat="53.299237" lon="-1.950436"><ele>310</ele><time>2023-10-27T13:29:32Z</time><name>PT2930</name></trkpt>
<trkpt lat="53.299236" lon="-1.950469"><ele>311</ele><time>2023-10-27T13:29:37Z</time><name>PT2931</name></trkpt>
<trkpt lat="53.299234" lon="-1.950475"><ele>312</ele><time>2023-10-27T13:29:40Z</time><name>PT2932</name></trkpt>
<trkpt lat="53.299237" lon="-1.950476"><ele>312</ele><time>2023-10-27T13:29:43Z</time><name>PT2933</name></trkpt>
<trkpt lat="53.299241" lon="-1.950451"><ele>312</ele><time>2023-10-27T13:29:57Z</time><name>PT2934</name></trkpt>
<trkpt lat="53.299239" lon="-1.950405"><ele>311</ele><time>2023-10-27T13:30:00Z</time><name>PT2935</name></trkpt>
<trkpt lat="53.299234" lon="-1.950332"><ele>310</ele><time>2023-10-27T13:30:03Z</time><name>PT2936</name></trkpt>
<trkpt lat="53.299228" lon="-1.950251"><ele>310</ele><time>2023-10-27T13:30:07Z</time><name>PT2937</name></trkpt>
<trkpt lat="53.299232" lon="-1.950203"><ele>309</ele><time>2023-10-27T13:30:10Z</time><name>PT2938</name></trkpt>
<trkpt lat="53.299219" lon="-1.950138"><ele>309</ele><time>2023-10-27T13:30:15Z</time><name>PT2939</name></trkpt>
<trkpt lat="53.299213" lon="-1.950089"><ele>308</ele><time>2023-10-27T13:30:18Z</time><name>PT2940</name></trkpt>
<trkpt lat="53.299210" lon="-1.950022"><ele>307</ele><time>2023-10-27T13:30:21Z</time><name>PT2941</name></trkpt>
<trkpt lat="53.299220" lon="-1.949978"><ele>307</ele><time>2023-10-27T13:30:24Z</time><name>PT2942</name></trkpt>
<trkpt lat="53.299254" lon="-1.949941"><ele>306</ele><time>2023-10-27T13:30:28Z</time><name>PT2943</name></trkpt>
<trkpt lat="53.299290" lon="-1.949911"><ele>305</ele><time>2023-10-27T13:30:33Z</time><name>PT2944</name></trkpt>
<trkpt lat="53.299323" lon="-1.949890"><ele>305</ele><time>2023-10-27T13:30:36Z</time><name>PT2945</name></trkpt>
<trkpt lat="53.299362" lon="-1.949852"><ele>304</ele><time>2023-10-27T13:30:39Z</time><name>PT2946</name></trkpt>
<trkpt lat="53.299392" lon="-1.949826"><ele>304</ele><time>2023-10-27T13:30:42Z</time><name>PT2947</name></trkpt>
<trkpt lat="53.299424" lon="-1.949783"><ele>303</ele><time>2023-10-27T13:30:47Z</time><name>PT2948</name></trkpt>
<trkpt lat="53.299449" lon="-1.949735"><ele>303</ele><time>2023-10-27T13:30:50Z</time><name>PT2949</name></trkpt>
<trkpt lat="53.299476" lon="-1.949685"><ele>302</ele><time>2023-10-27T13:30:54Z</time><name>PT2950</name></trkpt>
<trkpt lat="53.299498" lon="-1.949648"><ele>302</ele><time>2023-10-27T13:30:57Z</time><name>PT2951</name></trkpt>
<trkpt lat="53.299522" lon="-1.949608"><ele>302</ele><time>2023-10-27T13:31:02Z</time><name>PT2952</name></trkpt>
<trkpt lat="53.299528" lon="-1.949597"><ele>302</ele><time>2023-10-27T13:31:05Z</time><name>PT2953</name></trkpt>
<trkpt lat="53.299532" lon="-1.949572"><ele>301</ele><time>2023-10-27T13:31:08Z</time><name>PT2954</name></trkpt>
<trkpt lat="53.299526" lon="-1.949598"><ele>302</ele><time>2023-10-27T13:31:13Z</time><name>PT2955</name></trkpt>
<trkpt lat="53.299514" lon="-1.949638"><ele>302</ele><time>2023-10-27T13:31:16Z</time><name>PT2956</name></trkpt>
<trkpt lat="53.299489" lon="-1.949683"><ele>303</ele><time>2023-10-27T13:31:19Z</time><name>PT2957</name></trkpt>
<trkpt lat="53.299470" lon="-1.949709"><ele>303</ele><time>2023-10-27T13:31:22Z</time><name>PT2958</name></trkpt>
<trkpt lat="53.299443" lon="-1.949760"><ele>303</ele><time>2023-10-27T13:31:26Z</time><name>PT2959</name></trkpt>
<trkpt lat="53.299412" lon="-1.949807"><ele>304</ele><time>2023-10-27T13:31:31Z</time><name>PT2960</name></trkpt>
<trkpt lat="53.299384" lon="-1.949830"><ele>305</ele><time>2023-10-27T13:31:34Z</time><name>PT2961</name></trkpt>
<trkpt lat="53.299351" lon="-1.949862"><ele>306</ele><time>2023-10-27T13:31:37Z</time><name>PT2962</name></trkpt>
<trkpt lat="53.299324" lon="-1.949884"><ele>306</ele><time>2023-10-27T13:31:40Z</time><name>PT2963</name></trkpt>
<trkpt lat="53.299297" lon="-1.949899"><ele>307</ele><time>2023-10-27T13:31:43Z</time><name>PT2964</name></trkpt>
<trkpt lat="53.299267" lon="-1.949917"><ele>307</ele><time>2023-10-27T13:31:46Z</time><name>PT2965</name></trkpt>
<trkpt lat="53.299229" lon="-1.949962"><ele>308</ele><time>2023-10-27T13:31:51Z</time><name>PT2966</name></trkpt>
<trkpt lat="53.299215" lon="-1.950016"><ele>309</ele><time>2023-10-27T13:31:54Z</time><name>PT2967</name></trkpt>
<trkpt lat="53.299213" lon="-1.950080"><ele>310</ele><time>2023-10-27T13:31:57Z</time><name>PT2968</name></trkpt>
<trkpt lat="53.299224" lon="-1.950119"><ele>311</ele><time>2023-10-27T13:32:00Z</time><name>PT2969</name></trkpt>
<trkpt lat="53.299251" lon="-1.950158"><ele>311</ele><time>2023-10-27T13:32:04Z</time><name>PT2970</name></trkpt>
<trkpt lat="53.299295" lon="-1.950175"><ele>310</ele><time>2023-10-27T13:32:09Z</time><name>PT2971</name></trkpt>
<trkpt lat="53.299339" lon="-1.950207"><ele>310</ele><time>2023-10-27T13:32:12Z</time><name>PT2972</name></trkpt>
<trkpt lat="53.299366" lon="-1.950238"><ele>310</ele><time>2023-10-27T13:32:15Z</time><name>PT2973</name></trkpt>
<trkpt lat="53.299397" lon="-1.950266"><ele>309</ele><time>2023-10-27T13:32:19Z</time><name>PT2974</name></trkpt>
<trkpt lat="53.299423" lon="-1.950295"><ele>308</ele><time>2023-10-27T13:32:24Z</time><name>PT2975</name></trkpt>
<trkpt lat="53.299438" lon="-1.950304"><ele>309</ele><time>2023-10-27T13:32:27Z</time><name>PT2976</name></trkpt>
<trkpt lat="53.299485" lon="-1.950335"><ele>309</ele><time>2023-10-27T13:32:30Z</time><name>PT2977</name></trkpt>
<trkpt lat="53.299512" lon="-1.950364"><ele>308</ele><time>2023-10-27T13:32:33Z</time><name>PT2978</name></trkpt>
<trkpt lat="53.299528" lon="-1.950390"><ele>307</ele><time>2023-10-27T13:32:38Z</time><name>PT2979</name></trkpt>
<trkpt lat="53.299537" lon="-1.950400"><ele>307</ele><time>2023-10-27T13:32:41Z</time><name>PT2980</name></trkpt>
<trkpt lat="53.299548" lon="-1.950427"><ele>308</ele><time>2023-10-27T13:32:44Z</time><name>PT2981</name></trkpt>
<trkpt lat="53.299564" lon="-1.950474"><ele>307</ele><time>2023-10-27T13:32:47Z</time><name>PT2982</name></trkpt>
<trkpt lat="53.299604" lon="-1.950528"><ele>307</ele><time>2023-10-27T13:32:50Z</time><name>PT2983</name></trkpt>
<trkpt lat="53.299628" lon="-1.950588"><ele>308</ele><time>2023-10-27T13:32:54Z</time><name>PT2984</name></trkpt>
<trkpt lat="53.299655" lon="-1.950625"><ele>308</ele><time>2023-10-27T13:32:57Z</time><name>PT2985</name></trkpt>
<trkpt lat="53.299694" lon="-1.950681"><ele>309</ele><time>2023-10-27T13:33:02Z</time><name>PT2986</name></trkpt>
<trkpt lat="53.299732" lon="-1.950732"><ele>310</ele><time>2023-10-27T13:33:05Z</time><name>PT2987</name></trkpt>
<trkpt lat="53.299761" lon="-1.950771"><ele>311</ele><time>2023-10-27T13:33:08Z</time><name>PT2988</name></trkpt>
<trkpt lat="53.299789" lon="-1.950811"><ele>311</ele><time>2023-10-27T13:33:11Z</time><name>PT2989</name></trkpt>
<trkpt lat="53.299816" lon="-1.950848"><ele>312</ele><time>2023-10-27T13:33:14Z</time><name>PT2990</name></trkpt>
<trkpt lat="53.299854" lon="-1.950887"><ele>312</ele><time>2023-10-27T13:33:19Z</time><name>PT2991</name></trkpt>
<trkpt lat="53.299869" lon="-1.950890"><ele>311</ele><time>2023-10-27T13:33:22Z</time><name>PT2992</name></trkpt>
<trkpt lat="53.299879" lon="-1.950913"><ele>311</ele><time>2023-10-27T13:33:25Z</time><name>PT2993</name></trkpt>
<trkpt lat="53.299918" lon="-1.950948"><ele>311</ele><time>2023-10-27T13:33:29Z</time><name>PT2994</name></trkpt>
<trkpt lat="53.299963" lon="-1.950981"><ele>312</ele><time>2023-10-27T13:33:34Z</time><name>PT2995</name></trkpt>
<trkpt lat="53.300013" lon="-1.951010"><ele>312</ele><time>2023-10-27T13:33:37Z</time><name>PT2996</name></trkpt>
<trkpt lat="53.300053" lon="-1.951044"><ele>312</ele><time>2023-10-27T13:33:42Z</time><name>PT2997</name></trkpt>
<trkpt lat="53.300100" lon="-1.951079"><ele>312</ele><time>2023-10-27T13:33:45Z</time><name>PT2998</name></trkpt>
<trkpt lat="53.300138" lon="-1.951101"><ele>313</ele><time>2023-10-27T13:33:48Z</time><name>PT2999</name></trkpt>
<trkpt lat="53.300187" lon="-1.951136"><ele>313</ele><time>2023-10-27T13:33:52Z</time><name>PT3000</name></trkpt>
<trkpt lat="53.300239" lon="-1.951158"><ele>313</ele><time>2023-10-27T13:33:57Z</time><name>PT3001</name></trkpt>
<trkpt lat="53.300276" lon="-1.951180"><ele>313</ele><time>2023-10-27T13:34:00Z</time><name>PT3002</name></trkpt>
<trkpt lat="53.300324" lon="-1.951210"><ele>312</ele><time>2023-10-27T13:34:03Z</time><name>PT3003</name></trkpt>
<trkpt lat="53.300361" lon="-1.951229"><ele>312</ele><time>2023-10-27T13:34:06Z</time><name>PT3004</name></trkpt>
<trkpt lat="53.300413" lon="-1.951252"><ele>312</ele><time>2023-10-27T13:34:10Z</time><name>PT3005</name></trkpt>
<trkpt lat="53.300451" lon="-1.951270"><ele>312</ele><time>2023-10-27T13:34:13Z</time><name>PT3006</name></trkpt>
<trkpt lat="53.300488" lon="-1.951279"><ele>312</ele><time>2023-10-27T13:34:17Z</time><name>PT3007</name></trkpt>
<trkpt lat="53.300503" lon="-1.951283"><ele>311</ele><time>2023-10-27T13:34:20Z</time><name>PT3008</name></trkpt>
<trkpt lat="53.300525" lon="-1.951295"><ele>312</ele><time>2023-10-27T13:34:23Z</time><name>PT3009</name></trkpt>
<trkpt lat="53.300570" lon="-1.951327"><ele>311</ele><time>2023-10-27T13:34:27Z</time><name>PT3010</name></trkpt>
<trkpt lat="53.300619" lon="-1.951354"><ele>311</ele><time>2023-10-27T13:34:32Z</time><name>PT3011</name></trkpt>
<trkpt lat="53.300653" lon="-1.951373"><ele>310</ele><time>2023-10-27T13:34:35Z</time><name>PT3012</name></trkpt>
<trkpt lat="53.300700" lon="-1.951398"><ele>310</ele><time>2023-10-27T13:34:38Z</time><name>PT3013</name></trkpt>
<trkpt lat="53.300737" lon="-1.951409"><ele>310</ele><time>2023-10-27T13:34:41Z</time><name>PT3014</name></trkpt>
<trkpt lat="53.300786" lon="-1.951440"><ele>310</ele><time>2023-10-27T13:34:45Z</time><name>PT3015</name></trkpt>
<trkpt lat="53.300834" lon="-1.951469"><ele>310</ele><time>2023-10-27T13:34:50Z</time><name>PT3016</name></trkpt>
<trkpt lat="53.300880" lon="-1.951504"><ele>311</ele><time>2023-10-27T13:34:53Z</time><name>PT3017</name></trkpt>
<trkpt lat="53.300924" lon="-1.951538"><ele>311</ele><time>2023-10-27T13:34:58Z</time><name>PT3018</name></trkpt>
<trkpt lat="53.300962" lon="-1.951598"><ele>312</ele><time>2023-10-27T13:35:01Z</time><name>PT3019</name></trkpt>
<trkpt lat="53.300984" lon="-1.951652"><ele>312</ele><time>2023-10-27T13:35:04Z</time><name>PT3020</name></trkpt>
<trkpt lat="53.301005" lon="-1.951697"><ele>313</ele><time>2023-10-27T13:35:07Z</time><name>PT3021</name></trkpt>
<trkpt lat="53.301038" lon="-1.951755"><ele>313</ele><time>2023-10-27T13:35:11Z</time><name>PT3022</name></trkpt>
<trkpt lat="53.301074" lon="-1.951814"><ele>313</ele><time>2023-10-27T13:35:16Z</time><name>PT3023</name></trkpt>
<trkpt lat="53.301098" lon="-1.951862"><ele>313</ele><time>2023-10-27T13:35:19Z</time><name>PT3024</name></trkpt>
<trkpt lat="53.301130" lon="-1.951929"><ele>313</ele><time>2023-10-27T13:35:22Z</time><name>PT3025</name></trkpt>
<trkpt lat="53.301161" lon="-1.951997"><ele>312</ele><time>2023-10-27T13:35:26Z</time><name>PT3026</name></trkpt>
<trkpt lat="53.301186" lon="-1.952051"><ele>312</ele><time>2023-10-27T13:35:29Z</time><name>PT3027</name></trkpt>
<trkpt lat="53.301213" lon="-1.952099"><ele>312</ele><time>2023-10-27T13:35:33Z</time><name>PT3028</name></trkpt>
<trkpt lat="53.301237" lon="-1.952153"><ele>312</ele><time>2023-10-27T13:35:36Z</time><name>PT3029</name></trkpt>
<trkpt lat="53.301266" lon="-1.952217"><ele>312</ele><time>2023-10-27T13:35:39Z</time><name>PT3030</name></trkpt>
<trkpt lat="53.301290" lon="-1.952258"><ele>311</ele><time>2023-10-27T13:35:43Z</time><name>PT3031</name></trkpt>
<trkpt lat="53.301299" lon="-1.952264"><ele>311</ele><time>2023-10-27T13:35:46Z</time><name>PT3032</name></trkpt>
<trkpt lat="53.301309" lon="-1.952272"><ele>311</ele><time>2023-10-27T13:35:49Z</time><name>PT3033</name></trkpt>
<trkpt lat="53.301320" lon="-1.952275"><ele>310</ele><time>2023-10-27T13:35:52Z</time><name>PT3034</name></trkpt>
<trkpt lat="53.301332" lon="-1.952297"><ele>308</ele><time>2023-10-27T13:35:57Z</time><name>PT3035</name></trkpt>
<trkpt lat="53.301357" lon="-1.952318"><ele>308</ele><time>2023-10-27T13:36:00Z</time><name>PT3036</name></trkpt>
<trkpt lat="53.301379" lon="-1.952345"><ele>307</ele><time>2023-10-27T13:36:03Z</time><name>PT3037</name></trkpt>
<trkpt lat="53.301406" lon="-1.952362"><ele>304</ele><time>2023-10-27T13:36:06Z</time><name>PT3038</name></trkpt>
<trkpt lat="53.301429" lon="-1.952374"><ele>302</ele><time>2023-10-27T13:36:09Z</time><name>PT3039</name></trkpt>
<trkpt lat="53.301457" lon="-1.952387"><ele>301</ele><time>2023-10-27T13:36:12Z</time><name>PT3040</name></trkpt>
<trkpt lat="53.301474" lon="-1.952408"><ele>300</ele><time>2023-10-27T13:36:15Z</time><name>PT3041</name></trkpt>
<trkpt lat="53.301509" lon="-1.952442"><ele>302</ele><time>2023-10-27T13:36:20Z</time><name>PT3042</name></trkpt>
<trkpt lat="53.301539" lon="-1.952474"><ele>302</ele><time>2023-10-27T13:36:23Z</time><name>PT3043</name></trkpt>
<trkpt lat="53.301571" lon="-1.952515"><ele>303</ele><time>2023-10-27T13:36:27Z</time><name>PT3044</name></trkpt>
<trkpt lat="53.301598" lon="-1.952547"><ele>304</ele><time>2023-10-27T13:36:30Z</time><name>PT3045</name></trkpt>
<trkpt lat="53.301639" lon="-1.952569"><ele>306</ele><time>2023-10-27T13:36:35Z</time><name>PT3046</name></trkpt>
<trkpt lat="53.301673" lon="-1.952584"><ele>307</ele><time>2023-10-27T13:36:38Z</time><name>PT3047</name></trkpt>
<trkpt lat="53.301708" lon="-1.952601"><ele>307</ele><time>2023-10-27T13:36:41Z</time><name>PT3048</name></trkpt>
<trkpt lat="53.301741" lon="-1.952624"><ele>308</ele><time>2023-10-27T13:36:45Z</time><name>PT3049</name></trkpt>
<trkpt lat="53.301763" lon="-1.952639"><ele>307</ele><time>2023-10-27T13:36:49Z</time><name>PT3050</name></trkpt>
<trkpt lat="53.301782" lon="-1.952661"><ele>306</ele><time>2023-10-27T13:36:52Z</time><name>PT3051</name></trkpt>
<trkpt lat="53.301805" lon="-1.952700"><ele>306</ele><time>2023-10-27T13:36:56Z</time><name>PT3052</name></trkpt>
<trkpt lat="53.301822" lon="-1.952739"><ele>304</ele><time>2023-10-27T13:37:01Z</time><name>PT3053</name></trkpt>
<trkpt lat="53.301852" lon="-1.952750"><ele>304</ele><time>2023-10-27T13:37:04Z</time><name>PT3054</name></trkpt>
<trkpt lat="53.301878" lon="-1.952767"><ele>304</ele><time>2023-10-27T13:37:09Z</time><name>PT3055</name></trkpt>
<trkpt lat="53.301907" lon="-1.952798"><ele>304</ele><time>2023-10-27T13:37:12Z</time><name>PT3056</name></trkpt>
<trkpt lat="53.301912" lon="-1.952823"><ele>302</ele><time>2023-10-27T13:37:15Z</time><name>PT3057</name></trkpt>
<trkpt lat="53.301930" lon="-1.952842"><ele>300</ele><time>2023-10-27T13:37:18Z</time><name>PT3058</name></trkpt>
<trkpt lat="53.301957" lon="-1.952871"><ele>299</ele><time>2023-10-27T13:37:23Z</time><name>PT3059</name></trkpt>
<trkpt lat="53.301979" lon="-1.952885"><ele>298</ele><time>2023-10-27T13:37:26Z</time><name>PT3060</name></trkpt>
<trkpt lat="53.302005" lon="-1.952908"><ele>297</ele><time>2023-10-27T13:37:29Z</time><name>PT3061</name></trkpt>
<trkpt lat="53.302047" lon="-1.952941"><ele>298</ele><time>2023-10-27T13:37:32Z</time><name>PT3062</name></trkpt>
<trkpt lat="53.302081" lon="-1.952952"><ele>299</ele><time>2023-10-27T13:37:35Z</time><name>PT3063</name></trkpt>
<trkpt lat="53.302114" lon="-1.952960"><ele>300</ele><time>2023-10-27T13:37:38Z</time><name>PT3064</name></trkpt>
<trkpt lat="53.302161" lon="-1.952952"><ele>301</ele><time>2023-10-27T13:37:43Z</time><name>PT3065</name></trkpt>
<trkpt lat="53.302202" lon="-1.952950"><ele>302</ele><time>2023-10-27T13:37:46Z</time><name>PT3066</name></trkpt>
<trkpt lat="53.302237" lon="-1.952956"><ele>303</ele><time>2023-10-27T13:37:49Z</time><name>PT3067</name></trkpt>
<trkpt lat="53.302271" lon="-1.952967"><ele>302</ele><time>2023-10-27T13:37:53Z</time><name>PT3068</name></trkpt>
<trkpt lat="53.302302" lon="-1.952984"><ele>303</ele><time>2023-10-27T13:37:56Z</time><name>PT3069</name></trkpt>
<trkpt lat="53.302352" lon="-1.953009"><ele>306</ele><time>2023-10-27T13:38:01Z</time><name>PT3070</name></trkpt>
<trkpt lat="53.302386" lon="-1.953020"><ele>307</ele><time>2023-10-27T13:38:04Z</time><name>PT3071</name></trkpt>
<trkpt lat="53.302416" lon="-1.953025"><ele>308</ele><time>2023-10-27T13:38:07Z</time><name>PT3072</name></trkpt>
<trkpt lat="53.302445" lon="-1.953035"><ele>307</ele><time>2023-10-27T13:38:10Z</time><name>PT3073</name></trkpt>
<trkpt lat="53.302473" lon="-1.953049"><ele>307</ele><time>2023-10-27T13:38:13Z</time><name>PT3074</name></trkpt>
<trkpt lat="53.302507" lon="-1.953076"><ele>309</ele><time>2023-10-27T13:38:16Z</time><name>PT3075</name></trkpt>
<trkpt lat="53.302530" lon="-1.953096"><ele>308</ele><time>2023-10-27T13:38:19Z</time><name>PT3076</name></trkpt>
<trkpt lat="53.302549" lon="-1.953109"><ele>306</ele><time>2023-10-27T13:38:22Z</time><name>PT3077</name></trkpt>
<trkpt lat="53.302572" lon="-1.953134"><ele>306</ele><time>2023-10-27T13:38:25Z</time><name>PT3078</name></trkpt>
<trkpt lat="53.302617" lon="-1.953152"><ele>309</ele><time>2023-10-27T13:38:30Z</time><name>PT3079</name></trkpt>
<trkpt lat="53.302660" lon="-1.953176"><ele>311</ele><time>2023-10-27T13:38:33Z</time><name>PT3080</name></trkpt>
<trkpt lat="53.302695" lon="-1.953193"><ele>311</ele><time>2023-10-27T13:38:36Z</time><name>PT3081</name></trkpt>
<trkpt lat="53.302739" lon="-1.953223"><ele>312</ele><time>2023-10-27T13:38:40Z</time><name>PT3082</name></trkpt>
<trkpt lat="53.302778" lon="-1.953253"><ele>312</ele><time>2023-10-27T13:38:45Z</time><name>PT3083</name></trkpt>
<trkpt lat="53.302809" lon="-1.953283"><ele>313</ele><time>2023-10-27T13:38:48Z</time><name>PT3084</name></trkpt>
<trkpt lat="53.302836" lon="-1.953305"><ele>313</ele><time>2023-10-27T13:38:51Z</time><name>PT3085</name></trkpt>
<trkpt lat="53.302856" lon="-1.953330"><ele>313</ele><time>2023-10-27T13:38:54Z</time><name>PT3086</name></trkpt>
<trkpt lat="53.302894" lon="-1.953341"><ele>314</ele><time>2023-10-27T13:38:57Z</time><name>PT3087</name></trkpt>
<trkpt lat="53.302932" lon="-1.953365"><ele>317</ele><time>2023-10-27T13:39:00Z</time><name>PT3088</name></trkpt>
<trkpt lat="53.302958" lon="-1.953401"><ele>319</ele><time>2023-10-27T13:39:03Z</time><name>PT3089</name></trkpt>
<trkpt lat="53.302986" lon="-1.953458"><ele>323</ele><time>2023-10-27T13:39:08Z</time><name>PT3090</name></trkpt>
<trkpt lat="53.302999" lon="-1.953503"><ele>324</ele><time>2023-10-27T13:39:11Z</time><name>PT3091</name></trkpt>
<trkpt lat="53.303029" lon="-1.953557"><ele>326</ele><time>2023-10-27T13:39:14Z</time><name>PT3092</name></trkpt>
<trkpt lat="53.303061" lon="-1.953592"><ele>326</ele><time>2023-10-27T13:39:17Z</time><name>PT3093</name></trkpt>
<trkpt lat="53.303088" lon="-1.953599"><ele>326</ele><time>2023-10-27T13:39:20Z</time><name>PT3094</name></trkpt>
<trkpt lat="53.303119" lon="-1.953598"><ele>325</ele><time>2023-10-27T13:39:23Z</time><name>PT3095</name></trkpt>
<trkpt lat="53.303146" lon="-1.953603"><ele>324</ele><time>2023-10-27T13:39:26Z</time><name>PT3096</name></trkpt>
<trkpt lat="53.303172" lon="-1.953596"><ele>324</ele><time>2023-10-27T13:39:29Z</time><name>PT3097</name></trkpt>
<trkpt lat="53.303204" lon="-1.953584"><ele>322</ele><time>2023-10-27T13:39:33Z</time><name>PT3098</name></trkpt>
<trkpt lat="53.303234" lon="-1.953574"><ele>323</ele><time>2023-10-27T13:39:36Z</time><name>PT3099</name></trkpt>
<trkpt lat="53.303278" lon="-1.953556"><ele>323</ele><time>2023-10-27T13:39:41Z</time><name>PT3100</name></trkpt>
<trkpt lat="53.303307" lon="-1.953556"><ele>323</ele><time>2023-10-27T13:39:44Z</time><name>PT3101</name></trkpt>
<trkpt lat="53.303342" lon="-1.953555"><ele>324</ele><time>2023-10-27T13:39:47Z</time><name>PT3102</name></trkpt>
<trkpt lat="53.303338" lon="-1.953562"><ele>324</ele><time>2023-10-27T13:39:50Z</time><name>PT3103</name></trkpt>
<trkpt lat="53.303319" lon="-1.953547"><ele>324</ele><time>2023-10-27T13:39:53Z</time><name>PT3104</name></trkpt>
<trkpt lat="53.303283" lon="-1.953543"><ele>323</ele><time>2023-10-27T13:39:57Z</time><name>PT3105</name></trkpt>
<trkpt lat="53.303276" lon="-1.953523"><ele>323</ele><time>2023-10-27T13:40:00Z</time><name>PT3106</name></trkpt>
<trkpt lat="53.303275" lon="-1.953528"><ele>323</ele><time>2023-10-27T13:40:05Z</time><name>PT3107</name></trkpt>
<trkpt lat="53.303272" lon="-1.953514"><ele>323</ele><time>2023-10-27T13:40:08Z</time><name>PT3108</name></trkpt>
<trkpt lat="53.303290" lon="-1.953476"><ele>323</ele><time>2023-10-27T13:40:11Z</time><name>PT3109</name></trkpt>
<trkpt lat="53.303322" lon="-1.953457"><ele>323</ele><time>2023-10-27T13:40:15Z</time><name>PT3110</name></trkpt>
<trkpt lat="53.303357" lon="-1.953438"><ele>323</ele><time>2023-10-27T13:40:20Z</time><name>PT3111</name></trkpt>
<trkpt lat="53.303373" lon="-1.953439"><ele>322</ele><time>2023-10-27T13:40:23Z</time><name>PT3112</name></trkpt>
<trkpt lat="53.303394" lon="-1.953423"><ele>322</ele><time>2023-10-27T13:40:26Z</time><name>PT3113</name></trkpt>
<trkpt lat="53.303413" lon="-1.953369"><ele>321</ele><time>2023-10-27T13:40:30Z</time><name>PT3114</name></trkpt>
<trkpt lat="53.303437" lon="-1.953340"><ele>321</ele><time>2023-10-27T13:40:33Z</time><name>PT3115</name></trkpt>
<trkpt lat="53.303450" lon="-1.953314"><ele>321</ele><time>2023-10-27T13:40:37Z</time><name>PT3116</name></trkpt>
<trkpt lat="53.303463" lon="-1.953253"><ele>320</ele><time>2023-10-27T13:40:40Z</time><name>PT3117</name></trkpt>
<trkpt lat="53.303466" lon="-1.953241"><ele>320</ele><time>2023-10-27T13:40:43Z</time><name>PT3118</name></trkpt>
<trkpt lat="53.303481" lon="-1.953236"><ele>320</ele><time>2023-10-27T13:40:47Z</time><name>PT3119</name></trkpt>
<trkpt lat="53.303500" lon="-1.953249"><ele>321</ele><time>2023-10-27T13:40:52Z</time><name>PT3120</name></trkpt>
<trkpt lat="53.303520" lon="-1.953244"><ele>321</ele><time>2023-10-27T13:40:55Z</time><name>PT3121</name></trkpt>
<trkpt lat="53.303549" lon="-1.953223"><ele>320</ele><time>2023-10-27T13:40:58Z</time><name>PT3122</name></trkpt>
<trkpt lat="53.303573" lon="-1.953188"><ele>320</ele><time>2023-10-27T13:41:02Z</time><name>PT3123</name></trkpt>
<trkpt lat="53.303595" lon="-1.953165"><ele>319</ele><time>2023-10-27T13:41:05Z</time><name>PT3124</name></trkpt>
<trkpt lat="53.303600" lon="-1.953158"><ele>319</ele><time>2023-10-27T13:41:10Z</time><name>PT3125</name></trkpt>
<trkpt lat="53.303602" lon="-1.953156"><ele>319</ele><time>2023-10-27T13:41:13Z</time><name>PT3126</name></trkpt>
<trkpt lat="53.303607" lon="-1.953157"><ele>319</ele><time>2023-10-27T13:41:16Z</time><name>PT3127</name></trkpt>
<trkpt lat="53.303613" lon="-1.953162"><ele>320</ele><time>2023-10-27T13:41:21Z</time><name>PT3128</name></trkpt>
<trkpt lat="53.303628" lon="-1.953200"><ele>320</ele><time>2023-10-27T13:41:48Z</time><name>PT3129</name></trkpt>
<trkpt lat="53.303642" lon="-1.953229"><ele>319</ele><time>2023-10-27T13:41:51Z</time><name>PT3130</name></trkpt>
<trkpt lat="53.303668" lon="-1.953276"><ele>319</ele><time>2023-10-27T13:41:55Z</time><name>PT3131</name></trkpt>
<trkpt lat="53.303687" lon="-1.953325"><ele>320</ele><time>2023-10-27T13:42:00Z</time><name>PT3132</name></trkpt>
<trkpt lat="53.303710" lon="-1.953382"><ele>320</ele><time>2023-10-27T13:42:03Z</time><name>PT3133</name></trkpt>
<trkpt lat="53.303728" lon="-1.953417"><ele>321</ele><time>2023-10-27T13:42:06Z</time><name>PT3134</name></trkpt>
<trkpt lat="53.303748" lon="-1.953458"><ele>321</ele><time>2023-10-27T13:42:09Z</time><name>PT3135</name></trkpt>
<trkpt lat="53.303763" lon="-1.953489"><ele>321</ele><time>2023-10-27T13:42:13Z</time><name>PT3136</name></trkpt>
<trkpt lat="53.303792" lon="-1.953540"><ele>323</ele><time>2023-10-27T13:42:16Z</time><name>PT3137</name></trkpt>
<trkpt lat="53.303818" lon="-1.953593"><ele>323</ele><time>2023-10-27T13:42:21Z</time><name>PT3138</name></trkpt>
<trkpt lat="53.303830" lon="-1.953636"><ele>323</ele><time>2023-10-27T13:42:24Z</time><name>PT3139</name></trkpt>
<trkpt lat="53.303847" lon="-1.953683"><ele>323</ele><time>2023-10-27T13:42:27Z</time><name>PT3140</name></trkpt>
<trkpt lat="53.303874" lon="-1.953729"><ele>323</ele><time>2023-10-27T13:42:31Z</time><name>PT3141</name></trkpt>
<trkpt lat="53.303898" lon="-1.953747"><ele>324</ele><time>2023-10-27T13:42:34Z</time><name>PT3142</name></trkpt>
<trkpt lat="53.303933" lon="-1.953785"><ele>324</ele><time>2023-10-27T13:42:39Z</time><name>PT3143</name></trkpt>
<trkpt lat="53.303963" lon="-1.953809"><ele>325</ele><time>2023-10-27T13:42:42Z</time><name>PT3144</name></trkpt>
<trkpt lat="53.304003" lon="-1.953829"><ele>325</ele><time>2023-10-27T13:42:45Z</time><name>PT3145</name></trkpt>
<trkpt lat="53.304043" lon="-1.953840"><ele>326</ele><time>2023-10-27T13:42:49Z</time><name>PT3146</name></trkpt>
<trkpt lat="53.304067" lon="-1.953840"><ele>325</ele><time>2023-10-27T13:42:52Z</time><name>PT3147</name></trkpt>
<trkpt lat="53.304090" lon="-1.953825"><ele>323</ele><time>2023-10-27T13:42:56Z</time><name>PT3148</name></trkpt>
<trkpt lat="53.304137" lon="-1.953806"><ele>324</ele><time>2023-10-27T13:42:59Z</time><name>PT3149</name></trkpt>
<trkpt lat="53.304164" lon="-1.953792"><ele>323</ele><time>2023-10-27T13:43:02Z</time><name>PT3150</name></trkpt>
<trkpt lat="53.304202" lon="-1.953775"><ele>322</ele><time>2023-10-27T13:43:06Z</time><name>PT3151</name></trkpt>
<trkpt lat="53.304236" lon="-1.953768"><ele>323</ele><time>2023-10-27T13:43:09Z</time><name>PT3152</name></trkpt>
<trkpt lat="53.304281" lon="-1.953757"><ele>322</ele><time>2023-10-27T13:43:14Z</time><name>PT3153</name></trkpt>
<trkpt lat="53.304319" lon="-1.953742"><ele>321</ele><time>2023-10-27T13:43:17Z</time><name>PT3154</name></trkpt>
<trkpt lat="53.304377" lon="-1.953731"><ele>321</ele><time>2023-10-27T13:43:20Z</time><name>PT3155</name></trkpt>
<trkpt lat="53.304408" lon="-1.953727"><ele>321</ele><time>2023-10-27T13:43:23Z</time><name>PT3156</name></trkpt>
<trkpt lat="53.304430" lon="-1.953720"><ele>318</ele><time>2023-10-27T13:43:26Z</time><name>PT3157</name></trkpt>
<trkpt lat="53.304466" lon="-1.953709"><ele>317</ele><time>2023-10-27T13:43:31Z</time><name>PT3158</name></trkpt>
<trkpt lat="53.304485" lon="-1.953714"><ele>314</ele><time>2023-10-27T13:43:34Z</time><name>PT3159</name></trkpt>
<trkpt lat="53.304494" lon="-1.953721"><ele>311</ele><time>2023-10-27T13:43:37Z</time><name>PT3160</name></trkpt>
<trkpt lat="53.304513" lon="-1.953710"><ele>310</ele><time>2023-10-27T13:43:40Z</time><name>PT3161</name></trkpt>
<trkpt lat="53.304536" lon="-1.953684"><ele>309</ele><time>2023-10-27T13:43:44Z</time><name>PT3162</name></trkpt>
<trkpt lat="53.304534" lon="-1.953675"><ele>306</ele><time>2023-10-27T13:43:47Z</time><name>PT3163</name></trkpt>
<trkpt lat="53.304585" lon="-1.953672"><ele>308</ele><time>2023-10-27T13:43:52Z</time><name>PT3164</name></trkpt>
<trkpt lat="53.304614" lon="-1.953657"><ele>305</ele><time>2023-10-27T13:43:55Z</time><name>PT3165</name></trkpt>
<trkpt lat="53.304639" lon="-1.953637"><ele>303</ele><time>2023-10-27T13:43:58Z</time><name>PT3166</name></trkpt>
<trkpt lat="53.304680" lon="-1.953611"><ele>300</ele><time>2023-10-27T13:44:03Z</time><name>PT3167</name></trkpt>
<trkpt lat="53.304782" lon="-1.953592"><ele>304</ele><time>2023-10-27T13:44:06Z</time><name>PT3168</name></trkpt>
<trkpt lat="53.304831" lon="-1.953567"><ele>306</ele><time>2023-10-27T13:44:09Z</time><name>PT3169</name></trkpt>
<trkpt lat="53.304917" lon="-1.953547"><ele>310</ele><time>2023-10-27T13:44:13Z</time><name>PT3170</name></trkpt>
<trkpt lat="53.304964" lon="-1.953530"><ele>310</ele><time>2023-10-27T13:44:16Z</time><name>PT3171</name></trkpt>
<trkpt lat="53.305011" lon="-1.953512"><ele>309</ele><time>2023-10-27T13:44:21Z</time><name>PT3172</name></trkpt>
<trkpt lat="53.305043" lon="-1.953481"><ele>307</ele><time>2023-10-27T13:44:24Z</time><name>PT3173</name></trkpt>
<trkpt lat="53.305072" lon="-1.953456"><ele>306</ele><time>2023-10-27T13:44:27Z</time><name>PT3174</name></trkpt>
<trkpt lat="53.305110" lon="-1.953430"><ele>305</ele><time>2023-10-27T13:44:30Z</time><name>PT3175</name></trkpt>
<trkpt lat="53.305164" lon="-1.953415"><ele>306</ele><time>2023-10-27T13:44:34Z</time><name>PT3176</name></trkpt>
<trkpt lat="53.305199" lon="-1.953387"><ele>305</ele><time>2023-10-27T13:44:38Z</time><name>PT3177</name></trkpt>
<trkpt lat="53.305232" lon="-1.953357"><ele>304</ele><time>2023-10-27T13:44:41Z</time><name>PT3178</name></trkpt>
<trkpt lat="53.305263" lon="-1.953361"><ele>301</ele><time>2023-10-27T13:44:44Z</time><name>PT3179</name></trkpt>
<trkpt lat="53.305295" lon="-1.953338"><ele>301</ele><time>2023-10-27T13:44:47Z</time><name>PT3180</name></trkpt>
<trkpt lat="53.305353" lon="-1.953296"><ele>302</ele><time>2023-10-27T13:44:51Z</time><name>PT3181</name></trkpt>
<trkpt lat="53.305396" lon="-1.953253"><ele>302</ele><time>2023-10-27T13:44:54Z</time><name>PT3182</name></trkpt>
<trkpt lat="53.305458" lon="-1.953176"><ele>302</ele><time>2023-10-27T13:44:59Z</time><name>PT3183</name></trkpt>
<trkpt lat="53.305508" lon="-1.953117"><ele>304</ele><time>2023-10-27T13:45:02Z</time><name>PT3184</name></trkpt>
<trkpt lat="53.305563" lon="-1.953071"><ele>306</ele><time>2023-10-27T13:45:05Z</time><name>PT3185</name></trkpt>
<trkpt lat="53.305596" lon="-1.953049"><ele>305</ele><time>2023-10-27T13:45:09Z</time><name>PT3186</name></trkpt>
<trkpt lat="53.305627" lon="-1.953038"><ele>304</ele><time>2023-10-27T13:45:12Z</time><name>PT3187</name></trkpt>
<trkpt lat="53.305655" lon="-1.953022"><ele>303</ele><time>2023-10-27T13:45:16Z</time><name>PT3188</name></trkpt>
<trkpt lat="53.305673" lon="-1.953010"><ele>302</ele><time>2023-10-27T13:45:19Z</time><name>PT3189</name></trkpt>
<trkpt lat="53.305701" lon="-1.952997"><ele>300</ele><time>2023-10-27T13:45:22Z</time><name>PT3190</name></trkpt>
<trkpt lat="53.305735" lon="-1.952978"><ele>298</ele><time>2023-10-27T13:45:26Z</time><name>PT3191</name></trkpt>
<trkpt lat="53.305770" lon="-1.952959"><ele>297</ele><time>2023-10-27T13:45:29Z</time><name>PT3192</name></trkpt>
<trkpt lat="53.305806" lon="-1.952942"><ele>297</ele><time>2023-10-27T13:45:32Z</time><name>PT3193</name></trkpt>
<trkpt lat="53.305852" lon="-1.952922"><ele>295</ele><time>2023-10-27T13:45:37Z</time><name>PT3194</name></trkpt>
<trkpt lat="53.305904" lon="-1.952901"><ele>295</ele><time>2023-10-27T13:45:40Z</time><name>PT3195</name></trkpt>
<trkpt lat="53.305948" lon="-1.952873"><ele>295</ele><time>2023-10-27T13:45:44Z</time><name>PT3196</name></trkpt>
<trkpt lat="53.305984" lon="-1.952850"><ele>294</ele><time>2023-10-27T13:45:47Z</time><name>PT3197</name></trkpt>
<trkpt lat="53.306015" lon="-1.952820"><ele>293</ele><time>2023-10-27T13:45:50Z</time><name>PT3198</name></trkpt>
<trkpt lat="53.306039" lon="-1.952789"><ele>292</ele><time>2023-10-27T13:45:54Z</time><name>PT3199</name></trkpt>
<trkpt lat="53.306062" lon="-1.952753"><ele>291</ele><time>2023-10-27T13:45:57Z</time><name>PT3200</name></trkpt>
<trkpt lat="53.306099" lon="-1.952721"><ele>290</ele><time>2023-10-27T13:46:00Z</time><name>PT3201</name></trkpt>
<trkpt lat="53.306144" lon="-1.952694"><ele>290</ele><time>2023-10-27T13:46:03Z</time><name>PT3202</name></trkpt>
<trkpt lat="53.306186" lon="-1.952666"><ele>288</ele><time>2023-10-27T13:46:06Z</time><name>PT3203</name></trkpt>
<trkpt lat="53.306236" lon="-1.952646"><ele>287</ele><time>2023-10-27T13:46:10Z</time><name>PT3204</name></trkpt>
<trkpt lat="53.306253" lon="-1.952624"><ele>285</ele><time>2023-10-27T13:46:13Z</time><name>PT3205</name></trkpt>
<trkpt lat="53.306291" lon="-1.952623"><ele>284</ele><time>2023-10-27T13:46:18Z</time><name>PT3206</name></trkpt>
<trkpt lat="53.306334" lon="-1.952625"><ele>285</ele><time>2023-10-27T13:46:21Z</time><name>PT3207</name></trkpt>
<trkpt lat="53.306365" lon="-1.952639"><ele>285</ele><time>2023-10-27T13:46:24Z</time><name>PT3208</name></trkpt>
<trkpt lat="53.306420" lon="-1.952661"><ele>286</ele><time>2023-10-27T13:46:28Z</time><name>PT3209</name></trkpt>
<trkpt lat="53.306453" lon="-1.952679"><ele>286</ele><time>2023-10-27T13:46:32Z</time><name>PT3210</name></trkpt>
<trkpt lat="53.306487" lon="-1.952685"><ele>287</ele><time>2023-10-27T13:46:35Z</time><name>PT3211</name></trkpt>
<trkpt lat="53.306551" lon="-1.952701"><ele>290</ele><time>2023-10-27T13:46:38Z</time><name>PT3212</name></trkpt>
<trkpt lat="53.306604" lon="-1.952697"><ele>292</ele><time>2023-10-27T13:46:42Z</time><name>PT3213</name></trkpt>
<trkpt lat="53.306646" lon="-1.952689"><ele>294</ele><time>2023-10-27T13:46:47Z</time><name>PT3214</name></trkpt>
<trkpt lat="53.306680" lon="-1.952681"><ele>295</ele><time>2023-10-27T13:46:50Z</time><name>PT3215</name></trkpt>
<trkpt lat="53.306710" lon="-1.952665"><ele>295</ele><time>2023-10-27T13:46:53Z</time><name>PT3216</name></trkpt>
<trkpt lat="53.306741" lon="-1.952659"><ele>295</ele><time>2023-10-27T13:46:57Z</time><name>PT3217</name></trkpt>
<trkpt lat="53.306764" lon="-1.952650"><ele>294</ele><time>2023-10-27T13:47:00Z</time><name>PT3218</name></trkpt>
<trkpt lat="53.306799" lon="-1.952637"><ele>295</ele><time>2023-10-27T13:47:05Z</time><name>PT3219</name></trkpt>
<trkpt lat="53.306833" lon="-1.952615"><ele>295</ele><time>2023-10-27T13:47:08Z</time><name>PT3220</name></trkpt>
<trkpt lat="53.306868" lon="-1.952604"><ele>295</ele><time>2023-10-27T13:47:13Z</time><name>PT3221</name></trkpt>
<trkpt lat="53.306907" lon="-1.952585"><ele>296</ele><time>2023-10-27T13:47:16Z</time><name>PT3222</name></trkpt>
<trkpt lat="53.306957" lon="-1.952567"><ele>299</ele><time>2023-10-27T13:47:19Z</time><name>PT3223</name></trkpt>
<trkpt lat="53.306991" lon="-1.952545"><ele>299</ele><time>2023-10-27T13:47:22Z</time><name>PT3224</name></trkpt>
<trkpt lat="53.307018" lon="-1.952532"><ele>299</ele><time>2023-10-27T13:47:25Z</time><name>PT3225</name></trkpt>
<trkpt lat="53.307052" lon="-1.952510"><ele>300</ele><time>2023-10-27T13:47:29Z</time><name>PT3226</name></trkpt>
<trkpt lat="53.307097" lon="-1.952500"><ele>299</ele><time>2023-10-27T13:47:34Z</time><name>PT3227</name></trkpt>
<trkpt lat="53.307142" lon="-1.952489"><ele>301</ele><time>2023-10-27T13:47:37Z</time><name>PT3228</name></trkpt>
<trkpt lat="53.307163" lon="-1.952480"><ele>301</ele><time>2023-10-27T13:47:40Z</time><name>PT3229</name></trkpt>
<trkpt lat="53.307187" lon="-1.952471"><ele>300</ele><time>2023-10-27T13:47:44Z</time><name>PT3230</name></trkpt>
<trkpt lat="53.307218" lon="-1.952472"><ele>301</ele><time>2023-10-27T13:47:48Z</time><name>PT3231</name></trkpt>
<trkpt lat="53.307249" lon="-1.952470"><ele>302</ele><time>2023-10-27T13:47:51Z</time><name>PT3232</name></trkpt>
<trkpt lat="53.307277" lon="-1.952465"><ele>305</ele><time>2023-10-27T13:47:54Z</time><name>PT3233</name></trkpt>
<trkpt lat="53.307304" lon="-1.952474"><ele>307</ele><time>2023-10-27T13:47:58Z</time><name>PT3234</name></trkpt>
<trkpt lat="53.307317" lon="-1.952474"><ele>307</ele><time>2023-10-27T13:48:01Z</time><name>PT3235</name></trkpt>
<trkpt lat="53.307350" lon="-1.952469"><ele>306</ele><time>2023-10-27T13:48:06Z</time><name>PT3236</name></trkpt>
<trkpt lat="53.307373" lon="-1.952470"><ele>303</ele><time>2023-10-27T13:48:09Z</time><name>PT3237</name></trkpt>
<trkpt lat="53.307414" lon="-1.952475"><ele>303</ele><time>2023-10-27T13:48:12Z</time><name>PT3238</name></trkpt>
<trkpt lat="53.307447" lon="-1.952474"><ele>304</ele><time>2023-10-27T13:48:15Z</time><name>PT3239</name></trkpt>
<trkpt lat="53.307494" lon="-1.952488"><ele>306</ele><time>2023-10-27T13:48:19Z</time><name>PT3240</name></trkpt>
<trkpt lat="53.307521" lon="-1.952496"><ele>307</ele><time>2023-10-27T13:48:22Z</time><name>PT3241</name></trkpt>
<trkpt lat="53.307552" lon="-1.952503"><ele>308</ele><time>2023-10-27T13:48:26Z</time><name>PT3242</name></trkpt>
<trkpt lat="53.307578" lon="-1.952515"><ele>310</ele><time>2023-10-27T13:48:29Z</time><name>PT3243</name></trkpt>
<trkpt lat="53.307621" lon="-1.952537"><ele>311</ele><time>2023-10-27T13:48:32Z</time><name>PT3244</name></trkpt>
<trkpt lat="53.307651" lon="-1.952554"><ele>311</ele><time>2023-10-27T13:48:35Z</time><name>PT3245</name></trkpt>
<trkpt lat="53.307690" lon="-1.952568"><ele>313</ele><time>2023-10-27T13:48:39Z</time><name>PT3246</name></trkpt>
<trkpt lat="53.307736" lon="-1.952589"><ele>314</ele><time>2023-10-27T13:48:44Z</time><name>PT3247</name></trkpt>
<trkpt lat="53.307767" lon="-1.952619"><ele>314</ele><time>2023-10-27T13:48:47Z</time><name>PT3248</name></trkpt>
<trkpt lat="53.307809" lon="-1.952641"><ele>316</ele><time>2023-10-27T13:48:50Z</time><name>PT3249</name></trkpt>
<trkpt lat="53.307835" lon="-1.952660"><ele>318</ele><time>2023-10-27T13:48:53Z</time><name>PT3250</name></trkpt>
<trkpt lat="53.307886" lon="-1.952677"><ele>320</ele><time>2023-10-27T13:48:56Z</time><name>PT3251</name></trkpt>
<trkpt lat="53.307927" lon="-1.952706"><ele>319</ele><time>2023-10-27T13:49:00Z</time><name>PT3252</name></trkpt>
<trkpt lat="53.307964" lon="-1.952739"><ele>319</ele><time>2023-10-27T13:49:05Z</time><name>PT3253</name></trkpt>
<trkpt lat="53.307998" lon="-1.952766"><ele>320</ele><time>2023-10-27T13:49:08Z</time><name>PT3254</name></trkpt>
<trkpt lat="53.308029" lon="-1.952798"><ele>321</ele><time>2023-10-27T13:49:11Z</time><name>PT3255</name></trkpt>
<trkpt lat="53.308059" lon="-1.952839"><ele>321</ele><time>2023-10-27T13:49:15Z</time><name>PT3256</name></trkpt>
<trkpt lat="53.308084" lon="-1.952877"><ele>321</ele><time>2023-10-27T13:49:18Z</time><name>PT3257</name></trkpt>
<trkpt lat="53.308116" lon="-1.952933"><ele>321</ele><time>2023-10-27T13:49:23Z</time><name>PT3258</name></trkpt>
<trkpt lat="53.308137" lon="-1.952973"><ele>321</ele><time>2023-10-27T13:49:26Z</time><name>PT3259</name></trkpt>
<trkpt lat="53.308163" lon="-1.953041"><ele>323</ele><time>2023-10-27T13:49:29Z</time><name>PT3260</name></trkpt>
<trkpt lat="53.308183" lon="-1.953085"><ele>323</ele><time>2023-10-27T13:49:32Z</time><name>PT3261</name></trkpt>
<trkpt lat="53.308210" lon="-1.953141"><ele>322</ele><time>2023-10-27T13:49:36Z</time><name>PT3262</name></trkpt>
<trkpt lat="53.308233" lon="-1.953189"><ele>323</ele><time>2023-10-27T13:49:41Z</time><name>PT3263</name></trkpt>
<trkpt lat="53.308241" lon="-1.953200"><ele>323</ele><time>2023-10-27T13:49:44Z</time><name>PT3264</name></trkpt>
<trkpt lat="53.308245" lon="-1.953197"><ele>323</ele><time>2023-10-27T13:49:47Z</time><name>PT3265</name></trkpt>
<trkpt lat="53.308250" lon="-1.953210"><ele>324</ele><time>2023-10-27T13:49:50Z</time><name>PT3266</name></trkpt>
<trkpt lat="53.308271" lon="-1.953271"><ele>323</ele><time>2023-10-27T13:49:53Z</time><name>PT3267</name></trkpt>
<trkpt lat="53.308295" lon="-1.953341"><ele>323</ele><time>2023-10-27T13:49:57Z</time><name>PT3268</name></trkpt>
<trkpt lat="53.308313" lon="-1.953399"><ele>324</ele><time>2023-10-27T13:50:00Z</time><name>PT3269</name></trkpt>
<trkpt lat="53.308335" lon="-1.953462"><ele>325</ele><time>2023-10-27T13:50:03Z</time><name>PT3270</name></trkpt>
<trkpt lat="53.308372" lon="-1.953539"><ele>325</ele><time>2023-10-27T13:50:08Z</time><name>PT3271</name></trkpt>
<trkpt lat="53.308389" lon="-1.953597"><ele>326</ele><time>2023-10-27T13:50:11Z</time><name>PT3272</name></trkpt>
<trkpt lat="53.308419" lon="-1.953670"><ele>326</ele><time>2023-10-27T13:50:14Z</time><name>PT3273</name></trkpt>
<trkpt lat="53.308437" lon="-1.953726"><ele>326</ele><time>2023-10-27T13:50:17Z</time><name>PT3274</name></trkpt>
<trkpt lat="53.308467" lon="-1.953795"><ele>327</ele><time>2023-10-27T13:50:21Z</time><name>PT3275</name></trkpt>
<trkpt lat="53.308487" lon="-1.953850"><ele>328</ele><time>2023-10-27T13:50:25Z</time><name>PT3276</name></trkpt>
<trkpt lat="53.308507" lon="-1.953905"><ele>328</ele><time>2023-10-27T13:50:28Z</time><name>PT3277</name></trkpt>
<trkpt lat="53.308517" lon="-1.953938"><ele>327</ele><time>2023-10-27T13:50:32Z</time><name>PT3278</name></trkpt>
<trkpt lat="53.308520" lon="-1.953980"><ele>327</ele><time>2023-10-27T13:50:35Z</time><name>PT3279</name></trkpt>
<trkpt lat="53.308528" lon="-1.954031"><ele>326</ele><time>2023-10-27T13:50:38Z</time><name>PT3280</name></trkpt>
<trkpt lat="53.308542" lon="-1.954098"><ele>327</ele><time>2023-10-27T13:50:42Z</time><name>PT3281</name></trkpt>
<trkpt lat="53.308569" lon="-1.954179"><ele>327</ele><time>2023-10-27T13:50:47Z</time><name>PT3282</name></trkpt>
<trkpt lat="53.308586" lon="-1.954239"><ele>326</ele><time>2023-10-27T13:50:50Z</time><name>PT3283</name></trkpt>
<trkpt lat="53.308609" lon="-1.954285"><ele>327</ele><time>2023-10-27T13:50:53Z</time><name>PT3284</name></trkpt>
<trkpt lat="53.308626" lon="-1.954322"><ele>327</ele><time>2023-10-27T13:50:56Z</time><name>PT3285</name></trkpt>
<trkpt lat="53.308648" lon="-1.954368"><ele>326</ele><time>2023-10-27T13:51:00Z</time><name>PT3286</name></trkpt>
<trkpt lat="53.308668" lon="-1.954405"><ele>326</ele><time>2023-10-27T13:51:04Z</time><name>PT3287</name></trkpt>
<trkpt lat="53.308680" lon="-1.954441"><ele>326</ele><time>2023-10-27T13:51:07Z</time><name>PT3288</name></trkpt>
<trkpt lat="53.308685" lon="-1.954455"><ele>326</ele><time>2023-10-27T13:51:10Z</time><name>PT3289</name></trkpt>
<trkpt lat="53.308695" lon="-1.954443"><ele>326</ele><time>2023-10-27T13:51:20Z</time><name>PT3290</name></trkpt>
<trkpt lat="53.308705" lon="-1.954438"><ele>324</ele><time>2023-10-27T13:51:23Z</time><name>PT3291</name></trkpt>
<trkpt lat="53.308724" lon="-1.954457"><ele>325</ele><time>2023-10-27T13:51:28Z</time><name>PT3292</name></trkpt>
<trkpt lat="53.308727" lon="-1.954460"><ele>325</ele><time>2023-10-27T13:51:31Z</time><name>PT3293</name></trkpt>
<trkpt lat="53.308740" lon="-1.954449"><ele>325</ele><time>2023-10-27T13:51:37Z</time><name>PT3294</name></trkpt>
<trkpt lat="53.308750" lon="-1.954434"><ele>326</ele><time>2023-10-27T13:51:51Z</time><name>PT3295</name></trkpt>
<trkpt lat="53.308776" lon="-1.954404"><ele>326</ele><time>2023-10-27T13:51:54Z</time><name>PT3296</name></trkpt>
<trkpt lat="53.308787" lon="-1.954383"><ele>326</ele><time>2023-10-27T13:51:57Z</time><name>PT3297</name></trkpt>
<trkpt lat="53.308789" lon="-1.954389"><ele>326</ele><time>2023-10-27T13:52:00Z</time><name>PT3298</name></trkpt>
<trkpt lat="53.308789" lon="-1.954388"><ele>326</ele><time>2023-10-27T13:52:03Z</time><name>PT3299</name></trkpt>
<trkpt lat="53.308800" lon="-1.954390"><ele>326</ele><time>2023-10-27T13:52:10Z</time><name>PT3300</name></trkpt>
<trkpt lat="53.308832" lon="-1.954360"><ele>326</ele><time>2023-10-27T13:52:14Z</time><name>PT3301</name></trkpt>
<trkpt lat="53.308867" lon="-1.954334"><ele>325</ele><time>2023-10-27T13:52:17Z</time><name>PT3302</name></trkpt>
<trkpt lat="53.308898" lon="-1.954316"><ele>324</ele><time>2023-10-27T13:52:20Z</time><name>PT3303</name></trkpt>
<trkpt lat="53.308926" lon="-1.954295"><ele>323</ele><time>2023-10-27T13:52:23Z</time><name>PT3304</name></trkpt>
<trkpt lat="53.308952" lon="-1.954286"><ele>323</ele><time>2023-10-27T13:52:26Z</time><name>PT3305</name></trkpt>
<trkpt lat="53.308987" lon="-1.954271"><ele>321</ele><time>2023-10-27T13:52:30Z</time><name>PT3306</name></trkpt>
<trkpt lat="53.309023" lon="-1.954242"><ele>320</ele><time>2023-10-27T13:52:35Z</time><name>PT3307</name></trkpt>
<trkpt lat="53.309055" lon="-1.954221"><ele>320</ele><time>2023-10-27T13:52:38Z</time><name>PT3308</name></trkpt>
<trkpt lat="53.309085" lon="-1.954213"><ele>320</ele><time>2023-10-27T13:52:41Z</time><name>PT3309</name></trkpt>
<trkpt lat="53.309132" lon="-1.954207"><ele>319</ele><time>2023-10-27T13:52:44Z</time><name>PT3310</name></trkpt>
<trkpt lat="53.309167" lon="-1.954212"><ele>319</ele><time>2023-10-27T13:52:47Z</time><name>PT3311</name></trkpt>
<trkpt lat="53.309199" lon="-1.954212"><ele>318</ele><time>2023-10-27T13:52:50Z</time><name>PT3312</name></trkpt>
<trkpt lat="53.309228" lon="-1.954219"><ele>317</ele><time>2023-10-27T13:52:53Z</time><name>PT3313</name></trkpt>
<trkpt lat="53.309267" lon="-1.954233"><ele>316</ele><time>2023-10-27T13:52:58Z</time><name>PT3314</name></trkpt>
<trkpt lat="53.309296" lon="-1.954238"><ele>314</ele><time>2023-10-27T13:53:01Z</time><name>PT3315</name></trkpt>
<trkpt lat="53.309336" lon="-1.954262"><ele>313</ele><time>2023-10-27T13:53:04Z</time><name>PT3316</name></trkpt>
<trkpt lat="53.309366" lon="-1.954278"><ele>313</ele><time>2023-10-27T13:53:07Z</time><name>PT3317</name></trkpt>
<trkpt lat="53.309407" lon="-1.954302"><ele>312</ele><time>2023-10-27T13:53:11Z</time><name>PT3318</name></trkpt>
<trkpt lat="53.309436" lon="-1.954319"><ele>311</ele><time>2023-10-27T13:53:14Z</time><name>PT3319</name></trkpt>
<trkpt lat="53.309469" lon="-1.954337"><ele>311</ele><time>2023-10-27T13:53:17Z</time><name>PT3320</name></trkpt>
<trkpt lat="53.309499" lon="-1.954354"><ele>311</ele><time>2023-10-27T13:53:20Z</time><name>PT3321</name></trkpt>
<trkpt lat="53.309533" lon="-1.954383"><ele>309</ele><time>2023-10-27T13:53:24Z</time><name>PT3322</name></trkpt>
<trkpt lat="53.309574" lon="-1.954411"><ele>308</ele><time>2023-10-27T13:53:28Z</time><name>PT3323</name></trkpt>
<trkpt lat="53.309604" lon="-1.954432"><ele>307</ele><time>2023-10-27T13:53:31Z</time><name>PT3324</name></trkpt>
<trkpt lat="53.309662" lon="-1.954450"><ele>309</ele><time>2023-10-27T13:53:36Z</time><name>PT3325</name></trkpt>
<trkpt lat="53.309696" lon="-1.954463"><ele>309</ele><time>2023-10-27T13:53:39Z</time><name>PT3326</name></trkpt>
<trkpt lat="53.309740" lon="-1.954486"><ele>308</ele><time>2023-10-27T13:53:42Z</time><name>PT3327</name></trkpt>
<trkpt lat="53.309775" lon="-1.954499"><ele>308</ele><time>2023-10-27T13:53:45Z</time><name>PT3328</name></trkpt>
<trkpt lat="53.309816" lon="-1.954517"><ele>307</ele><time>2023-10-27T13:53:49Z</time><name>PT3329</name></trkpt>
<trkpt lat="53.309842" lon="-1.954531"><ele>306</ele><time>2023-10-27T13:53:52Z</time><name>PT3330</name></trkpt>
<trkpt lat="53.309885" lon="-1.954553"><ele>305</ele><time>2023-10-27T13:53:56Z</time><name>PT3331</name></trkpt>
<trkpt lat="53.309911" lon="-1.954572"><ele>304</ele><time>2023-10-27T13:54:00Z</time><name>PT3332</name></trkpt>
<trkpt lat="53.309945" lon="-1.954598"><ele>304</ele><time>2023-10-27T13:54:03Z</time><name>PT3333</name></trkpt>
<trkpt lat="53.309969" lon="-1.954614"><ele>302</ele><time>2023-10-27T13:54:06Z</time><name>PT3334</name></trkpt>
<trkpt lat="53.310003" lon="-1.954635"><ele>301</ele><time>2023-10-27T13:54:11Z</time><name>PT3335</name></trkpt>
<trkpt lat="53.310041" lon="-1.954663"><ele>300</ele><time>2023-10-27T13:54:14Z</time><name>PT3336</name></trkpt>
<trkpt lat="53.310074" lon="-1.954674"><ele>300</ele><time>2023-10-27T13:54:17Z</time><name>PT3337</name></trkpt>
<trkpt lat="53.310097" lon="-1.954708"><ele>297</ele><time>2023-10-27T13:54:21Z</time><name>PT3338</name></trkpt>
<trkpt lat="53.310131" lon="-1.954731"><ele>296</ele><time>2023-10-27T13:54:26Z</time><name>PT3339</name></trkpt>
<trkpt lat="53.310166" lon="-1.954754"><ele>295</ele><time>2023-10-27T13:54:29Z</time><name>PT3340</name></trkpt>
<trkpt lat="53.310198" lon="-1.954781"><ele>294</ele><time>2023-10-27T13:54:33Z</time><name>PT3341</name></trkpt>
<trkpt lat="53.310236" lon="-1.954800"><ele>293</ele><time>2023-10-27T13:54:38Z</time><name>PT3342</name></trkpt>
<trkpt lat="53.310267" lon="-1.954823"><ele>291</ele><time>2023-10-27T13:54:41Z</time><name>PT3343</name></trkpt>
<trkpt lat="53.310301" lon="-1.954840"><ele>290</ele><time>2023-10-27T13:54:45Z</time><name>PT3344</name></trkpt>
<trkpt lat="53.310326" lon="-1.954851"><ele>289</ele><time>2023-10-27T13:54:48Z</time><name>PT3345</name></trkpt>
<trkpt lat="53.310366" lon="-1.954866"><ele>288</ele><time>2023-10-27T13:54:53Z</time><name>PT3346</name></trkpt>
<trkpt lat="53.310394" lon="-1.954887"><ele>287</ele><time>2023-10-27T13:54:56Z</time><name>PT3347</name></trkpt>
<trkpt lat="53.310435" lon="-1.954909"><ele>286</ele><time>2023-10-27T13:54:59Z</time><name>PT3348</name></trkpt>
<trkpt lat="53.310471" lon="-1.954922"><ele>286</ele><time>2023-10-27T13:55:02Z</time><name>PT3349</name></trkpt>
<trkpt lat="53.310511" lon="-1.954946"><ele>285</ele><time>2023-10-27T13:55:06Z</time><name>PT3350</name></trkpt>
<trkpt lat="53.310542" lon="-1.954961"><ele>284</ele><time>2023-10-27T13:55:09Z</time><name>PT3351</name></trkpt>
<trkpt lat="53.310572" lon="-1.954979"><ele>283</ele><time>2023-10-27T13:55:13Z</time><name>PT3352</name></trkpt>
<trkpt lat="53.310602" lon="-1.955005"><ele>283</ele><time>2023-10-27T13:55:16Z</time><name>PT3353</name></trkpt>
<trkpt lat="53.310650" lon="-1.955032"><ele>283</ele><time>2023-10-27T13:55:19Z</time><name>PT3354</name></trkpt>
<trkpt lat="53.310677" lon="-1.955059"><ele>282</ele><time>2023-10-27T13:55:22Z</time><name>PT3355</name></trkpt>
<trkpt lat="53.310707" lon="-1.955086"><ele>282</ele><time>2023-10-27T13:55:25Z</time><name>PT3356</name></trkpt>
<trkpt lat="53.310735" lon="-1.955114"><ele>281</ele><time>2023-10-27T13:55:28Z</time><name>PT3357</name></trkpt>
<trkpt lat="53.310770" lon="-1.955148"><ele>280</ele><time>2023-10-27T13:55:33Z</time><name>PT3358</name></trkpt>
<trkpt lat="53.310807" lon="-1.955179"><ele>280</ele><time>2023-10-27T13:55:36Z</time><name>PT3359</name></trkpt>
<trkpt lat="53.310854" lon="-1.955200"><ele>280</ele><time>2023-10-27T13:55:40Z</time><name>PT3360</name></trkpt>
<trkpt lat="53.310898" lon="-1.955211"><ele>279</ele><time>2023-10-27T13:55:44Z</time><name>PT3361</name></trkpt>
<trkpt lat="53.310938" lon="-1.955225"><ele>279</ele><time>2023-10-27T13:55:48Z</time><name>PT3362</name></trkpt>
<trkpt lat="53.310983" lon="-1.955218"><ele>279</ele><time>2023-10-27T13:55:51Z</time><name>PT3363</name></trkpt>
<trkpt lat="53.311012" lon="-1.955220"><ele>278</ele><time>2023-10-27T13:55:54Z</time><name>PT3364</name></trkpt>
<trkpt lat="53.311056" lon="-1.955239"><ele>278</ele><time>2023-10-27T13:55:58Z</time><name>PT3365</name></trkpt>
<trkpt lat="53.311090" lon="-1.955249"><ele>277</ele><time>2023-10-27T13:56:02Z</time><name>PT3366</name></trkpt>
<trkpt lat="53.311134" lon="-1.955257"><ele>276</ele><time>2023-10-27T13:56:05Z</time><name>PT3367</name></trkpt>
<trkpt lat="53.311176" lon="-1.955251"><ele>275</ele><time>2023-10-27T13:56:09Z</time><name>PT3368</name></trkpt>
<trkpt lat="53.311214" lon="-1.955253"><ele>273</ele><time>2023-10-27T13:56:14Z</time><name>PT3369</name></trkpt>
<trkpt lat="53.311263" lon="-1.955247"><ele>272</ele><time>2023-10-27T13:56:17Z</time><name>PT3370</name></trkpt>
<trkpt lat="53.311292" lon="-1.955258"><ele>271</ele><time>2023-10-27T13:56:20Z</time><name>PT3371</name></trkpt>
<trkpt lat="53.311326" lon="-1.955264"><ele>271</ele><time>2023-10-27T13:56:23Z</time><name>PT3372</name></trkpt>
<trkpt lat="53.311363" lon="-1.955276"><ele>269</ele><time>2023-10-27T13:56:26Z</time><name>PT3373</name></trkpt>
<trkpt lat="53.311399" lon="-1.955295"><ele>269</ele><time>2023-10-27T13:56:29Z</time><name>PT3374</name></trkpt>
<trkpt lat="53.311434" lon="-1.955307"><ele>270</ele><time>2023-10-27T13:56:32Z</time><name>PT3375</name></trkpt>
<trkpt lat="53.311477" lon="-1.955327"><ele>269</ele><time>2023-10-27T13:56:36Z</time><name>PT3376</name></trkpt>
<trkpt lat="53.311515" lon="-1.955354"><ele>269</ele><time>2023-10-27T13:56:40Z</time><name>PT3377</name></trkpt>
<trkpt lat="53.311538" lon="-1.955384"><ele>268</ele><time>2023-10-27T13:56:44Z</time><name>PT3378</name></trkpt>
<trkpt lat="53.311573" lon="-1.955426"><ele>268</ele><time>2023-10-27T13:56:47Z</time><name>PT3379</name></trkpt>
<trkpt lat="53.311600" lon="-1.955456"><ele>268</ele><time>2023-10-27T13:56:50Z</time><name>PT3380</name></trkpt>
<trkpt lat="53.311624" lon="-1.955495"><ele>267</ele><time>2023-10-27T13:56:53Z</time><name>PT3381</name></trkpt>
<trkpt lat="53.311647" lon="-1.955529"><ele>266</ele><time>2023-10-27T13:56:56Z</time><name>PT3382</name></trkpt>
<trkpt lat="53.311665" lon="-1.955546"><ele>266</ele><time>2023-10-27T13:57:00Z</time><name>PT3383</name></trkpt>
<trkpt lat="53.311667" lon="-1.955548"><ele>266</ele><time>2023-10-27T13:57:04Z</time><name>PT3384</name></trkpt>
<trkpt lat="53.311685" lon="-1.955549"><ele>265</ele><time>2023-10-27T13:57:07Z</time><name>PT3385</name></trkpt>
<trkpt lat="53.311693" lon="-1.955546"><ele>265</ele><time>2023-10-27T13:57:10Z</time><name>PT3386</name></trkpt>
<trkpt lat="53.311713" lon="-1.955586"><ele>266</ele><time>2023-10-27T13:57:20Z</time><name>PT3387</name></trkpt>
<trkpt lat="53.311728" lon="-1.955617"><ele>265</ele><time>2023-10-27T13:57:23Z</time><name>PT3388</name></trkpt>
<trkpt lat="53.311752" lon="-1.955668"><ele>266</ele><time>2023-10-27T13:57:26Z</time><name>PT3389</name></trkpt>
<trkpt lat="53.311780" lon="-1.955726"><ele>266</ele><time>2023-10-27T13:57:31Z</time><name>PT3390</name></trkpt>
<trkpt lat="53.311823" lon="-1.955775"><ele>267</ele><time>2023-10-27T13:57:34Z</time><name>PT3391</name></trkpt>
<trkpt lat="53.311849" lon="-1.955811"><ele>266</ele><time>2023-10-27T13:57:37Z</time><name>PT3392</name></trkpt>
<trkpt lat="53.311891" lon="-1.955862"><ele>265</ele><time>2023-10-27T13:57:41Z</time><name>PT3393</name></trkpt>
<trkpt lat="53.311917" lon="-1.955903"><ele>264</ele><time>2023-10-27T13:57:44Z</time><name>PT3394</name></trkpt>
<trkpt lat="53.311942" lon="-1.955940"><ele>263</ele><time>2023-10-27T13:57:48Z</time><name>PT3395</name></trkpt>
<trkpt lat="53.311960" lon="-1.955973"><ele>262</ele><time>2023-10-27T13:57:51Z</time><name>PT3396</name></trkpt>
<trkpt lat="53.311989" lon="-1.956018"><ele>260</ele><time>2023-10-27T13:57:54Z</time><name>PT3397</name></trkpt>
<trkpt lat="53.312013" lon="-1.956064"><ele>260</ele><time>2023-10-27T13:57:57Z</time><name>PT3398</name></trkpt>
<trkpt lat="53.312047" lon="-1.956091"><ele>260</ele><time>2023-10-27T13:58:01Z</time><name>PT3399</name></trkpt>
<trkpt lat="53.312080" lon="-1.956143"><ele>257</ele><time>2023-10-27T13:58:04Z</time><name>PT3400</name></trkpt>
<trkpt lat="53.312107" lon="-1.956173"><ele>257</ele><time>2023-10-27T13:58:07Z</time><name>PT3401</name></trkpt>
<trkpt lat="53.312144" lon="-1.956220"><ele>256</ele><time>2023-10-27T13:58:11Z</time><name>PT3402</name></trkpt>
<trkpt lat="53.312182" lon="-1.956278"><ele>255</ele><time>2023-10-27T13:58:15Z</time><name>PT3403</name></trkpt>
<trkpt lat="53.312200" lon="-1.956318"><ele>253</ele><time>2023-10-27T13:58:18Z</time><name>PT3404</name></trkpt>
<trkpt lat="53.312234" lon="-1.956348"><ele>254</ele><time>2023-10-27T13:58:21Z</time><name>PT3405</name></trkpt>
<trkpt lat="53.312259" lon="-1.956395"><ele>253</ele><time>2023-10-27T13:58:25Z</time><name>PT3406</name></trkpt>
<trkpt lat="53.312309" lon="-1.956442"><ele>256</ele><time>2023-10-27T13:58:28Z</time><name>PT3407</name></trkpt>
<trkpt lat="53.312333" lon="-1.956483"><ele>253</ele><time>2023-10-27T13:58:31Z</time><name>PT3408</name></trkpt>
<trkpt lat="53.312355" lon="-1.956500"><ele>253</ele><time>2023-10-27T13:58:35Z</time><name>PT3409</name></trkpt>
<trkpt lat="53.312361" lon="-1.956534"><ele>252</ele><time>2023-10-27T13:58:40Z</time><name>PT3410</name></trkpt>
<trkpt lat="53.312366" lon="-1.956568"><ele>249</ele><time>2023-10-27T13:58:43Z</time><name>PT3411</name></trkpt>
<trkpt lat="53.312403" lon="-1.956609"><ele>250</ele><time>2023-10-27T13:58:46Z</time><name>PT3412</name></trkpt>
<trkpt lat="53.312445" lon="-1.956660"><ele>249</ele><time>2023-10-27T13:58:49Z</time><name>PT3413</name></trkpt>
<trkpt lat="53.312483" lon="-1.956704"><ele>250</ele><time>2023-10-27T13:58:52Z</time><name>PT3414</name></trkpt>
<trkpt lat="53.312527" lon="-1.956759"><ele>251</ele><time>2023-10-27T13:58:56Z</time><name>PT3415</name></trkpt>
<trkpt lat="53.312550" lon="-1.956794"><ele>250</ele><time>2023-10-27T13:58:59Z</time><name>PT3416</name></trkpt>
<trkpt lat="53.312583" lon="-1.956832"><ele>251</ele><time>2023-10-27T13:59:02Z</time><name>PT3417</name></trkpt>
<trkpt lat="53.312613" lon="-1.956872"><ele>251</ele><time>2023-10-27T13:59:06Z</time><name>PT3418</name></trkpt>
<trkpt lat="53.312632" lon="-1.956902"><ele>250</ele><time>2023-10-27T13:59:09Z</time><name>PT3419</name></trkpt>
<trkpt lat="53.312659" lon="-1.956951"><ele>248</ele><time>2023-10-27T13:59:12Z</time><name>PT3420</name></trkpt>
<trkpt lat="53.312706" lon="-1.956988"><ele>249</ele><time>2023-10-27T13:59:15Z</time><name>PT3421</name></trkpt>
<trkpt lat="53.312739" lon="-1.957040"><ele>248</ele><time>2023-10-27T13:59:19Z</time><name>PT3422</name></trkpt>
<trkpt lat="53.312777" lon="-1.957064"><ele>248</ele><time>2023-10-27T13:59:22Z</time><name>PT3423</name></trkpt>
<trkpt lat="53.312813" lon="-1.957113"><ele>248</ele><time>2023-10-27T13:59:27Z</time><name>PT3424</name></trkpt>
<trkpt lat="53.312839" lon="-1.957125"><ele>248</ele><time>2023-10-27T13:59:30Z</time><name>PT3425</name></trkpt>
<trkpt lat="53.312859" lon="-1.957132"><ele>248</ele><time>2023-10-27T13:59:33Z</time><name>PT3426</name></trkpt>
<trkpt lat="53.312874" lon="-1.957125"><ele>248</ele><time>2023-10-27T13:59:36Z</time><name>PT3427</name></trkpt>
<trkpt lat="53.312897" lon="-1.957108"><ele>247</ele><time>2023-10-27T13:59:41Z</time><name>PT3428</name></trkpt>
<trkpt lat="53.312901" lon="-1.957075"><ele>245</ele><time>2023-10-27T13:59:44Z</time><name>PT3429</name></trkpt>
<trkpt lat="53.312929" lon="-1.957035"><ele>247</ele><time>2023-10-27T13:59:47Z</time><name>PT3430</name></trkpt>
<trkpt lat="53.312946" lon="-1.956999"><ele>249</ele><time>2023-10-27T13:59:50Z</time><name>PT3431</name></trkpt>
<trkpt lat="53.312933" lon="-1.956948"><ele>248</ele><time>2023-10-27T13:59:54Z</time><name>PT3432</name></trkpt>
<trkpt lat="53.312928" lon="-1.956903"><ele>248</ele><time>2023-10-27T13:59:58Z</time><name>PT3433</name></trkpt>
<trkpt lat="53.312915" lon="-1.956824"><ele>249</ele><time>2023-10-27T14:00:01Z</time><name>PT3434</name></trkpt>
<trkpt lat="53.312903" lon="-1.956769"><ele>250</ele><time>2023-10-27T14:00:04Z</time><name>PT3435</name></trkpt>
<trkpt lat="53.312894" lon="-1.956724"><ele>249</ele><time>2023-10-27T14:00:07Z</time><name>PT3436</name></trkpt>
<trkpt lat="53.312881" lon="-1.956685"><ele>246</ele><time>2023-10-27T14:00:10Z</time><name>PT3437</name></trkpt>
<trkpt lat="53.312884" lon="-1.956614"><ele>246</ele><time>2023-10-27T14:00:15Z</time><name>PT3438</name></trkpt>
<trkpt lat="53.312899" lon="-1.956553"><ele>246</ele><time>2023-10-27T14:00:18Z</time><name>PT3439</name></trkpt>
<trkpt lat="53.312909" lon="-1.956465"><ele>247</ele><time>2023-10-27T14:00:21Z</time><name>PT3440</name></trkpt>
<trkpt lat="53.312933" lon="-1.956379"><ele>247</ele><time>2023-10-27T14:00:25Z</time><name>PT3441</name></trkpt>
<trkpt lat="53.312949" lon="-1.956326"><ele>246</ele><time>2023-10-27T14:00:28Z</time><name>PT3442</name></trkpt>
<trkpt lat="53.312967" lon="-1.956264"><ele>244</ele><time>2023-10-27T14:00:32Z</time><name>PT3443</name></trkpt>
<trkpt lat="53.312992" lon="-1.956214"><ele>241</ele><time>2023-10-27T14:00:35Z</time><name>PT3444</name></trkpt>
<trkpt lat="53.313016" lon="-1.956161"><ele>241</ele><time>2023-10-27T14:00:38Z</time><name>PT3445</name></trkpt>
<trkpt lat="53.313047" lon="-1.956073"><ele>240</ele><time>2023-10-27T14:00:42Z</time><name>PT3446</name></trkpt>
<trkpt lat="53.313073" lon="-1.956006"><ele>242</ele><time>2023-10-27T14:00:45Z</time><name>PT3447</name></trkpt>
<trkpt lat="53.313113" lon="-1.955940"><ele>241</ele><time>2023-10-27T14:00:50Z</time><name>PT3448</name></trkpt>
<trkpt lat="53.313141" lon="-1.955857"><ele>240</ele><time>2023-10-27T14:00:53Z</time><name>PT3449</name></trkpt>
<trkpt lat="53.313154" lon="-1.955815"><ele>237</ele><time>2023-10-27T14:00:56Z</time><name>PT3450</name></trkpt>
<trkpt lat="53.313165" lon="-1.955766"><ele>236</ele><time>2023-10-27T14:00:59Z</time><name>PT3451</name></trkpt>
<trkpt lat="53.313196" lon="-1.955705"><ele>235</ele><time>2023-10-27T14:01:03Z</time><name>PT3452</name></trkpt>
<trkpt lat="53.313222" lon="-1.955673"><ele>234</ele><time>2023-10-27T14:01:06Z</time><name>PT3453</name></trkpt>
<trkpt lat="53.313231" lon="-1.955630"><ele>234</ele><time>2023-10-27T14:01:10Z</time><name>PT3454</name></trkpt>
<trkpt lat="53.313249" lon="-1.955563"><ele>233</ele><time>2023-10-27T14:01:13Z</time><name>PT3455</name></trkpt>
<trkpt lat="53.313258" lon="-1.955514"><ele>233</ele><time>2023-10-27T14:01:16Z</time><name>PT3456</name></trkpt>
<trkpt lat="53.313285" lon="-1.955456"><ele>235</ele><time>2023-10-27T14:01:19Z</time><name>PT3457</name></trkpt>
<trkpt lat="53.313286" lon="-1.955382"><ele>234</ele><time>2023-10-27T14:01:23Z</time><name>PT3458</name></trkpt>
<trkpt lat="53.313277" lon="-1.955332"><ele>233</ele><time>2023-10-27T14:01:26Z</time><name>PT3459</name></trkpt>
<trkpt lat="53.313296" lon="-1.955260"><ele>233</ele><time>2023-10-27T14:01:30Z</time><name>PT3460</name></trkpt>
<trkpt lat="53.313307" lon="-1.955193"><ele>232</ele><time>2023-10-27T14:01:34Z</time><name>PT3461</name></trkpt>
<trkpt lat="53.313315" lon="-1.955098"><ele>231</ele><time>2023-10-27T14:01:37Z</time><name>PT3462</name></trkpt>
<trkpt lat="53.313323" lon="-1.955033"><ele>231</ele><time>2023-10-27T14:01:40Z</time><name>PT3463</name></trkpt>
<trkpt lat="53.313327" lon="-1.954959"><ele>231</ele><time>2023-10-27T14:01:43Z</time><name>PT3464</name></trkpt>
<trkpt lat="53.313331" lon="-1.954879"><ele>232</ele><time>2023-10-27T14:01:46Z</time><name>PT3465</name></trkpt>
<trkpt lat="53.313347" lon="-1.954758"><ele>233</ele><time>2023-10-27T14:01:51Z</time><name>PT3466</name></trkpt>
<trkpt lat="53.313354" lon="-1.954686"><ele>232</ele><time>2023-10-27T14:01:54Z</time><name>PT3467</name></trkpt>
<trkpt lat="53.313359" lon="-1.954596"><ele>231</ele><time>2023-10-27T14:01:57Z</time><name>PT3468</name></trkpt>
<trkpt lat="53.313360" lon="-1.954497"><ele>230</ele><time>2023-10-27T14:02:01Z</time><name>PT3469</name></trkpt>
<trkpt lat="53.313376" lon="-1.954414"><ele>231</ele><time>2023-10-27T14:02:04Z</time><name>PT3470</name></trkpt>
<trkpt lat="53.313399" lon="-1.954306"><ele>231</ele><time>2023-10-27T14:02:08Z</time><name>PT3471</name></trkpt>
<trkpt lat="53.313413" lon="-1.954220"><ele>233</ele><time>2023-10-27T14:02:12Z</time><name>PT3472</name></trkpt>
<trkpt lat="53.313439" lon="-1.954138"><ele>232</ele><time>2023-10-27T14:02:15Z</time><name>PT3473</name></trkpt>
<trkpt lat="53.313462" lon="-1.954075"><ele>231</ele><time>2023-10-27T14:02:19Z</time><name>PT3474</name></trkpt>
<trkpt lat="53.313482" lon="-1.954023"><ele>230</ele><time>2023-10-27T14:02:23Z</time><name>PT3475</name></trkpt>
<trkpt lat="53.313503" lon="-1.953968"><ele>230</ele><time>2023-10-27T14:02:26Z</time><name>PT3476</name></trkpt>
<trkpt lat="53.313520" lon="-1.953902"><ele>230</ele><time>2023-10-27T14:02:29Z</time><name>PT3477</name></trkpt>
<trkpt lat="53.313537" lon="-1.953853"><ele>229</ele><time>2023-10-27T14:02:32Z</time><name>PT3478</name></trkpt>
<trkpt lat="53.313561" lon="-1.953783"><ele>228</ele><time>2023-10-27T14:02:35Z</time><name>PT3479</name></trkpt>
<trkpt lat="53.313580" lon="-1.953730"><ele>229</ele><time>2023-10-27T14:02:38Z</time><name>PT3480</name></trkpt>
<trkpt lat="53.313607" lon="-1.953666"><ele>228</ele><time>2023-10-27T14:02:42Z</time><name>PT3481</name></trkpt>
<trkpt lat="53.313627" lon="-1.953609"><ele>228</ele><time>2023-10-27T14:02:45Z</time><name>PT3482</name></trkpt>
<trkpt lat="53.313653" lon="-1.953546"><ele>227</ele><time>2023-10-27T14:02:49Z</time><name>PT3483</name></trkpt>
<trkpt lat="53.313675" lon="-1.953503"><ele>228</ele><time>2023-10-27T14:02:52Z</time><name>PT3484</name></trkpt>
<trkpt lat="53.313689" lon="-1.953443"><ele>227</ele><time>2023-10-27T14:02:56Z</time><name>PT3485</name></trkpt>
<trkpt lat="53.313698" lon="-1.953407"><ele>226</ele><time>2023-10-27T14:02:59Z</time><name>PT3486</name></trkpt>
<trkpt lat="53.313724" lon="-1.953358"><ele>224</ele><time>2023-10-27T14:03:03Z</time><name>PT3487</name></trkpt>
<trkpt lat="53.313733" lon="-1.953311"><ele>222</ele><time>2023-10-27T14:03:07Z</time><name>PT3488</name></trkpt>
<trkpt lat="53.313750" lon="-1.953273"><ele>221</ele><time>2023-10-27T14:03:10Z</time><name>PT3489</name></trkpt>
<trkpt lat="53.313813" lon="-1.953214"><ele>222</ele><time>2023-10-27T14:03:13Z</time><name>PT3490</name></trkpt>
<trkpt lat="53.313861" lon="-1.953163"><ele>224</ele><time>2023-10-27T14:03:16Z</time><name>PT3491</name></trkpt>
<trkpt lat="53.313905" lon="-1.953101"><ele>224</ele><time>2023-10-27T14:03:20Z</time><name>PT3492</name></trkpt>
<trkpt lat="53.313933" lon="-1.953062"><ele>224</ele><time>2023-10-27T14:03:23Z</time><name>PT3493</name></trkpt>
<trkpt lat="53.313961" lon="-1.953034"><ele>222</ele><time>2023-10-27T14:03:26Z</time><name>PT3494</name></trkpt>
<trkpt lat="53.313988" lon="-1.952998"><ele>222</ele><time>2023-10-27T14:03:29Z</time><name>PT3495</name></trkpt>
<trkpt lat="53.314026" lon="-1.952964"><ele>222</ele><time>2023-10-27T14:03:32Z</time><name>PT3496</name></trkpt>
<trkpt lat="53.314065" lon="-1.952939"><ele>221</ele><time>2023-10-27T14:03:35Z</time><name>PT3497</name></trkpt>
<trkpt lat="53.314093" lon="-1.952912"><ele>220</ele><time>2023-10-27T14:03:38Z</time><name>PT3498</name></trkpt>
<trkpt lat="53.314120" lon="-1.952884"><ele>220</ele><time>2023-10-27T14:03:41Z</time><name>PT3499</name></trkpt>
<trkpt lat="53.314149" lon="-1.952829"><ele>219</ele><time>2023-10-27T14:03:45Z</time><name>PT3500</name></trkpt>
<trkpt lat="53.314175" lon="-1.952761"><ele>217</ele><time>2023-10-27T14:03:49Z</time><name>PT3501</name></trkpt>
<trkpt lat="53.314193" lon="-1.952718"><ele>216</ele><time>2023-10-27T14:03:52Z</time><name>PT3502</name></trkpt>
<trkpt lat="53.314233" lon="-1.952650"><ele>215</ele><time>2023-10-27T14:03:56Z</time><name>PT3503</name></trkpt>
<trkpt lat="53.314275" lon="-1.952582"><ele>216</ele><time>2023-10-27T14:04:00Z</time><name>PT3504</name></trkpt>
<trkpt lat="53.314316" lon="-1.952541"><ele>217</ele><time>2023-10-27T14:04:04Z</time><name>PT3505</name></trkpt>
<trkpt lat="53.314345" lon="-1.952478"><ele>219</ele><time>2023-10-27T14:04:07Z</time><name>PT3506</name></trkpt>
<trkpt lat="53.314374" lon="-1.952418"><ele>220</ele><time>2023-10-27T14:04:10Z</time><name>PT3507</name></trkpt>
<trkpt lat="53.314409" lon="-1.952332"><ele>222</ele><time>2023-10-27T14:04:13Z</time><name>PT3508</name></trkpt>
<trkpt lat="53.314428" lon="-1.952267"><ele>223</ele><time>2023-10-27T14:04:16Z</time><name>PT3509</name></trkpt>
<trkpt lat="53.314451" lon="-1.952201"><ele>222</ele><time>2023-10-27T14:04:20Z</time><name>PT3510</name></trkpt>
<trkpt lat="53.314466" lon="-1.952169"><ele>221</ele><time>2023-10-27T14:04:23Z</time><name>PT3511</name></trkpt>
<trkpt lat="53.314483" lon="-1.952128"><ele>221</ele><time>2023-10-27T14:04:26Z</time><name>PT3512</name></trkpt>
<trkpt lat="53.314498" lon="-1.952081"><ele>222</ele><time>2023-10-27T14:04:29Z</time><name>PT3513</name></trkpt>
<trkpt lat="53.314514" lon="-1.952011"><ele>220</ele><time>2023-10-27T14:04:33Z</time><name>PT3514</name></trkpt>
<trkpt lat="53.314527" lon="-1.951956"><ele>220</ele><time>2023-10-27T14:04:37Z</time><name>PT3515</name></trkpt>
<trkpt lat="53.314539" lon="-1.951904"><ele>218</ele><time>2023-10-27T14:04:40Z</time><name>PT3516</name></trkpt>
<trkpt lat="53.314550" lon="-1.951860"><ele>216</ele><time>2023-10-27T14:04:43Z</time><name>PT3517</name></trkpt>
<trkpt lat="53.314569" lon="-1.951773"><ele>214</ele><time>2023-10-27T14:04:47Z</time><name>PT3518</name></trkpt>
<trkpt lat="53.314585" lon="-1.951674"><ele>214</ele><time>2023-10-27T14:04:51Z</time><name>PT3519</name></trkpt>
<trkpt lat="53.314607" lon="-1.951601"><ele>214</ele><time>2023-10-27T14:04:55Z</time><name>PT3520</name></trkpt>
<trkpt lat="53.314632" lon="-1.951518"><ele>214</ele><time>2023-10-27T14:04:58Z</time><name>PT3521</name></trkpt>
<trkpt lat="53.314669" lon="-1.951445"><ele>214</ele><time>2023-10-27T14:05:02Z</time><name>PT3522</name></trkpt>
<trkpt lat="53.314705" lon="-1.951351"><ele>215</ele><time>2023-10-27T14:05:06Z</time><name>PT3523</name></trkpt>
<trkpt lat="53.314732" lon="-1.951293"><ele>214</ele><time>2023-10-27T14:05:10Z</time><name>PT3524</name></trkpt>
<trkpt lat="53.314763" lon="-1.951233"><ele>215</ele><time>2023-10-27T14:05:13Z</time><name>PT3525</name></trkpt>
<trkpt lat="53.314791" lon="-1.951188"><ele>216</ele><time>2023-10-27T14:05:16Z</time><name>PT3526</name></trkpt>
<trkpt lat="53.314836" lon="-1.951182"><ele>216</ele><time>2023-10-27T14:05:19Z</time><name>PT3527</name></trkpt>
<trkpt lat="53.314866" lon="-1.951182"><ele>216</ele><time>2023-10-27T14:05:23Z</time><name>PT3528</name></trkpt>
<trkpt lat="53.314912" lon="-1.951163"><ele>216</ele><time>2023-10-27T14:05:27Z</time><name>PT3529</name></trkpt>
<trkpt lat="53.314960" lon="-1.951125"><ele>216</ele><time>2023-10-27T14:05:31Z</time><name>PT3530</name></trkpt>
<trkpt lat="53.314988" lon="-1.951096"><ele>215</ele><time>2023-10-27T14:05:34Z</time><name>PT3531</name></trkpt>
<trkpt lat="53.315009" lon="-1.951058"><ele>213</ele><time>2023-10-27T14:05:37Z</time><name>PT3532</name></trkpt>
<trkpt lat="53.315049" lon="-1.951002"><ele>213</ele><time>2023-10-27T14:05:42Z</time><name>PT3533</name></trkpt>
<trkpt lat="53.315078" lon="-1.950982"><ele>212</ele><time>2023-10-27T14:05:45Z</time><name>PT3534</name></trkpt></trkseg></trk></gpx>